<?xml version='1.0' encoding='UTF-8'?><gpx version="1.1" creator="JPX - https://github.com/jenetics/jpx" xmlns="http://www.topografix.com/GPX/1/1"><trk><trkseg><trkpt lat="42.86190119491146" lon="3.0373925356044644"><ele>3.1666666666666665</ele><time>2026-04-03T08:20:59.008Z</time></trkpt><trkpt lat="42.86193278576035" lon="3.0374992338123805"><ele>3.333333333333333</ele><time>2026-04-03T08:21:02.01Z</time></trkpt><trkpt lat="42.861965691845185" lon="3.0376324594024786"><ele>3.5</ele><time>2026-04-03T08:21:04.011Z</time></trkpt><trkpt lat="42.861987923827925" lon="3.037763058037407"><ele>3.6666666666666665</ele><time>2026-04-03T08:21:06.01Z</time></trkpt><trkpt lat="42.86200756602107" lon="3.0378489502812718"><ele>3.833333333333333</ele><time>2026-04-03T08:21:07.012Z</time></trkpt><trkpt lat="42.86201829125259" lon="3.0379389741989895"><ele>4.0</ele><time>2026-04-03T08:21:08.011Z</time></trkpt><trkpt lat="42.8620006017246" lon="3.0380897336753843"><ele>3.9999999999999996</ele><time>2026-04-03T08:21:10.01Z</time></trkpt><trkpt lat="42.86196037309288" lon="3.0381650465063665"><ele>4.0</ele><time>2026-04-03T08:21:11.011Z</time></trkpt><trkpt lat="42.86194600328967" lon="3.0382570842798073"><ele>4.0</ele><time>2026-04-03T08:21:12.01Z</time></trkpt><trkpt lat="42.86189553867466" lon="3.038323771822226"><ele>4.0</ele><time>2026-04-03T08:21:13.011Z</time></trkpt><trkpt lat="42.86186174542953" lon="3.0384008770798805"><ele>3.9999999999999996</ele><time>2026-04-03T08:21:14.008Z</time></trkpt><trkpt lat="42.86180084727314" lon="3.0385445708880585"><ele>4.0</ele><time>2026-04-03T08:21:16.011Z</time></trkpt><trkpt lat="42.86174941068494" lon="3.0386658880616326"><ele>3.833333333333333</ele><time>2026-04-03T08:21:18.008Z</time></trkpt><trkpt lat="42.86171119966349" lon="3.0387968814943203"><ele>3.6666666666666665</ele><time>2026-04-03T08:21:20.005Z</time></trkpt><trkpt lat="42.86166558560266" lon="3.038863860208161"><ele>3.5</ele><time>2026-04-03T08:21:22.006Z</time></trkpt><trkpt lat="42.8616247808765" lon="3.0389606851611877"><ele>3.333333333333333</ele><time>2026-04-03T08:22:10.012Z</time></trkpt><trkpt lat="42.86158658256494" lon="3.039052842592552"><ele>3.1666666666666665</ele><time>2026-04-03T08:22:12.012Z</time></trkpt><trkpt lat="42.861551900045264" lon="3.0391365178177034"><ele>3.0</ele><time>2026-04-03T08:22:14.011Z</time></trkpt><trkpt lat="42.861522224987844" lon="3.0392541868434124"><ele>2.8</ele><time>2026-04-03T08:22:16.009Z</time></trkpt><trkpt lat="42.86147478034653" lon="3.03936708816304"><ele>2.5999999999999996</ele><time>2026-04-03T08:22:18.012Z</time></trkpt><trkpt lat="42.86141566585779" lon="3.0394630369608673"><ele>2.4000000000000004</ele><time>2026-04-03T08:22:20.011Z</time></trkpt><trkpt lat="42.861371939973736" lon="3.039567576567181"><ele>2.2</ele><time>2026-04-03T08:22:22.008Z</time></trkpt><trkpt lat="42.86129771934032" lon="3.039707555293917"><ele>2.0</ele><time>2026-04-03T08:22:24.009Z</time></trkpt><trkpt lat="42.86125850829967" lon="3.0397972948969207"><ele>1.9999999999999998</ele><time>2026-04-03T08:22:25.006Z</time></trkpt><trkpt lat="42.861221816402676" lon="3.039885957638494"><ele>2.0</ele><time>2026-04-03T08:22:26.01Z</time></trkpt><trkpt lat="42.861188842251806" lon="3.0399785412247806"><ele>2.0</ele><time>2026-04-03T08:22:27.009Z</time></trkpt><trkpt lat="42.86115476213338" lon="3.040064428046584"><ele>2.0</ele><time>2026-04-03T08:22:28.01Z</time></trkpt><trkpt lat="42.86111895588276" lon="3.040149820572976"><ele>1.9999999999999998</ele><time>2026-04-03T08:22:29.008Z</time></trkpt><trkpt lat="42.861060485776754" lon="3.040300592983094"><ele>2.0</ele><time>2026-04-03T08:22:31.01Z</time></trkpt><trkpt lat="42.86102791778942" lon="3.040375748682365"><ele>1.9999999999999998</ele><time>2026-04-03T08:22:32.008Z</time></trkpt><trkpt lat="42.8609957322137" lon="3.04045201218908"><ele>2.0</ele><time>2026-04-03T08:22:33.01Z</time></trkpt><trkpt lat="42.860960558428786" lon="3.040530199155544"><ele>2.0</ele><time>2026-04-03T08:22:34.01Z</time></trkpt><trkpt lat="42.86092960260635" lon="3.0406085953225266"><ele>2.0</ele><time>2026-04-03T08:22:35.008Z</time></trkpt><trkpt lat="42.860871762770756" lon="3.0407572865841948"><ele>1.9999999999999998</ele><time>2026-04-03T08:22:37.01Z</time></trkpt><trkpt lat="42.86083938077441" lon="3.04083859582059"><ele>2.0</ele><time>2026-04-03T08:22:38.009Z</time></trkpt><trkpt lat="42.86078763968796" lon="3.0409708107498576"><ele>2.0</ele><time>2026-04-03T08:22:40.009Z</time></trkpt><trkpt lat="42.86073086481151" lon="3.0410912012970703"><ele>2.0</ele><time>2026-04-03T08:22:42.006Z</time></trkpt><trkpt lat="42.860657603283144" lon="3.041174793645341"><ele>2.0</ele><time>2026-04-03T08:22:44.007Z</time></trkpt><trkpt lat="42.860555969037485" lon="3.041174633708662"><ele>2.0</ele><time>2026-04-03T08:22:46.007Z</time></trkpt><trkpt lat="42.86044048573821" lon="3.0411496085754153"><ele>2.0</ele><time>2026-04-03T08:22:47.989Z</time></trkpt><trkpt lat="42.860365898212905" lon="3.041147149005212"><ele>1.9999999999999998</ele><time>2026-04-03T08:22:48.99Z</time></trkpt><trkpt lat="42.860285612749806" lon="3.041144761640494"><ele>2.0</ele><time>2026-04-03T08:22:49.991Z</time></trkpt><trkpt lat="42.86019349729305" lon="3.0411439969196787"><ele>2.0</ele><time>2026-04-03T08:22:50.991Z</time></trkpt><trkpt lat="42.86010360088209" lon="3.0411406168786814"><ele>2.0</ele><time>2026-04-03T08:22:51.992Z</time></trkpt><trkpt lat="42.86001299027469" lon="3.041143281591368"><ele>1.9999999999999998</ele><time>2026-04-03T08:22:52.993Z</time></trkpt><trkpt lat="42.85992076102154" lon="3.0411398214282848"><ele>2.0</ele><time>2026-04-03T08:22:53.993Z</time></trkpt><trkpt lat="42.85982933154478" lon="3.041140658422637"><ele>2.2</ele><time>2026-04-03T08:22:54.994Z</time></trkpt><trkpt lat="42.85973661231408" lon="3.0411447883499494"><ele>2.4000000000000004</ele><time>2026-04-03T08:22:55.994Z</time></trkpt><trkpt lat="42.8596385334212" lon="3.0411458894258128"><ele>2.5999999999999996</ele><time>2026-04-03T08:22:56.994Z</time></trkpt><trkpt lat="42.8595441995117" lon="3.0411483924920444"><ele>2.8</ele><time>2026-04-03T08:22:57.995Z</time></trkpt><trkpt lat="42.859450250659926" lon="3.0411510927979135"><ele>3.0</ele><time>2026-04-03T08:22:58.995Z</time></trkpt><trkpt lat="42.859352084106256" lon="3.0411429851254086"><ele>3.0</ele><time>2026-04-03T08:22:59.995Z</time></trkpt><trkpt lat="42.85925115305785" lon="3.0411429065620466"><ele>3.0</ele><time>2026-04-03T08:23:00.996Z</time></trkpt><trkpt lat="42.859155675219505" lon="3.0411496670789266"><ele>3.0</ele><time>2026-04-03T08:23:01.996Z</time></trkpt><trkpt lat="42.85907353875301" lon="3.0411552539333067"><ele>3.0</ele><time>2026-04-03T08:23:02.996Z</time></trkpt><trkpt lat="42.8589800019011" lon="3.041140338697166"><ele>3.0</ele><time>2026-04-03T08:23:03.997Z</time></trkpt><trkpt lat="42.85889215339487" lon="3.0411131319239506"><ele>3.0</ele><time>2026-04-03T08:23:04.997Z</time></trkpt><trkpt lat="42.85881648158289" lon="3.0410735734227714"><ele>3.0</ele><time>2026-04-03T08:23:05.997Z</time></trkpt><trkpt lat="42.858731042603225" lon="3.041014909612523"><ele>3.0</ele><time>2026-04-03T08:23:06.997Z</time></trkpt><trkpt lat="42.85866229666864" lon="3.0409550111563863"><ele>3.0</ele><time>2026-04-03T08:23:07.997Z</time></trkpt><trkpt lat="42.85861714280466" lon="3.0408626917234858"><ele>3.0</ele><time>2026-04-03T08:23:08.998Z</time></trkpt><trkpt lat="42.85855879160942" lon="3.040793675566065"><ele>3.0</ele><time>2026-04-03T08:23:09.998Z</time></trkpt><trkpt lat="42.85850622819004" lon="3.040732052377741"><ele>2.8333333333333335</ele><time>2026-04-03T08:23:10.998Z</time></trkpt><trkpt lat="42.85844646851132" lon="3.040698602794533"><ele>2.6666666666666665</ele><time>2026-04-03T08:23:11.998Z</time></trkpt><trkpt lat="42.85837062850064" lon="3.0406587823920894"><ele>2.5</ele><time>2026-04-03T08:23:13.998Z</time></trkpt><trkpt lat="42.85825038280432" lon="3.0406385182213396"><ele>2.333333333333333</ele><time>2026-04-03T08:23:15.999Z</time></trkpt><trkpt lat="42.858173282796805" lon="3.0406383470740503"><ele>2.1666666666666665</ele><time>2026-04-03T08:23:16.999Z</time></trkpt><trkpt lat="42.858094575888714" lon="3.0406438703208933"><ele>2.0</ele><time>2026-04-03T08:23:17.999Z</time></trkpt><trkpt lat="42.85801147306077" lon="3.040642540064643"><ele>2.0</ele><time>2026-04-03T08:23:18.999Z</time></trkpt><trkpt lat="42.85791867173379" lon="3.040639161440295"><ele>2.0</ele><time>2026-04-03T08:23:19.999Z</time></trkpt><trkpt lat="42.857827180135686" lon="3.040635134585053"><ele>2.0</ele><time>2026-04-03T08:23:20.999Z</time></trkpt><trkpt lat="42.8577235708696" lon="3.0406298560196228"><ele>2.0</ele><time>2026-04-03T08:23:21.999Z</time></trkpt><trkpt lat="42.85763041960476" lon="3.040621325754725"><ele>2.0</ele><time>2026-04-03T08:23:22.999Z</time></trkpt><trkpt lat="42.85754739217965" lon="3.0406255333833867"><ele>2.333333333333333</ele><time>2026-04-03T08:23:23.999Z</time></trkpt><trkpt lat="42.857458097943926" lon="3.0406186434804736"><ele>2.6666666666666665</ele><time>2026-04-03T08:23:24.999Z</time></trkpt><trkpt lat="42.85737570948959" lon="3.0406067785996593"><ele>3.0</ele><time>2026-04-03T08:23:25.999Z</time></trkpt><trkpt lat="42.857294753094806" lon="3.0405671953910316"><ele>3.333333333333333</ele><time>2026-04-03T08:23:27Z</time></trkpt><trkpt lat="42.85721976449377" lon="3.0405336799851255"><ele>3.6666666666666665</ele><time>2026-04-03T08:23:28Z</time></trkpt><trkpt lat="42.857146721123875" lon="3.040458399663249"><ele>4.0</ele><time>2026-04-03T08:23:29Z</time></trkpt><trkpt lat="42.857108240584445" lon="3.040361841948958"><ele>4.0</ele><time>2026-04-03T08:23:30Z</time></trkpt><trkpt lat="42.857029784397795" lon="3.0402520719556794"><ele>4.0</ele><time>2026-04-03T08:23:32Z</time></trkpt><trkpt lat="42.85696658296527" lon="3.0401788529328835"><ele>4.0</ele><time>2026-04-03T08:23:35Z</time></trkpt><trkpt lat="42.85691385451758" lon="3.040103623370421"><ele>4.0</ele><time>2026-04-03T08:23:37Z</time></trkpt><trkpt lat="42.85684670055462" lon="3.0400075356292438"><ele>4.0</ele><time>2026-04-03T08:23:39Z</time></trkpt><trkpt lat="42.856760967472056" lon="3.039879579641275"><ele>3.4999999999999996</ele><time>2026-04-03T08:23:41Z</time></trkpt><trkpt lat="42.85670937484785" lon="3.0398020108776977"><ele>3.0</ele><time>2026-04-03T08:23:42Z</time></trkpt><trkpt lat="42.85665342478475" lon="3.0397218708675786"><ele>2.5</ele><time>2026-04-03T08:23:43Z</time></trkpt><trkpt lat="42.856595638605754" lon="3.0396392385478443"><ele>2.0</ele><time>2026-04-03T08:23:44Z</time></trkpt><trkpt lat="42.85654162702767" lon="3.039555325466829"><ele>1.5</ele><time>2026-04-03T08:23:45Z</time></trkpt><trkpt lat="42.856479531697886" lon="3.0394718894127593"><ele>1.0</ele><time>2026-04-03T08:23:46Z</time></trkpt><trkpt lat="42.8564294514849" lon="3.039404036317975"><ele>1.0</ele><time>2026-04-03T08:23:47Z</time></trkpt><trkpt lat="42.85636661301387" lon="3.0393207039793224"><ele>1.0</ele><time>2026-04-03T08:23:49Z</time></trkpt><trkpt lat="42.85634497122418" lon="3.039195673598583"><ele>1.0</ele><time>2026-04-03T08:23:51Z</time></trkpt><trkpt lat="42.856312742396206" lon="3.03904725457757"><ele>1.0</ele><time>2026-04-03T08:23:53Z</time></trkpt><trkpt lat="42.8562143030193" lon="3.038987930908677"><ele>1.0</ele><time>2026-04-03T08:23:55Z</time></trkpt><trkpt lat="42.856148736709905" lon="3.038966434025882"><ele>1.1666666666666665</ele><time>2026-04-03T08:23:56Z</time></trkpt><trkpt lat="42.85608872674823" lon="3.0389291976518606"><ele>1.3333333333333333</ele><time>2026-04-03T08:23:57Z</time></trkpt><trkpt lat="42.85603827781275" lon="3.0388663732953316"><ele>1.5</ele><time>2026-04-03T08:23:58Z</time></trkpt><trkpt lat="42.855989236420506" lon="3.0387733818302016"><ele>1.6666666666666665</ele><time>2026-04-03T08:23:59Z</time></trkpt><trkpt lat="42.855932020528975" lon="3.038693470728808"><ele>1.8333333333333333</ele><time>2026-04-03T08:24:00Z</time></trkpt><trkpt lat="42.855872125245895" lon="3.03861638296795"><ele>2.0</ele><time>2026-04-03T08:24:01Z</time></trkpt><trkpt lat="42.85580882502004" lon="3.038530965820283"><ele>2.0</ele><time>2026-04-03T08:24:02Z</time></trkpt><trkpt lat="42.85574440965231" lon="3.0384428814917803"><ele>2.0</ele><time>2026-04-03T08:24:03Z</time></trkpt><trkpt lat="42.85567762442646" lon="3.038347720146774"><ele>2.0</ele><time>2026-04-03T08:24:04Z</time></trkpt><trkpt lat="42.85560871881229" lon="3.0382579309632356"><ele>2.0</ele><time>2026-04-03T08:24:05Z</time></trkpt><trkpt lat="42.85554564397943" lon="3.0381656116314395"><ele>2.0</ele><time>2026-04-03T08:24:06Z</time></trkpt><trkpt lat="42.85547631362867" lon="3.0380779533596685"><ele>2.0</ele><time>2026-04-03T08:24:07Z</time></trkpt><trkpt lat="42.855404728387214" lon="3.037986505175029"><ele>2.0</ele><time>2026-04-03T08:24:08Z</time></trkpt><trkpt lat="42.85534775639752" lon="3.037906271228277"><ele>2.0</ele><time>2026-04-03T08:24:09Z</time></trkpt><trkpt lat="42.85527620860688" lon="3.037816947770877"><ele>2.0</ele><time>2026-04-03T08:24:10Z</time></trkpt><trkpt lat="42.855203005728896" lon="3.0377198671299923"><ele>2.0</ele><time>2026-04-03T08:24:11Z</time></trkpt><trkpt lat="42.855130299764014" lon="3.037625727350793"><ele>2.0</ele><time>2026-04-03T08:24:12Z</time></trkpt><trkpt lat="42.85506068105596" lon="3.037530608188892"><ele>2.0</ele><time>2026-04-03T08:24:13Z</time></trkpt><trkpt lat="42.854993657848" lon="3.0374316327493793"><ele>2.0</ele><time>2026-04-03T08:24:14Z</time></trkpt><trkpt lat="42.85492723581551" lon="3.0373343024332544"><ele>2.0</ele><time>2026-04-03T08:24:15Z</time></trkpt><trkpt lat="42.854854677806124" lon="3.0372393637164845"><ele>2.0</ele><time>2026-04-03T08:24:16Z</time></trkpt><trkpt lat="42.85479289944946" lon="3.037137952221584"><ele>2.0</ele><time>2026-04-03T08:24:17Z</time></trkpt><trkpt lat="42.85472555943197" lon="3.037041671160851"><ele>2.0</ele><time>2026-04-03T08:24:18Z</time></trkpt><trkpt lat="42.85465746747862" lon="3.0369428251382162"><ele>2.0</ele><time>2026-04-03T08:24:19Z</time></trkpt><trkpt lat="42.854583582894854" lon="3.036843318082699"><ele>2.0</ele><time>2026-04-03T08:24:20Z</time></trkpt><trkpt lat="42.85451898217681" lon="3.0367469721192917"><ele>2.0</ele><time>2026-04-03T08:24:21Z</time></trkpt><trkpt lat="42.85444850578253" lon="3.0366496680079478"><ele>2.0</ele><time>2026-04-03T08:24:22.001Z</time></trkpt><trkpt lat="42.85437797947711" lon="3.0365513112717255"><ele>2.0</ele><time>2026-04-03T08:24:23.001Z</time></trkpt><trkpt lat="42.854311729674365" lon="3.036454710575012"><ele>2.0</ele><time>2026-04-03T08:24:24.001Z</time></trkpt><trkpt lat="42.85423676422385" lon="3.0363567540786662"><ele>2.0</ele><time>2026-04-03T08:24:25.001Z</time></trkpt><trkpt lat="42.85416531956976" lon="3.036259772201128"><ele>2.0</ele><time>2026-04-03T08:24:26.001Z</time></trkpt><trkpt lat="42.8540930059694" lon="3.036163600123812"><ele>2.2</ele><time>2026-04-03T08:24:27.001Z</time></trkpt><trkpt lat="42.854025973562855" lon="3.0360708512020897"><ele>2.4000000000000004</ele><time>2026-04-03T08:24:28.001Z</time></trkpt><trkpt lat="42.85395911478347" lon="3.035984129008662"><ele>2.5999999999999996</ele><time>2026-04-03T08:24:29.001Z</time></trkpt><trkpt lat="42.85390238375182" lon="3.0359074873797836"><ele>2.8</ele><time>2026-04-03T08:24:30.001Z</time></trkpt><trkpt lat="42.85385410219893" lon="3.0358376544468926"><ele>3.0</ele><time>2026-04-03T08:24:31.001Z</time></trkpt><trkpt lat="42.85376937190176" lon="3.0357202223154163"><ele>3.2</ele><time>2026-04-03T08:24:33.001Z</time></trkpt><trkpt lat="42.85370616771003" lon="3.0355950025954925"><ele>3.4</ele><time>2026-04-03T08:24:35.001Z</time></trkpt><trkpt lat="42.85366695242204" lon="3.0354683246873386"><ele>3.6000000000000005</ele><time>2026-04-03T08:24:37.001Z</time></trkpt><trkpt lat="42.85357894675703" lon="3.035442966415386"><ele>3.8000000000000003</ele><time>2026-04-03T08:24:39.001Z</time></trkpt><trkpt lat="42.853509521633065" lon="3.0355632056393262"><ele>4.0</ele><time>2026-04-03T08:24:41.001Z</time></trkpt><trkpt lat="42.85348462903987" lon="3.0356426508141454"><ele>4.0</ele><time>2026-04-03T08:24:42.001Z</time></trkpt><trkpt lat="42.85345817229917" lon="3.0357220438184447"><ele>3.9999999999999996</ele><time>2026-04-03T08:24:43.001Z</time></trkpt><trkpt lat="42.85341758857823" lon="3.0358007580599686"><ele>4.0</ele><time>2026-04-03T08:24:44.001Z</time></trkpt><trkpt lat="42.853369006405686" lon="3.035872746451198"><ele>4.0</ele><time>2026-04-03T08:24:45.001Z</time></trkpt><trkpt lat="42.85331798825172" lon="3.0359388055068424"><ele>3.9999999999999996</ele><time>2026-04-03T08:24:46.001Z</time></trkpt><trkpt lat="42.853267075946" lon="3.0360067173756144"><ele>4.0</ele><time>2026-04-03T08:24:47.001Z</time></trkpt><trkpt lat="42.853206341685265" lon="3.036054895574054"><ele>4.0</ele><time>2026-04-03T08:24:48.001Z</time></trkpt><trkpt lat="42.853142729894124" lon="3.0361432149098473"><ele>3.833333333333333</ele><time>2026-04-03T08:24:50.001Z</time></trkpt><trkpt lat="42.85307583840005" lon="3.0362379275099967"><ele>3.6666666666666665</ele><time>2026-04-03T08:24:52.001Z</time></trkpt><trkpt lat="42.8530192028671" lon="3.0363160488686214"><ele>3.5</ele><time>2026-04-03T08:24:54.001Z</time></trkpt><trkpt lat="42.85295004746215" lon="3.0364156480809563"><ele>3.333333333333333</ele><time>2026-04-03T08:24:56.001Z</time></trkpt><trkpt lat="42.852904178695866" lon="3.03648124208753"><ele>3.1666666666666665</ele><time>2026-04-03T08:24:57.001Z</time></trkpt><trkpt lat="42.852851265270175" lon="3.036544419640094"><ele>3.0</ele><time>2026-04-03T08:24:58.001Z</time></trkpt><trkpt lat="42.85278829318498" lon="3.036603150098675"><ele>3.0</ele><time>2026-04-03T08:24:59.001Z</time></trkpt><trkpt lat="42.85271084747394" lon="3.036648444929188"><ele>3.0</ele><time>2026-04-03T08:25:00Z</time></trkpt><trkpt lat="42.85261929462183" lon="3.0366721131096215"><ele>3.0</ele><time>2026-04-03T08:25:01Z</time></trkpt><trkpt lat="42.85252686141328" lon="3.0366819022245717"><ele>3.0</ele><time>2026-04-03T08:25:02Z</time></trkpt><trkpt lat="42.85242593218349" lon="3.036682648019897"><ele>3.0</ele><time>2026-04-03T08:25:03Z</time></trkpt><trkpt lat="42.85232399001588" lon="3.036678584185119"><ele>3.0</ele><time>2026-04-03T08:25:04Z</time></trkpt><trkpt lat="42.852223669880914" lon="3.036679332609245"><ele>3.0</ele><time>2026-04-03T08:25:05Z</time></trkpt><trkpt lat="42.85212246630282" lon="3.0366822196871377"><ele>3.0</ele><time>2026-04-03T08:25:06Z</time></trkpt><trkpt lat="42.85202549816754" lon="3.0366854342872758"><ele>3.0</ele><time>2026-04-03T08:25:07Z</time></trkpt><trkpt lat="42.851933203203345" lon="3.0366876129239926"><ele>3.0</ele><time>2026-04-03T08:25:08Z</time></trkpt><trkpt lat="42.85184998838233" lon="3.0366840636089125"><ele>3.0</ele><time>2026-04-03T08:25:09Z</time></trkpt><trkpt lat="42.85176976297718" lon="3.0366542659542457"><ele>3.0</ele><time>2026-04-03T08:25:10Z</time></trkpt><trkpt lat="42.85169588288579" lon="3.0366039889693788"><ele>3.0</ele><time>2026-04-03T08:25:11Z</time></trkpt><trkpt lat="42.85163107494515" lon="3.0365366105017406"><ele>3.0</ele><time>2026-04-03T08:25:12Z</time></trkpt><trkpt lat="42.85158035641677" lon="3.036450977975974"><ele>3.0</ele><time>2026-04-03T08:25:13Z</time></trkpt><trkpt lat="42.85154382646648" lon="3.036351926622634"><ele>3.0</ele><time>2026-04-03T08:25:14Z</time></trkpt><trkpt lat="42.85152324175483" lon="3.0362432960524464"><ele>3.1666666666666665</ele><time>2026-04-03T08:25:15Z</time></trkpt><trkpt lat="42.85151965397852" lon="3.0361326068449146"><ele>3.333333333333333</ele><time>2026-04-03T08:25:16Z</time></trkpt><trkpt lat="42.85153381567484" lon="3.0360201878549273"><ele>3.5</ele><time>2026-04-03T08:25:17Z</time></trkpt><trkpt lat="42.85156365016659" lon="3.0359128140905254"><ele>3.6666666666666665</ele><time>2026-04-03T08:25:18Z</time></trkpt><trkpt lat="42.851610792796826" lon="3.0358170180332475"><ele>3.833333333333333</ele><time>2026-04-03T08:25:19Z</time></trkpt><trkpt lat="42.85167177928601" lon="3.0357227379816236"><ele>4.0</ele><time>2026-04-03T08:25:20Z</time></trkpt><trkpt lat="42.85173874924364" lon="3.035626441676347"><ele>4.0</ele><time>2026-04-03T08:25:21Z</time></trkpt><trkpt lat="42.85181424195487" lon="3.0355290741610457"><ele>4.0</ele><time>2026-04-03T08:25:22Z</time></trkpt><trkpt lat="42.851901547215704" lon="3.035433072353795"><ele>4.0</ele><time>2026-04-03T08:25:23Z</time></trkpt><trkpt lat="42.85199741081239" lon="3.0353495932698737"><ele>4.0</ele><time>2026-04-03T08:25:24Z</time></trkpt><trkpt lat="42.852085060986" lon="3.035241902300024"><ele>4.0</ele><time>2026-04-03T08:25:25Z</time></trkpt><trkpt lat="42.85221248502278" lon="3.0351905884657295"><ele>4.0</ele><time>2026-04-03T08:25:26Z</time></trkpt><trkpt lat="42.85232502640878" lon="3.0350997315233044"><ele>4.0</ele><time>2026-04-03T08:25:27Z</time></trkpt><trkpt lat="42.85244571294944" lon="3.0350051632743664"><ele>4.0</ele><time>2026-04-03T08:25:28Z</time></trkpt><trkpt lat="42.852574744261815" lon="3.0349065658626464"><ele>4.0</ele><time>2026-04-03T08:25:29Z</time></trkpt><trkpt lat="42.8527115161474" lon="3.034808007839946"><ele>4.25</ele><time>2026-04-03T08:25:30Z</time></trkpt><trkpt lat="42.852840653801564" lon="3.0347139721355183"><ele>4.5</ele><time>2026-04-03T08:25:31Z</time></trkpt><trkpt lat="42.8529692055971" lon="3.034622110461607"><ele>4.75</ele><time>2026-04-03T08:25:32Z</time></trkpt><trkpt lat="42.853108657835584" lon="3.0345305589576266"><ele>5.0</ele><time>2026-04-03T08:25:33Z</time></trkpt><trkpt lat="42.85324980820966" lon="3.034433168233663"><ele>5.0</ele><time>2026-04-03T08:25:34Z</time></trkpt><trkpt lat="42.85339320024753" lon="3.0343346955141928"><ele>5.0</ele><time>2026-04-03T08:25:35Z</time></trkpt><trkpt lat="42.85354129092702" lon="3.0342348187693764"><ele>5.0</ele><time>2026-04-03T08:25:36Z</time></trkpt><trkpt lat="42.8536849156967" lon="3.034132312366638"><ele>5.333333333333334</ele><time>2026-04-03T08:25:37Z</time></trkpt><trkpt lat="42.85383375770543" lon="3.03403095665434"><ele>5.666666666666667</ele><time>2026-04-03T08:25:38Z</time></trkpt><trkpt lat="42.85397897015563" lon="3.0339281653693004"><ele>6.0</ele><time>2026-04-03T08:25:39Z</time></trkpt><trkpt lat="42.85412698333616" lon="3.033824636552963"><ele>6.0</ele><time>2026-04-03T08:25:40Z</time></trkpt><trkpt lat="42.85427252013229" lon="3.033720802804044"><ele>6.0</ele><time>2026-04-03T08:25:41Z</time></trkpt><trkpt lat="42.85441856092459" lon="3.0336175557849527"><ele>6.0</ele><time>2026-04-03T08:25:42Z</time></trkpt><trkpt lat="42.85456815587402" lon="3.033515004172378"><ele>6.0</ele><time>2026-04-03T08:25:43Z</time></trkpt><trkpt lat="42.85471689266154" lon="3.0334123499285037"><ele>6.0</ele><time>2026-04-03T08:25:44Z</time></trkpt><trkpt lat="42.8548646100643" lon="3.0333097952101142"><ele>6.0</ele><time>2026-04-03T08:25:45Z</time></trkpt><trkpt lat="42.85501441854546" lon="3.033207197927584"><ele>4.0</ele><time>2026-04-03T08:25:46Z</time></trkpt><trkpt lat="42.85516231420163" lon="3.0331044802395404"><ele>2.0</ele><time>2026-04-03T08:25:47Z</time></trkpt><trkpt lat="42.855304708265614" lon="3.033001355093626"><ele>0.0</ele><time>2026-04-03T08:25:48Z</time></trkpt><trkpt lat="42.85545034174243" lon="3.032901898943167"><ele>0.0</ele><time>2026-04-03T08:25:49Z</time></trkpt><trkpt lat="42.855598328152595" lon="3.0328046098919166"><ele>0.0</ele><time>2026-04-03T08:25:50Z</time></trkpt><trkpt lat="42.85574132720402" lon="3.03270200302145"><ele>0.0</ele><time>2026-04-03T08:25:51Z</time></trkpt><trkpt lat="42.855890282747104" lon="3.0325990443495883"><ele>0.0</ele><time>2026-04-03T08:25:52Z</time></trkpt><trkpt lat="42.856037966348985" lon="3.03249765341071"><ele>0.0</ele><time>2026-04-03T08:25:53Z</time></trkpt><trkpt lat="42.85618337587448" lon="3.0323928689004225"><ele>0.0</ele><time>2026-04-03T08:25:54Z</time></trkpt><trkpt lat="42.8563298608045" lon="3.0322879167278796"><ele>1.0</ele><time>2026-04-03T08:25:55Z</time></trkpt><trkpt lat="42.856481951801776" lon="3.03218168228789"><ele>2.0</ele><time>2026-04-03T08:25:56Z</time></trkpt><trkpt lat="42.85663339441869" lon="3.032075456559106"><ele>3.0</ele><time>2026-04-03T08:25:57Z</time></trkpt><trkpt lat="42.85678739518817" lon="3.0319667844730143"><ele>3.0</ele><time>2026-04-03T08:25:58Z</time></trkpt><trkpt lat="42.85694042627397" lon="3.031854308425258"><ele>3.0</ele><time>2026-04-03T08:25:59Z</time></trkpt><trkpt lat="42.85709721956003" lon="3.0317462842920255"><ele>3.0</ele><time>2026-04-03T08:26:00Z</time></trkpt><trkpt lat="42.85725490334143" lon="3.031636381385592"><ele>3.333333333333333</ele><time>2026-04-03T08:26:01Z</time></trkpt><trkpt lat="42.85741359328994" lon="3.031525802909979"><ele>3.6666666666666665</ele><time>2026-04-03T08:26:02Z</time></trkpt><trkpt lat="42.857576014304954" lon="3.031411134529406"><ele>4.0</ele><time>2026-04-03T08:26:03Z</time></trkpt><trkpt lat="42.857738076799286" lon="3.03129573366668"><ele>5.333333333333333</ele><time>2026-04-03T08:26:04Z</time></trkpt><trkpt lat="42.8579059033036" lon="3.031178694319353"><ele>6.666666666666666</ele><time>2026-04-03T08:26:05Z</time></trkpt><trkpt lat="42.858077342331406" lon="3.031061017781361"><ele>8.0</ele><time>2026-04-03T08:26:06Z</time></trkpt><trkpt lat="42.858243247509584" lon="3.0309450539612746"><ele>8.0</ele><time>2026-04-03T08:26:07Z</time></trkpt><trkpt lat="42.85841093120462" lon="3.03082549461202"><ele>8.0</ele><time>2026-04-03T08:26:08Z</time></trkpt><trkpt lat="42.85857703573437" lon="3.030710434630042"><ele>8.0</ele><time>2026-04-03T08:26:09Z</time></trkpt><trkpt lat="42.8587514047642" lon="3.030600431328693"><ele>6.666666666666666</ele><time>2026-04-03T08:26:10Z</time></trkpt><trkpt lat="42.85891910365854" lon="3.0304968616196355"><ele>5.333333333333333</ele><time>2026-04-03T08:26:11Z</time></trkpt><trkpt lat="42.85909396395658" lon="3.030395574716944"><ele>4.0</ele><time>2026-04-03T08:26:12Z</time></trkpt><trkpt lat="42.85927324216615" lon="3.0302934090332885"><ele>4.333333333333333</ele><time>2026-04-03T08:26:13Z</time></trkpt><trkpt lat="42.8594539606622" lon="3.0301990989885383"><ele>4.666666666666667</ele><time>2026-04-03T08:26:14Z</time></trkpt><trkpt lat="42.85963791062071" lon="3.03010828980501"><ele>5.0</ele><time>2026-04-03T08:26:15Z</time></trkpt><trkpt lat="42.859825582532665" lon="3.0300248825118064"><ele>4.666666666666667</ele><time>2026-04-03T08:26:16Z</time></trkpt><trkpt lat="42.86001686812617" lon="3.02994674729865"><ele>4.333333333333333</ele><time>2026-04-03T08:26:17Z</time></trkpt><trkpt lat="42.86020576876633" lon="3.0298708598236592"><ele>4.0</ele><time>2026-04-03T08:26:18Z</time></trkpt><trkpt lat="42.860400794032756" lon="3.0298008650336405"><ele>4.0</ele><time>2026-04-03T08:26:19Z</time></trkpt><trkpt lat="42.8605889831086" lon="3.0297366951595412"><ele>4.0</ele><time>2026-04-03T08:26:20Z</time></trkpt><trkpt lat="42.86079396522587" lon="3.02968676760638"><ele>4.0</ele><time>2026-04-03T08:26:21Z</time></trkpt><trkpt lat="42.86099143453363" lon="3.029640367357963"><ele>3.333333333333333</ele><time>2026-04-03T08:26:22Z</time></trkpt><trkpt lat="42.86118701474299" lon="3.029604535941625"><ele>2.6666666666666665</ele><time>2026-04-03T08:26:23Z</time></trkpt><trkpt lat="42.86138821149161" lon="3.0295808564919295"><ele>2.0</ele><time>2026-04-03T08:26:24Z</time></trkpt><trkpt lat="42.86158872980254" lon="3.029559576126324"><ele>2.0</ele><time>2026-04-03T08:26:25Z</time></trkpt><trkpt lat="42.86178922418427" lon="3.0295466252603527"><ele>2.0</ele><time>2026-04-03T08:26:26Z</time></trkpt><trkpt lat="42.86198996009191" lon="3.0295360075085815"><ele>2.0</ele><time>2026-04-03T08:26:27Z</time></trkpt><trkpt lat="42.86219599175918" lon="3.029534643190322"><ele>2.0</ele><time>2026-04-03T08:26:28Z</time></trkpt><trkpt lat="42.86240167684296" lon="3.029541702081472"><ele>2.0</ele><time>2026-04-03T08:26:29Z</time></trkpt><trkpt lat="42.86260776829577" lon="3.02955424700718"><ele>2.0</ele><time>2026-04-03T08:26:30Z</time></trkpt><trkpt lat="42.862813916182155" lon="3.02957175094135"><ele>2.333333333333333</ele><time>2026-04-03T08:26:31Z</time></trkpt><trkpt lat="42.863017864962316" lon="3.029592602711775"><ele>2.6666666666666665</ele><time>2026-04-03T08:26:32Z</time></trkpt><trkpt lat="42.863222852417486" lon="3.029621947534432"><ele>3.0</ele><time>2026-04-03T08:26:33Z</time></trkpt><trkpt lat="42.86343084910301" lon="3.029655652982363"><ele>3.0</ele><time>2026-04-03T08:26:34Z</time></trkpt><trkpt lat="42.863632366598324" lon="3.029692152537125"><ele>3.0</ele><time>2026-04-03T08:26:35Z</time></trkpt><trkpt lat="42.86383481670232" lon="3.029727771732799"><ele>3.0</ele><time>2026-04-03T08:26:36Z</time></trkpt><trkpt lat="42.86403742426653" lon="3.0297769439995834"><ele>3.0</ele><time>2026-04-03T08:26:37Z</time></trkpt><trkpt lat="42.86424428470453" lon="3.0298280990988196"><ele>3.0</ele><time>2026-04-03T08:26:38Z</time></trkpt><trkpt lat="42.8644459666945" lon="3.0298854314798516"><ele>3.0</ele><time>2026-04-03T08:26:39Z</time></trkpt><trkpt lat="42.864649197730515" lon="3.029949698733613"><ele>2.6666666666666665</ele><time>2026-04-03T08:26:40Z</time></trkpt><trkpt lat="42.86484831395877" lon="3.0300195187770615"><ele>2.333333333333333</ele><time>2026-04-03T08:26:41Z</time></trkpt><trkpt lat="42.865053673516194" lon="3.0300928392283057"><ele>2.0</ele><time>2026-04-03T08:26:42Z</time></trkpt><trkpt lat="42.86524602080957" lon="3.0301755839652675"><ele>1.0</ele><time>2026-04-03T08:26:43Z</time></trkpt><trkpt lat="42.86544251439752" lon="3.0302633913489765"><ele>0.0</ele><time>2026-04-03T08:26:44Z</time></trkpt><trkpt lat="42.86564218565456" lon="3.0303629548809403"><ele>-1.0</ele><time>2026-04-03T08:26:45Z</time></trkpt><trkpt lat="42.865840712413465" lon="3.0304673182664956"><ele>-1.0</ele><time>2026-04-03T08:26:46Z</time></trkpt><trkpt lat="42.866037414498855" lon="3.0305760996248914"><ele>-1.0</ele><time>2026-04-03T08:26:47Z</time></trkpt><trkpt lat="42.86623138493336" lon="3.030688674541101"><ele>-1.0</ele><time>2026-04-03T08:26:48Z</time></trkpt><trkpt lat="42.866428355809916" lon="3.0308085694099036"><ele>-1.0</ele><time>2026-04-03T08:26:49Z</time></trkpt><trkpt lat="42.86661650744121" lon="3.0309381826684256"><ele>-1.0</ele><time>2026-04-03T08:26:50Z</time></trkpt><trkpt lat="42.866807881340144" lon="3.0310744543663444"><ele>-1.0</ele><time>2026-04-03T08:26:51Z</time></trkpt><trkpt lat="42.866992905338755" lon="3.03121366659175"><ele>-1.3333333333333333</ele><time>2026-04-03T08:26:52Z</time></trkpt><trkpt lat="42.86717473868697" lon="3.0313589335284825"><ele>-1.6666666666666665</ele><time>2026-04-03T08:26:53Z</time></trkpt><trkpt lat="42.867348797489576" lon="3.0315073452963075"><ele>-2.0</ele><time>2026-04-03T08:26:54Z</time></trkpt><trkpt lat="42.86751388816208" lon="3.0316572927246814"><ele>-1.6666666666666665</ele><time>2026-04-03T08:26:55Z</time></trkpt><trkpt lat="42.867691497937756" lon="3.031805878123512"><ele>-1.3333333333333333</ele><time>2026-04-03T08:26:56Z</time></trkpt><trkpt lat="42.86786055888027" lon="3.0319616865707832"><ele>-1.0</ele><time>2026-04-03T08:26:57Z</time></trkpt><trkpt lat="42.868029319089416" lon="3.0321147937690665"><ele>-1.0</ele><time>2026-04-03T08:26:58Z</time></trkpt><trkpt lat="42.86820634758944" lon="3.032268567251756"><ele>-1.0</ele><time>2026-04-03T08:26:59Z</time></trkpt><trkpt lat="42.86838116896894" lon="3.0324210625748784"><ele>-1.0</ele><time>2026-04-03T08:27:00Z</time></trkpt><trkpt lat="42.868549278367595" lon="3.032574151075198"><ele>-0.3333333333333333</ele><time>2026-04-03T08:27:01Z</time></trkpt><trkpt lat="42.86871531063499" lon="3.0327066411297054"><ele>0.3333333333333333</ele><time>2026-04-03T08:27:02Z</time></trkpt><trkpt lat="42.868881671398285" lon="3.0328587310127557"><ele>1.0</ele><time>2026-04-03T08:27:03Z</time></trkpt><trkpt lat="42.869049692974954" lon="3.03301363806442"><ele>1.0</ele><time>2026-04-03T08:27:04Z</time></trkpt><trkpt lat="42.86922188567685" lon="3.0331638563619068"><ele>1.0</ele><time>2026-04-03T08:27:05Z</time></trkpt><trkpt lat="42.86938712297072" lon="3.0333103680688467"><ele>1.0</ele><time>2026-04-03T08:27:06Z</time></trkpt><trkpt lat="42.869545999056164" lon="3.0334602344408927"><ele>0.3333333333333333</ele><time>2026-04-03T08:27:07Z</time></trkpt><trkpt lat="42.869709313486084" lon="3.0336089837552356"><ele>-0.3333333333333333</ele><time>2026-04-03T08:27:08Z</time></trkpt><trkpt lat="42.869878843436275" lon="3.0337567025204977"><ele>-1.0</ele><time>2026-04-03T08:27:09Z</time></trkpt><trkpt lat="42.87004770277984" lon="3.0339018396826964"><ele>-0.6666666666666666</ele><time>2026-04-03T08:27:10Z</time></trkpt><trkpt lat="42.87021357319347" lon="3.0340460053709863"><ele>-0.3333333333333333</ele><time>2026-04-03T08:27:11Z</time></trkpt><trkpt lat="42.87037792105897" lon="3.0341908004142404"><ele>0.0</ele><time>2026-04-03T08:27:12Z</time></trkpt><trkpt lat="42.87054321725119" lon="3.034337674394213"><ele>0.0</ele><time>2026-04-03T08:27:13Z</time></trkpt><trkpt lat="42.870709124807966" lon="3.0344807018326"><ele>0.0</ele><time>2026-04-03T08:27:14Z</time></trkpt><trkpt lat="42.87087370546088" lon="3.0346267191678855"><ele>0.0</ele><time>2026-04-03T08:27:15Z</time></trkpt><trkpt lat="42.871036873037596" lon="3.0347698472347724"><ele>0.0</ele><time>2026-04-03T08:27:16Z</time></trkpt><trkpt lat="42.87119902936282" lon="3.034915594330405"><ele>0.0</ele><time>2026-04-03T08:27:17Z</time></trkpt><trkpt lat="42.871361047078025" lon="3.035060546374028"><ele>0.0</ele><time>2026-04-03T08:27:18Z</time></trkpt><trkpt lat="42.87152248449489" lon="3.035203996900185"><ele>0.3333333333333333</ele><time>2026-04-03T08:27:19Z</time></trkpt><trkpt lat="42.871684146913125" lon="3.0353475412069417"><ele>0.6666666666666666</ele><time>2026-04-03T08:27:20Z</time></trkpt><trkpt lat="42.871847005325925" lon="3.035487573611271"><ele>1.0</ele><time>2026-04-03T08:27:21Z</time></trkpt><trkpt lat="42.87200988851985" lon="3.0356271742613483"><ele>1.0</ele><time>2026-04-03T08:27:22Z</time></trkpt><trkpt lat="42.87217110522244" lon="3.035770834901852"><ele>1.0</ele><time>2026-04-03T08:27:23Z</time></trkpt><trkpt lat="42.872330454832074" lon="3.0359178068690693"><ele>1.0</ele><time>2026-04-03T08:27:24Z</time></trkpt><trkpt lat="42.87249328252116" lon="3.0360624231935684"><ele>0.6666666666666666</ele><time>2026-04-03T08:27:25Z</time></trkpt><trkpt lat="42.87265656699577" lon="3.0362102720067283"><ele>0.3333333333333333</ele><time>2026-04-03T08:27:26Z</time></trkpt><trkpt lat="42.87281843115899" lon="3.0363548001738945"><ele>0.0</ele><time>2026-04-03T08:27:27Z</time></trkpt><trkpt lat="42.872983899995276" lon="3.036497235084644"><ele>0.0</ele><time>2026-04-03T08:27:28Z</time></trkpt><trkpt lat="42.8731458781712" lon="3.036637558822424"><ele>0.0</ele><time>2026-04-03T08:27:29Z</time></trkpt><trkpt lat="42.87330609537206" lon="3.036780196463138"><ele>0.0</ele><time>2026-04-03T08:27:30Z</time></trkpt><trkpt lat="42.873467465192896" lon="3.0369250248506874"><ele>0.0</ele><time>2026-04-03T08:27:31Z</time></trkpt><trkpt lat="42.87364078146835" lon="3.037066950653345"><ele>0.0</ele><time>2026-04-03T08:27:32Z</time></trkpt><trkpt lat="42.8738010027241" lon="3.037210059742381"><ele>0.0</ele><time>2026-04-03T08:27:33Z</time></trkpt><trkpt lat="42.87396193745472" lon="3.0373509036224897"><ele>0.0</ele><time>2026-04-03T08:27:34Z</time></trkpt><trkpt lat="42.87412039165445" lon="3.0374925526283105"><ele>0.0</ele><time>2026-04-03T08:27:35Z</time></trkpt><trkpt lat="42.87427991094973" lon="3.0376409985991177"><ele>0.0</ele><time>2026-04-03T08:27:36Z</time></trkpt><trkpt lat="42.87444004968553" lon="3.037786422002499"><ele>0.0</ele><time>2026-04-03T08:27:37Z</time></trkpt><trkpt lat="42.87460248325781" lon="3.037930469448123"><ele>0.0</ele><time>2026-04-03T08:27:38Z</time></trkpt><trkpt lat="42.87476399148449" lon="3.0380725058002613"><ele>0.0</ele><time>2026-04-03T08:27:39Z</time></trkpt><trkpt lat="42.87492288054783" lon="3.0382183836065932"><ele>0.0</ele><time>2026-04-03T08:27:40Z</time></trkpt><trkpt lat="42.87508524265242" lon="3.0383618696707577"><ele>0.0</ele><time>2026-04-03T08:27:41Z</time></trkpt><trkpt lat="42.875246677539046" lon="3.0385019453644317"><ele>0.0</ele><time>2026-04-03T08:27:42Z</time></trkpt><trkpt lat="42.875408454268246" lon="3.038643248896587"><ele>0.0</ele><time>2026-04-03T08:27:43Z</time></trkpt><trkpt lat="42.87557214820808" lon="3.038790375463513"><ele>0.0</ele><time>2026-04-03T08:27:44Z</time></trkpt><trkpt lat="42.87573506990827" lon="3.0389375722570686"><ele>0.0</ele><time>2026-04-03T08:27:45Z</time></trkpt><trkpt lat="42.87589851944552" lon="3.039087390897764"><ele>0.0</ele><time>2026-04-03T08:27:46Z</time></trkpt><trkpt lat="42.87606355007864" lon="3.0392332486986295"><ele>0.0</ele><time>2026-04-03T08:27:47Z</time></trkpt><trkpt lat="42.87623151469352" lon="3.0393805368386504"><ele>0.0</ele><time>2026-04-03T08:27:48Z</time></trkpt><trkpt lat="42.876397116555474" lon="3.039524405865955"><ele>0.0</ele><time>2026-04-03T08:27:49Z</time></trkpt><trkpt lat="42.87656375735791" lon="3.0396690571137324"><ele>0.0</ele><time>2026-04-03T08:27:50Z</time></trkpt><trkpt lat="42.87672635941983" lon="3.039816599207998"><ele>0.0</ele><time>2026-04-03T08:27:51Z</time></trkpt><trkpt lat="42.87688945550261" lon="3.0399631597279075"><ele>0.3333333333333333</ele><time>2026-04-03T08:27:52Z</time></trkpt><trkpt lat="42.877052345181845" lon="3.040108629864012"><ele>0.6666666666666666</ele><time>2026-04-03T08:27:53Z</time></trkpt><trkpt lat="42.877219138213555" lon="3.040257277514087"><ele>1.0</ele><time>2026-04-03T08:27:54Z</time></trkpt><trkpt lat="42.87738307997181" lon="3.040404652467671"><ele>1.0</ele><time>2026-04-03T08:27:55Z</time></trkpt><trkpt lat="42.877546310473434" lon="3.0405510974434655"><ele>1.0</ele><time>2026-04-03T08:27:56Z</time></trkpt><trkpt lat="42.87771892263149" lon="3.0407020008955206"><ele>1.0</ele><time>2026-04-03T08:27:57Z</time></trkpt><trkpt lat="42.8778857778041" lon="3.0408488644852154"><ele>1.3333333333333333</ele><time>2026-04-03T08:27:58Z</time></trkpt><trkpt lat="42.878048420535784" lon="3.0409932196526532"><ele>1.6666666666666665</ele><time>2026-04-03T08:27:59Z</time></trkpt><trkpt lat="42.87821080985441" lon="3.041139135075427"><ele>2.0</ele><time>2026-04-03T08:28:00Z</time></trkpt><trkpt lat="42.87837565448125" lon="3.0412818556547396"><ele>2.0</ele><time>2026-04-03T08:28:01Z</time></trkpt><trkpt lat="42.878543749495535" lon="3.0414250276057526"><ele>2.0</ele><time>2026-04-03T08:28:02Z</time></trkpt><trkpt lat="42.87870596194144" lon="3.0415690910107096"><ele>2.0</ele><time>2026-04-03T08:28:03Z</time></trkpt><trkpt lat="42.8788676981699" lon="3.0417118348807803"><ele>2.0</ele><time>2026-04-03T08:28:04Z</time></trkpt><trkpt lat="42.87902959873522" lon="3.0418565593110096"><ele>2.0</ele><time>2026-04-03T08:28:05Z</time></trkpt><trkpt lat="42.87919064504155" lon="3.041999357046523"><ele>2.0</ele><time>2026-04-03T08:28:06Z</time></trkpt><trkpt lat="42.87935999491924" lon="3.0421442779628154"><ele>2.0</ele><time>2026-04-03T08:28:07Z</time></trkpt><trkpt lat="42.879519967620745" lon="3.042290238927301"><ele>2.0</ele><time>2026-04-03T08:28:08Z</time></trkpt><trkpt lat="42.87968465804045" lon="3.0424342440185876"><ele>2.0</ele><time>2026-04-03T08:28:09Z</time></trkpt><trkpt lat="42.87985096392511" lon="3.0425820200805336"><ele>2.0</ele><time>2026-04-03T08:28:10Z</time></trkpt><trkpt lat="42.880016156287866" lon="3.0427289950788"><ele>2.0</ele><time>2026-04-03T08:28:11Z</time></trkpt><trkpt lat="42.88018062883641" lon="3.042874125942671"><ele>2.0</ele><time>2026-04-03T08:28:12Z</time></trkpt><trkpt lat="42.88034397312514" lon="3.0430181974626542"><ele>2.0</ele><time>2026-04-03T08:28:13Z</time></trkpt><trkpt lat="42.88050113509976" lon="3.0431595880830185"><ele>2.0</ele><time>2026-04-03T08:28:14Z</time></trkpt><trkpt lat="42.880663621532264" lon="3.0433040146679193"><ele>2.0</ele><time>2026-04-03T08:28:15Z</time></trkpt><trkpt lat="42.88082249770251" lon="3.0434518933141965"><ele>1.6666666666666665</ele><time>2026-04-03T08:28:16Z</time></trkpt><trkpt lat="42.88098875742424" lon="3.0435992451068485"><ele>1.3333333333333333</ele><time>2026-04-03T08:28:17Z</time></trkpt><trkpt lat="42.881149691745954" lon="3.0437440749304914"><ele>1.0</ele><time>2026-04-03T08:28:18Z</time></trkpt><trkpt lat="42.88131368496434" lon="3.0438894355316495"><ele>1.0</ele><time>2026-04-03T08:28:19Z</time></trkpt><trkpt lat="42.88147693729666" lon="3.0440291225042984"><ele>1.0</ele><time>2026-04-03T08:28:20Z</time></trkpt><trkpt lat="42.88163981876264" lon="3.04416714301487"><ele>1.0</ele><time>2026-04-03T08:28:21Z</time></trkpt><trkpt lat="42.88180579336576" lon="3.0443053248510235"><ele>1.3333333333333333</ele><time>2026-04-03T08:28:22Z</time></trkpt><trkpt lat="42.881970679016355" lon="3.0444474302271707"><ele>1.6666666666666665</ele><time>2026-04-03T08:28:23Z</time></trkpt><trkpt lat="42.882131184780576" lon="3.0445872587746887"><ele>2.0</ele><time>2026-04-03T08:28:24Z</time></trkpt><trkpt lat="42.88229487732533" lon="3.0447297135612432"><ele>2.0</ele><time>2026-04-03T08:28:25Z</time></trkpt><trkpt lat="42.88245605394726" lon="3.044869808397245"><ele>2.0</ele><time>2026-04-03T08:28:26Z</time></trkpt><trkpt lat="42.88261985850177" lon="3.0450140409273265"><ele>2.0</ele><time>2026-04-03T08:28:27Z</time></trkpt><trkpt lat="42.88278666638325" lon="3.0451579710037633"><ele>2.333333333333333</ele><time>2026-04-03T08:28:28Z</time></trkpt><trkpt lat="42.88295092380903" lon="3.045299817559033"><ele>2.6666666666666665</ele><time>2026-04-03T08:28:29Z</time></trkpt><trkpt lat="42.88311812460256" lon="3.0454417856661085"><ele>3.0</ele><time>2026-04-03T08:28:30Z</time></trkpt><trkpt lat="42.883277809404916" lon="3.0455787422165854"><ele>2.6666666666666665</ele><time>2026-04-03T08:28:31Z</time></trkpt><trkpt lat="42.88344444111553" lon="3.045716099058191"><ele>2.333333333333333</ele><time>2026-04-03T08:28:32Z</time></trkpt><trkpt lat="42.88360625398881" lon="3.0458537469306446"><ele>2.0</ele><time>2026-04-03T08:28:33Z</time></trkpt><trkpt lat="42.88377250875221" lon="3.045994061821494"><ele>2.0</ele><time>2026-04-03T08:28:34Z</time></trkpt><trkpt lat="42.88394127577684" lon="3.0461290765036244"><ele>2.0</ele><time>2026-04-03T08:28:35Z</time></trkpt><trkpt lat="42.884104938223174" lon="3.0462619292586157"><ele>2.0</ele><time>2026-04-03T08:28:36Z</time></trkpt><trkpt lat="42.88426971334256" lon="3.046395165903453"><ele>2.333333333333333</ele><time>2026-04-03T08:28:37Z</time></trkpt><trkpt lat="42.88443735400961" lon="3.0465209036544416"><ele>2.6666666666666665</ele><time>2026-04-03T08:28:38Z</time></trkpt><trkpt lat="42.8846015210089" lon="3.046647677455292"><ele>3.0</ele><time>2026-04-03T08:28:39Z</time></trkpt><trkpt lat="42.88476855284507" lon="3.046777940405018"><ele>3.0</ele><time>2026-04-03T08:28:40Z</time></trkpt><trkpt lat="42.88493335707023" lon="3.046909792612147"><ele>3.0</ele><time>2026-04-03T08:28:41Z</time></trkpt><trkpt lat="42.88510144979537" lon="3.0470425417367966"><ele>3.0</ele><time>2026-04-03T08:28:42Z</time></trkpt><trkpt lat="42.885269754709086" lon="3.0471767105769807"><ele>3.0</ele><time>2026-04-03T08:28:43Z</time></trkpt><trkpt lat="42.88543878458324" lon="3.04730312556255"><ele>3.0</ele><time>2026-04-03T08:28:44Z</time></trkpt><trkpt lat="42.88561294917548" lon="3.047424199211015"><ele>3.0</ele><time>2026-04-03T08:28:45Z</time></trkpt><trkpt lat="42.88578650987594" lon="3.0475403715870453"><ele>2.6666666666666665</ele><time>2026-04-03T08:28:46Z</time></trkpt><trkpt lat="42.88596401405021" lon="3.047657335742782"><ele>2.333333333333333</ele><time>2026-04-03T08:28:47Z</time></trkpt><trkpt lat="42.88614537520541" lon="3.0477649564785056"><ele>2.0</ele><time>2026-04-03T08:28:48Z</time></trkpt><trkpt lat="42.88632464125876" lon="3.0478615093742945"><ele>2.0</ele><time>2026-04-03T08:28:49Z</time></trkpt><trkpt lat="42.886504338728514" lon="3.047960170527936"><ele>2.0</ele><time>2026-04-03T08:28:50Z</time></trkpt><trkpt lat="42.88669390884738" lon="3.048048205390208"><ele>2.0</ele><time>2026-04-03T08:28:51Z</time></trkpt><trkpt lat="42.88688204752119" lon="3.048128612671265"><ele>1.6666666666666665</ele><time>2026-04-03T08:28:52Z</time></trkpt><trkpt lat="42.88707034611228" lon="3.0482034177349604"><ele>1.3333333333333333</ele><time>2026-04-03T08:28:53Z</time></trkpt><trkpt lat="42.88726064750463" lon="3.0482714683065217"><ele>1.0</ele><time>2026-04-03T08:28:54Z</time></trkpt><trkpt lat="42.88745159298742" lon="3.0483327516718384"><ele>1.3333333333333333</ele><time>2026-04-03T08:28:55Z</time></trkpt><trkpt lat="42.88764342833634" lon="3.048386012781098"><ele>1.6666666666666665</ele><time>2026-04-03T08:28:56Z</time></trkpt><trkpt lat="42.88783602269228" lon="3.048432595438127"><ele>2.0</ele><time>2026-04-03T08:28:57Z</time></trkpt><trkpt lat="42.88802832745341" lon="3.0484721790405294"><ele>2.0</ele><time>2026-04-03T08:28:58Z</time></trkpt><trkpt lat="42.888224508341104" lon="3.0485042247308516"><ele>2.0</ele><time>2026-04-03T08:28:59Z</time></trkpt><trkpt lat="42.88841946504414" lon="3.04852611970534"><ele>2.0</ele><time>2026-04-03T08:29:00Z</time></trkpt><trkpt lat="42.888617141228075" lon="3.0485464741656565"><ele>1.6666666666666665</ele><time>2026-04-03T08:29:01Z</time></trkpt><trkpt lat="42.888813368430526" lon="3.0485541601034565"><ele>1.3333333333333333</ele><time>2026-04-03T08:29:02Z</time></trkpt><trkpt lat="42.88901071902244" lon="3.048556682218564"><ele>1.0</ele><time>2026-04-03T08:29:03Z</time></trkpt><trkpt lat="42.889203915694395" lon="3.048551026428318"><ele>1.3333333333333333</ele><time>2026-04-03T08:29:04Z</time></trkpt><trkpt lat="42.88939578706598" lon="3.0485422381357536"><ele>1.6666666666666665</ele><time>2026-04-03T08:29:05Z</time></trkpt><trkpt lat="42.88958805087887" lon="3.0485258716241903"><ele>2.0</ele><time>2026-04-03T08:29:06Z</time></trkpt><trkpt lat="42.88977924267905" lon="3.0485063937748054"><ele>2.0</ele><time>2026-04-03T08:29:07Z</time></trkpt><trkpt lat="42.88996555473752" lon="3.04848742406212"><ele>2.0</ele><time>2026-04-03T08:29:08Z</time></trkpt><trkpt lat="42.89015841592316" lon="3.048462210112612"><ele>2.0</ele><time>2026-04-03T08:29:09Z</time></trkpt><trkpt lat="42.89035010721802" lon="3.0484378554819447"><ele>2.0</ele><time>2026-04-03T08:29:10Z</time></trkpt><trkpt lat="42.890541362463296" lon="3.048417595428067"><ele>2.0</ele><time>2026-04-03T08:29:11Z</time></trkpt><trkpt lat="42.89073376871659" lon="3.048398057251584"><ele>2.0</ele><time>2026-04-03T08:29:12Z</time></trkpt><trkpt lat="42.89092923397359" lon="3.048379295276942"><ele>2.0</ele><time>2026-04-03T08:29:13Z</time></trkpt><trkpt lat="42.89112354351047" lon="3.0483624547835184"><ele>2.0</ele><time>2026-04-03T08:29:14Z</time></trkpt><trkpt lat="42.89131564902171" lon="3.04833503660042"><ele>2.0</ele><time>2026-04-03T08:29:15Z</time></trkpt><trkpt lat="42.89150574375919" lon="3.0483139201867604"><ele>1.3333333333333333</ele><time>2026-04-03T08:29:16Z</time></trkpt><trkpt lat="42.89169819380154" lon="3.048291766567312"><ele>0.6666666666666666</ele><time>2026-04-03T08:29:17Z</time></trkpt><trkpt lat="42.89189141271136" lon="3.0482731299018138"><ele>0.0</ele><time>2026-04-03T08:29:18Z</time></trkpt><trkpt lat="42.8920814310274" lon="3.0482537261032157"><ele>0.0</ele><time>2026-04-03T08:29:19Z</time></trkpt><trkpt lat="42.892276834537526" lon="3.048232254207938"><ele>0.0</ele><time>2026-04-03T08:29:20Z</time></trkpt><trkpt lat="42.89247145826088" lon="3.0482118178650643"><ele>0.0</ele><time>2026-04-03T08:29:21Z</time></trkpt><trkpt lat="42.892666730339336" lon="3.0481863174453596"><ele>0.3333333333333333</ele><time>2026-04-03T08:29:22Z</time></trkpt><trkpt lat="42.89286179372152" lon="3.0481682113744797"><ele>0.6666666666666666</ele><time>2026-04-03T08:29:23Z</time></trkpt><trkpt lat="42.89305597982663" lon="3.0481499674254313"><ele>1.0</ele><time>2026-04-03T08:29:24Z</time></trkpt><trkpt lat="42.89325142264397" lon="3.0481340067081546"><ele>0.6666666666666666</ele><time>2026-04-03T08:29:25Z</time></trkpt><trkpt lat="42.893446135420255" lon="3.048122914995244"><ele>0.3333333333333333</ele><time>2026-04-03T08:29:26Z</time></trkpt><trkpt lat="42.8936389632958" lon="3.048115859856162"><ele>0.0</ele><time>2026-04-03T08:29:27Z</time></trkpt><trkpt lat="42.893836585399086" lon="3.0481102346502023"><ele>0.0</ele><time>2026-04-03T08:29:28Z</time></trkpt><trkpt lat="42.89403246677151" lon="3.0481171988761"><ele>0.0</ele><time>2026-04-03T08:29:29Z</time></trkpt><trkpt lat="42.89422993931283" lon="3.048130342295222"><ele>0.0</ele><time>2026-04-03T08:29:30Z</time></trkpt><trkpt lat="42.89442514651299" lon="3.0481376416050314"><ele>0.0</ele><time>2026-04-03T08:29:31Z</time></trkpt><trkpt lat="42.89462085930371" lon="3.048160889205498"><ele>0.0</ele><time>2026-04-03T08:29:32Z</time></trkpt><trkpt lat="42.89481594003629" lon="3.0481836048071007"><ele>0.0</ele><time>2026-04-03T08:29:33Z</time></trkpt><trkpt lat="42.89500952001921" lon="3.048215182955558"><ele>0.0</ele><time>2026-04-03T08:29:34Z</time></trkpt><trkpt lat="42.89519890535755" lon="3.04824269065462"><ele>0.0</ele><time>2026-04-03T08:29:35Z</time></trkpt><trkpt lat="42.895393730557174" lon="3.048270738011511"><ele>0.0</ele><time>2026-04-03T08:29:36Z</time></trkpt><trkpt lat="42.89558551475951" lon="3.0482981620991763"><ele>0.3333333333333333</ele><time>2026-04-03T08:29:37Z</time></trkpt><trkpt lat="42.8957792352458" lon="3.048327483108131"><ele>0.6666666666666666</ele><time>2026-04-03T08:29:38Z</time></trkpt><trkpt lat="42.895973127084" lon="3.0483562771388915"><ele>1.0</ele><time>2026-04-03T08:29:39Z</time></trkpt><trkpt lat="42.89616648360837" lon="3.048384813640912"><ele>1.0</ele><time>2026-04-03T08:29:40Z</time></trkpt><trkpt lat="42.89636398702334" lon="3.048416560261846"><ele>1.0</ele><time>2026-04-03T08:29:41Z</time></trkpt><trkpt lat="42.896558329828075" lon="3.048446432693741"><ele>1.0</ele><time>2026-04-03T08:29:42Z</time></trkpt><trkpt lat="42.89675217950481" lon="3.048473470041127"><ele>0.6666666666666666</ele><time>2026-04-03T08:29:43Z</time></trkpt><trkpt lat="42.89694966242009" lon="3.04850560177269"><ele>0.3333333333333333</ele><time>2026-04-03T08:29:44Z</time></trkpt><trkpt lat="42.89714525866398" lon="3.04853470719648"><ele>0.0</ele><time>2026-04-03T08:29:45Z</time></trkpt><trkpt lat="42.89733980734553" lon="3.0485653414905074"><ele>0.0</ele><time>2026-04-03T08:29:46Z</time></trkpt><trkpt lat="42.89754016201182" lon="3.0486000564837195"><ele>0.0</ele><time>2026-04-03T08:29:47Z</time></trkpt><trkpt lat="42.89774020857498" lon="3.0486299210948222"><ele>0.0</ele><time>2026-04-03T08:29:48Z</time></trkpt><trkpt lat="42.897936414411824" lon="3.0486592915356754"><ele>0.0</ele><time>2026-04-03T08:29:49Z</time></trkpt><trkpt lat="42.89813017283322" lon="3.048690780945156"><ele>0.0</ele><time>2026-04-03T08:29:50Z</time></trkpt><trkpt lat="42.89832256240427" lon="3.0487198591981226"><ele>0.0</ele><time>2026-04-03T08:29:51Z</time></trkpt><trkpt lat="42.8985185757916" lon="3.0487489931380845"><ele>0.0</ele><time>2026-04-03T08:29:52Z</time></trkpt><trkpt lat="42.898712512570086" lon="3.04877654804642"><ele>0.0</ele><time>2026-04-03T08:29:53Z</time></trkpt><trkpt lat="42.898910216403024" lon="3.048806496699913"><ele>0.0</ele><time>2026-04-03T08:29:54Z</time></trkpt><trkpt lat="42.899104111169" lon="3.048838545966963"><ele>0.0</ele><time>2026-04-03T08:29:55Z</time></trkpt><trkpt lat="42.899298569849485" lon="3.048869874739198"><ele>0.0</ele><time>2026-04-03T08:29:56Z</time></trkpt><trkpt lat="42.89949267102888" lon="3.0488979838075454"><ele>0.0</ele><time>2026-04-03T08:29:57Z</time></trkpt><trkpt lat="42.89968732591025" lon="3.0489287699367704"><ele>0.0</ele><time>2026-04-03T08:29:58Z</time></trkpt><trkpt lat="42.89988315298076" lon="3.048959447373579"><ele>0.0</ele><time>2026-04-03T08:29:59Z</time></trkpt><trkpt lat="42.90007673020457" lon="3.0489889360220648"><ele>0.0</ele><time>2026-04-03T08:30:00Z</time></trkpt><trkpt lat="42.900269458484395" lon="3.049021776961233"><ele>0.0</ele><time>2026-04-03T08:30:01Z</time></trkpt><trkpt lat="42.90046378989814" lon="3.0490540912462594"><ele>0.0</ele><time>2026-04-03T08:30:02Z</time></trkpt><trkpt lat="42.90065438026984" lon="3.049088137117603"><ele>0.0</ele><time>2026-04-03T08:30:03Z</time></trkpt><trkpt lat="42.90084785622142" lon="3.0491209172340885"><ele>0.6666666666666666</ele><time>2026-04-03T08:30:04Z</time></trkpt><trkpt lat="42.90104133745419" lon="3.0491474083230075"><ele>1.3333333333333333</ele><time>2026-04-03T08:30:05Z</time></trkpt><trkpt lat="42.90123527751524" lon="3.0491579287401325"><ele>2.0</ele><time>2026-04-03T08:30:06Z</time></trkpt><trkpt lat="42.9014222203891" lon="3.0491600377755717"><ele>2.0</ele><time>2026-04-03T08:30:07Z</time></trkpt><trkpt lat="42.90160116372286" lon="3.0491553271487417"><ele>2.0</ele><time>2026-04-03T08:30:08Z</time></trkpt><trkpt lat="42.90177039440084" lon="3.049141010781637"><ele>2.0</ele><time>2026-04-03T08:30:09Z</time></trkpt><trkpt lat="42.90193093226642" lon="3.049118145700059"><ele>1.6666666666666665</ele><time>2026-04-03T08:30:10Z</time></trkpt><trkpt lat="42.90209073354446" lon="3.0490889369712626"><ele>1.3333333333333333</ele><time>2026-04-03T08:30:11Z</time></trkpt><trkpt lat="42.90224833828149" lon="3.0490484871366723"><ele>1.0</ele><time>2026-04-03T08:30:12Z</time></trkpt><trkpt lat="42.90240011691933" lon="3.04897707342168"><ele>1.0</ele><time>2026-04-03T08:30:13Z</time></trkpt><trkpt lat="42.90254606543149" lon="3.0488904574933535"><ele>1.0</ele><time>2026-04-03T08:30:14Z</time></trkpt><trkpt lat="42.9026845330644" lon="3.048782546052796"><ele>1.0</ele><time>2026-04-03T08:30:15Z</time></trkpt><trkpt lat="42.902814755270974" lon="3.048658969907203"><ele>1.3333333333333333</ele><time>2026-04-03T08:30:16Z</time></trkpt><trkpt lat="42.902941366187605" lon="3.048527112369871"><ele>1.6666666666666665</ele><time>2026-04-03T08:30:17Z</time></trkpt><trkpt lat="42.90306618567791" lon="3.0483896651360207"><ele>2.0</ele><time>2026-04-03T08:30:18Z</time></trkpt><trkpt lat="42.90318613794593" lon="3.048241838131414"><ele>2.0</ele><time>2026-04-03T08:30:19Z</time></trkpt><trkpt lat="42.90330561443938" lon="3.048086038323632"><ele>2.0</ele><time>2026-04-03T08:30:20Z</time></trkpt><trkpt lat="42.9034212933219" lon="3.0479238525777474"><ele>2.0</ele><time>2026-04-03T08:30:21Z</time></trkpt><trkpt lat="42.90353444741076" lon="3.047747793912021"><ele>3.666666666666667</ele><time>2026-04-03T08:30:22Z</time></trkpt><trkpt lat="42.903640649729574" lon="3.0475611393579185"><ele>5.333333333333334</ele><time>2026-04-03T08:30:23Z</time></trkpt><trkpt lat="42.903741848306396" lon="3.04736728701194"><ele>7.0</ele><time>2026-04-03T08:30:24Z</time></trkpt><trkpt lat="42.903839208943744" lon="3.0471685149075802"><ele>7.0</ele><time>2026-04-03T08:30:25Z</time></trkpt><trkpt lat="42.90392634398432" lon="3.046958938764562"><ele>7.0</ele><time>2026-04-03T08:30:26Z</time></trkpt><trkpt lat="42.9040089632558" lon="3.0467485431370096"><ele>7.0</ele><time>2026-04-03T08:30:27Z</time></trkpt><trkpt lat="42.90408528218863" lon="3.046529657853602"><ele>6.333333333333334</ele><time>2026-04-03T08:30:28Z</time></trkpt><trkpt lat="42.90416017946648" lon="3.046311770006585"><ele>5.666666666666667</ele><time>2026-04-03T08:30:29Z</time></trkpt><trkpt lat="42.90422690377719" lon="3.0460882522223516"><ele>5.0</ele><time>2026-04-03T08:30:30Z</time></trkpt><trkpt lat="42.904287899103885" lon="3.045864404704922"><ele>6.0</ele><time>2026-04-03T08:30:31Z</time></trkpt><trkpt lat="42.90435104587164" lon="3.0456426464116064"><ele>7.0</ele><time>2026-04-03T08:30:32Z</time></trkpt><trkpt lat="42.90442153143485" lon="3.0454251796489955"><ele>8.0</ele><time>2026-04-03T08:30:33Z</time></trkpt><trkpt lat="42.90450012814974" lon="3.045210675754821"><ele>8.0</ele><time>2026-04-03T08:30:34Z</time></trkpt><trkpt lat="42.9045812384183" lon="3.044995593123168"><ele>8.0</ele><time>2026-04-03T08:30:35Z</time></trkpt><trkpt lat="42.90466427333227" lon="3.044781481194913"><ele>8.0</ele><time>2026-04-03T08:30:36Z</time></trkpt><trkpt lat="42.904746510952045" lon="3.0445675160868775"><ele>5.666666666666666</ele><time>2026-04-03T08:30:37Z</time></trkpt><trkpt lat="42.90482851773448" lon="3.0443558963868727"><ele>3.333333333333333</ele><time>2026-04-03T08:30:38Z</time></trkpt><trkpt lat="42.90490925641067" lon="3.044143101381491"><ele>1.0</ele><time>2026-04-03T08:30:39Z</time></trkpt><trkpt lat="42.90498989282308" lon="3.043929004038628"><ele>1.0</ele><time>2026-04-03T08:30:40Z</time></trkpt><trkpt lat="42.905071701946525" lon="3.043713696283181"><ele>1.0</ele><time>2026-04-03T08:30:41Z</time></trkpt><trkpt lat="42.905153308288114" lon="3.043498642996758"><ele>1.0</ele><time>2026-04-03T08:30:42Z</time></trkpt><trkpt lat="42.90523120168228" lon="3.0432821017166525"><ele>0.6666666666666666</ele><time>2026-04-03T08:30:43Z</time></trkpt><trkpt lat="42.90531057651663" lon="3.043067217221563"><ele>0.3333333333333333</ele><time>2026-04-03T08:30:44Z</time></trkpt><trkpt lat="42.90538353064032" lon="3.0428504339333196"><ele>0.0</ele><time>2026-04-03T08:30:45Z</time></trkpt><trkpt lat="42.90545667205967" lon="3.0426320126209196"><ele>0.0</ele><time>2026-04-03T08:30:46Z</time></trkpt><trkpt lat="42.90552778335064" lon="3.042413501441778"><ele>0.0</ele><time>2026-04-03T08:30:47Z</time></trkpt><trkpt lat="42.905591873155224" lon="3.042189913588918"><ele>0.0</ele><time>2026-04-03T08:30:48Z</time></trkpt><trkpt lat="42.90564928133717" lon="3.0419694467020677"><ele>0.0</ele><time>2026-04-03T08:30:49Z</time></trkpt><trkpt lat="42.905701740772194" lon="3.041743958253079"><ele>0.0</ele><time>2026-04-03T08:30:50Z</time></trkpt><trkpt lat="42.905743047334866" lon="3.0415199858294706"><ele>0.0</ele><time>2026-04-03T08:30:51Z</time></trkpt><trkpt lat="42.90577708917269" lon="3.0412955181813333"><ele>0.6666666666666666</ele><time>2026-04-03T08:30:52Z</time></trkpt><trkpt lat="42.90580082264084" lon="3.041069788781899"><ele>1.3333333333333333</ele><time>2026-04-03T08:30:53Z</time></trkpt><trkpt lat="42.90581780666596" lon="3.0408423274622782"><ele>2.0</ele><time>2026-04-03T08:30:54Z</time></trkpt><trkpt lat="42.90583077307794" lon="3.0406169229384394"><ele>2.0</ele><time>2026-04-03T08:30:55Z</time></trkpt><trkpt lat="42.90583618427782" lon="3.0403902693912346"><ele>2.0</ele><time>2026-04-03T08:30:56Z</time></trkpt><trkpt lat="42.90583049143857" lon="3.040164632205411"><ele>2.0</ele><time>2026-04-03T08:30:57Z</time></trkpt><trkpt lat="42.90581799597145" lon="3.0399397163820847"><ele>2.333333333333333</ele><time>2026-04-03T08:30:58Z</time></trkpt><trkpt lat="42.905800833218024" lon="3.039718297664203"><ele>2.6666666666666665</ele><time>2026-04-03T08:30:59Z</time></trkpt><trkpt lat="42.90577404807392" lon="3.03950109041798"><ele>3.0</ele><time>2026-04-03T08:31:00Z</time></trkpt><trkpt lat="42.905738788498226" lon="3.0392857908003204"><ele>3.333333333333333</ele><time>2026-04-03T08:31:01Z</time></trkpt><trkpt lat="42.90569863113924" lon="3.0390800539276976"><ele>3.6666666666666665</ele><time>2026-04-03T08:31:02Z</time></trkpt><trkpt lat="42.90565634603617" lon="3.038884041971289"><ele>4.0</ele><time>2026-04-03T08:31:03Z</time></trkpt><trkpt lat="42.905607097585936" lon="3.0386987892016935"><ele>4.0</ele><time>2026-04-03T08:31:04Z</time></trkpt><trkpt lat="42.905560157513634" lon="3.038525546087044"><ele>4.0</ele><time>2026-04-03T08:31:05Z</time></trkpt><trkpt lat="42.90551165159877" lon="3.03835706487469"><ele>4.0</ele><time>2026-04-03T08:31:06Z</time></trkpt><trkpt lat="42.90545997641195" lon="3.038203438167988"><ele>4.0</ele><time>2026-04-03T08:31:07Z</time></trkpt><trkpt lat="42.90541354634225" lon="3.038064573137886"><ele>4.166666666666666</ele><time>2026-04-03T08:31:08Z</time></trkpt><trkpt lat="42.90539154694117" lon="3.0379364632383536"><ele>4.333333333333333</ele><time>2026-04-03T08:31:09Z</time></trkpt><trkpt lat="42.90535857971995" lon="3.0378343379275003"><ele>4.5</ele><time>2026-04-03T08:31:10Z</time></trkpt><trkpt lat="42.90533557440681" lon="3.037742056652486"><ele>4.666666666666667</ele><time>2026-04-03T08:31:11Z</time></trkpt><trkpt lat="42.905322038675806" lon="3.0376499506092958"><ele>4.833333333333334</ele><time>2026-04-03T08:31:12Z</time></trkpt><trkpt lat="42.90532724897353" lon="3.037478432699304"><ele>5.0</ele><time>2026-04-03T08:31:14Z</time></trkpt><trkpt lat="42.90530674990276" lon="3.037392392740421"><ele>5.0</ele><time>2026-04-03T08:31:15Z</time></trkpt><trkpt lat="42.90526634035134" lon="3.0373225535506503"><ele>5.0</ele><time>2026-04-03T08:31:16Z</time></trkpt><trkpt lat="42.90520254107401" lon="3.03726879433184"><ele>5.0</ele><time>2026-04-03T08:31:17Z</time></trkpt><trkpt lat="42.90513691377197" lon="3.0372225450298656"><ele>5.0</ele><time>2026-04-03T08:31:18Z</time></trkpt><trkpt lat="42.905077122195955" lon="3.037158444914473"><ele>5.0</ele><time>2026-04-03T08:31:19Z</time></trkpt><trkpt lat="42.90502168102121" lon="3.037076303906197"><ele>5.0</ele><time>2026-04-03T08:31:20Z</time></trkpt><trkpt lat="42.90496405940781" lon="3.0369722917360478"><ele>4.75</ele><time>2026-04-03T08:31:21Z</time></trkpt><trkpt lat="42.90489613603814" lon="3.036851480960269"><ele>4.5</ele><time>2026-04-03T08:31:22Z</time></trkpt><trkpt lat="42.90483215983232" lon="3.0367217877678887"><ele>4.25</ele><time>2026-04-03T08:31:23Z</time></trkpt><trkpt lat="42.90476486865381" lon="3.036580717871116"><ele>4.0</ele><time>2026-04-03T08:31:24Z</time></trkpt><trkpt lat="42.90469232668091" lon="3.03643014597251"><ele>3.75</ele><time>2026-04-03T08:31:25Z</time></trkpt><trkpt lat="42.90461252570112" lon="3.036271143062253"><ele>3.5</ele><time>2026-04-03T08:31:26Z</time></trkpt><trkpt lat="42.904538432116794" lon="3.036116106702925"><ele>3.25</ele><time>2026-04-03T08:31:27Z</time></trkpt><trkpt lat="42.90446196752385" lon="3.0359613100574325"><ele>3.0</ele><time>2026-04-03T08:31:28Z</time></trkpt><trkpt lat="42.90438147575616" lon="3.0357974040856264"><ele>4.333333333333334</ele><time>2026-04-03T08:31:29Z</time></trkpt><trkpt lat="42.904299821569964" lon="3.0356307571765453"><ele>5.666666666666667</ele><time>2026-04-03T08:31:30Z</time></trkpt><trkpt lat="42.904214025720684" lon="3.0354554615219924"><ele>7.0</ele><time>2026-04-03T08:31:31Z</time></trkpt><trkpt lat="42.90412777505646" lon="3.035279879519482"><ele>7.0</ele><time>2026-04-03T08:31:32Z</time></trkpt><trkpt lat="42.90403879427362" lon="3.0350967549018915"><ele>7.0</ele><time>2026-04-03T08:31:33Z</time></trkpt><trkpt lat="42.90395048943578" lon="3.0349130500284165"><ele>7.0</ele><time>2026-04-03T08:31:34Z</time></trkpt><trkpt lat="42.90386064866622" lon="3.034729563256363"><ele>7.0</ele><time>2026-04-03T08:31:35Z</time></trkpt><trkpt lat="42.90377003089098" lon="3.0345441040766072"><ele>7.0</ele><time>2026-04-03T08:31:36Z</time></trkpt><trkpt lat="42.903677715686825" lon="3.034359741234079"><ele>7.0</ele><time>2026-04-03T08:31:37Z</time></trkpt><trkpt lat="42.90358678250266" lon="3.0341714858307682"><ele>7.333333333333334</ele><time>2026-04-03T08:31:38Z</time></trkpt><trkpt lat="42.90349638038951" lon="3.0339819948977396"><ele>7.666666666666666</ele><time>2026-04-03T08:31:39Z</time></trkpt><trkpt lat="42.903403289755445" lon="3.0337922321781323"><ele>8.0</ele><time>2026-04-03T08:31:40Z</time></trkpt><trkpt lat="42.90330941161033" lon="3.033601352544114"><ele>8.333333333333332</ele><time>2026-04-03T08:31:41Z</time></trkpt><trkpt lat="42.90321384274828" lon="3.033407315686223"><ele>8.666666666666666</ele><time>2026-04-03T08:31:42Z</time></trkpt><trkpt lat="42.90311794032548" lon="3.0332135889590663"><ele>9.0</ele><time>2026-04-03T08:31:43Z</time></trkpt><trkpt lat="42.903023775975555" lon="3.0330175592094046"><ele>9.666666666666666</ele><time>2026-04-03T08:31:44Z</time></trkpt><trkpt lat="42.90292991587982" lon="3.032822549801424"><ele>10.333333333333332</ele><time>2026-04-03T08:31:45Z</time></trkpt><trkpt lat="42.902837194106176" lon="3.032632339532741"><ele>11.0</ele><time>2026-04-03T08:31:46Z</time></trkpt><trkpt lat="42.90274378667992" lon="3.032442329373524"><ele>11.666666666666666</ele><time>2026-04-03T08:31:47Z</time></trkpt><trkpt lat="42.902652033080365" lon="3.032255611671905"><ele>12.333333333333332</ele><time>2026-04-03T08:31:48Z</time></trkpt><trkpt lat="42.90256051026863" lon="3.032063373854843"><ele>13.0</ele><time>2026-04-03T08:31:49Z</time></trkpt><trkpt lat="42.90247131291516" lon="3.0318786310587"><ele>14.0</ele><time>2026-04-03T08:31:50Z</time></trkpt><trkpt lat="42.90238159969265" lon="3.0316977582268394"><ele>15.0</ele><time>2026-04-03T08:31:51Z</time></trkpt><trkpt lat="42.902295839533416" lon="3.031515664888741"><ele>16.0</ele><time>2026-04-03T08:31:52Z</time></trkpt><trkpt lat="42.902213808843335" lon="3.0313360984380044"><ele>16.666666666666664</ele><time>2026-04-03T08:31:53Z</time></trkpt><trkpt lat="42.90213334866556" lon="3.031153760979453"><ele>17.333333333333332</ele><time>2026-04-03T08:31:54Z</time></trkpt><trkpt lat="42.90205858315018" lon="3.0309664984560754"><ele>18.0</ele><time>2026-04-03T08:31:55Z</time></trkpt><trkpt lat="42.901983393343805" lon="3.0307752338145226"><ele>19.666666666666668</ele><time>2026-04-03T08:31:56Z</time></trkpt><trkpt lat="42.90191304591506" lon="3.0305842437088173"><ele>21.333333333333336</ele><time>2026-04-03T08:31:57Z</time></trkpt><trkpt lat="42.90184764172876" lon="3.030392625259362"><ele>23.0</ele><time>2026-04-03T08:31:58Z</time></trkpt><trkpt lat="42.90178955110626" lon="3.0302057966074116"><ele>22.75</ele><time>2026-04-03T08:31:59Z</time></trkpt><trkpt lat="42.90173242930608" lon="3.0300189915899325"><ele>22.5</ele><time>2026-04-03T08:32:00Z</time></trkpt><trkpt lat="42.901680546425304" lon="3.029832367124761"><ele>22.25</ele><time>2026-04-03T08:32:01Z</time></trkpt><trkpt lat="42.90162846672103" lon="3.029643651043944"><ele>22.0</ele><time>2026-04-03T08:32:02Z</time></trkpt><trkpt lat="42.90158533040608" lon="3.029452634374918"><ele>23.0</ele><time>2026-04-03T08:32:03Z</time></trkpt><trkpt lat="42.90153911390461" lon="3.029255624099473"><ele>24.0</ele><time>2026-04-03T08:32:04Z</time></trkpt><trkpt lat="42.901499538530025" lon="3.0290596891439816"><ele>25.0</ele><time>2026-04-03T08:32:05Z</time></trkpt><trkpt lat="42.90146262217172" lon="3.0288621698278435"><ele>26.0</ele><time>2026-04-03T08:32:06Z</time></trkpt><trkpt lat="42.901428936499016" lon="3.0286615639517622"><ele>27.0</ele><time>2026-04-03T08:32:07Z</time></trkpt><trkpt lat="42.901402209230554" lon="3.0284623818463836"><ele>28.0</ele><time>2026-04-03T08:32:08Z</time></trkpt><trkpt lat="42.9013770836149" lon="3.0282676326447038"><ele>29.0</ele><time>2026-04-03T08:32:09Z</time></trkpt><trkpt lat="42.90135637800275" lon="3.0280702731630793"><ele>29.25</ele><time>2026-04-03T08:32:10Z</time></trkpt><trkpt lat="42.901341087660136" lon="3.0278730609168094"><ele>29.5</ele><time>2026-04-03T08:32:11Z</time></trkpt><trkpt lat="42.90132778538284" lon="3.0276727399469157"><ele>29.75</ele><time>2026-04-03T08:32:12Z</time></trkpt><trkpt lat="42.90131755041299" lon="3.0274715946719777"><ele>30.0</ele><time>2026-04-03T08:32:13Z</time></trkpt><trkpt lat="42.90131151452361" lon="3.027271787894852"><ele>30.25</ele><time>2026-04-03T08:32:14Z</time></trkpt><trkpt lat="42.90130745168941" lon="3.027074694345396"><ele>30.5</ele><time>2026-04-03T08:32:15Z</time></trkpt><trkpt lat="42.901308133171504" lon="3.026880045684151"><ele>30.75</ele><time>2026-04-03T08:32:16Z</time></trkpt><trkpt lat="42.901309590056655" lon="3.0266804024451917"><ele>31.0</ele><time>2026-04-03T08:32:17Z</time></trkpt><trkpt lat="42.90132008653561" lon="3.026486836375651"><ele>31.0</ele><time>2026-04-03T08:32:18Z</time></trkpt><trkpt lat="42.90132984988233" lon="3.026288896848419"><ele>31.0</ele><time>2026-04-03T08:32:19Z</time></trkpt><trkpt lat="42.90133956684864" lon="3.0260897663019475"><ele>31.0</ele><time>2026-04-03T08:32:20Z</time></trkpt><trkpt lat="42.90135851391419" lon="3.025895782574953"><ele>31.0</ele><time>2026-04-03T08:32:21Z</time></trkpt><trkpt lat="42.90137763429143" lon="3.0256963629880134"><ele>30.0</ele><time>2026-04-03T08:32:22Z</time></trkpt><trkpt lat="42.901401173682395" lon="3.0254931978539"><ele>29.0</ele><time>2026-04-03T08:32:23Z</time></trkpt><trkpt lat="42.901426687697395" lon="3.0252916439278414"><ele>28.0</ele><time>2026-04-03T08:32:24Z</time></trkpt><trkpt lat="42.90145490801564" lon="3.0250865697413247"><ele>27.25</ele><time>2026-04-03T08:32:25Z</time></trkpt><trkpt lat="42.90148488214404" lon="3.0248882501033583"><ele>26.5</ele><time>2026-04-03T08:32:26Z</time></trkpt><trkpt lat="42.90152096275888" lon="3.0246937681143953"><ele>25.75</ele><time>2026-04-03T08:32:27Z</time></trkpt><trkpt lat="42.901559591037994" lon="3.024497840883507"><ele>25.0</ele><time>2026-04-03T08:32:28Z</time></trkpt><trkpt lat="42.90160527650579" lon="3.024301489240975"><ele>24.0</ele><time>2026-04-03T08:32:29Z</time></trkpt><trkpt lat="42.90165298137274" lon="3.0241008530620292"><ele>23.0</ele><time>2026-04-03T08:32:30Z</time></trkpt><trkpt lat="42.901700155982645" lon="3.0238982243569996"><ele>22.0</ele><time>2026-04-03T08:32:31Z</time></trkpt><trkpt lat="42.90175017198185" lon="3.023693543920005"><ele>20.333333333333332</ele><time>2026-04-03T08:32:32Z</time></trkpt><trkpt lat="42.90179875404415" lon="3.0234887038852416"><ele>18.666666666666668</ele><time>2026-04-03T08:32:33Z</time></trkpt><trkpt lat="42.901846370299225" lon="3.023280369997694"><ele>17.0</ele><time>2026-04-03T08:32:34Z</time></trkpt><trkpt lat="42.90189544863699" lon="3.0230722028874615"><ele>15.333333333333334</ele><time>2026-04-03T08:32:35Z</time></trkpt><trkpt lat="42.90194792685366" lon="3.0228639213852055"><ele>13.666666666666668</ele><time>2026-04-03T08:32:36Z</time></trkpt><trkpt lat="42.90200067829045" lon="3.022655463148832"><ele>12.0</ele><time>2026-04-03T08:32:37Z</time></trkpt><trkpt lat="42.902056258809665" lon="3.0224509509365562"><ele>11.333333333333334</ele><time>2026-04-03T08:32:38Z</time></trkpt><trkpt lat="42.90211276037099" lon="3.02225636603862"><ele>10.666666666666668</ele><time>2026-04-03T08:32:39Z</time></trkpt><trkpt lat="42.902173097966596" lon="3.022065726680728"><ele>10.0</ele><time>2026-04-03T08:32:40Z</time></trkpt><trkpt lat="42.90224046514227" lon="3.0218769836091157"><ele>10.0</ele><time>2026-04-03T08:32:41Z</time></trkpt><trkpt lat="42.90230939717677" lon="3.021695065424959"><ele>10.0</ele><time>2026-04-03T08:32:42Z</time></trkpt><trkpt lat="42.902386413686884" lon="3.0215214659034273"><ele>10.0</ele><time>2026-04-03T08:32:43Z</time></trkpt><trkpt lat="42.90246943506422" lon="3.021350370561508"><ele>10.0</ele><time>2026-04-03T08:32:44Z</time></trkpt><trkpt lat="42.90255451325237" lon="3.0211955498184504"><ele>9.75</ele><time>2026-04-03T08:32:45Z</time></trkpt><trkpt lat="42.9026449864824" lon="3.0210483321081045"><ele>9.5</ele><time>2026-04-03T08:32:46Z</time></trkpt><trkpt lat="42.90273892353606" lon="3.0209139587797877"><ele>9.25</ele><time>2026-04-03T08:32:47Z</time></trkpt><trkpt lat="42.90283318823795" lon="3.020790670410296"><ele>9.0</ele><time>2026-04-03T08:32:48Z</time></trkpt><trkpt lat="42.90293424742326" lon="3.0206805324091595"><ele>9.0</ele><time>2026-04-03T08:32:49Z</time></trkpt><trkpt lat="42.90303966947483" lon="3.0205732050572434"><ele>9.0</ele><time>2026-04-03T08:32:50Z</time></trkpt><trkpt lat="42.90315234858939" lon="3.0204672900565597"><ele>9.0</ele><time>2026-04-03T08:32:51Z</time></trkpt><trkpt lat="42.90325800279254" lon="3.020370634344375"><ele>9.0</ele><time>2026-04-03T08:32:52Z</time></trkpt><trkpt lat="42.90338546611201" lon="3.0202749707928787"><ele>10.25</ele><time>2026-04-03T08:32:53Z</time></trkpt><trkpt lat="42.903500886228315" lon="3.020191349004883"><ele>11.5</ele><time>2026-04-03T08:32:54Z</time></trkpt><trkpt lat="42.903631734673496" lon="3.0201145665918943"><ele>12.75</ele><time>2026-04-03T08:32:55Z</time></trkpt><trkpt lat="42.903768135912635" lon="3.0200447990166586"><ele>14.0</ele><time>2026-04-03T08:32:56Z</time></trkpt><trkpt lat="42.903902853089875" lon="3.0199881755869287"><ele>14.0</ele><time>2026-04-03T08:32:57Z</time></trkpt><trkpt lat="42.90404385893344" lon="3.0199308584946345"><ele>14.0</ele><time>2026-04-03T08:32:58Z</time></trkpt><trkpt lat="42.904186910053646" lon="3.019891101919492"><ele>14.0</ele><time>2026-04-03T08:32:59Z</time></trkpt><trkpt lat="42.904333669484316" lon="3.019859627513128"><ele>14.0</ele><time>2026-04-03T08:33:00Z</time></trkpt><trkpt lat="42.90448415296401" lon="3.019842924278305"><ele>13.333333333333334</ele><time>2026-04-03T08:33:01Z</time></trkpt><trkpt lat="42.90464271563501" lon="3.0198406332265595"><ele>12.666666666666668</ele><time>2026-04-03T08:33:02Z</time></trkpt><trkpt lat="42.90480175035231" lon="3.0198474475287513"><ele>12.0</ele><time>2026-04-03T08:33:03Z</time></trkpt><trkpt lat="42.904963658961485" lon="3.0198691486499305"><ele>11.333333333333334</ele><time>2026-04-03T08:33:04Z</time></trkpt><trkpt lat="42.90512215195973" lon="3.0198992218148253"><ele>10.666666666666668</ele><time>2026-04-03T08:33:05Z</time></trkpt><trkpt lat="42.90528534388012" lon="3.0199453522250326"><ele>10.0</ele><time>2026-04-03T08:33:06Z</time></trkpt><trkpt lat="42.90544625178793" lon="3.0199951312354583"><ele>11.0</ele><time>2026-04-03T08:33:07Z</time></trkpt><trkpt lat="42.905603712882424" lon="3.0200498934133893"><ele>12.0</ele><time>2026-04-03T08:33:08Z</time></trkpt><trkpt lat="42.90576349708037" lon="3.020107574998767"><ele>13.0</ele><time>2026-04-03T08:33:09Z</time></trkpt><trkpt lat="42.90591881625894" lon="3.0201645008282543"><ele>13.0</ele><time>2026-04-03T08:33:10Z</time></trkpt><trkpt lat="42.90607970115849" lon="3.0202234370335694"><ele>13.0</ele><time>2026-04-03T08:33:11Z</time></trkpt><trkpt lat="42.90623346663252" lon="3.0202781419086513"><ele>13.0</ele><time>2026-04-03T08:33:12Z</time></trkpt><trkpt lat="42.90638997059322" lon="3.02033645444647"><ele>13.0</ele><time>2026-04-03T08:33:13Z</time></trkpt><trkpt lat="42.9065442564161" lon="3.0203961232581253"><ele>13.0</ele><time>2026-04-03T08:33:14Z</time></trkpt><trkpt lat="42.906699166278145" lon="3.0204532264452135"><ele>13.0</ele><time>2026-04-03T08:33:15Z</time></trkpt><trkpt lat="42.906855830355234" lon="3.020509639245604"><ele>12.666666666666666</ele><time>2026-04-03T08:33:16Z</time></trkpt><trkpt lat="42.90700902723153" lon="3.0205668707725475"><ele>12.333333333333332</ele><time>2026-04-03T08:33:17Z</time></trkpt><trkpt lat="42.907165044166696" lon="3.020614955165699"><ele>12.0</ele><time>2026-04-03T08:33:18Z</time></trkpt><trkpt lat="42.907322761164416" lon="3.0206592585252934"><ele>12.0</ele><time>2026-04-03T08:33:19Z</time></trkpt><trkpt lat="42.90748072490556" lon="3.020699070236943"><ele>12.0</ele><time>2026-04-03T08:33:20Z</time></trkpt><trkpt lat="42.90763833043366" lon="3.020734200577879"><ele>12.0</ele><time>2026-04-03T08:33:21Z</time></trkpt><trkpt lat="42.90779605595882" lon="3.020762042019646"><ele>10.666666666666666</ele><time>2026-04-03T08:33:22Z</time></trkpt><trkpt lat="42.9079545448895" lon="3.0207812856099703"><ele>9.333333333333332</ele><time>2026-04-03T08:33:23Z</time></trkpt><trkpt lat="42.90811244083558" lon="3.0207990963288607"><ele>8.0</ele><time>2026-04-03T08:33:24Z</time></trkpt><trkpt lat="42.90827210988715" lon="3.0208116162968537"><ele>12.0</ele><time>2026-04-03T08:33:25Z</time></trkpt><trkpt lat="42.908431368011556" lon="3.02082196258965"><ele>16.0</ele><time>2026-04-03T08:33:26Z</time></trkpt><trkpt lat="42.90858695012326" lon="3.020827467488264"><ele>20.0</ele><time>2026-04-03T08:33:27Z</time></trkpt><trkpt lat="42.90874209359386" lon="3.0208281295098462"><ele>20.0</ele><time>2026-04-03T08:33:28Z</time></trkpt><trkpt lat="42.908896350295805" lon="3.0208268663841116"><ele>20.0</ele><time>2026-04-03T08:33:29Z</time></trkpt><trkpt lat="42.90904978874886" lon="3.020822624295026"><ele>20.0</ele><time>2026-04-03T08:33:30Z</time></trkpt><trkpt lat="42.9092026787234" lon="3.0208198634814756"><ele>21.0</ele><time>2026-04-03T08:33:31Z</time></trkpt><trkpt lat="42.909355699011016" lon="3.0208179178827086"><ele>22.0</ele><time>2026-04-03T08:33:32Z</time></trkpt><trkpt lat="42.90950568953695" lon="3.0208164443926453"><ele>23.0</ele><time>2026-04-03T08:33:33Z</time></trkpt><trkpt lat="42.909657394973166" lon="3.0208159660967433"><ele>19.0</ele><time>2026-04-03T08:33:34Z</time></trkpt><trkpt lat="42.909811051624736" lon="3.020813131203049"><ele>15.0</ele><time>2026-04-03T08:33:35Z</time></trkpt><trkpt lat="42.90996356269506" lon="3.020811973307809"><ele>11.0</ele><time>2026-04-03T08:33:36Z</time></trkpt><trkpt lat="42.91011671531197" lon="3.020808888113397"><ele>10.0</ele><time>2026-04-03T08:33:37Z</time></trkpt><trkpt lat="42.91027169224555" lon="3.0208067459645167"><ele>9.0</ele><time>2026-04-03T08:33:38Z</time></trkpt><trkpt lat="42.91043129478659" lon="3.0208045006324116"><ele>8.0</ele><time>2026-04-03T08:33:39Z</time></trkpt><trkpt lat="42.910592695499794" lon="3.0208040363713704"><ele>8.0</ele><time>2026-04-03T08:33:40Z</time></trkpt><trkpt lat="42.91075196546126" lon="3.0208030019813825"><ele>8.0</ele><time>2026-04-03T08:33:41Z</time></trkpt><trkpt lat="42.910912363993816" lon="3.020800228357614"><ele>8.0</ele><time>2026-04-03T08:33:42Z</time></trkpt><trkpt lat="42.911076271892675" lon="3.020802671742032"><ele>9.333333333333332</ele><time>2026-04-03T08:33:43Z</time></trkpt><trkpt lat="42.91124130103612" lon="3.0208063267904066"><ele>10.666666666666666</ele><time>2026-04-03T08:33:44Z</time></trkpt><trkpt lat="42.91141006137069" lon="3.020812499772133"><ele>12.0</ele><time>2026-04-03T08:33:45Z</time></trkpt><trkpt lat="42.911575487869186" lon="3.020823887358053"><ele>14.0</ele><time>2026-04-03T08:33:46Z</time></trkpt><trkpt lat="42.911741922487764" lon="3.020842669047745"><ele>16.0</ele><time>2026-04-03T08:33:47Z</time></trkpt><trkpt lat="42.91190623636489" lon="3.0208599931263214"><ele>18.0</ele><time>2026-04-03T08:33:48Z</time></trkpt><trkpt lat="42.91207324041843" lon="3.0208864815950696"><ele>18.0</ele><time>2026-04-03T08:33:49Z</time></trkpt><trkpt lat="42.91223887414173" lon="3.020915092066316"><ele>18.0</ele><time>2026-04-03T08:33:50Z</time></trkpt><trkpt lat="42.91240219448153" lon="3.0209444212171275"><ele>18.0</ele><time>2026-04-03T08:33:51Z</time></trkpt><trkpt lat="42.912565151824786" lon="3.020971369420246"><ele>19.666666666666668</ele><time>2026-04-03T08:33:52Z</time></trkpt><trkpt lat="42.91272803566696" lon="3.020999849844415"><ele>21.333333333333336</ele><time>2026-04-03T08:33:53Z</time></trkpt><trkpt lat="42.91289106088181" lon="3.0210252789619214"><ele>23.0</ele><time>2026-04-03T08:33:54Z</time></trkpt><trkpt lat="42.91305091085989" lon="3.0210515112479035"><ele>23.0</ele><time>2026-04-03T08:33:55Z</time></trkpt><trkpt lat="42.913203506230516" lon="3.021076558311177"><ele>23.0</ele><time>2026-04-03T08:33:56Z</time></trkpt><trkpt lat="42.91335855918178" lon="3.0210971172819425"><ele>23.0</ele><time>2026-04-03T08:33:57Z</time></trkpt><trkpt lat="42.913508726702936" lon="3.0211196895527572"><ele>24.0</ele><time>2026-04-03T08:33:58Z</time></trkpt><trkpt lat="42.913658459436924" lon="3.0211463160773193"><ele>25.0</ele><time>2026-04-03T08:33:59Z</time></trkpt><trkpt lat="42.91380695355046" lon="3.0211663505453332"><ele>26.0</ele><time>2026-04-03T08:34:00Z</time></trkpt><trkpt lat="42.91395940312801" lon="3.0211934030681324"><ele>26.0</ele><time>2026-04-03T08:34:01Z</time></trkpt><trkpt lat="42.91411394276486" lon="3.021219560571355"><ele>26.0</ele><time>2026-04-03T08:34:02Z</time></trkpt><trkpt lat="42.914272542621305" lon="3.021243623590207"><ele>26.0</ele><time>2026-04-03T08:34:03Z</time></trkpt><trkpt lat="42.91442805975043" lon="3.021268149314805"><ele>25.666666666666664</ele><time>2026-04-03T08:34:04Z</time></trkpt><trkpt lat="42.91458834613255" lon="3.021292452320163"><ele>25.333333333333336</ele><time>2026-04-03T08:34:05Z</time></trkpt><trkpt lat="42.91474485801467" lon="3.021318640428246"><ele>25.0</ele><time>2026-04-03T08:34:06Z</time></trkpt><trkpt lat="42.914901347134" lon="3.0213400563043877"><ele>25.0</ele><time>2026-04-03T08:34:07Z</time></trkpt><trkpt lat="42.91505236560133" lon="3.021362852263447"><ele>25.0</ele><time>2026-04-03T08:34:08Z</time></trkpt><trkpt lat="42.915204966764094" lon="3.0213816821970463"><ele>25.0</ele><time>2026-04-03T08:34:09Z</time></trkpt><trkpt lat="42.915352951133826" lon="3.021392961778401"><ele>25.5</ele><time>2026-04-03T08:34:10Z</time></trkpt><trkpt lat="42.91550462812541" lon="3.021394245848497"><ele>26.0</ele><time>2026-04-03T08:34:11Z</time></trkpt><trkpt lat="42.91565253498041" lon="3.021388739004239"><ele>26.5</ele><time>2026-04-03T08:34:12Z</time></trkpt><trkpt lat="42.915798967977075" lon="3.0213804061400493"><ele>27.0</ele><time>2026-04-03T08:34:13Z</time></trkpt><trkpt lat="42.915941121447055" lon="3.0213614940306766"><ele>29.25</ele><time>2026-04-03T08:34:14Z</time></trkpt><trkpt lat="42.91608535106727" lon="3.021342810698847"><ele>31.5</ele><time>2026-04-03T08:34:15Z</time></trkpt><trkpt lat="42.91622599439614" lon="3.0213140852879627"><ele>33.75</ele><time>2026-04-03T08:34:16Z</time></trkpt><trkpt lat="42.916371193317374" lon="3.021282423873508"><ele>36.0</ele><time>2026-04-03T08:34:17Z</time></trkpt><trkpt lat="42.91651676012095" lon="3.0212413639286537"><ele>36.0</ele><time>2026-04-03T08:34:18Z</time></trkpt><trkpt lat="42.916658692974" lon="3.02119399381232"><ele>36.0</ele><time>2026-04-03T08:34:19Z</time></trkpt><trkpt lat="42.91680326034317" lon="3.0211472402930415"><ele>36.0</ele><time>2026-04-03T08:34:20Z</time></trkpt><trkpt lat="42.916944201081805" lon="3.021092085788901"><ele>36.0</ele><time>2026-04-03T08:34:21Z</time></trkpt><trkpt lat="42.91708296741777" lon="3.021036508648663"><ele>37.5</ele><time>2026-04-03T08:34:22Z</time></trkpt><trkpt lat="42.917220870541335" lon="3.0209751588822966"><ele>39.0</ele><time>2026-04-03T08:34:23Z</time></trkpt><trkpt lat="42.91735592717622" lon="3.0209043591178326"><ele>40.5</ele><time>2026-04-03T08:34:24Z</time></trkpt><trkpt lat="42.91748674932143" lon="3.020821085262326"><ele>42.0</ele><time>2026-04-03T08:34:25Z</time></trkpt><trkpt lat="42.91761361401137" lon="3.0207255846631624"><ele>42.0</ele><time>2026-04-03T08:34:26Z</time></trkpt><trkpt lat="42.917739573451115" lon="3.020625168363634"><ele>42.0</ele><time>2026-04-03T08:34:27Z</time></trkpt><trkpt lat="42.917863906638225" lon="3.0205186336641585"><ele>42.0</ele><time>2026-04-03T08:34:28Z</time></trkpt><trkpt lat="42.91799517516197" lon="3.0204063834379875"><ele>42.0</ele><time>2026-04-03T08:34:29Z</time></trkpt><trkpt lat="42.918121550473124" lon="3.02028651130077"><ele>42.0</ele><time>2026-04-03T08:34:30Z</time></trkpt><trkpt lat="42.91825300798023" lon="3.0201637750801393"><ele>42.0</ele><time>2026-04-03T08:34:31Z</time></trkpt><trkpt lat="42.91838037346675" lon="3.020035541500185"><ele>42.0</ele><time>2026-04-03T08:34:32Z</time></trkpt><trkpt lat="42.9185012880303" lon="3.0199037228771086"><ele>43.333333333333336</ele><time>2026-04-03T08:34:33Z</time></trkpt><trkpt lat="42.91861850729957" lon="3.0197691981233783"><ele>44.66666666666667</ele><time>2026-04-03T08:34:34Z</time></trkpt><trkpt lat="42.91873166913882" lon="3.019630485809318"><ele>46.0</ele><time>2026-04-03T08:34:35Z</time></trkpt><trkpt lat="42.918843320887355" lon="3.019484170106863"><ele>46.0</ele><time>2026-04-03T08:34:36Z</time></trkpt><trkpt lat="42.91895674525731" lon="3.0193364460955654"><ele>46.0</ele><time>2026-04-03T08:34:37Z</time></trkpt><trkpt lat="42.91907073166851" lon="3.019191986035299"><ele>46.0</ele><time>2026-04-03T08:34:38Z</time></trkpt><trkpt lat="42.91918891843036" lon="3.0190481448247533"><ele>44.66666666666667</ele><time>2026-04-03T08:34:39Z</time></trkpt><trkpt lat="42.91931383773231" lon="3.018905472751339"><ele>43.333333333333336</ele><time>2026-04-03T08:34:40Z</time></trkpt><trkpt lat="42.9194372026044" lon="3.018767705265388"><ele>42.0</ele><time>2026-04-03T08:34:41Z</time></trkpt><trkpt lat="42.919566912273915" lon="3.0186326677074935"><ele>42.0</ele><time>2026-04-03T08:34:42Z</time></trkpt><trkpt lat="42.91970070244951" lon="3.018502117209924"><ele>42.0</ele><time>2026-04-03T08:34:43Z</time></trkpt><trkpt lat="42.919838183850146" lon="3.0183796007239945"><ele>42.0</ele><time>2026-04-03T08:34:44Z</time></trkpt><trkpt lat="42.91998031154187" lon="3.0182650380625784"><ele>40.0</ele><time>2026-04-03T08:34:45Z</time></trkpt><trkpt lat="42.920124256665225" lon="3.018159983794606"><ele>38.0</ele><time>2026-04-03T08:34:46Z</time></trkpt><trkpt lat="42.920270457713336" lon="3.0180669267012616"><ele>36.0</ele><time>2026-04-03T08:34:47Z</time></trkpt><trkpt lat="42.92041921033027" lon="3.017980770953777"><ele>36.0</ele><time>2026-04-03T08:34:48Z</time></trkpt><trkpt lat="42.920574462592484" lon="3.017902002182138"><ele>36.0</ele><time>2026-04-03T08:34:49Z</time></trkpt><trkpt lat="42.920731030578054" lon="3.017831351585374"><ele>36.0</ele><time>2026-04-03T08:34:50Z</time></trkpt><trkpt lat="42.92089069083506" lon="3.017768420140116"><ele>38.0</ele><time>2026-04-03T08:34:51Z</time></trkpt><trkpt lat="42.921054943771566" lon="3.0177167625753674"><ele>40.0</ele><time>2026-04-03T08:34:52Z</time></trkpt><trkpt lat="42.92122115059551" lon="3.0176739976702973"><ele>42.0</ele><time>2026-04-03T08:34:53Z</time></trkpt><trkpt lat="42.92138635951465" lon="3.0176478979836574"><ele>42.0</ele><time>2026-04-03T08:34:54Z</time></trkpt><trkpt lat="42.92154827572863" lon="3.0176311889171226"><ele>42.0</ele><time>2026-04-03T08:34:55Z</time></trkpt><trkpt lat="42.92170974931836" lon="3.017620751653376"><ele>42.0</ele><time>2026-04-03T08:34:56Z</time></trkpt><trkpt lat="42.92187693314251" lon="3.0176210406044266"><ele>42.0</ele><time>2026-04-03T08:34:57Z</time></trkpt><trkpt lat="42.922048799107316" lon="3.0176302437332008"><ele>42.0</ele><time>2026-04-03T08:34:58Z</time></trkpt><trkpt lat="42.92222288368607" lon="3.017653375686282"><ele>42.0</ele><time>2026-04-03T08:34:59Z</time></trkpt><trkpt lat="42.92239752502677" lon="3.0176904878589617"><ele>41.666666666666664</ele><time>2026-04-03T08:35:00Z</time></trkpt><trkpt lat="42.92257537377881" lon="3.017737536082716"><ele>41.33333333333333</ele><time>2026-04-03T08:35:01Z</time></trkpt><trkpt lat="42.922747274980395" lon="3.017794543999942"><ele>41.0</ele><time>2026-04-03T08:35:02Z</time></trkpt><trkpt lat="42.92291713433222" lon="3.017862426044377"><ele>41.0</ele><time>2026-04-03T08:35:03Z</time></trkpt><trkpt lat="42.92308370709949" lon="3.0179459312398405"><ele>41.0</ele><time>2026-04-03T08:35:04Z</time></trkpt><trkpt lat="42.92325092141484" lon="3.018030257428813"><ele>41.0</ele><time>2026-04-03T08:35:05Z</time></trkpt><trkpt lat="42.92341949496128" lon="3.018116951032727"><ele>40.666666666666664</ele><time>2026-04-03T08:35:06Z</time></trkpt><trkpt lat="42.92358214061369" lon="3.0182002680305793"><ele>40.333333333333336</ele><time>2026-04-03T08:35:07Z</time></trkpt><trkpt lat="42.923746616241125" lon="3.018280251040688"><ele>40.0</ele><time>2026-04-03T08:35:08Z</time></trkpt><trkpt lat="42.92391187288123" lon="3.0183562700992423"><ele>40.0</ele><time>2026-04-03T08:35:09Z</time></trkpt><trkpt lat="42.924079745652286" lon="3.018429778777582"><ele>40.0</ele><time>2026-04-03T08:35:10Z</time></trkpt><trkpt lat="42.92425105665112" lon="3.018497167428667"><ele>40.0</ele><time>2026-04-03T08:35:11Z</time></trkpt><trkpt lat="42.92442518200509" lon="3.018552859527777"><ele>37.66666666666667</ele><time>2026-04-03T08:35:12Z</time></trkpt><trkpt lat="42.924598478458385" lon="3.0186049754104363"><ele>35.333333333333336</ele><time>2026-04-03T08:35:13Z</time></trkpt><trkpt lat="42.924774977411346" lon="3.0186483705255007"><ele>33.0</ele><time>2026-04-03T08:35:14Z</time></trkpt><trkpt lat="42.92495276437825" lon="3.0186848661000214"><ele>34.333333333333336</ele><time>2026-04-03T08:35:15Z</time></trkpt><trkpt lat="42.92513213212323" lon="3.018715153648837"><ele>35.66666666666667</ele><time>2026-04-03T08:35:16Z</time></trkpt><trkpt lat="42.92531313369025" lon="3.018736555583027"><ele>37.0</ele><time>2026-04-03T08:35:17Z</time></trkpt><trkpt lat="42.92549215802839" lon="3.0187462790297954"><ele>37.0</ele><time>2026-04-03T08:35:18Z</time></trkpt><trkpt lat="42.92567014719003" lon="3.018747269761131"><ele>37.0</ele><time>2026-04-03T08:35:19Z</time></trkpt><trkpt lat="42.925848710842864" lon="3.0187447627757313"><ele>37.0</ele><time>2026-04-03T08:35:20Z</time></trkpt><trkpt lat="42.92602836658059" lon="3.018734300283335"><ele>37.333333333333336</ele><time>2026-04-03T08:35:21Z</time></trkpt><trkpt lat="42.92620587615969" lon="3.018714932845549"><ele>37.666666666666664</ele><time>2026-04-03T08:35:22Z</time></trkpt><trkpt lat="42.926380561960045" lon="3.0186847162672468"><ele>38.0</ele><time>2026-04-03T08:35:23Z</time></trkpt><trkpt lat="42.92655207265602" lon="3.018645261985314"><ele>38.0</ele><time>2026-04-03T08:35:24Z</time></trkpt><trkpt lat="42.92672411429534" lon="3.0186024846604425"><ele>38.0</ele><time>2026-04-03T08:35:25Z</time></trkpt><trkpt lat="42.92689765856342" lon="3.0185513959742303"><ele>38.0</ele><time>2026-04-03T08:35:26Z</time></trkpt><trkpt lat="42.927069484835606" lon="3.0184887367866193"><ele>37.666666666666664</ele><time>2026-04-03T08:35:27Z</time></trkpt><trkpt lat="42.92724475979455" lon="3.0184232954137507"><ele>37.333333333333336</ele><time>2026-04-03T08:35:28Z</time></trkpt><trkpt lat="42.92742001533832" lon="3.0183461329075643"><ele>37.0</ele><time>2026-04-03T08:35:29Z</time></trkpt><trkpt lat="42.927590168179506" lon="3.0182594968304715"><ele>37.0</ele><time>2026-04-03T08:35:30Z</time></trkpt><trkpt lat="42.92776199828575" lon="3.018164759320814"><ele>37.0</ele><time>2026-04-03T08:35:31Z</time></trkpt><trkpt lat="42.927932545965106" lon="3.018062503832937"><ele>37.0</ele><time>2026-04-03T08:35:32Z</time></trkpt><trkpt lat="42.928099329977194" lon="3.017953618739746"><ele>37.0</ele><time>2026-04-03T08:35:33Z</time></trkpt><trkpt lat="42.928261278083646" lon="3.017839189279615"><ele>37.0</ele><time>2026-04-03T08:35:34Z</time></trkpt><trkpt lat="42.92842108201845" lon="3.017714935659128"><ele>37.0</ele><time>2026-04-03T08:35:35Z</time></trkpt><trkpt lat="42.92857450246608" lon="3.017585410901223"><ele>36.0</ele><time>2026-04-03T08:35:36Z</time></trkpt><trkpt lat="42.92872284103321" lon="3.0174482780074032"><ele>35.0</ele><time>2026-04-03T08:35:37Z</time></trkpt><trkpt lat="42.928870684965446" lon="3.0173033193961354"><ele>34.0</ele><time>2026-04-03T08:35:38Z</time></trkpt><trkpt lat="42.92901464730695" lon="3.01715518172698"><ele>34.0</ele><time>2026-04-03T08:35:39Z</time></trkpt><trkpt lat="42.92915562238161" lon="3.016998747077671"><ele>34.0</ele><time>2026-04-03T08:35:40Z</time></trkpt><trkpt lat="42.929284049534715" lon="3.0168434934537482"><ele>34.0</ele><time>2026-04-03T08:35:41Z</time></trkpt><trkpt lat="42.92941232257427" lon="3.0166793006091686"><ele>32.0</ele><time>2026-04-03T08:35:42Z</time></trkpt><trkpt lat="42.92953586116522" lon="3.0165098695178303"><ele>30.0</ele><time>2026-04-03T08:35:43Z</time></trkpt><trkpt lat="42.92965574206793" lon="3.016333050272499"><ele>28.0</ele><time>2026-04-03T08:35:44Z</time></trkpt><trkpt lat="42.92977574686609" lon="3.0161519857075505"><ele>28.0</ele><time>2026-04-03T08:35:45Z</time></trkpt><trkpt lat="42.92988755429659" lon="3.0159659848055758"><ele>28.0</ele><time>2026-04-03T08:35:46Z</time></trkpt><trkpt lat="42.92999637708327" lon="3.015775594743941"><ele>28.0</ele><time>2026-04-03T08:35:47Z</time></trkpt><trkpt lat="42.9300949870381" lon="3.015582953117636"><ele>24.0</ele><time>2026-04-03T08:35:48Z</time></trkpt><trkpt lat="42.9301932997682" lon="3.015384411036543"><ele>20.0</ele><time>2026-04-03T08:35:49Z</time></trkpt><trkpt lat="42.93028522352696" lon="3.01517862639986"><ele>16.0</ele><time>2026-04-03T08:35:50Z</time></trkpt><trkpt lat="42.93036686407064" lon="3.01497079883903"><ele>15.333333333333332</ele><time>2026-04-03T08:35:51Z</time></trkpt><trkpt lat="42.930447177756605" lon="3.014762028938949"><ele>14.666666666666668</ele><time>2026-04-03T08:35:52Z</time></trkpt><trkpt lat="42.93052559098022" lon="3.0145522894861347"><ele>14.0</ele><time>2026-04-03T08:35:53Z</time></trkpt><trkpt lat="42.93059819555532" lon="3.0143286959604305"><ele>13.333333333333334</ele><time>2026-04-03T08:35:54Z</time></trkpt><trkpt lat="42.93067297596626" lon="3.0141011068314385"><ele>12.666666666666668</ele><time>2026-04-03T08:35:55Z</time></trkpt><trkpt lat="42.93074305303907" lon="3.013870902412116"><ele>12.0</ele><time>2026-04-03T08:35:56Z</time></trkpt><trkpt lat="42.93080814760234" lon="3.0136317782205895"><ele>12.0</ele><time>2026-04-03T08:35:57Z</time></trkpt><trkpt lat="42.930876905514715" lon="3.013384168323937"><ele>12.0</ele><time>2026-04-03T08:35:58Z</time></trkpt><trkpt lat="42.93094710090516" lon="3.013124196569351"><ele>12.0</ele><time>2026-04-03T08:35:59Z</time></trkpt><trkpt lat="42.93101038138453" lon="3.0128515920433374"><ele>10.0</ele><time>2026-04-03T08:36:00Z</time></trkpt><trkpt lat="42.93107220900317" lon="3.012558162384625"><ele>8.0</ele><time>2026-04-03T08:36:01Z</time></trkpt><trkpt lat="42.93114255380022" lon="3.0122662787875214"><ele>6.0</ele><time>2026-04-03T08:36:02Z</time></trkpt><trkpt lat="42.931222650064235" lon="3.0119792110487276"><ele>6.0</ele><time>2026-04-03T08:36:03Z</time></trkpt><trkpt lat="42.93130195840086" lon="3.011687624534846"><ele>6.0</ele><time>2026-04-03T08:36:04Z</time></trkpt><trkpt lat="42.931382447025165" lon="3.0113966623036106"><ele>5.333333333333333</ele><time>2026-04-03T08:36:05Z</time></trkpt><trkpt lat="42.93146396863511" lon="3.011107707229284"><ele>4.666666666666666</ele><time>2026-04-03T08:36:06Z</time></trkpt><trkpt lat="42.93154707568819" lon="3.010825932412896"><ele>4.0</ele><time>2026-04-03T08:36:07Z</time></trkpt><trkpt lat="42.93162697970554" lon="3.010549601895116"><ele>3.333333333333333</ele><time>2026-04-03T08:36:08Z</time></trkpt><trkpt lat="42.9317047689077" lon="3.010278663391772"><ele>2.6666666666666665</ele><time>2026-04-03T08:36:09Z</time></trkpt><trkpt lat="42.93177725497237" lon="3.0100114453526854"><ele>2.0</ele><time>2026-04-03T08:36:10Z</time></trkpt><trkpt lat="42.9318514444148" lon="3.0097465858220342"><ele>1.3333333333333333</ele><time>2026-04-03T08:36:11Z</time></trkpt><trkpt lat="42.931924576179" lon="3.009480278332168"><ele>0.6666666666666666</ele><time>2026-04-03T08:36:12Z</time></trkpt><trkpt lat="42.93199794515035" lon="3.0092149558533072"><ele>0.0</ele><time>2026-04-03T08:36:13Z</time></trkpt><trkpt lat="42.93206966048744" lon="3.008945044168462"><ele>0.0</ele><time>2026-04-03T08:36:14Z</time></trkpt><trkpt lat="42.9321389861055" lon="3.0086854372419896"><ele>0.0</ele><time>2026-04-03T08:36:15Z</time></trkpt><trkpt lat="42.93220944630935" lon="3.008424387823248"><ele>0.0</ele><time>2026-04-03T08:36:16Z</time></trkpt><trkpt lat="42.93228080175397" lon="3.0081664998397364"><ele>0.0</ele><time>2026-04-03T08:36:17Z</time></trkpt><trkpt lat="42.932352586051316" lon="3.0079050709186457"><ele>0.0</ele><time>2026-04-03T08:36:18Z</time></trkpt><trkpt lat="42.93242488374991" lon="3.0076514825432192"><ele>0.0</ele><time>2026-04-03T08:36:19Z</time></trkpt><trkpt lat="42.93249558505163" lon="3.007394156089242"><ele>0.6666666666666666</ele><time>2026-04-03T08:36:20Z</time></trkpt><trkpt lat="42.93256581896809" lon="3.007139964219859"><ele>1.3333333333333333</ele><time>2026-04-03T08:36:21Z</time></trkpt><trkpt lat="42.9326375827498" lon="3.0068834294673414"><ele>2.0</ele><time>2026-04-03T08:36:22Z</time></trkpt><trkpt lat="42.9327081877802" lon="3.006630441913809"><ele>2.0</ele><time>2026-04-03T08:36:23Z</time></trkpt><trkpt lat="42.93277778428312" lon="3.0063779454757613"><ele>2.0</ele><time>2026-04-03T08:36:24Z</time></trkpt><trkpt lat="42.93284645174154" lon="3.006130731305332"><ele>2.0</ele><time>2026-04-03T08:36:25Z</time></trkpt><trkpt lat="42.9329094487545" lon="3.005886574968165"><ele>2.6666666666666665</ele><time>2026-04-03T08:36:26Z</time></trkpt><trkpt lat="42.93297352921416" lon="3.0056527299328843"><ele>3.333333333333333</ele><time>2026-04-03T08:36:27Z</time></trkpt><trkpt lat="42.93303364782881" lon="3.0054288365398523"><ele>4.0</ele><time>2026-04-03T08:36:28Z</time></trkpt><trkpt lat="42.933094197635576" lon="3.005214083540959"><ele>4.0</ele><time>2026-04-03T08:36:29Z</time></trkpt><trkpt lat="42.933154890637304" lon="3.005016768927343"><ele>4.0</ele><time>2026-04-03T08:36:30Z</time></trkpt><trkpt lat="42.93320920780333" lon="3.004819770689311"><ele>4.0</ele><time>2026-04-03T08:36:31Z</time></trkpt><trkpt lat="42.93326070222841" lon="3.0046336028440295"><ele>4.25</ele><time>2026-04-03T08:36:32Z</time></trkpt><trkpt lat="42.93331249721093" lon="3.004451830429943"><ele>4.5</ele><time>2026-04-03T08:36:33Z</time></trkpt><trkpt lat="42.93336086324566" lon="3.0042717617626007"><ele>4.75</ele><time>2026-04-03T08:36:34Z</time></trkpt><trkpt lat="42.93340603286343" lon="3.0041003123214374"><ele>5.0</ele><time>2026-04-03T08:36:35Z</time></trkpt><trkpt lat="42.93345022438192" lon="3.003940650757884"><ele>5.0</ele><time>2026-04-03T08:36:36Z</time></trkpt><trkpt lat="42.93349116424156" lon="3.0037849955751685"><ele>5.0</ele><time>2026-04-03T08:36:37Z</time></trkpt><trkpt lat="42.93352880169078" lon="3.0036397925420264"><ele>5.0</ele><time>2026-04-03T08:36:38Z</time></trkpt><trkpt lat="42.933563527637176" lon="3.003501580996794"><ele>5.0</ele><time>2026-04-03T08:36:39Z</time></trkpt><trkpt lat="42.93360306959945" lon="3.0033872254686313"><ele>5.0</ele><time>2026-04-03T08:36:40Z</time></trkpt><trkpt lat="42.93364655650789" lon="3.0032911366673924"><ele>5.0</ele><time>2026-04-03T08:36:41Z</time></trkpt><trkpt lat="42.93369539085203" lon="3.0032080505650467"><ele>5.0</ele><time>2026-04-03T08:36:42Z</time></trkpt><trkpt lat="42.93375589952815" lon="3.003153528884112"><ele>5.0</ele><time>2026-04-03T08:36:43Z</time></trkpt><trkpt lat="42.933818278509555" lon="3.0031036913008196"><ele>5.0</ele><time>2026-04-03T08:36:44Z</time></trkpt><trkpt lat="42.933867011531724" lon="3.003024416607683"><ele>5.0</ele><time>2026-04-03T08:36:45Z</time></trkpt><trkpt lat="42.93389702212675" lon="3.002919172797146"><ele>5.0</ele><time>2026-04-03T08:36:46Z</time></trkpt><trkpt lat="42.933893820856376" lon="3.0028069054281086"><ele>5.0</ele><time>2026-04-03T08:36:47Z</time></trkpt><trkpt lat="42.93386929950089" lon="3.0026939129533807"><ele>5.0</ele><time>2026-04-03T08:36:48Z</time></trkpt><trkpt lat="42.93385369336325" lon="3.002571145262929"><ele>5.0</ele><time>2026-04-03T08:36:49Z</time></trkpt><trkpt lat="42.933866363648264" lon="3.002442816371873"><ele>5.0</ele><time>2026-04-03T08:36:50Z</time></trkpt><trkpt lat="42.933891937677416" lon="3.002316769665625"><ele>5.0</ele><time>2026-04-03T08:36:51Z</time></trkpt><trkpt lat="42.933926353676476" lon="3.002179836108419"><ele>5.25</ele><time>2026-04-03T08:36:52Z</time></trkpt><trkpt lat="42.93396336042502" lon="3.0020385848897027"><ele>5.5</ele><time>2026-04-03T08:36:53Z</time></trkpt><trkpt lat="42.93400517248338" lon="3.001895567835759"><ele>5.75</ele><time>2026-04-03T08:36:54Z</time></trkpt><trkpt lat="42.93404851141358" lon="3.0017393720707837"><ele>6.0</ele><time>2026-04-03T08:36:55Z</time></trkpt><trkpt lat="42.93409030421465" lon="3.001570629778002"><ele>6.0</ele><time>2026-04-03T08:36:56Z</time></trkpt><trkpt lat="42.93413613198947" lon="3.001399178533647"><ele>6.0</ele><time>2026-04-03T08:36:57Z</time></trkpt><trkpt lat="42.93418405878487" lon="3.0012210552709306"><ele>6.0</ele><time>2026-04-03T08:36:58Z</time></trkpt><trkpt lat="42.934232945536" lon="3.0010412965694933"><ele>6.0</ele><time>2026-04-03T08:36:59Z</time></trkpt><trkpt lat="42.93427853347327" lon="3.000850391580327"><ele>6.666666666666666</ele><time>2026-04-03T08:37:00Z</time></trkpt><trkpt lat="42.934327117093034" lon="3.0006508153943"><ele>7.333333333333333</ele><time>2026-04-03T08:37:01Z</time></trkpt><trkpt lat="42.934380011727534" lon="3.0004483093734566"><ele>8.0</ele><time>2026-04-03T08:37:02Z</time></trkpt><trkpt lat="42.93443308824549" lon="3.000252028836422"><ele>8.0</ele><time>2026-04-03T08:37:03Z</time></trkpt><trkpt lat="42.9344870295808" lon="3.0000547197872587"><ele>8.0</ele><time>2026-04-03T08:37:04Z</time></trkpt><trkpt lat="42.9345377510876" lon="2.9998566475116335"><ele>8.0</ele><time>2026-04-03T08:37:05Z</time></trkpt><trkpt lat="42.93459287207566" lon="2.9996568118150564"><ele>8.0</ele><time>2026-04-03T08:37:06Z</time></trkpt><trkpt lat="42.934646326561015" lon="2.999452027009937"><ele>8.0</ele><time>2026-04-03T08:37:07Z</time></trkpt><trkpt lat="42.93470050906618" lon="2.999247200080232"><ele>8.0</ele><time>2026-04-03T08:37:08Z</time></trkpt><trkpt lat="42.93474907859383" lon="2.999037130827756"><ele>8.0</ele><time>2026-04-03T08:37:09Z</time></trkpt><trkpt lat="42.93479727412224" lon="2.99883155799889"><ele>8.0</ele><time>2026-04-03T08:37:10Z</time></trkpt><trkpt lat="42.93484649203686" lon="2.9986227394856306"><ele>8.0</ele><time>2026-04-03T08:37:11Z</time></trkpt><trkpt lat="42.934898297016616" lon="2.9984112635574727"><ele>8.333333333333332</ele><time>2026-04-03T08:37:12Z</time></trkpt><trkpt lat="42.93494496069888" lon="2.998197379201597"><ele>8.666666666666666</ele><time>2026-04-03T08:37:13Z</time></trkpt><trkpt lat="42.93499476112111" lon="2.997984075674637"><ele>9.0</ele><time>2026-04-03T08:37:14Z</time></trkpt><trkpt lat="42.93504432026075" lon="2.9977676578860692"><ele>9.0</ele><time>2026-04-03T08:37:15Z</time></trkpt><trkpt lat="42.93509298349973" lon="2.997552337586116"><ele>9.0</ele><time>2026-04-03T08:37:16Z</time></trkpt><trkpt lat="42.93514097105663" lon="2.997329562627171"><ele>9.0</ele><time>2026-04-03T08:37:17Z</time></trkpt><trkpt lat="42.935188946757854" lon="2.997105157272107"><ele>8.666666666666666</ele><time>2026-04-03T08:37:18Z</time></trkpt><trkpt lat="42.935236839583645" lon="2.9968814146255642"><ele>8.333333333333332</ele><time>2026-04-03T08:37:19Z</time></trkpt><trkpt lat="42.93528632563876" lon="2.9966578657846625"><ele>8.0</ele><time>2026-04-03T08:37:20Z</time></trkpt><trkpt lat="42.935336495507556" lon="2.9964266180868004"><ele>9.0</ele><time>2026-04-03T08:37:21Z</time></trkpt><trkpt lat="42.935388611721706" lon="2.9961926822521563"><ele>10.0</ele><time>2026-04-03T08:37:22Z</time></trkpt><trkpt lat="42.935441624383834" lon="2.9959615909658273"><ele>11.0</ele><time>2026-04-03T08:37:23Z</time></trkpt><trkpt lat="42.9354935253408" lon="2.9957272724755897"><ele>11.0</ele><time>2026-04-03T08:37:24Z</time></trkpt><trkpt lat="42.935546095152745" lon="2.995493789532538"><ele>11.0</ele><time>2026-04-03T08:37:25Z</time></trkpt><trkpt lat="42.93560193712037" lon="2.9952596318473925"><ele>11.0</ele><time>2026-04-03T08:37:26Z</time></trkpt><trkpt lat="42.93565641728928" lon="2.9950249426398083"><ele>11.333333333333332</ele><time>2026-04-03T08:37:27Z</time></trkpt><trkpt lat="42.935710621810564" lon="2.9947932860832593"><ele>11.666666666666666</ele><time>2026-04-03T08:37:28Z</time></trkpt><trkpt lat="42.935763931937174" lon="2.9945634265465677"><ele>12.0</ele><time>2026-04-03T08:37:29Z</time></trkpt><trkpt lat="42.935820720129065" lon="2.9943278551839128"><ele>12.333333333333332</ele><time>2026-04-03T08:37:30Z</time></trkpt><trkpt lat="42.93587632209731" lon="2.994092614117143"><ele>12.666666666666666</ele><time>2026-04-03T08:37:31Z</time></trkpt><trkpt lat="42.93593404352834" lon="2.9938533495144624"><ele>13.0</ele><time>2026-04-03T08:37:32Z</time></trkpt><trkpt lat="42.935991516724165" lon="2.9936208657741035"><ele>13.0</ele><time>2026-04-03T08:37:33Z</time></trkpt><trkpt lat="42.9360460617021" lon="2.993385885456048"><ele>13.0</ele><time>2026-04-03T08:37:34Z</time></trkpt><trkpt lat="42.936093774994276" lon="2.993148844442794"><ele>13.0</ele><time>2026-04-03T08:37:35Z</time></trkpt><trkpt lat="42.93613999827474" lon="2.9929077846270187"><ele>13.333333333333332</ele><time>2026-04-03T08:37:36Z</time></trkpt><trkpt lat="42.93618962814586" lon="2.992670221037901"><ele>13.666666666666668</ele><time>2026-04-03T08:37:37Z</time></trkpt><trkpt lat="42.93623526533151" lon="2.992432371790401"><ele>14.0</ele><time>2026-04-03T08:37:38Z</time></trkpt><trkpt lat="42.93627900568598" lon="2.9921907690423133"><ele>14.666666666666668</ele><time>2026-04-03T08:37:39Z</time></trkpt><trkpt lat="42.936324472115345" lon="2.991948293628839"><ele>15.333333333333332</ele><time>2026-04-03T08:37:40Z</time></trkpt><trkpt lat="42.936372565212885" lon="2.991707311415001"><ele>16.0</ele><time>2026-04-03T08:37:41Z</time></trkpt><trkpt lat="42.93642080399396" lon="2.991461471601135"><ele>16.0</ele><time>2026-04-03T08:37:42Z</time></trkpt><trkpt lat="42.93647134906895" lon="2.991218847476543"><ele>16.0</ele><time>2026-04-03T08:37:43Z</time></trkpt><trkpt lat="42.93652521184359" lon="2.990977661187227"><ele>16.0</ele><time>2026-04-03T08:37:44Z</time></trkpt><trkpt lat="42.93658095644134" lon="2.9907358644903543"><ele>16.333333333333332</ele><time>2026-04-03T08:37:45Z</time></trkpt><trkpt lat="42.93664020745387" lon="2.9904940306443777"><ele>16.666666666666668</ele><time>2026-04-03T08:37:46Z</time></trkpt><trkpt lat="42.93669754963801" lon="2.9902530830534944"><ele>17.0</ele><time>2026-04-03T08:37:47Z</time></trkpt><trkpt lat="42.93675126383413" lon="2.9900088655934516"><ele>17.0</ele><time>2026-04-03T08:37:48Z</time></trkpt><trkpt lat="42.936803730090695" lon="2.989766098711208"><ele>17.0</ele><time>2026-04-03T08:37:49Z</time></trkpt><trkpt lat="42.93685771650648" lon="2.9895190521850514"><ele>17.0</ele><time>2026-04-03T08:37:50Z</time></trkpt><trkpt lat="42.936909850647794" lon="2.9892712494228943"><ele>17.666666666666668</ele><time>2026-04-03T08:37:51Z</time></trkpt><trkpt lat="42.93696286747154" lon="2.989023939532699"><ele>18.333333333333332</ele><time>2026-04-03T08:37:52Z</time></trkpt><trkpt lat="42.93701652642186" lon="2.9887730387689846"><ele>19.0</ele><time>2026-04-03T08:37:53Z</time></trkpt><trkpt lat="42.93707236199215" lon="2.9885250804750654"><ele>19.0</ele><time>2026-04-03T08:37:54Z</time></trkpt><trkpt lat="42.93712480543685" lon="2.9882771450384333"><ele>19.0</ele><time>2026-04-03T08:37:55Z</time></trkpt><trkpt lat="42.937178528199375" lon="2.988028098861111"><ele>19.0</ele><time>2026-04-03T08:37:56Z</time></trkpt><trkpt lat="42.93723022804628" lon="2.9877751649294075"><ele>19.0</ele><time>2026-04-03T08:37:57Z</time></trkpt><trkpt lat="42.93728552566153" lon="2.987522655368231"><ele>19.0</ele><time>2026-04-03T08:37:58Z</time></trkpt><trkpt lat="42.93733753559553" lon="2.987270128768277"><ele>19.0</ele><time>2026-04-03T08:37:59Z</time></trkpt><trkpt lat="42.93739322095179" lon="2.98701914009344"><ele>19.333333333333332</ele><time>2026-04-03T08:38:00Z</time></trkpt><trkpt lat="42.93744707165564" lon="2.9867665849529543"><ele>19.666666666666668</ele><time>2026-04-03T08:38:01Z</time></trkpt><trkpt lat="42.93749934740128" lon="2.9865108126666047"><ele>20.0</ele><time>2026-04-03T08:38:02Z</time></trkpt><trkpt lat="42.937553746845346" lon="2.9862523112584003"><ele>20.333333333333336</ele><time>2026-04-03T08:38:03Z</time></trkpt><trkpt lat="42.9376060147628" lon="2.9859916327609706"><ele>20.666666666666668</ele><time>2026-04-03T08:38:04Z</time></trkpt><trkpt lat="42.93765712679227" lon="2.985730995949658"><ele>21.0</ele><time>2026-04-03T08:38:05Z</time></trkpt><trkpt lat="42.937709635003436" lon="2.9854682846237512"><ele>21.333333333333332</ele><time>2026-04-03T08:38:06Z</time></trkpt><trkpt lat="42.9377641217256" lon="2.985208685489996"><ele>21.666666666666664</ele><time>2026-04-03T08:38:07Z</time></trkpt><trkpt lat="42.93781430894508" lon="2.984949240965947"><ele>22.0</ele><time>2026-04-03T08:38:08Z</time></trkpt><trkpt lat="42.93787157549187" lon="2.9846922263088627"><ele>22.0</ele><time>2026-04-03T08:38:09Z</time></trkpt><trkpt lat="42.93792251647881" lon="2.9844324477747164"><ele>22.0</ele><time>2026-04-03T08:38:10Z</time></trkpt><trkpt lat="42.93796942966321" lon="2.98417212733405"><ele>22.0</ele><time>2026-04-03T08:38:11Z</time></trkpt><trkpt lat="42.938013492131994" lon="2.9839095364639703"><ele>22.333333333333332</ele><time>2026-04-03T08:38:12Z</time></trkpt><trkpt lat="42.93805215317493" lon="2.9836453936336427"><ele>22.666666666666668</ele><time>2026-04-03T08:38:13Z</time></trkpt><trkpt lat="42.93809677279315" lon="2.98338295409915"><ele>23.0</ele><time>2026-04-03T08:38:14Z</time></trkpt><trkpt lat="42.938133043802914" lon="2.983118962151841"><ele>23.666666666666668</ele><time>2026-04-03T08:38:15Z</time></trkpt><trkpt lat="42.93817231024535" lon="2.9828556754568507"><ele>24.333333333333336</ele><time>2026-04-03T08:38:16Z</time></trkpt><trkpt lat="42.93820997586218" lon="2.982591883661249"><ele>25.0</ele><time>2026-04-03T08:38:17Z</time></trkpt><trkpt lat="42.9382468987568" lon="2.9823296814319655"><ele>25.0</ele><time>2026-04-03T08:38:18Z</time></trkpt><trkpt lat="42.93828225734516" lon="2.982063909350855"><ele>25.0</ele><time>2026-04-03T08:38:19Z</time></trkpt><trkpt lat="42.93831658669583" lon="2.981801305141491"><ele>25.0</ele><time>2026-04-03T08:38:20Z</time></trkpt><trkpt lat="42.93834788335016" lon="2.98153524792171"><ele>25.333333333333336</ele><time>2026-04-03T08:38:21Z</time></trkpt><trkpt lat="42.93837852110018" lon="2.981270537821383"><ele>25.666666666666664</ele><time>2026-04-03T08:38:22Z</time></trkpt><trkpt lat="42.938407828646994" lon="2.9810047015540477"><ele>26.0</ele><time>2026-04-03T08:38:23Z</time></trkpt><trkpt lat="42.93843497934492" lon="2.980736956996509"><ele>27.0</ele><time>2026-04-03T08:38:24Z</time></trkpt><trkpt lat="42.93845938801897" lon="2.9804699317466428"><ele>28.0</ele><time>2026-04-03T08:38:25Z</time></trkpt><trkpt lat="42.93848480588725" lon="2.9802016943163525"><ele>29.0</ele><time>2026-04-03T08:38:26Z</time></trkpt><trkpt lat="42.93850813656515" lon="2.9799364293116044"><ele>29.0</ele><time>2026-04-03T08:38:27Z</time></trkpt><trkpt lat="42.938529272417185" lon="2.979670692123043"><ele>29.0</ele><time>2026-04-03T08:38:28Z</time></trkpt><trkpt lat="42.93854780579345" lon="2.9794045873727577"><ele>29.0</ele><time>2026-04-03T08:38:29Z</time></trkpt><trkpt lat="42.938565201547625" lon="2.9791349007543086"><ele>28.666666666666664</ele><time>2026-04-03T08:38:30Z</time></trkpt><trkpt lat="42.93858703282938" lon="2.9788672029052115"><ele>28.333333333333336</ele><time>2026-04-03T08:38:31Z</time></trkpt><trkpt lat="42.93860598583999" lon="2.9785964225865817"><ele>28.0</ele><time>2026-04-03T08:38:32Z</time></trkpt><trkpt lat="42.93862065706683" lon="2.978324486019376"><ele>28.0</ele><time>2026-04-03T08:38:33Z</time></trkpt><trkpt lat="42.938636243182934" lon="2.9780543303558016"><ele>28.0</ele><time>2026-04-03T08:38:34Z</time></trkpt><trkpt lat="42.93864716173181" lon="2.977781631481443"><ele>28.0</ele><time>2026-04-03T08:38:35Z</time></trkpt><trkpt lat="42.9386625363738" lon="2.9775112245069955"><ele>28.333333333333336</ele><time>2026-04-03T08:38:36Z</time></trkpt><trkpt lat="42.93867663918053" lon="2.9772392718545415"><ele>28.666666666666664</ele><time>2026-04-03T08:38:37Z</time></trkpt><trkpt lat="42.938688522978914" lon="2.976965904955738"><ele>29.0</ele><time>2026-04-03T08:38:38Z</time></trkpt><trkpt lat="42.93870500518102" lon="2.9766975300019305"><ele>29.333333333333332</ele><time>2026-04-03T08:38:39Z</time></trkpt><trkpt lat="42.93872054771557" lon="2.9764263186223885"><ele>29.666666666666664</ele><time>2026-04-03T08:38:40Z</time></trkpt><trkpt lat="42.93873306288696" lon="2.976161598262887"><ele>30.0</ele><time>2026-04-03T08:38:41Z</time></trkpt><trkpt lat="42.93875061257945" lon="2.9759062738529396"><ele>30.666666666666664</ele><time>2026-04-03T08:38:42Z</time></trkpt><trkpt lat="42.93876748387854" lon="2.975666178971735"><ele>31.333333333333332</ele><time>2026-04-03T08:38:43Z</time></trkpt><trkpt lat="42.938779345084995" lon="2.9754342237281812"><ele>32.0</ele><time>2026-04-03T08:38:44Z</time></trkpt><trkpt lat="42.9387956132877" lon="2.975216399738739"><ele>32.5</ele><time>2026-04-03T08:38:45Z</time></trkpt><trkpt lat="42.93882101783159" lon="2.9750083710860826"><ele>33.0</ele><time>2026-04-03T08:38:46Z</time></trkpt><trkpt lat="42.938856822532635" lon="2.974816051449844"><ele>33.5</ele><time>2026-04-03T08:38:47Z</time></trkpt><trkpt lat="42.938896205227664" lon="2.9746307115322446"><ele>34.0</ele><time>2026-04-03T08:38:48Z</time></trkpt><trkpt lat="42.938932535634294" lon="2.9744598265625823"><ele>34.0</ele><time>2026-04-03T08:38:49Z</time></trkpt><trkpt lat="42.93896377366245" lon="2.9742940877916295"><ele>34.0</ele><time>2026-04-03T08:38:50Z</time></trkpt><trkpt lat="42.9389897357678" lon="2.97413447415344"><ele>34.0</ele><time>2026-04-03T08:38:51Z</time></trkpt><trkpt lat="42.93901422530325" lon="2.9739857177322255"><ele>34.0</ele><time>2026-04-03T08:38:52Z</time></trkpt><trkpt lat="42.939033730475664" lon="2.9738417290602586"><ele>34.2</ele><time>2026-04-03T08:38:53Z</time></trkpt><trkpt lat="42.939048464762514" lon="2.9737096571495316"><ele>34.4</ele><time>2026-04-03T08:38:54Z</time></trkpt><trkpt lat="42.939063908137115" lon="2.9735854487381683"><ele>34.6</ele><time>2026-04-03T08:38:55Z</time></trkpt><trkpt lat="42.93907224278535" lon="2.973471575315862"><ele>34.8</ele><time>2026-04-03T08:38:56Z</time></trkpt><trkpt lat="42.93907741886756" lon="2.9733775419626225"><ele>35.0</ele><time>2026-04-03T08:38:57Z</time></trkpt><trkpt lat="42.93908704002163" lon="2.973221929064728"><ele>35.285714285714285</ele><time>2026-04-03T08:38:59Z</time></trkpt><trkpt lat="42.93908761990968" lon="2.9731225403719623"><ele>35.57142857142857</ele><time>2026-04-03T08:39:01Z</time></trkpt><trkpt lat="42.939091086942604" lon="2.973026178573159"><ele>35.85714285714286</ele><time>2026-04-03T08:39:04Z</time></trkpt><trkpt lat="42.93908438625384" lon="2.972912926856064"><ele>36.14285714285714</ele><time>2026-04-03T08:39:07Z</time></trkpt><trkpt lat="42.939083765605375" lon="2.97282018184903"><ele>36.42857142857143</ele><time>2026-04-03T08:39:09Z</time></trkpt><trkpt lat="42.93911212007194" lon="2.9727357682063826"><ele>36.714285714285715</ele><time>2026-04-03T08:39:11Z</time></trkpt><trkpt lat="42.939116728437035" lon="2.972640850375083"><ele>37.0</ele><time>2026-04-03T08:39:12Z</time></trkpt><trkpt lat="42.93910361297477" lon="2.972525826243849"><ele>37.2</ele><time>2026-04-03T08:39:13Z</time></trkpt><trkpt lat="42.93910939044988" lon="2.972390291003101"><ele>37.400000000000006</ele><time>2026-04-03T08:39:14Z</time></trkpt><trkpt lat="42.939115255791485" lon="2.9722567176286288"><ele>37.599999999999994</ele><time>2026-04-03T08:39:15Z</time></trkpt><trkpt lat="42.939122085401195" lon="2.972108222285761"><ele>37.8</ele><time>2026-04-03T08:39:16Z</time></trkpt><trkpt lat="42.939130039531896" lon="2.9719480159689797"><ele>38.0</ele><time>2026-04-03T08:39:17Z</time></trkpt><trkpt lat="42.93913374783786" lon="2.971784242055549"><ele>38.25</ele><time>2026-04-03T08:39:18Z</time></trkpt><trkpt lat="42.93913624060019" lon="2.9716199215469556"><ele>38.5</ele><time>2026-04-03T08:39:19Z</time></trkpt><trkpt lat="42.93915746413306" lon="2.9714568541657"><ele>38.75</ele><time>2026-04-03T08:39:20Z</time></trkpt><trkpt lat="42.93918823520603" lon="2.9712888248032483"><ele>39.0</ele><time>2026-04-03T08:39:21Z</time></trkpt><trkpt lat="42.93924164939545" lon="2.9711336467379756"><ele>39.0</ele><time>2026-04-03T08:39:22Z</time></trkpt><trkpt lat="42.93931081538308" lon="2.970990158739299"><ele>39.0</ele><time>2026-04-03T08:39:23Z</time></trkpt><trkpt lat="42.9393932256534" lon="2.970847108933929"><ele>39.0</ele><time>2026-04-03T08:39:24Z</time></trkpt><trkpt lat="42.939488564300525" lon="2.9707184782947356"><ele>39.0</ele><time>2026-04-03T08:39:25Z</time></trkpt><trkpt lat="42.939595940214986" lon="2.9706117207745693"><ele>39.0</ele><time>2026-04-03T08:39:26Z</time></trkpt><trkpt lat="42.93971255582156" lon="2.9705216032737187"><ele>39.0</ele><time>2026-04-03T08:39:27Z</time></trkpt><trkpt lat="42.93984183739966" lon="2.9704515843487425"><ele>39.0</ele><time>2026-04-03T08:39:28Z</time></trkpt><trkpt lat="42.93997939705197" lon="2.97040438226531"><ele>39.0</ele><time>2026-04-03T08:39:29Z</time></trkpt><trkpt lat="42.94013348901987" lon="2.970376237880089"><ele>39.333333333333336</ele><time>2026-04-03T08:39:30Z</time></trkpt><trkpt lat="42.940292245917966" lon="2.970367998656926"><ele>39.66666666666667</ele><time>2026-04-03T08:39:31Z</time></trkpt><trkpt lat="42.940445675840635" lon="2.9703594055544267"><ele>40.0</ele><time>2026-04-03T08:39:32Z</time></trkpt><trkpt lat="42.94061220468568" lon="2.9703678412228176"><ele>40.0</ele><time>2026-04-03T08:39:33Z</time></trkpt><trkpt lat="42.94078620205951" lon="2.970377429357205"><ele>40.0</ele><time>2026-04-03T08:39:34Z</time></trkpt><trkpt lat="42.94096712117046" lon="2.970392926141982"><ele>40.0</ele><time>2026-04-03T08:39:35Z</time></trkpt><trkpt lat="42.94114983627048" lon="2.9704102258110314"><ele>41.66666666666667</ele><time>2026-04-03T08:39:36Z</time></trkpt><trkpt lat="42.941344728231115" lon="2.970428306319797"><ele>43.333333333333336</ele><time>2026-04-03T08:39:37Z</time></trkpt><trkpt lat="42.9415441979301" lon="2.9704374771021556"><ele>45.0</ele><time>2026-04-03T08:39:38Z</time></trkpt><trkpt lat="42.941753073940745" lon="2.970451955633493"><ele>45.0</ele><time>2026-04-03T08:39:39Z</time></trkpt><trkpt lat="42.94196989816274" lon="2.970466375023806"><ele>45.0</ele><time>2026-04-03T08:39:40Z</time></trkpt><trkpt lat="42.942191928460026" lon="2.97048376927017"><ele>45.0</ele><time>2026-04-03T08:39:41Z</time></trkpt><trkpt lat="42.94241531517031" lon="2.9705006406847523"><ele>43.666666666666664</ele><time>2026-04-03T08:39:42Z</time></trkpt><trkpt lat="42.94263751557168" lon="2.9705218849826047"><ele>42.33333333333333</ele><time>2026-04-03T08:39:43Z</time></trkpt><trkpt lat="42.94286084014683" lon="2.970545448046469"><ele>41.0</ele><time>2026-04-03T08:39:44Z</time></trkpt><trkpt lat="42.94309143845133" lon="2.9705688206957155"><ele>41.0</ele><time>2026-04-03T08:39:45Z</time></trkpt><trkpt lat="42.943330314966424" lon="2.97059225382948"><ele>41.0</ele><time>2026-04-03T08:39:46Z</time></trkpt><trkpt lat="42.94356740426232" lon="2.9706171501813414"><ele>42.0</ele><time>2026-04-03T08:39:47Z</time></trkpt><trkpt lat="42.94380561589885" lon="2.9706414692220697"><ele>43.0</ele><time>2026-04-03T08:39:48Z</time></trkpt><trkpt lat="42.944042910141725" lon="2.970667932777618"><ele>44.5</ele><time>2026-04-03T08:39:49Z</time></trkpt><trkpt lat="42.94428158188428" lon="2.9706959426529593"><ele>46.0</ele><time>2026-04-03T08:39:50Z</time></trkpt><trkpt lat="42.94452186503057" lon="2.970723605499842"><ele>46.0</ele><time>2026-04-03T08:39:51Z</time></trkpt><trkpt lat="42.944768335968696" lon="2.970757473084028"><ele>46.0</ele><time>2026-04-03T08:39:52Z</time></trkpt><trkpt lat="42.94501102467917" lon="2.9707825678156263"><ele>46.5</ele><time>2026-04-03T08:39:53Z</time></trkpt><trkpt lat="42.94525499248075" lon="2.9708069346281927"><ele>47.0</ele><time>2026-04-03T08:39:54Z</time></trkpt><trkpt lat="42.945500569558355" lon="2.9708265207819475"><ele>47.0</ele><time>2026-04-03T08:39:55Z</time></trkpt><trkpt lat="42.94575164702365" lon="2.9708445449547902"><ele>47.0</ele><time>2026-04-03T08:39:56Z</time></trkpt><trkpt lat="42.94600346308384" lon="2.9708635763559403"><ele>45.5</ele><time>2026-04-03T08:39:57Z</time></trkpt><trkpt lat="42.946254137555314" lon="2.9708806722593337"><ele>44.0</ele><time>2026-04-03T08:39:58Z</time></trkpt><trkpt lat="42.946503843918876" lon="2.9708983695441975"><ele>43.5</ele><time>2026-04-03T08:39:59Z</time></trkpt><trkpt lat="42.94675246682378" lon="2.970914196166493"><ele>43.0</ele><time>2026-04-03T08:40:00Z</time></trkpt><trkpt lat="42.94700383552846" lon="2.970927886564847"><ele>43.0</ele><time>2026-04-03T08:40:01Z</time></trkpt><trkpt lat="42.947255446386514" lon="2.970939721613398"><ele>43.0</ele><time>2026-04-03T08:40:02Z</time></trkpt><trkpt lat="42.94751195319797" lon="2.970953675199863"><ele>44.0</ele><time>2026-04-03T08:40:03Z</time></trkpt><trkpt lat="42.9477635056791" lon="2.9709632095723246"><ele>45.0</ele><time>2026-04-03T08:40:04Z</time></trkpt><trkpt lat="42.948010107746384" lon="2.9709710843236654"><ele>45.0</ele><time>2026-04-03T08:40:05Z</time></trkpt><trkpt lat="42.94825881192596" lon="2.9709781377746163"><ele>45.0</ele><time>2026-04-03T08:40:06Z</time></trkpt><trkpt lat="42.94850807238495" lon="2.970985954185083"><ele>47.0</ele><time>2026-04-03T08:40:07Z</time></trkpt><trkpt lat="42.94875802561729" lon="2.970984241710778"><ele>49.0</ele><time>2026-04-03T08:40:08Z</time></trkpt><trkpt lat="42.94901361798861" lon="2.970985941257453"><ele>50.0</ele><time>2026-04-03T08:40:09Z</time></trkpt><trkpt lat="42.9492664930491" lon="2.97098084148728"><ele>51.0</ele><time>2026-04-03T08:40:10Z</time></trkpt><trkpt lat="42.94952073827891" lon="2.970981717917557"><ele>51.0</ele><time>2026-04-03T08:40:11Z</time></trkpt><trkpt lat="42.949769241605544" lon="2.9709770879952626"><ele>51.0</ele><time>2026-04-03T08:40:12Z</time></trkpt><trkpt lat="42.95002212979655" lon="2.970971023386486"><ele>50.5</ele><time>2026-04-03T08:40:13Z</time></trkpt><trkpt lat="42.95027911596359" lon="2.970961125327554"><ele>50.0</ele><time>2026-04-03T08:40:14Z</time></trkpt><trkpt lat="42.95053430955211" lon="2.9709454625605813"><ele>50.0</ele><time>2026-04-03T08:40:15Z</time></trkpt><trkpt lat="42.950789471526086" lon="2.970929262717763"><ele>50.0</ele><time>2026-04-03T08:40:16Z</time></trkpt><trkpt lat="42.95104675190669" lon="2.970914043764204"><ele>50.0</ele><time>2026-04-03T08:40:17Z</time></trkpt><trkpt lat="42.95130477939657" lon="2.970900026377456"><ele>50.0</ele><time>2026-04-03T08:40:18Z</time></trkpt><trkpt lat="42.95156611050319" lon="2.970884116632643"><ele>48.0</ele><time>2026-04-03T08:40:19Z</time></trkpt><trkpt lat="42.95182856728517" lon="2.9708647047309054"><ele>46.0</ele><time>2026-04-03T08:40:20Z</time></trkpt><trkpt lat="42.95209135929624" lon="2.9708464754109487"><ele>46.0</ele><time>2026-04-03T08:40:21Z</time></trkpt><trkpt lat="42.95235224858692" lon="2.9708263426926877"><ele>46.0</ele><time>2026-04-03T08:40:22Z</time></trkpt><trkpt lat="42.952610837003725" lon="2.9708037859989056"><ele>44.5</ele><time>2026-04-03T08:40:23Z</time></trkpt><trkpt lat="42.952870960886436" lon="2.9707785588747693"><ele>43.0</ele><time>2026-04-03T08:40:24Z</time></trkpt><trkpt lat="42.95313035157361" lon="2.970749701642299"><ele>42.5</ele><time>2026-04-03T08:40:25Z</time></trkpt><trkpt lat="42.953393933208176" lon="2.970726464744709"><ele>42.0</ele><time>2026-04-03T08:40:26Z</time></trkpt><trkpt lat="42.95365120766336" lon="2.9706985941418593"><ele>42.0</ele><time>2026-04-03T08:40:27Z</time></trkpt><trkpt lat="42.95391427097675" lon="2.9706654331894597"><ele>42.0</ele><time>2026-04-03T08:40:28Z</time></trkpt><trkpt lat="42.954179081859074" lon="2.970632525728142"><ele>42.5</ele><time>2026-04-03T08:40:29Z</time></trkpt><trkpt lat="42.95443917968891" lon="2.9705983392223603"><ele>43.0</ele><time>2026-04-03T08:40:30Z</time></trkpt><trkpt lat="42.9547032764266" lon="2.9705633148577424"><ele>43.0</ele><time>2026-04-03T08:40:31Z</time></trkpt><trkpt lat="42.95496037999969" lon="2.9705260164733316"><ele>43.0</ele><time>2026-04-03T08:40:32Z</time></trkpt><trkpt lat="42.955216839757604" lon="2.9704886775887704"><ele>41.5</ele><time>2026-04-03T08:40:33Z</time></trkpt><trkpt lat="42.95547547169622" lon="2.9704484247860004"><ele>40.0</ele><time>2026-04-03T08:40:34Z</time></trkpt><trkpt lat="42.955729662787206" lon="2.970406619296284"><ele>38.0</ele><time>2026-04-03T08:40:35Z</time></trkpt><trkpt lat="42.95598803510795" lon="2.9703657642822656"><ele>36.0</ele><time>2026-04-03T08:40:36Z</time></trkpt><trkpt lat="42.95624586453188" lon="2.9703206919779714"><ele>36.0</ele><time>2026-04-03T08:40:37Z</time></trkpt><trkpt lat="42.95651264947884" lon="2.97026901473112"><ele>36.0</ele><time>2026-04-03T08:40:38Z</time></trkpt><trkpt lat="42.95676924969092" lon="2.970222762721666"><ele>35.0</ele><time>2026-04-03T08:40:39Z</time></trkpt><trkpt lat="42.95702092278564" lon="2.9701785094488615"><ele>34.0</ele><time>2026-04-03T08:40:40Z</time></trkpt><trkpt lat="42.957274813129885" lon="2.9701333232702285"><ele>34.0</ele><time>2026-04-03T08:40:41Z</time></trkpt><trkpt lat="42.957526618908105" lon="2.970079647948535"><ele>34.0</ele><time>2026-04-03T08:40:42Z</time></trkpt><trkpt lat="42.957779756980536" lon="2.9700243751355018"><ele>38.0</ele><time>2026-04-03T08:40:43Z</time></trkpt><trkpt lat="42.95803765017829" lon="2.9699744689664302"><ele>42.0</ele><time>2026-04-03T08:40:44Z</time></trkpt><trkpt lat="42.95829839268315" lon="2.969925039768817"><ele>40.5</ele><time>2026-04-03T08:40:45Z</time></trkpt><trkpt lat="42.95855586154795" lon="2.969876147647765"><ele>39.0</ele><time>2026-04-03T08:40:46Z</time></trkpt><trkpt lat="42.95881773128831" lon="2.9698282208214892"><ele>39.0</ele><time>2026-04-03T08:40:47Z</time></trkpt><trkpt lat="42.95907869563615" lon="2.9697815647999546"><ele>39.0</ele><time>2026-04-03T08:40:48Z</time></trkpt><trkpt lat="42.95934180006637" lon="2.969732317528951"><ele>37.5</ele><time>2026-04-03T08:40:49Z</time></trkpt><trkpt lat="42.959599271929285" lon="2.969684343148424"><ele>36.0</ele><time>2026-04-03T08:40:50Z</time></trkpt><trkpt lat="42.959860495784234" lon="2.969634301198944"><ele>36.5</ele><time>2026-04-03T08:40:51Z</time></trkpt><trkpt lat="42.9601203868073" lon="2.9695868052826753"><ele>37.0</ele><time>2026-04-03T08:40:52Z</time></trkpt><trkpt lat="42.960378887350224" lon="2.969540531188176"><ele>37.0</ele><time>2026-04-03T08:40:53Z</time></trkpt><trkpt lat="42.960637935379616" lon="2.9694924854715326"><ele>37.0</ele><time>2026-04-03T08:40:54Z</time></trkpt><trkpt lat="42.960899426691206" lon="2.9694425219377116"><ele>37.5</ele><time>2026-04-03T08:40:55Z</time></trkpt><trkpt lat="42.96116026061165" lon="2.969387637614329"><ele>38.0</ele><time>2026-04-03T08:40:56Z</time></trkpt><trkpt lat="42.961427144326194" lon="2.969334768930064"><ele>38.0</ele><time>2026-04-03T08:40:57Z</time></trkpt><trkpt lat="42.961699973778884" lon="2.969281652286845"><ele>38.0</ele><time>2026-04-03T08:40:58Z</time></trkpt><trkpt lat="42.96196956331268" lon="2.969228635705677"><ele>39.5</ele><time>2026-04-03T08:40:59Z</time></trkpt><trkpt lat="42.96224655010932" lon="2.969181109267437"><ele>41.0</ele><time>2026-04-03T08:41:00Z</time></trkpt><trkpt lat="42.96252392903209" lon="2.969128528387729"><ele>40.5</ele><time>2026-04-03T08:41:01Z</time></trkpt><trkpt lat="42.962798121939926" lon="2.9690848108889156"><ele>40.0</ele><time>2026-04-03T08:41:02Z</time></trkpt><trkpt lat="42.96307024607175" lon="2.9690376867862196"><ele>40.0</ele><time>2026-04-03T08:41:03Z</time></trkpt><trkpt lat="42.9633492089324" lon="2.9689993303079065"><ele>40.0</ele><time>2026-04-03T08:41:04Z</time></trkpt><trkpt lat="42.963627287611125" lon="2.968961814000919"><ele>40.0</ele><time>2026-04-03T08:41:05Z</time></trkpt><trkpt lat="42.963908844367324" lon="2.9689255757975883"><ele>40.0</ele><time>2026-04-03T08:41:06Z</time></trkpt><trkpt lat="42.96418891018727" lon="2.9688928064562328"><ele>40.5</ele><time>2026-04-03T08:41:07Z</time></trkpt><trkpt lat="42.96447330591862" lon="2.968866909281862"><ele>41.0</ele><time>2026-04-03T08:41:08Z</time></trkpt><trkpt lat="42.96475536174227" lon="2.968841249088382"><ele>40.0</ele><time>2026-04-03T08:41:09Z</time></trkpt><trkpt lat="42.96504019896719" lon="2.968826650038335"><ele>39.0</ele><time>2026-04-03T08:41:10Z</time></trkpt><trkpt lat="42.965327163327444" lon="2.9688173813797953"><ele>39.0</ele><time>2026-04-03T08:41:11Z</time></trkpt><trkpt lat="42.96561105477158" lon="2.9688096345455266"><ele>39.0</ele><time>2026-04-03T08:41:12Z</time></trkpt><trkpt lat="42.965895032832755" lon="2.968810832464807"><ele>40.0</ele><time>2026-04-03T08:41:13Z</time></trkpt><trkpt lat="42.96618216801952" lon="2.968828250622427"><ele>41.0</ele><time>2026-04-03T08:41:14Z</time></trkpt><trkpt lat="42.96646543404099" lon="2.968849190332865"><ele>40.5</ele><time>2026-04-03T08:41:15Z</time></trkpt><trkpt lat="42.96674688415934" lon="2.968876479804505"><ele>40.0</ele><time>2026-04-03T08:41:16Z</time></trkpt><trkpt lat="42.96703002973713" lon="2.968912429273477"><ele>40.0</ele><time>2026-04-03T08:41:17Z</time></trkpt><trkpt lat="42.96731463721279" lon="2.9689591402429514"><ele>40.0</ele><time>2026-04-03T08:41:18Z</time></trkpt><trkpt lat="42.9675978907571" lon="2.9690139861968987"><ele>40.0</ele><time>2026-04-03T08:41:19Z</time></trkpt><trkpt lat="42.96787803071356" lon="2.9690778986658866"><ele>40.0</ele><time>2026-04-03T08:41:20Z</time></trkpt><trkpt lat="42.96815152334323" lon="2.969154083143964"><ele>37.0</ele><time>2026-04-03T08:41:21Z</time></trkpt><trkpt lat="42.96842859794511" lon="2.969243031700406"><ele>34.0</ele><time>2026-04-03T08:41:22Z</time></trkpt><trkpt lat="42.96869491096803" lon="2.969339734078178"><ele>34.0</ele><time>2026-04-03T08:41:23Z</time></trkpt><trkpt lat="42.96896037899065" lon="2.9694450149601974"><ele>34.0</ele><time>2026-04-03T08:41:24Z</time></trkpt><trkpt lat="42.96922312785426" lon="2.9695434068812"><ele>35.0</ele><time>2026-04-03T08:41:25Z</time></trkpt><trkpt lat="42.96948286668827" lon="2.9696497900869065"><ele>36.0</ele><time>2026-04-03T08:41:26Z</time></trkpt><trkpt lat="42.96973706333121" lon="2.96975746798995"><ele>36.0</ele><time>2026-04-03T08:41:27Z</time></trkpt><trkpt lat="42.96998971675687" lon="2.9698697602884647"><ele>36.0</ele><time>2026-04-03T08:41:28Z</time></trkpt><trkpt lat="42.9702371504084" lon="2.969988769416543"><ele>34.0</ele><time>2026-04-03T08:41:29Z</time></trkpt><trkpt lat="42.97047834553489" lon="2.970115176892944"><ele>32.0</ele><time>2026-04-03T08:41:30Z</time></trkpt><trkpt lat="42.970719159695264" lon="2.970247649765924"><ele>33.5</ele><time>2026-04-03T08:41:31Z</time></trkpt><trkpt lat="42.9709562673431" lon="2.9703886078195816"><ele>35.0</ele><time>2026-04-03T08:41:32Z</time></trkpt><trkpt lat="42.9711913129716" lon="2.9705287099454574"><ele>35.0</ele><time>2026-04-03T08:41:33Z</time></trkpt><trkpt lat="42.971423564100455" lon="2.970678925872372"><ele>35.0</ele><time>2026-04-03T08:41:34Z</time></trkpt><trkpt lat="42.9716536195614" lon="2.9708286703886517"><ele>35.5</ele><time>2026-04-03T08:41:35Z</time></trkpt><trkpt lat="42.97188529774381" lon="2.9709822809499973"><ele>36.0</ele><time>2026-04-03T08:41:36Z</time></trkpt><trkpt lat="42.97211533772472" lon="2.971140778700199"><ele>36.0</ele><time>2026-04-03T08:41:37Z</time></trkpt><trkpt lat="42.97234414972635" lon="2.9713101397767763"><ele>36.0</ele><time>2026-04-03T08:41:38Z</time></trkpt><trkpt lat="42.97257639722944" lon="2.971471721877315"><ele>36.5</ele><time>2026-04-03T08:41:39Z</time></trkpt><trkpt lat="42.97280793731166" lon="2.9716336327372463"><ele>37.0</ele><time>2026-04-03T08:41:40Z</time></trkpt><trkpt lat="42.97303513145851" lon="2.9717990098198426"><ele>37.0</ele><time>2026-04-03T08:41:41Z</time></trkpt><trkpt lat="42.97326813369463" lon="2.9719725154763714"><ele>37.0</ele><time>2026-04-03T08:41:42Z</time></trkpt><trkpt lat="42.973495009169675" lon="2.972147108461653"><ele>37.0</ele><time>2026-04-03T08:41:43Z</time></trkpt><trkpt lat="42.97372865414027" lon="2.972309760446664"><ele>37.0</ele><time>2026-04-03T08:41:44Z</time></trkpt><trkpt lat="42.97395935261995" lon="2.972477917395538"><ele>38.5</ele><time>2026-04-03T08:41:45Z</time></trkpt><trkpt lat="42.97419488005621" lon="2.9726449796038104"><ele>40.0</ele><time>2026-04-03T08:41:46Z</time></trkpt><trkpt lat="42.97442578829583" lon="2.972809822917892"><ele>40.0</ele><time>2026-04-03T08:41:47Z</time></trkpt><trkpt lat="42.97465893637061" lon="2.972977033891485"><ele>40.0</ele><time>2026-04-03T08:41:48Z</time></trkpt><trkpt lat="42.97488481045561" lon="2.973134022067883"><ele>39.5</ele><time>2026-04-03T08:41:49Z</time></trkpt><trkpt lat="42.975119296869764" lon="2.9732871266832683"><ele>39.0</ele><time>2026-04-03T08:41:50Z</time></trkpt><trkpt lat="42.97535166672869" lon="2.9734387319236246"><ele>39.0</ele><time>2026-04-03T08:41:51Z</time></trkpt><trkpt lat="42.97558846133697" lon="2.9735811315298077"><ele>39.0</ele><time>2026-04-03T08:41:52Z</time></trkpt><trkpt lat="42.9758271009644" lon="2.9737169092713915"><ele>39.0</ele><time>2026-04-03T08:41:53Z</time></trkpt><trkpt lat="42.97606784512045" lon="2.973853697730717"><ele>39.0</ele><time>2026-04-03T08:41:54Z</time></trkpt><trkpt lat="42.97631235155043" lon="2.9739821609885273"><ele>39.0</ele><time>2026-04-03T08:41:55Z</time></trkpt><trkpt lat="42.97655866587681" lon="2.9740974511570766"><ele>39.0</ele><time>2026-04-03T08:41:56Z</time></trkpt><trkpt lat="42.97680741582879" lon="2.9742111844296195"><ele>37.0</ele><time>2026-04-03T08:41:57Z</time></trkpt><trkpt lat="42.977060715857824" lon="2.974319992120749"><ele>35.0</ele><time>2026-04-03T08:41:58Z</time></trkpt><trkpt lat="42.977315297005774" lon="2.9744200217404586"><ele>35.5</ele><time>2026-04-03T08:41:59Z</time></trkpt><trkpt lat="42.977567490521785" lon="2.974509574783538"><ele>36.0</ele><time>2026-04-03T08:42:00Z</time></trkpt><trkpt lat="42.977819450555444" lon="2.9745998848672586"><ele>36.0</ele><time>2026-04-03T08:42:01Z</time></trkpt><trkpt lat="42.97807441819118" lon="2.9746701553032793"><ele>36.0</ele><time>2026-04-03T08:42:02Z</time></trkpt><trkpt lat="42.978329272010825" lon="2.974735042577345"><ele>37.0</ele><time>2026-04-03T08:42:03Z</time></trkpt><trkpt lat="42.9785862594186" lon="2.9747879666580563"><ele>38.0</ele><time>2026-04-03T08:42:04Z</time></trkpt><trkpt lat="42.97884373660558" lon="2.9748292986178027"><ele>38.0</ele><time>2026-04-03T08:42:05Z</time></trkpt><trkpt lat="42.979100296858924" lon="2.9748683304075283"><ele>38.0</ele><time>2026-04-03T08:42:06Z</time></trkpt><trkpt lat="42.979358962230556" lon="2.974898203281362"><ele>40.0</ele><time>2026-04-03T08:42:07Z</time></trkpt><trkpt lat="42.979610825822256" lon="2.9749183705745175"><ele>42.0</ele><time>2026-04-03T08:42:08Z</time></trkpt><trkpt lat="42.979864859018114" lon="2.974932276169578"><ele>44.0</ele><time>2026-04-03T08:42:09Z</time></trkpt><trkpt lat="42.98012117989889" lon="2.974938727317897"><ele>46.0</ele><time>2026-04-03T08:42:10Z</time></trkpt><trkpt lat="42.98037809749771" lon="2.974939675679999"><ele>46.0</ele><time>2026-04-03T08:42:11Z</time></trkpt><trkpt lat="42.980634369212524" lon="2.9749259138123016"><ele>46.0</ele><time>2026-04-03T08:42:12Z</time></trkpt><trkpt lat="42.980892589672024" lon="2.9749077756560816"><ele>49.5</ele><time>2026-04-03T08:42:13Z</time></trkpt><trkpt lat="42.981148027200376" lon="2.974879718970433"><ele>53.0</ele><time>2026-04-03T08:42:14Z</time></trkpt><trkpt lat="42.98140370775293" lon="2.9748435957712585"><ele>53.0</ele><time>2026-04-03T08:42:15Z</time></trkpt><trkpt lat="42.98165899394994" lon="2.9747976174054327"><ele>53.0</ele><time>2026-04-03T08:42:16Z</time></trkpt><trkpt lat="42.98191689267432" lon="2.9747473302535905"><ele>56.5</ele><time>2026-04-03T08:42:17Z</time></trkpt><trkpt lat="42.98216844132423" lon="2.9746869206561763"><ele>60.0</ele><time>2026-04-03T08:42:18Z</time></trkpt><trkpt lat="42.98242630717857" lon="2.9746223920576758"><ele>64.0</ele><time>2026-04-03T08:42:19Z</time></trkpt><trkpt lat="42.982675237244" lon="2.974550557489838"><ele>68.0</ele><time>2026-04-03T08:42:20Z</time></trkpt><trkpt lat="42.98292415812165" lon="2.974468740717498"><ele>68.0</ele><time>2026-04-03T08:42:21Z</time></trkpt><trkpt lat="42.98317204839602" lon="2.974376629681671"><ele>68.0</ele><time>2026-04-03T08:42:22Z</time></trkpt><trkpt lat="42.983415030669626" lon="2.9742646126846957"><ele>67.5</ele><time>2026-04-03T08:42:23Z</time></trkpt><trkpt lat="42.98366077732957" lon="2.9741468586952107"><ele>67.0</ele><time>2026-04-03T08:42:24Z</time></trkpt><trkpt lat="42.98390431559732" lon="2.974020764195414"><ele>67.0</ele><time>2026-04-03T08:42:25Z</time></trkpt><trkpt lat="42.984149347512734" lon="2.9738944468052853"><ele>67.0</ele><time>2026-04-03T08:42:26Z</time></trkpt><trkpt lat="42.98439025052205" lon="2.973760636525519"><ele>70.5</ele><time>2026-04-03T08:42:27Z</time></trkpt><trkpt lat="42.9846323923031" lon="2.973629089827758"><ele>74.0</ele><time>2026-04-03T08:42:28Z</time></trkpt><trkpt lat="42.984871512469006" lon="2.9734923136906035"><ele>73.0</ele><time>2026-04-03T08:42:29Z</time></trkpt><trkpt lat="42.98511186200943" lon="2.973348109002389"><ele>72.0</ele><time>2026-04-03T08:42:30Z</time></trkpt><trkpt lat="42.98535674182226" lon="2.9732031702447834"><ele>72.0</ele><time>2026-04-03T08:42:31Z</time></trkpt><trkpt lat="42.98559918381794" lon="2.9730581419456032"><ele>72.0</ele><time>2026-04-03T08:42:32Z</time></trkpt><trkpt lat="42.98584423036646" lon="2.972912524399384"><ele>76.0</ele><time>2026-04-03T08:42:33Z</time></trkpt><trkpt lat="42.98609239510257" lon="2.9727686280349377"><ele>80.0</ele><time>2026-04-03T08:42:34Z</time></trkpt><trkpt lat="42.98634166491677" lon="2.9726276554795774"><ele>80.0</ele><time>2026-04-03T08:42:35Z</time></trkpt><trkpt lat="42.986588844735344" lon="2.972488653699802"><ele>80.0</ele><time>2026-04-03T08:42:36Z</time></trkpt><trkpt lat="42.986835927035344" lon="2.972348945670392"><ele>80.0</ele><time>2026-04-03T08:42:37Z</time></trkpt><trkpt lat="42.98708545587102" lon="2.9722148689245964"><ele>80.0</ele><time>2026-04-03T08:42:38Z</time></trkpt><trkpt lat="42.98733275351061" lon="2.9720776983453048"><ele>82.5</ele><time>2026-04-03T08:42:39Z</time></trkpt><trkpt lat="42.987574075166016" lon="2.971931319844126"><ele>85.0</ele><time>2026-04-03T08:42:40Z</time></trkpt><trkpt lat="42.9878126600968" lon="2.9717785731739994"><ele>80.0</ele><time>2026-04-03T08:42:41Z</time></trkpt><trkpt lat="42.988051335402844" lon="2.971628200102131"><ele>75.0</ele><time>2026-04-03T08:42:42Z</time></trkpt><trkpt lat="42.988291748134785" lon="2.971478119113188"><ele>78.5</ele><time>2026-04-03T08:42:43Z</time></trkpt><trkpt lat="42.988529756310434" lon="2.9713302954026055"><ele>82.0</ele><time>2026-04-03T08:42:44Z</time></trkpt><trkpt lat="42.988770281339136" lon="2.971188400591824"><ele>82.0</ele><time>2026-04-03T08:42:45Z</time></trkpt><trkpt lat="42.98900806328072" lon="2.9710483008837074"><ele>82.0</ele><time>2026-04-03T08:42:46Z</time></trkpt><trkpt lat="42.98925147901782" lon="2.9709162751447615"><ele>78.5</ele><time>2026-04-03T08:42:47Z</time></trkpt><trkpt lat="42.989491446151405" lon="2.970778653231181"><ele>75.0</ele><time>2026-04-03T08:42:48Z</time></trkpt><trkpt lat="42.989734955829924" lon="2.970650765096992"><ele>75.0</ele><time>2026-04-03T08:42:49Z</time></trkpt><trkpt lat="42.98997745829202" lon="2.970524513457081"><ele>75.0</ele><time>2026-04-03T08:42:50Z</time></trkpt><trkpt lat="42.99021942537806" lon="2.9704014574641784"><ele>77.0</ele><time>2026-04-03T08:42:51Z</time></trkpt><trkpt lat="42.990460379877945" lon="2.970278935590311"><ele>79.0</ele><time>2026-04-03T08:42:52Z</time></trkpt><trkpt lat="42.99070526573051" lon="2.970152789344084"><ele>78.0</ele><time>2026-04-03T08:42:53Z</time></trkpt><trkpt lat="42.99094426144848" lon="2.9700311590420347"><ele>77.0</ele><time>2026-04-03T08:42:54Z</time></trkpt><trkpt lat="42.9911854933904" lon="2.9699095028921834"><ele>77.0</ele><time>2026-04-03T08:42:55Z</time></trkpt><trkpt lat="42.99142737446257" lon="2.96978781531006"><ele>77.0</ele><time>2026-04-03T08:42:56Z</time></trkpt><trkpt lat="42.99167002194185" lon="2.969670395492207"><ele>78.0</ele><time>2026-04-03T08:42:57Z</time></trkpt><trkpt lat="42.99191262515469" lon="2.969554767934497"><ele>79.0</ele><time>2026-04-03T08:42:58Z</time></trkpt><trkpt lat="42.99215920704526" lon="2.969445280452473"><ele>79.0</ele><time>2026-04-03T08:42:59Z</time></trkpt><trkpt lat="42.99240750577431" lon="2.9693343177025415"><ele>79.0</ele><time>2026-04-03T08:43:00Z</time></trkpt><trkpt lat="42.99265799461173" lon="2.9692249200042706"><ele>69.5</ele><time>2026-04-03T08:43:01Z</time></trkpt><trkpt lat="42.99290637842826" lon="2.9691179444686058"><ele>60.0</ele><time>2026-04-03T08:43:02Z</time></trkpt><trkpt lat="42.99315544540804" lon="2.969009881342984"><ele>58.0</ele><time>2026-04-03T08:43:03Z</time></trkpt><trkpt lat="42.99340443386304" lon="2.9689074945492133"><ele>56.0</ele><time>2026-04-03T08:43:04Z</time></trkpt><trkpt lat="42.99365203036906" lon="2.9688051827196245"><ele>56.0</ele><time>2026-04-03T08:43:05Z</time></trkpt><trkpt lat="42.99390220077179" lon="2.9687042407994126"><ele>56.0</ele><time>2026-04-03T08:43:06Z</time></trkpt><trkpt lat="42.994150121968914" lon="2.9686056189744736"><ele>54.0</ele><time>2026-04-03T08:43:07Z</time></trkpt><trkpt lat="42.99439728413546" lon="2.968506059531706"><ele>52.0</ele><time>2026-04-03T08:43:08Z</time></trkpt><trkpt lat="42.994643244912794" lon="2.9684049393687895"><ele>52.0</ele><time>2026-04-03T08:43:09Z</time></trkpt><trkpt lat="42.99489341172738" lon="2.96830702766068"><ele>52.0</ele><time>2026-04-03T08:43:10Z</time></trkpt><trkpt lat="42.99513858840541" lon="2.9682026326007653"><ele>49.0</ele><time>2026-04-03T08:43:11Z</time></trkpt><trkpt lat="42.995386675036855" lon="2.968100420662768"><ele>46.0</ele><time>2026-04-03T08:43:12Z</time></trkpt><trkpt lat="42.99563332387741" lon="2.9679991342880796"><ele>44.5</ele><time>2026-04-03T08:43:13Z</time></trkpt><trkpt lat="42.995879284256695" lon="2.9679036336868787"><ele>43.0</ele><time>2026-04-03T08:43:14Z</time></trkpt><trkpt lat="42.99612289070908" lon="2.967803937190143"><ele>43.0</ele><time>2026-04-03T08:43:15Z</time></trkpt><trkpt lat="42.996367201356115" lon="2.9677078380360946"><ele>43.0</ele><time>2026-04-03T08:43:16Z</time></trkpt><trkpt lat="42.996611594027854" lon="2.967604700357739"><ele>42.5</ele><time>2026-04-03T08:43:17Z</time></trkpt><trkpt lat="42.99685535430651" lon="2.967504534010405"><ele>42.0</ele><time>2026-04-03T08:43:18Z</time></trkpt><trkpt lat="42.99709613518237" lon="2.967405431743173"><ele>42.0</ele><time>2026-04-03T08:43:19Z</time></trkpt><trkpt lat="42.99733872187776" lon="2.967305199973029"><ele>42.0</ele><time>2026-04-03T08:43:20Z</time></trkpt><trkpt lat="42.997577778642786" lon="2.967197824935442"><ele>40.5</ele><time>2026-04-03T08:43:21Z</time></trkpt><trkpt lat="42.99781730776015" lon="2.9670915276927636"><ele>39.0</ele><time>2026-04-03T08:43:22Z</time></trkpt><trkpt lat="42.99805630889484" lon="2.9669792557384644"><ele>39.0</ele><time>2026-04-03T08:43:23Z</time></trkpt><trkpt lat="42.99829344431225" lon="2.966862794525675"><ele>39.0</ele><time>2026-04-03T08:43:24Z</time></trkpt><trkpt lat="42.998528701090216" lon="2.966741906744386"><ele>38.5</ele><time>2026-04-03T08:43:25Z</time></trkpt><trkpt lat="42.998762003558966" lon="2.966608811107019"><ele>38.0</ele><time>2026-04-03T08:43:26Z</time></trkpt><trkpt lat="42.99899203884029" lon="2.966476104741907"><ele>38.0</ele><time>2026-04-03T08:43:27Z</time></trkpt><trkpt lat="42.999220457740364" lon="2.966343162325715"><ele>38.0</ele><time>2026-04-03T08:43:28Z</time></trkpt><trkpt lat="42.99944467699361" lon="2.9661986324685685"><ele>38.0</ele><time>2026-04-03T08:43:29Z</time></trkpt><trkpt lat="42.999668244693396" lon="2.9660501911705976"><ele>38.0</ele><time>2026-04-03T08:43:30Z</time></trkpt><trkpt lat="42.99989139789163" lon="2.96589084128992"><ele>39.5</ele><time>2026-04-03T08:43:31Z</time></trkpt><trkpt lat="43.00010894087973" lon="2.9657297450789444"><ele>41.0</ele><time>2026-04-03T08:43:32Z</time></trkpt><trkpt lat="43.00032360404286" lon="2.96555711300174"><ele>41.0</ele><time>2026-04-03T08:43:33Z</time></trkpt><trkpt lat="43.00053311614516" lon="2.965379635330847"><ele>41.0</ele><time>2026-04-03T08:43:34Z</time></trkpt><trkpt lat="43.00074116728092" lon="2.965199202623979"><ele>40.0</ele><time>2026-04-03T08:43:35Z</time></trkpt><trkpt lat="43.00094821439327" lon="2.9650199514731224"><ele>39.0</ele><time>2026-04-03T08:43:36Z</time></trkpt><trkpt lat="43.00115241358924" lon="2.9648283558899515"><ele>39.0</ele><time>2026-04-03T08:43:37Z</time></trkpt><trkpt lat="43.001358874823765" lon="2.9646329932061395"><ele>39.0</ele><time>2026-04-03T08:43:38Z</time></trkpt><trkpt lat="43.001560199195644" lon="2.964432613362783"><ele>39.5</ele><time>2026-04-03T08:43:39Z</time></trkpt><trkpt lat="43.00175914024341" lon="2.964226049228458"><ele>40.0</ele><time>2026-04-03T08:43:40Z</time></trkpt><trkpt lat="43.00195327456041" lon="2.9640178105988033"><ele>40.0</ele><time>2026-04-03T08:43:41Z</time></trkpt><trkpt lat="43.00214643438063" lon="2.963804717617821"><ele>40.0</ele><time>2026-04-03T08:43:42Z</time></trkpt><trkpt lat="43.00233782852774" lon="2.963588622132934"><ele>39.5</ele><time>2026-04-03T08:43:43Z</time></trkpt><trkpt lat="43.002528047430495" lon="2.9633664994179805"><ele>39.0</ele><time>2026-04-03T08:43:44Z</time></trkpt><trkpt lat="43.0027152036598" lon="2.9631427335967966"><ele>40.5</ele><time>2026-04-03T08:43:45Z</time></trkpt><trkpt lat="43.002901793674035" lon="2.962910584421657"><ele>42.0</ele><time>2026-04-03T08:43:46Z</time></trkpt><trkpt lat="43.0030823033178" lon="2.962676082975065"><ele>42.0</ele><time>2026-04-03T08:43:47Z</time></trkpt><trkpt lat="43.00326274113375" lon="2.9624356201667528"><ele>42.0</ele><time>2026-04-03T08:43:48Z</time></trkpt><trkpt lat="43.00344324746865" lon="2.962197869893522"><ele>42.0</ele><time>2026-04-03T08:43:49Z</time></trkpt><trkpt lat="43.003621430616775" lon="2.961959465311169"><ele>42.0</ele><time>2026-04-03T08:43:50Z</time></trkpt><trkpt lat="43.003795761365225" lon="2.9617189182859627"><ele>42.5</ele><time>2026-04-03T08:43:51Z</time></trkpt><trkpt lat="43.003968521087366" lon="2.9614794445327823"><ele>43.0</ele><time>2026-04-03T08:43:52Z</time></trkpt><trkpt lat="43.0041429247816" lon="2.961242398928557"><ele>43.0</ele><time>2026-04-03T08:43:53Z</time></trkpt><trkpt lat="43.00431571320796" lon="2.961000850196782"><ele>43.0</ele><time>2026-04-03T08:43:54Z</time></trkpt><trkpt lat="43.00449117324382" lon="2.9607589918364665"><ele>43.0</ele><time>2026-04-03T08:43:55Z</time></trkpt><trkpt lat="43.004663482358225" lon="2.9605171679602047"><ele>43.0</ele><time>2026-04-03T08:43:56Z</time></trkpt><trkpt lat="43.00483779524595" lon="2.9602743183229863"><ele>44.0</ele><time>2026-04-03T08:43:57Z</time></trkpt><trkpt lat="43.005007773304804" lon="2.960029998840401"><ele>45.0</ele><time>2026-04-03T08:43:58Z</time></trkpt><trkpt lat="43.005181522978596" lon="2.9597822861626266"><ele>45.0</ele><time>2026-04-03T08:43:59Z</time></trkpt><trkpt lat="43.00536136383939" lon="2.959535088384339"><ele>45.0</ele><time>2026-04-03T08:44:00Z</time></trkpt><trkpt lat="43.005538214078385" lon="2.959280432670495"><ele>45.5</ele><time>2026-04-03T08:44:01Z</time></trkpt><trkpt lat="43.00570938818693" lon="2.959021767969635"><ele>46.0</ele><time>2026-04-03T08:44:02Z</time></trkpt><trkpt lat="43.00588523548862" lon="2.9587631859724284"><ele>46.5</ele><time>2026-04-03T08:44:03Z</time></trkpt><trkpt lat="43.00606209722808" lon="2.958506239434945"><ele>47.0</ele><time>2026-04-03T08:44:04Z</time></trkpt><trkpt lat="43.0062425420705" lon="2.958251962336462"><ele>47.0</ele><time>2026-04-03T08:44:05Z</time></trkpt><trkpt lat="43.006424138345174" lon="2.95799124604839"><ele>47.0</ele><time>2026-04-03T08:44:06Z</time></trkpt><trkpt lat="43.006609983383775" lon="2.957738490860864"><ele>48.5</ele><time>2026-04-03T08:44:07Z</time></trkpt><trkpt lat="43.006799459975355" lon="2.957490992704076"><ele>50.0</ele><time>2026-04-03T08:44:08Z</time></trkpt><trkpt lat="43.006987745765194" lon="2.957238909634537"><ele>50.0</ele><time>2026-04-03T08:44:09Z</time></trkpt><trkpt lat="43.007180121652844" lon="2.956996569361206"><ele>50.0</ele><time>2026-04-03T08:44:10Z</time></trkpt><trkpt lat="43.00737663150359" lon="2.9567559179960443"><ele>51.5</ele><time>2026-04-03T08:44:11Z</time></trkpt><trkpt lat="43.007575410556655" lon="2.9565171590422143"><ele>53.0</ele><time>2026-04-03T08:44:12Z</time></trkpt><trkpt lat="43.00777467099411" lon="2.9562843958224425"><ele>53.0</ele><time>2026-04-03T08:44:13Z</time></trkpt><trkpt lat="43.00798104480094" lon="2.956054698182861"><ele>53.0</ele><time>2026-04-03T08:44:14Z</time></trkpt><trkpt lat="43.00818680882133" lon="2.955835899840211"><ele>56.0</ele><time>2026-04-03T08:44:15Z</time></trkpt><trkpt lat="43.00839429057138" lon="2.955621523197368"><ele>59.0</ele><time>2026-04-03T08:44:16Z</time></trkpt><trkpt lat="43.00861482673945" lon="2.9554159842945156"><ele>59.0</ele><time>2026-04-03T08:44:17Z</time></trkpt><trkpt lat="43.00883253621276" lon="2.955216759230072"><ele>59.0</ele><time>2026-04-03T08:44:18Z</time></trkpt><trkpt lat="43.00905590526043" lon="2.955027026212529"><ele>59.5</ele><time>2026-04-03T08:44:19Z</time></trkpt><trkpt lat="43.00928455035496" lon="2.954838945193187"><ele>60.0</ele><time>2026-04-03T08:44:20Z</time></trkpt><trkpt lat="43.009510482569205" lon="2.954652349088405"><ele>60.0</ele><time>2026-04-03T08:44:21Z</time></trkpt><trkpt lat="43.009733287417475" lon="2.9544689746588615"><ele>60.0</ele><time>2026-04-03T08:44:22Z</time></trkpt><trkpt lat="43.00996461049351" lon="2.954294624187709"><ele>60.5</ele><time>2026-04-03T08:44:23Z</time></trkpt><trkpt lat="43.01019135402082" lon="2.954128560668246"><ele>61.0</ele><time>2026-04-03T08:44:24Z</time></trkpt><trkpt lat="43.01042720696424" lon="2.953964209656719"><ele>61.0</ele><time>2026-04-03T08:44:25Z</time></trkpt><trkpt lat="43.010664507283735" lon="2.9538146953562707"><ele>61.0</ele><time>2026-04-03T08:44:26Z</time></trkpt><trkpt lat="43.01090471959471" lon="2.953666143057124"><ele>59.5</ele><time>2026-04-03T08:44:27Z</time></trkpt><trkpt lat="43.011147468051234" lon="2.9535249544006428"><ele>58.0</ele><time>2026-04-03T08:44:28Z</time></trkpt><trkpt lat="43.011392021004866" lon="2.953385497188364"><ele>58.5</ele><time>2026-04-03T08:44:29Z</time></trkpt><trkpt lat="43.01164859255299" lon="2.953261963749646"><ele>59.0</ele><time>2026-04-03T08:44:30Z</time></trkpt><trkpt lat="43.01189768499099" lon="2.953141103121816"><ele>58.0</ele><time>2026-04-03T08:44:31Z</time></trkpt><trkpt lat="43.012147843828544" lon="2.953028735698428"><ele>57.0</ele><time>2026-04-03T08:44:32Z</time></trkpt><trkpt lat="43.012396132102964" lon="2.952921054535874"><ele>58.0</ele><time>2026-04-03T08:44:33Z</time></trkpt><trkpt lat="43.01264419972629" lon="2.9528142332343776"><ele>59.0</ele><time>2026-04-03T08:44:34Z</time></trkpt><trkpt lat="43.01289533642407" lon="2.9527165797108923"><ele>59.0</ele><time>2026-04-03T08:44:35Z</time></trkpt><trkpt lat="43.013147002894875" lon="2.952622715145493"><ele>59.0</ele><time>2026-04-03T08:44:36Z</time></trkpt><trkpt lat="43.013403828790786" lon="2.9525444804277874"><ele>56.5</ele><time>2026-04-03T08:44:37Z</time></trkpt><trkpt lat="43.013657553098525" lon="2.9524690559341322"><ele>54.0</ele><time>2026-04-03T08:44:38Z</time></trkpt><trkpt lat="43.013912847708596" lon="2.952400676487272"><ele>51.5</ele><time>2026-04-03T08:44:39Z</time></trkpt><trkpt lat="43.01416985354814" lon="2.952337155907668"><ele>49.0</ele><time>2026-04-03T08:44:40Z</time></trkpt><trkpt lat="43.014431460436015" lon="2.9522830775031097"><ele>49.0</ele><time>2026-04-03T08:44:41Z</time></trkpt><trkpt lat="43.01468990343939" lon="2.9522334668539134"><ele>49.0</ele><time>2026-04-03T08:44:42Z</time></trkpt><trkpt lat="43.01495363102702" lon="2.9521919924865667"><ele>46.0</ele><time>2026-04-03T08:44:43Z</time></trkpt><trkpt lat="43.01521792840882" lon="2.952155109038789"><ele>43.0</ele><time>2026-04-03T08:44:44Z</time></trkpt><trkpt lat="43.01548448617305" lon="2.952120932680346"><ele>43.0</ele><time>2026-04-03T08:44:45Z</time></trkpt><trkpt lat="43.015749695707754" lon="2.9520907898266966"><ele>43.0</ele><time>2026-04-03T08:44:46Z</time></trkpt><trkpt lat="43.016016772362406" lon="2.952063045061064"><ele>43.0</ele><time>2026-04-03T08:44:47Z</time></trkpt><trkpt lat="43.016289763867334" lon="2.9520380174355076"><ele>43.0</ele><time>2026-04-03T08:44:48Z</time></trkpt><trkpt lat="43.01656447179795" lon="2.952015854513806"><ele>42.5</ele><time>2026-04-03T08:44:49Z</time></trkpt><trkpt lat="43.01683584028955" lon="2.9519952967666643"><ele>42.0</ele><time>2026-04-03T08:44:50Z</time></trkpt><trkpt lat="43.01710668834719" lon="2.951987667222539"><ele>42.0</ele><time>2026-04-03T08:44:51Z</time></trkpt><trkpt lat="43.01737183471455" lon="2.951982452813506"><ele>42.0</ele><time>2026-04-03T08:44:52Z</time></trkpt><trkpt lat="43.01764270139877" lon="2.9519885784078226"><ele>41.0</ele><time>2026-04-03T08:44:53Z</time></trkpt><trkpt lat="43.01791214342295" lon="2.9519933697861673"><ele>40.0</ele><time>2026-04-03T08:44:54Z</time></trkpt><trkpt lat="43.01818277087624" lon="2.9520046923061063"><ele>38.5</ele><time>2026-04-03T08:44:55Z</time></trkpt><trkpt lat="43.01845608272154" lon="2.9520152875468746"><ele>37.0</ele><time>2026-04-03T08:44:56Z</time></trkpt><trkpt lat="43.01872929604852" lon="2.952027881634319"><ele>37.0</ele><time>2026-04-03T08:44:57Z</time></trkpt><trkpt lat="43.01899773271775" lon="2.9520411708048684"><ele>37.0</ele><time>2026-04-03T08:44:58Z</time></trkpt><trkpt lat="43.01926614961251" lon="2.9520561614197964"><ele>35.5</ele><time>2026-04-03T08:44:59Z</time></trkpt><trkpt lat="43.01953842519561" lon="2.9520730816048397"><ele>34.0</ele><time>2026-04-03T08:45:00Z</time></trkpt><trkpt lat="43.0198058399214" lon="2.952094489800766"><ele>32.5</ele><time>2026-04-03T08:45:01Z</time></trkpt><trkpt lat="43.02007564696594" lon="2.952126482146594"><ele>31.0</ele><time>2026-04-03T08:45:02Z</time></trkpt><trkpt lat="43.020350503675786" lon="2.9521570308624288"><ele>31.0</ele><time>2026-04-03T08:45:03Z</time></trkpt><trkpt lat="43.020625723799775" lon="2.9521877408376214"><ele>31.0</ele><time>2026-04-03T08:45:04Z</time></trkpt><trkpt lat="43.02090294287964" lon="2.95221111844128"><ele>31.0</ele><time>2026-04-03T08:45:05Z</time></trkpt><trkpt lat="43.02117754581256" lon="2.9522339304684597"><ele>31.0</ele><time>2026-04-03T08:45:06Z</time></trkpt><trkpt lat="43.021450525051534" lon="2.952251251717454"><ele>31.5</ele><time>2026-04-03T08:45:07Z</time></trkpt><trkpt lat="43.021719721887685" lon="2.9522685926098116"><ele>32.0</ele><time>2026-04-03T08:45:08Z</time></trkpt><trkpt lat="43.0219872777528" lon="2.9522879872309886"><ele>32.0</ele><time>2026-04-03T08:45:09Z</time></trkpt><trkpt lat="43.02225823727857" lon="2.9523049310828617"><ele>32.0</ele><time>2026-04-03T08:45:10Z</time></trkpt><trkpt lat="43.02252285126053" lon="2.952321690463788"><ele>31.5</ele><time>2026-04-03T08:45:11Z</time></trkpt><trkpt lat="43.0227877411396" lon="2.952338911752004"><ele>31.0</ele><time>2026-04-03T08:45:12Z</time></trkpt><trkpt lat="43.02305439819877" lon="2.952358236883648"><ele>30.5</ele><time>2026-04-03T08:45:13Z</time></trkpt><trkpt lat="43.023320355754066" lon="2.9523773356509655"><ele>30.0</ele><time>2026-04-03T08:45:14Z</time></trkpt><trkpt lat="43.02358492534588" lon="2.952393867250258"><ele>30.0</ele><time>2026-04-03T08:45:15Z</time></trkpt><trkpt lat="43.02384865006058" lon="2.9524091614125387"><ele>30.0</ele><time>2026-04-03T08:45:16Z</time></trkpt><trkpt lat="43.024107895331085" lon="2.952422588549042"><ele>28.5</ele><time>2026-04-03T08:45:17Z</time></trkpt><trkpt lat="43.02436931733166" lon="2.9524400049297754"><ele>27.0</ele><time>2026-04-03T08:45:18Z</time></trkpt><trkpt lat="43.02463266206369" lon="2.952458128815822"><ele>27.0</ele><time>2026-04-03T08:45:19Z</time></trkpt><trkpt lat="43.02489068503625" lon="2.9524757841334472"><ele>27.0</ele><time>2026-04-03T08:45:20Z</time></trkpt><trkpt lat="43.025151974920036" lon="2.9524920903114733"><ele>26.5</ele><time>2026-04-03T08:45:21Z</time></trkpt><trkpt lat="43.025409407785276" lon="2.952509365078898"><ele>26.0</ele><time>2026-04-03T08:45:22Z</time></trkpt><trkpt lat="43.02566499742368" lon="2.952522919686112"><ele>24.5</ele><time>2026-04-03T08:45:23Z</time></trkpt><trkpt lat="43.02592074788706" lon="2.952536602908789"><ele>23.0</ele><time>2026-04-03T08:45:24Z</time></trkpt><trkpt lat="43.02618056885161" lon="2.9525503823414327"><ele>17.5</ele><time>2026-04-03T08:45:25Z</time></trkpt><trkpt lat="43.02644102318885" lon="2.952566213667222"><ele>12.0</ele><time>2026-04-03T08:45:26Z</time></trkpt><trkpt lat="43.026700510729185" lon="2.9525806781279775"><ele>12.0</ele><time>2026-04-03T08:45:27Z</time></trkpt><trkpt lat="43.026956946052366" lon="2.952596674695857"><ele>12.0</ele><time>2026-04-03T08:45:28Z</time></trkpt><trkpt lat="43.02721069105282" lon="2.952614746148658"><ele>12.0</ele><time>2026-04-03T08:45:29Z</time></trkpt><trkpt lat="43.027470078364594" lon="2.95263324557032"><ele>12.0</ele><time>2026-04-03T08:45:30Z</time></trkpt><trkpt lat="43.027730167213825" lon="2.952649148581967"><ele>12.5</ele><time>2026-04-03T08:45:31Z</time></trkpt><trkpt lat="43.027990138053916" lon="2.9526669762276962"><ele>13.0</ele><time>2026-04-03T08:45:32Z</time></trkpt><trkpt lat="43.028249349760046" lon="2.952683110154016"><ele>11.5</ele><time>2026-04-03T08:45:33Z</time></trkpt><trkpt lat="43.02851142140864" lon="2.952697983252614"><ele>10.0</ele><time>2026-04-03T08:45:34Z</time></trkpt><trkpt lat="43.0287713025862" lon="2.952713816060285"><ele>10.0</ele><time>2026-04-03T08:45:35Z</time></trkpt><trkpt lat="43.029033892554736" lon="2.9527312679030473"><ele>10.0</ele><time>2026-04-03T08:45:36Z</time></trkpt><trkpt lat="43.02929244063665" lon="2.9527464360349294"><ele>10.5</ele><time>2026-04-03T08:45:37Z</time></trkpt><trkpt lat="43.02955007347218" lon="2.9527630447204105"><ele>11.0</ele><time>2026-04-03T08:45:38Z</time></trkpt><trkpt lat="43.02980943010466" lon="2.9527786799285236"><ele>13.0</ele><time>2026-04-03T08:45:39Z</time></trkpt><trkpt lat="43.03006691768618" lon="2.952795019645251"><ele>15.0</ele><time>2026-04-03T08:45:40Z</time></trkpt><trkpt lat="43.03032874245995" lon="2.9528146323104063"><ele>15.0</ele><time>2026-04-03T08:45:41Z</time></trkpt><trkpt lat="43.03058620738056" lon="2.9528315993754126"><ele>15.0</ele><time>2026-04-03T08:45:42Z</time></trkpt><trkpt lat="43.03084568310278" lon="2.9528492513095017"><ele>15.5</ele><time>2026-04-03T08:45:43Z</time></trkpt><trkpt lat="43.03110207887" lon="2.9528640825717773"><ele>16.0</ele><time>2026-04-03T08:45:44Z</time></trkpt><trkpt lat="43.03136171920072" lon="2.9528791628446522"><ele>16.0</ele><time>2026-04-03T08:45:45Z</time></trkpt><trkpt lat="43.03161969999513" lon="2.9528950578022553"><ele>16.0</ele><time>2026-04-03T08:45:46Z</time></trkpt><trkpt lat="43.031877186075974" lon="2.9529100535155317"><ele>17.0</ele><time>2026-04-03T08:45:47Z</time></trkpt><trkpt lat="43.03213785241071" lon="2.9529228694117142"><ele>18.0</ele><time>2026-04-03T08:45:48Z</time></trkpt><trkpt lat="43.03239790763732" lon="2.9529287653146645"><ele>19.5</ele><time>2026-04-03T08:45:49Z</time></trkpt><trkpt lat="43.03265491934861" lon="2.952936477826987"><ele>21.0</ele><time>2026-04-03T08:45:50Z</time></trkpt><trkpt lat="43.032915746312476" lon="2.9529459385881225"><ele>21.0</ele><time>2026-04-03T08:45:51Z</time></trkpt><trkpt lat="43.03317948160397" lon="2.95295422020155"><ele>21.0</ele><time>2026-04-03T08:45:52Z</time></trkpt><trkpt lat="43.033440093935226" lon="2.9529633157239443"><ele>21.5</ele><time>2026-04-03T08:45:53Z</time></trkpt><trkpt lat="43.033704111423724" lon="2.9529598493390146"><ele>22.0</ele><time>2026-04-03T08:45:54Z</time></trkpt><trkpt lat="43.03396551282791" lon="2.952955695894828"><ele>21.0</ele><time>2026-04-03T08:45:55Z</time></trkpt><trkpt lat="43.03422740283924" lon="2.9529453674648107"><ele>20.0</ele><time>2026-04-03T08:45:56Z</time></trkpt><trkpt lat="43.034489575261304" lon="2.9529269298840854"><ele>20.0</ele><time>2026-04-03T08:45:57Z</time></trkpt><trkpt lat="43.034753008692945" lon="2.952891036925488"><ele>20.0</ele><time>2026-04-03T08:45:58Z</time></trkpt><trkpt lat="43.03501104915716" lon="2.9528601084391872"><ele>18.5</ele><time>2026-04-03T08:45:59Z</time></trkpt><trkpt lat="43.03526752926245" lon="2.9528174512487158"><ele>17.0</ele><time>2026-04-03T08:46:00Z</time></trkpt><trkpt lat="43.03552500462046" lon="2.9527740260636004"><ele>17.0</ele><time>2026-04-03T08:46:01Z</time></trkpt><trkpt lat="43.035777449194285" lon="2.9527316700208717"><ele>17.0</ele><time>2026-04-03T08:46:02Z</time></trkpt><trkpt lat="43.03603947032217" lon="2.9526855218845482"><ele>17.5</ele><time>2026-04-03T08:46:03Z</time></trkpt><trkpt lat="43.03629900777623" lon="2.952633750235197"><ele>18.0</ele><time>2026-04-03T08:46:04Z</time></trkpt><trkpt lat="43.03655947486462" lon="2.952578023253363"><ele>17.0</ele><time>2026-04-03T08:46:05Z</time></trkpt><trkpt lat="43.03681942983728" lon="2.9525122493944043"><ele>16.0</ele><time>2026-04-03T08:46:06Z</time></trkpt><trkpt lat="43.037079027891515" lon="2.952438688815729"><ele>16.0</ele><time>2026-04-03T08:46:07Z</time></trkpt><trkpt lat="43.03733619272414" lon="2.9523566365822305"><ele>16.0</ele><time>2026-04-03T08:46:08Z</time></trkpt><trkpt lat="43.03758791519369" lon="2.95226806453825"><ele>17.0</ele><time>2026-04-03T08:46:09Z</time></trkpt><trkpt lat="43.03784039689745" lon="2.952163125971571"><ele>18.0</ele><time>2026-04-03T08:46:10Z</time></trkpt><trkpt lat="43.0380859888483" lon="2.95204918227182"><ele>16.0</ele><time>2026-04-03T08:46:11Z</time></trkpt><trkpt lat="43.038332438948736" lon="2.9519352167645496"><ele>14.0</ele><time>2026-04-03T08:46:12Z</time></trkpt><trkpt lat="43.03857895189335" lon="2.9518101372085943"><ele>15.0</ele><time>2026-04-03T08:46:13Z</time></trkpt><trkpt lat="43.038824390264764" lon="2.9516803240420026"><ele>16.0</ele><time>2026-04-03T08:46:14Z</time></trkpt><trkpt lat="43.03906255371027" lon="2.95153754156955"><ele>15.0</ele><time>2026-04-03T08:46:15Z</time></trkpt><trkpt lat="43.039299968122855" lon="2.951387688292587"><ele>14.0</ele><time>2026-04-03T08:46:16Z</time></trkpt><trkpt lat="43.03953351728276" lon="2.9512291276731575"><ele>14.0</ele><time>2026-04-03T08:46:17Z</time></trkpt><trkpt lat="43.03976120468265" lon="2.9510626855136266"><ele>14.0</ele><time>2026-04-03T08:46:18Z</time></trkpt><trkpt lat="43.03998297929641" lon="2.9508923667822358"><ele>14.0</ele><time>2026-04-03T08:46:19Z</time></trkpt><trkpt lat="43.04020413822922" lon="2.95071064726218"><ele>14.0</ele><time>2026-04-03T08:46:20Z</time></trkpt><trkpt lat="43.04042300155545" lon="2.9505238133082092"><ele>14.0</ele><time>2026-04-03T08:46:21Z</time></trkpt><trkpt lat="43.04063829397714" lon="2.9503282608078356"><ele>14.0</ele><time>2026-04-03T08:46:22Z</time></trkpt><trkpt lat="43.04085435765221" lon="2.950128736676553"><ele>14.5</ele><time>2026-04-03T08:46:23Z</time></trkpt><trkpt lat="43.04106548515842" lon="2.949920296811337"><ele>15.0</ele><time>2026-04-03T08:46:24Z</time></trkpt><trkpt lat="43.041274060328504" lon="2.9497057128991155"><ele>15.0</ele><time>2026-04-03T08:46:25Z</time></trkpt><trkpt lat="43.041479451622116" lon="2.9494841298274768"><ele>15.0</ele><time>2026-04-03T08:46:26Z</time></trkpt><trkpt lat="43.04168318318387" lon="2.9492555364081965"><ele>15.0</ele><time>2026-04-03T08:46:27Z</time></trkpt><trkpt lat="43.0418808230647" lon="2.9490197216940386"><ele>15.0</ele><time>2026-04-03T08:46:28Z</time></trkpt><trkpt lat="43.042074513060975" lon="2.9487807846995713"><ele>15.0</ele><time>2026-04-03T08:46:29Z</time></trkpt><trkpt lat="43.042268077849975" lon="2.9485383945860137"><ele>15.0</ele><time>2026-04-03T08:46:30Z</time></trkpt><trkpt lat="43.04245168377829" lon="2.9482954229343408"><ele>15.5</ele><time>2026-04-03T08:46:31Z</time></trkpt><trkpt lat="43.04263532880474" lon="2.948052974831234"><ele>16.0</ele><time>2026-04-03T08:46:32Z</time></trkpt><trkpt lat="43.04281494827533" lon="2.947803006751082"><ele>16.0</ele><time>2026-04-03T08:46:33Z</time></trkpt><trkpt lat="43.04299706111285" lon="2.9475560575638045"><ele>16.0</ele><time>2026-04-03T08:46:34Z</time></trkpt><trkpt lat="43.04318009276247" lon="2.9473080627800354"><ele>15.0</ele><time>2026-04-03T08:46:35Z</time></trkpt><trkpt lat="43.04336329490728" lon="2.947058223954168"><ele>14.0</ele><time>2026-04-03T08:46:36Z</time></trkpt><trkpt lat="43.043545574007624" lon="2.9468042460593433"><ele>14.5</ele><time>2026-04-03T08:46:37Z</time></trkpt><trkpt lat="43.04372646028898" lon="2.946551285044861"><ele>15.0</ele><time>2026-04-03T08:46:38Z</time></trkpt><trkpt lat="43.043914403977574" lon="2.9462975087969205"><ele>15.0</ele><time>2026-04-03T08:46:39Z</time></trkpt><trkpt lat="43.04409982405333" lon="2.9460499923888577"><ele>15.0</ele><time>2026-04-03T08:46:40Z</time></trkpt><trkpt lat="43.04428602939674" lon="2.945800307377318"><ele>16.0</ele><time>2026-04-03T08:46:41Z</time></trkpt><trkpt lat="43.04447217677677" lon="2.945549649439075"><ele>17.0</ele><time>2026-04-03T08:46:42Z</time></trkpt><trkpt lat="43.04466399638715" lon="2.945304452827574"><ele>17.0</ele><time>2026-04-03T08:46:43Z</time></trkpt><trkpt lat="43.04484824119287" lon="2.945068833134865"><ele>17.0</ele><time>2026-04-03T08:46:44Z</time></trkpt><trkpt lat="43.04504395213365" lon="2.9448359999654707"><ele>16.5</ele><time>2026-04-03T08:46:45Z</time></trkpt><trkpt lat="43.045245401798105" lon="2.944614760894851"><ele>16.0</ele><time>2026-04-03T08:46:46Z</time></trkpt><trkpt lat="43.0454462280121" lon="2.9443963978340224"><ele>16.0</ele><time>2026-04-03T08:46:47Z</time></trkpt><trkpt lat="43.045641848190066" lon="2.9441770419673587"><ele>16.0</ele><time>2026-04-03T08:46:48Z</time></trkpt><trkpt lat="43.0458434354069" lon="2.9439672245702084"><ele>15.5</ele><time>2026-04-03T08:46:49Z</time></trkpt><trkpt lat="43.04603046561554" lon="2.9437625859027516"><ele>15.0</ele><time>2026-04-03T08:46:50Z</time></trkpt><trkpt lat="43.04623207402302" lon="2.9435573063606113"><ele>15.5</ele><time>2026-04-03T08:46:51Z</time></trkpt><trkpt lat="43.04643095057575" lon="2.9433626314473265"><ele>16.0</ele><time>2026-04-03T08:46:52Z</time></trkpt><trkpt lat="43.04662507488249" lon="2.943180651412154"><ele>15.5</ele><time>2026-04-03T08:46:53Z</time></trkpt><trkpt lat="43.04682333222402" lon="2.9429947682499824"><ele>15.0</ele><time>2026-04-03T08:46:54Z</time></trkpt><trkpt lat="43.04702192543666" lon="2.942820743092343"><ele>15.0</ele><time>2026-04-03T08:46:55Z</time></trkpt><trkpt lat="43.047220901228414" lon="2.9426462506672237"><ele>15.0</ele><time>2026-04-03T08:46:56Z</time></trkpt><trkpt lat="43.04742944230616" lon="2.9424728895467616"><ele>17.0</ele><time>2026-04-03T08:46:57Z</time></trkpt><trkpt lat="43.0476418577721" lon="2.9422982534300677"><ele>19.0</ele><time>2026-04-03T08:46:58Z</time></trkpt><trkpt lat="43.04785373326841" lon="2.942120369620577"><ele>19.0</ele><time>2026-04-03T08:46:59Z</time></trkpt><trkpt lat="43.04807082915728" lon="2.9419448201968845"><ele>19.0</ele><time>2026-04-03T08:47:00Z</time></trkpt><trkpt lat="43.048289811520746" lon="2.9417764583350596"><ele>22.0</ele><time>2026-04-03T08:47:01Z</time></trkpt><trkpt lat="43.048504749473835" lon="2.9416133218009968"><ele>25.0</ele><time>2026-04-03T08:47:02Z</time></trkpt><trkpt lat="43.048726031655654" lon="2.9414595734707674"><ele>25.0</ele><time>2026-04-03T08:47:03Z</time></trkpt><trkpt lat="43.04894483152018" lon="2.94130826070159"><ele>25.0</ele><time>2026-04-03T08:47:04Z</time></trkpt><trkpt lat="43.04916755352388" lon="2.9411627065752426"><ele>29.5</ele><time>2026-04-03T08:47:05Z</time></trkpt><trkpt lat="43.04938879401243" lon="2.9410210409185584"><ele>34.0</ele><time>2026-04-03T08:47:06Z</time></trkpt><trkpt lat="43.049611290460355" lon="2.940884987264821"><ele>33.5</ele><time>2026-04-03T08:47:07Z</time></trkpt><trkpt lat="43.04983619912497" lon="2.9407586297751096"><ele>33.0</ele><time>2026-04-03T08:47:08Z</time></trkpt><trkpt lat="43.050065584886724" lon="2.9406320359241143"><ele>34.0</ele><time>2026-04-03T08:47:09Z</time></trkpt><trkpt lat="43.05029709014465" lon="2.9405130060299447"><ele>35.0</ele><time>2026-04-03T08:47:10Z</time></trkpt><trkpt lat="43.05053052684417" lon="2.9403978756279865"><ele>35.0</ele><time>2026-04-03T08:47:11Z</time></trkpt><trkpt lat="43.05076874756876" lon="2.9402814255499843"><ele>35.0</ele><time>2026-04-03T08:47:12Z</time></trkpt><trkpt lat="43.051005919846986" lon="2.9401706739190963"><ele>34.5</ele><time>2026-04-03T08:47:13Z</time></trkpt><trkpt lat="43.05124846122941" lon="2.940065715732064"><ele>34.0</ele><time>2026-04-03T08:47:14Z</time></trkpt><trkpt lat="43.05149015700799" lon="2.9399652816958097"><ele>32.0</ele><time>2026-04-03T08:47:15Z</time></trkpt><trkpt lat="43.051736681080676" lon="2.9398671729719172"><ele>30.0</ele><time>2026-04-03T08:47:16Z</time></trkpt><trkpt lat="43.05198487245535" lon="2.939773465824934"><ele>30.0</ele><time>2026-04-03T08:47:17Z</time></trkpt><trkpt lat="43.05223513184506" lon="2.939682131298033"><ele>30.0</ele><time>2026-04-03T08:47:18Z</time></trkpt><trkpt lat="43.05248449702849" lon="2.9395923583524053"><ele>29.0</ele><time>2026-04-03T08:47:19Z</time></trkpt><trkpt lat="43.05273146698463" lon="2.939507918384997"><ele>28.0</ele><time>2026-04-03T08:47:20Z</time></trkpt><trkpt lat="43.05297912538808" lon="2.9394272495685985"><ele>28.0</ele><time>2026-04-03T08:47:21Z</time></trkpt><trkpt lat="43.053226623689596" lon="2.939349640374447"><ele>28.0</ele><time>2026-04-03T08:47:22Z</time></trkpt><trkpt lat="43.05347609680208" lon="2.9392791347231144"><ele>27.5</ele><time>2026-04-03T08:47:23Z</time></trkpt><trkpt lat="43.05372537536223" lon="2.939207975956188"><ele>27.0</ele><time>2026-04-03T08:47:24Z</time></trkpt><trkpt lat="43.05397410200807" lon="2.9391380724979927"><ele>27.0</ele><time>2026-04-03T08:47:25Z</time></trkpt><trkpt lat="43.0542217841472" lon="2.939068924494868"><ele>27.0</ele><time>2026-04-03T08:47:26Z</time></trkpt><trkpt lat="43.054467856988914" lon="2.9390063708753846"><ele>27.0</ele><time>2026-04-03T08:47:27Z</time></trkpt><trkpt lat="43.05471076351923" lon="2.938941542781841"><ele>27.0</ele><time>2026-04-03T08:47:28Z</time></trkpt><trkpt lat="43.05495513351614" lon="2.938883364184173"><ele>25.0</ele><time>2026-04-03T08:47:29Z</time></trkpt><trkpt lat="43.05519871599662" lon="2.9388212294571963"><ele>23.0</ele><time>2026-04-03T08:47:30Z</time></trkpt><trkpt lat="43.05543705581796" lon="2.9387608768076614"><ele>23.0</ele><time>2026-04-03T08:47:31Z</time></trkpt><trkpt lat="43.05567915618848" lon="2.9387016947048976"><ele>23.0</ele><time>2026-04-03T08:47:32Z</time></trkpt><trkpt lat="43.05591934065613" lon="2.9386425676149606"><ele>22.5</ele><time>2026-04-03T08:47:33Z</time></trkpt><trkpt lat="43.05615960590794" lon="2.9385844989230696"><ele>22.0</ele><time>2026-04-03T08:47:34Z</time></trkpt><trkpt lat="43.05640247220646" lon="2.9385210920470293"><ele>21.0</ele><time>2026-04-03T08:47:35Z</time></trkpt><trkpt lat="43.05664562432867" lon="2.9384602692224746"><ele>20.0</ele><time>2026-04-03T08:47:36Z</time></trkpt><trkpt lat="43.056886680869546" lon="2.9383998176124004"><ele>20.5</ele><time>2026-04-03T08:47:37Z</time></trkpt><trkpt lat="43.05713076219491" lon="2.938341365368301"><ele>21.0</ele><time>2026-04-03T08:47:38Z</time></trkpt><trkpt lat="43.057378742076885" lon="2.938279771271774"><ele>19.5</ele><time>2026-04-03T08:47:39Z</time></trkpt><trkpt lat="43.057624566117155" lon="2.9382169400990983"><ele>18.0</ele><time>2026-04-03T08:47:40Z</time></trkpt><trkpt lat="43.057870873827376" lon="2.9381547247849116"><ele>18.0</ele><time>2026-04-03T08:47:41Z</time></trkpt><trkpt lat="43.05811695637235" lon="2.938095197942754"><ele>18.0</ele><time>2026-04-03T08:47:42Z</time></trkpt><trkpt lat="43.058363092512614" lon="2.9380357244458275"><ele>18.0</ele><time>2026-04-03T08:47:43Z</time></trkpt><trkpt lat="43.058607798261164" lon="2.9379744853364858"><ele>18.0</ele><time>2026-04-03T08:47:44Z</time></trkpt><trkpt lat="43.05885041096925" lon="2.9379141813767666"><ele>18.0</ele><time>2026-04-03T08:47:45Z</time></trkpt><trkpt lat="43.05909174413826" lon="2.937852232432692"><ele>18.0</ele><time>2026-04-03T08:47:46Z</time></trkpt><trkpt lat="43.0593326683433" lon="2.9377929579086586"><ele>17.5</ele><time>2026-04-03T08:47:47Z</time></trkpt><trkpt lat="43.05957062482433" lon="2.9377304164309725"><ele>17.0</ele><time>2026-04-03T08:47:48Z</time></trkpt><trkpt lat="43.05980727425559" lon="2.9376682005926464"><ele>15.0</ele><time>2026-04-03T08:47:49Z</time></trkpt><trkpt lat="43.060036966449104" lon="2.9376082464231104"><ele>13.0</ele><time>2026-04-03T08:47:50Z</time></trkpt><trkpt lat="43.060254791437536" lon="2.9375564388452586"><ele>14.333333333333332</ele><time>2026-04-03T08:47:51Z</time></trkpt><trkpt lat="43.06046009600323" lon="2.9374974590785334"><ele>15.666666666666668</ele><time>2026-04-03T08:47:52Z</time></trkpt><trkpt lat="43.060659111833374" lon="2.937448038361147"><ele>17.0</ele><time>2026-04-03T08:47:53Z</time></trkpt><trkpt lat="43.06085483144507" lon="2.93739743973517"><ele>17.0</ele><time>2026-04-03T08:47:54Z</time></trkpt><trkpt lat="43.06105383910354" lon="2.937351464838768"><ele>17.0</ele><time>2026-04-03T08:47:55Z</time></trkpt><trkpt lat="43.061253224684116" lon="2.9373002057252475"><ele>17.0</ele><time>2026-04-03T08:47:56Z</time></trkpt><trkpt lat="43.061457255570076" lon="2.9372622955924963"><ele>15.0</ele><time>2026-04-03T08:47:57Z</time></trkpt><trkpt lat="43.0616618727741" lon="2.9372174851618955"><ele>13.0</ele><time>2026-04-03T08:47:58Z</time></trkpt><trkpt lat="43.06186880723539" lon="2.937174503104931"><ele>11.0</ele><time>2026-04-03T08:47:59Z</time></trkpt><trkpt lat="43.06207658373323" lon="2.937132167467256"><ele>11.0</ele><time>2026-04-03T08:48:00Z</time></trkpt><trkpt lat="43.06228556322448" lon="2.9370891533013426"><ele>11.0</ele><time>2026-04-03T08:48:01Z</time></trkpt><trkpt lat="43.062496181946564" lon="2.9370580756092615"><ele>11.0</ele><time>2026-04-03T08:48:02Z</time></trkpt><trkpt lat="43.06270630122391" lon="2.9370252962109213"><ele>10.333333333333332</ele><time>2026-04-03T08:48:03Z</time></trkpt><trkpt lat="43.062919156961485" lon="2.9369937254318645"><ele>9.666666666666666</ele><time>2026-04-03T08:48:04Z</time></trkpt><trkpt lat="43.06312995754891" lon="2.936968486646015"><ele>9.0</ele><time>2026-04-03T08:48:05Z</time></trkpt><trkpt lat="43.06334368461163" lon="2.936951315656762"><ele>9.0</ele><time>2026-04-03T08:48:06Z</time></trkpt><trkpt lat="43.06355489335357" lon="2.936937083794056"><ele>9.0</ele><time>2026-04-03T08:48:07Z</time></trkpt><trkpt lat="43.0637703125039" lon="2.936928364982439"><ele>9.0</ele><time>2026-04-03T08:48:08Z</time></trkpt><trkpt lat="43.06398669316347" lon="2.9369265453008015"><ele>9.0</ele><time>2026-04-03T08:48:09Z</time></trkpt><trkpt lat="43.064198376782976" lon="2.9369269693406017"><ele>9.0</ele><time>2026-04-03T08:48:10Z</time></trkpt><trkpt lat="43.06441148845734" lon="2.9369357521106627"><ele>9.0</ele><time>2026-04-03T08:48:11Z</time></trkpt><trkpt lat="43.06462528888171" lon="2.9369540180870652"><ele>9.0</ele><time>2026-04-03T08:48:12Z</time></trkpt><trkpt lat="43.0648385240953" lon="2.9369771136789207"><ele>9.0</ele><time>2026-04-03T08:48:13Z</time></trkpt><trkpt lat="43.06505490464665" lon="2.937005947043157"><ele>9.0</ele><time>2026-04-03T08:48:14Z</time></trkpt><trkpt lat="43.06527475403984" lon="2.9370351538364194"><ele>9.5</ele><time>2026-04-03T08:48:15Z</time></trkpt><trkpt lat="43.06549832059071" lon="2.937065432610261"><ele>10.0</ele><time>2026-04-03T08:48:16Z</time></trkpt><trkpt lat="43.06572535720632" lon="2.9371004456378738"><ele>10.5</ele><time>2026-04-03T08:48:17Z</time></trkpt><trkpt lat="43.06595391214475" lon="2.9371436279958574"><ele>11.0</ele><time>2026-04-03T08:48:18Z</time></trkpt><trkpt lat="43.06618732103569" lon="2.937188828334823"><ele>11.0</ele><time>2026-04-03T08:48:19Z</time></trkpt><trkpt lat="43.06642473534222" lon="2.9372417392963333"><ele>11.0</ele><time>2026-04-03T08:48:20Z</time></trkpt><trkpt lat="43.06666516963823" lon="2.9373014735579233"><ele>13.0</ele><time>2026-04-03T08:48:21Z</time></trkpt><trkpt lat="43.066910454231746" lon="2.9373656682302274"><ele>15.0</ele><time>2026-04-03T08:48:22Z</time></trkpt><trkpt lat="43.06715549060285" lon="2.9374368014672454"><ele>15.0</ele><time>2026-04-03T08:48:23Z</time></trkpt><trkpt lat="43.06740986942217" lon="2.937509811659853"><ele>15.0</ele><time>2026-04-03T08:48:24Z</time></trkpt><trkpt lat="43.06766406268865" lon="2.9375818640911566"><ele>13.5</ele><time>2026-04-03T08:48:25Z</time></trkpt><trkpt lat="43.067922495869276" lon="2.937651535226143"><ele>12.0</ele><time>2026-04-03T08:48:26Z</time></trkpt><trkpt lat="43.068182846340086" lon="2.9377180470242847"><ele>13.0</ele><time>2026-04-03T08:48:27Z</time></trkpt><trkpt lat="43.068447255845705" lon="2.937779818935181"><ele>14.0</ele><time>2026-04-03T08:48:28Z</time></trkpt><trkpt lat="43.06871763664374" lon="2.9378412977675654"><ele>14.0</ele><time>2026-04-03T08:48:29Z</time></trkpt><trkpt lat="43.06899096937921" lon="2.9378972405559"><ele>14.0</ele><time>2026-04-03T08:48:30Z</time></trkpt><trkpt lat="43.06926915365359" lon="2.937944424942909"><ele>14.0</ele><time>2026-04-03T08:48:31Z</time></trkpt><trkpt lat="43.06954891699811" lon="2.9379812735522792"><ele>14.0</ele><time>2026-04-03T08:48:32Z</time></trkpt><trkpt lat="43.069829554840446" lon="2.938008706580322"><ele>15.0</ele><time>2026-04-03T08:48:33Z</time></trkpt><trkpt lat="43.070111838596596" lon="2.938024791410779"><ele>16.0</ele><time>2026-04-03T08:48:34Z</time></trkpt><trkpt lat="43.07039612979082" lon="2.938025961469276"><ele>16.0</ele><time>2026-04-03T08:48:35Z</time></trkpt><trkpt lat="43.07067661216936" lon="2.9380157866464396"><ele>16.0</ele><time>2026-04-03T08:48:36Z</time></trkpt><trkpt lat="43.070967419404695" lon="2.9379997346601567"><ele>18.5</ele><time>2026-04-03T08:48:37Z</time></trkpt><trkpt lat="43.071252645756" lon="2.937992157798465"><ele>21.0</ele><time>2026-04-03T08:48:38Z</time></trkpt><trkpt lat="43.0715422622861" lon="2.937961006379251"><ele>20.0</ele><time>2026-04-03T08:48:39Z</time></trkpt><trkpt lat="43.07182731096658" lon="2.9379143831059413"><ele>19.0</ele><time>2026-04-03T08:48:40Z</time></trkpt><trkpt lat="43.072112936356305" lon="2.9378661479507757"><ele>19.0</ele><time>2026-04-03T08:48:41Z</time></trkpt><trkpt lat="43.072394557872414" lon="2.937803265952081"><ele>19.0</ele><time>2026-04-03T08:48:42Z</time></trkpt><trkpt lat="43.072671454415826" lon="2.937737655884937"><ele>23.5</ele><time>2026-04-03T08:48:43Z</time></trkpt><trkpt lat="43.07294167839736" lon="2.9376717664979486"><ele>28.0</ele><time>2026-04-03T08:48:44Z</time></trkpt><trkpt lat="43.07320488423232" lon="2.937597646086596"><ele>25.5</ele><time>2026-04-03T08:48:45Z</time></trkpt><trkpt lat="43.07345990197324" lon="2.9375225869179933"><ele>23.0</ele><time>2026-04-03T08:48:46Z</time></trkpt><trkpt lat="43.07370958709496" lon="2.9374482525308916"><ele>23.0</ele><time>2026-04-03T08:48:47Z</time></trkpt><trkpt lat="43.07396185395858" lon="2.937371417080207"><ele>23.0</ele><time>2026-04-03T08:48:48Z</time></trkpt><trkpt lat="43.07420975903684" lon="2.9372961080583204"><ele>23.5</ele><time>2026-04-03T08:48:49Z</time></trkpt><trkpt lat="43.07445569720553" lon="2.93721627059432"><ele>24.0</ele><time>2026-04-03T08:48:50Z</time></trkpt><trkpt lat="43.07470144286746" lon="2.937142560092589"><ele>26.5</ele><time>2026-04-03T08:48:51Z</time></trkpt><trkpt lat="43.074946406908964" lon="2.9370616508574567"><ele>29.0</ele><time>2026-04-03T08:48:52Z</time></trkpt><trkpt lat="43.07519129046693" lon="2.9369869229263634"><ele>29.0</ele><time>2026-04-03T08:48:53Z</time></trkpt><trkpt lat="43.07542502207547" lon="2.9369125854214286"><ele>29.0</ele><time>2026-04-03T08:48:54Z</time></trkpt><trkpt lat="43.07565530529702" lon="2.9368398258595305"><ele>29.5</ele><time>2026-04-03T08:48:55Z</time></trkpt><trkpt lat="43.07588740584212" lon="2.936768683531498"><ele>30.0</ele><time>2026-04-03T08:48:56Z</time></trkpt><trkpt lat="43.07611614352358" lon="2.9366909172550772"><ele>30.0</ele><time>2026-04-03T08:48:57Z</time></trkpt><trkpt lat="43.07634526032467" lon="2.9366161557039896"><ele>30.0</ele><time>2026-04-03T08:48:58Z</time></trkpt><trkpt lat="43.07657390222586" lon="2.93654444321466"><ele>31.0</ele><time>2026-04-03T08:48:59Z</time></trkpt><trkpt lat="43.0767998732552" lon="2.9364703894402813"><ele>32.0</ele><time>2026-04-03T08:49:00Z</time></trkpt><trkpt lat="43.07703207926996" lon="2.936407111692054"><ele>32.0</ele><time>2026-04-03T08:49:01Z</time></trkpt><trkpt lat="43.077268398857676" lon="2.9363409532611264"><ele>32.0</ele><time>2026-04-03T08:49:02Z</time></trkpt><trkpt lat="43.077509046274976" lon="2.936280497127715"><ele>34.0</ele><time>2026-04-03T08:49:03Z</time></trkpt><trkpt lat="43.07775106830367" lon="2.9362257386836514"><ele>36.0</ele><time>2026-04-03T08:49:04Z</time></trkpt><trkpt lat="43.07799947775461" lon="2.9361734252698746"><ele>36.0</ele><time>2026-04-03T08:49:05Z</time></trkpt><trkpt lat="43.07825086857898" lon="2.9361283455122344"><ele>36.0</ele><time>2026-04-03T08:49:06Z</time></trkpt><trkpt lat="43.07850313214427" lon="2.93609741488521"><ele>33.5</ele><time>2026-04-03T08:49:07Z</time></trkpt><trkpt lat="43.07875849489658" lon="2.936074600552618"><ele>31.0</ele><time>2026-04-03T08:49:08Z</time></trkpt><trkpt lat="43.07901284494583" lon="2.9360570960103316"><ele>29.0</ele><time>2026-04-03T08:49:09Z</time></trkpt><trkpt lat="43.07926600688719" lon="2.9360517558573407"><ele>27.0</ele><time>2026-04-03T08:49:10Z</time></trkpt><trkpt lat="43.07951827393816" lon="2.936055808696498"><ele>27.0</ele><time>2026-04-03T08:49:11Z</time></trkpt><trkpt lat="43.0797701382638" lon="2.9360589199208453"><ele>27.0</ele><time>2026-04-03T08:49:12Z</time></trkpt><trkpt lat="43.08002287918551" lon="2.9360694462186125"><ele>27.0</ele><time>2026-04-03T08:49:13Z</time></trkpt><trkpt lat="43.08027624136769" lon="2.936090827059816"><ele>27.0</ele><time>2026-04-03T08:49:14Z</time></trkpt><trkpt lat="43.08052737754882" lon="2.9361082812374497"><ele>31.0</ele><time>2026-04-03T08:49:15Z</time></trkpt><trkpt lat="43.0807770778994" lon="2.936138234088586"><ele>35.0</ele><time>2026-04-03T08:49:16Z</time></trkpt><trkpt lat="43.08102618993252" lon="2.936177390908229"><ele>35.0</ele><time>2026-04-03T08:49:17Z</time></trkpt><trkpt lat="43.08127323307371" lon="2.936232111226776"><ele>35.0</ele><time>2026-04-03T08:49:18Z</time></trkpt><trkpt lat="43.08152019933853" lon="2.9362899030414136"><ele>37.5</ele><time>2026-04-03T08:49:19Z</time></trkpt><trkpt lat="43.08176550231726" lon="2.9363568693732414"><ele>40.0</ele><time>2026-04-03T08:49:20Z</time></trkpt><trkpt lat="43.08200928310266" lon="2.936429473614987"><ele>40.0</ele><time>2026-04-03T08:49:21Z</time></trkpt><trkpt lat="43.08225516103619" lon="2.9365156975038684"><ele>40.0</ele><time>2026-04-03T08:49:22Z</time></trkpt><trkpt lat="43.082500958928065" lon="2.9366063430937657"><ele>40.0</ele><time>2026-04-03T08:49:23Z</time></trkpt><trkpt lat="43.08274969443434" lon="2.9367017796411496"><ele>40.0</ele><time>2026-04-03T08:49:24Z</time></trkpt><trkpt lat="43.08299620078465" lon="2.9368030250094046"><ele>41.0</ele><time>2026-04-03T08:49:25Z</time></trkpt><trkpt lat="43.08324304045844" lon="2.936906266069147"><ele>42.0</ele><time>2026-04-03T08:49:26Z</time></trkpt><trkpt lat="43.08348912556268" lon="2.9370167990985165"><ele>42.0</ele><time>2026-04-03T08:49:27Z</time></trkpt><trkpt lat="43.08373588790991" lon="2.9371305398216276"><ele>42.0</ele><time>2026-04-03T08:49:28Z</time></trkpt><trkpt lat="43.08398230934393" lon="2.9372496984378524"><ele>41.0</ele><time>2026-04-03T08:49:29Z</time></trkpt><trkpt lat="43.084230422354715" lon="2.937366239640653"><ele>40.0</ele><time>2026-04-03T08:49:30Z</time></trkpt><trkpt lat="43.084474734357514" lon="2.9374848318671085"><ele>40.5</ele><time>2026-04-03T08:49:31Z</time></trkpt><trkpt lat="43.0847200147425" lon="2.9376030950734906"><ele>41.0</ele><time>2026-04-03T08:49:32Z</time></trkpt><trkpt lat="43.08496868220146" lon="2.9377199436464085"><ele>38.5</ele><time>2026-04-03T08:49:33Z</time></trkpt><trkpt lat="43.08521717631469" lon="2.937836575048078"><ele>36.0</ele><time>2026-04-03T08:49:34Z</time></trkpt><trkpt lat="43.08546367997052" lon="2.9379464263565795"><ele>36.0</ele><time>2026-04-03T08:49:35Z</time></trkpt><trkpt lat="43.08570822133471" lon="2.938052964874194"><ele>36.0</ele><time>2026-04-03T08:49:36Z</time></trkpt><trkpt lat="43.085955036421645" lon="2.9381585347955093"><ele>35.0</ele><time>2026-04-03T08:49:37Z</time></trkpt><trkpt lat="43.08620345944593" lon="2.938256132821826"><ele>34.0</ele><time>2026-04-03T08:49:38Z</time></trkpt><trkpt lat="43.086452615502886" lon="2.9383491039617926"><ele>34.5</ele><time>2026-04-03T08:49:39Z</time></trkpt><trkpt lat="43.086702134842945" lon="2.938438521590732"><ele>35.0</ele><time>2026-04-03T08:49:40Z</time></trkpt><trkpt lat="43.08695206561229" lon="2.938523951510003"><ele>35.0</ele><time>2026-04-03T08:49:41Z</time></trkpt><trkpt lat="43.08720332528543" lon="2.9386046220679867"><ele>35.0</ele><time>2026-04-03T08:49:42Z</time></trkpt><trkpt lat="43.087451670999684" lon="2.938679788351447"><ele>31.0</ele><time>2026-04-03T08:49:43Z</time></trkpt><trkpt lat="43.08770231114505" lon="2.9387519561790505"><ele>27.0</ele><time>2026-04-03T08:49:44Z</time></trkpt><trkpt lat="43.08795245246122" lon="2.938820830048225"><ele>27.0</ele><time>2026-04-03T08:49:45Z</time></trkpt><trkpt lat="43.08820495570926" lon="2.938882491559009"><ele>27.0</ele><time>2026-04-03T08:49:46Z</time></trkpt><trkpt lat="43.088461272209145" lon="2.938938981265646"><ele>23.5</ele><time>2026-04-03T08:49:47Z</time></trkpt><trkpt lat="43.08871506732145" lon="2.9389909106620387"><ele>20.0</ele><time>2026-04-03T08:49:48Z</time></trkpt><trkpt lat="43.08896809855272" lon="2.9390393327623068"><ele>19.5</ele><time>2026-04-03T08:49:49Z</time></trkpt><trkpt lat="43.08922323817345" lon="2.9390822690240705"><ele>19.0</ele><time>2026-04-03T08:49:50Z</time></trkpt><trkpt lat="43.0894823817792" lon="2.9391240449957965"><ele>19.0</ele><time>2026-04-03T08:49:51Z</time></trkpt><trkpt lat="43.08974235275805" lon="2.9391617947461333"><ele>19.0</ele><time>2026-04-03T08:49:52Z</time></trkpt><trkpt lat="43.09000231219869" lon="2.9391989883414866"><ele>18.5</ele><time>2026-04-03T08:49:53Z</time></trkpt><trkpt lat="43.090262489437656" lon="2.9392347553940774"><ele>18.0</ele><time>2026-04-03T08:49:54Z</time></trkpt><trkpt lat="43.0905240665093" lon="2.939269397923846"><ele>17.5</ele><time>2026-04-03T08:49:55Z</time></trkpt><trkpt lat="43.09078692183018" lon="2.9393001757636688"><ele>17.0</ele><time>2026-04-03T08:49:56Z</time></trkpt><trkpt lat="43.09104760705792" lon="2.939333911074572"><ele>17.0</ele><time>2026-04-03T08:49:57Z</time></trkpt><trkpt lat="43.09130892263012" lon="2.939369514020273"><ele>17.0</ele><time>2026-04-03T08:49:58Z</time></trkpt><trkpt lat="43.09156982455574" lon="2.9394031904788704"><ele>17.0</ele><time>2026-04-03T08:49:59Z</time></trkpt><trkpt lat="43.091828980781955" lon="2.93943676165073"><ele>17.0</ele><time>2026-04-03T08:50:00Z</time></trkpt><trkpt lat="43.09208698091966" lon="2.9394706752358064"><ele>17.0</ele><time>2026-04-03T08:50:01Z</time></trkpt><trkpt lat="43.09234563865718" lon="2.939505198386656"><ele>17.0</ele><time>2026-04-03T08:50:02Z</time></trkpt><trkpt lat="43.09260511029344" lon="2.9395452788317487"><ele>19.0</ele><time>2026-04-03T08:50:03Z</time></trkpt><trkpt lat="43.092862708026885" lon="2.939589951516666"><ele>21.0</ele><time>2026-04-03T08:50:04Z</time></trkpt><trkpt lat="43.09311998757821" lon="2.9396382732437383"><ele>22.0</ele><time>2026-04-03T08:50:05Z</time></trkpt><trkpt lat="43.09337739736048" lon="2.9396886405159326"><ele>23.0</ele><time>2026-04-03T08:50:06Z</time></trkpt><trkpt lat="43.09363490153813" lon="2.939744146915093"><ele>23.0</ele><time>2026-04-03T08:50:07Z</time></trkpt><trkpt lat="43.09389105051648" lon="2.9398047699801104"><ele>23.0</ele><time>2026-04-03T08:50:08Z</time></trkpt><trkpt lat="43.094146700569915" lon="2.9398689599964762"><ele>23.5</ele><time>2026-04-03T08:50:09Z</time></trkpt><trkpt lat="43.0944015361028" lon="2.9399357047198693"><ele>24.0</ele><time>2026-04-03T08:50:10Z</time></trkpt><trkpt lat="43.09465885341666" lon="2.9400115672800515"><ele>23.0</ele><time>2026-04-03T08:50:11Z</time></trkpt><trkpt lat="43.094909581425604" lon="2.9400906926936226"><ele>22.0</ele><time>2026-04-03T08:50:12Z</time></trkpt><trkpt lat="43.09516367460786" lon="2.940175148323857"><ele>20.0</ele><time>2026-04-03T08:50:13Z</time></trkpt><trkpt lat="43.09541776724854" lon="2.9402648408297916"><ele>18.0</ele><time>2026-04-03T08:50:14Z</time></trkpt><trkpt lat="43.095669071892544" lon="2.940360855309681"><ele>17.0</ele><time>2026-04-03T08:50:15Z</time></trkpt><trkpt lat="43.09592052932428" lon="2.9404657725364194"><ele>16.0</ele><time>2026-04-03T08:50:16Z</time></trkpt><trkpt lat="43.09617131902219" lon="2.9405704046418473"><ele>16.0</ele><time>2026-04-03T08:50:17Z</time></trkpt><trkpt lat="43.096423852105666" lon="2.9406779809852193"><ele>16.0</ele><time>2026-04-03T08:50:18Z</time></trkpt><trkpt lat="43.09667258197468" lon="2.9407928655181568"><ele>12.5</ele><time>2026-04-03T08:50:19Z</time></trkpt><trkpt lat="43.096919646567336" lon="2.940912138660091"><ele>9.0</ele><time>2026-04-03T08:50:20Z</time></trkpt><trkpt lat="43.09716729393957" lon="2.941032022335212"><ele>9.0</ele><time>2026-04-03T08:50:21Z</time></trkpt><trkpt lat="43.09741183386315" lon="2.941155640793283"><ele>9.0</ele><time>2026-04-03T08:50:22Z</time></trkpt><trkpt lat="43.097654206284716" lon="2.9412800625942155"><ele>8.5</ele><time>2026-04-03T08:50:23Z</time></trkpt><trkpt lat="43.09789615347854" lon="2.9414046303492873"><ele>8.0</ele><time>2026-04-03T08:50:24Z</time></trkpt><trkpt lat="43.09813742717103" lon="2.9415346137320304"><ele>8.0</ele><time>2026-04-03T08:50:25Z</time></trkpt><trkpt lat="43.09837798022717" lon="2.941665539058687"><ele>8.0</ele><time>2026-04-03T08:50:26Z</time></trkpt><trkpt lat="43.09861904119626" lon="2.9417955569685934"><ele>8.0</ele><time>2026-04-03T08:50:27Z</time></trkpt><trkpt lat="43.098859027706965" lon="2.9419316481243065"><ele>8.0</ele><time>2026-04-03T08:50:28Z</time></trkpt><trkpt lat="43.09909933102685" lon="2.942069823060811"><ele>8.5</ele><time>2026-04-03T08:50:29Z</time></trkpt><trkpt lat="43.09933720983675" lon="2.942215901991749"><ele>9.0</ele><time>2026-04-03T08:50:30Z</time></trkpt><trkpt lat="43.09957405647328" lon="2.9423612479662657"><ele>9.0</ele><time>2026-04-03T08:50:31Z</time></trkpt><trkpt lat="43.09980866042216" lon="2.942514319197997"><ele>9.0</ele><time>2026-04-03T08:50:32Z</time></trkpt><trkpt lat="43.10004245760108" lon="2.9426714001552763"><ele>9.0</ele><time>2026-04-03T08:50:33Z</time></trkpt><trkpt lat="43.10027363767094" lon="2.942832367181356"><ele>9.0</ele><time>2026-04-03T08:50:34Z</time></trkpt><trkpt lat="43.1005023706977" lon="2.9429992812989427"><ele>9.0</ele><time>2026-04-03T08:50:35Z</time></trkpt><trkpt lat="43.100725185554836" lon="2.9431719390586375"><ele>9.0</ele><time>2026-04-03T08:50:36Z</time></trkpt><trkpt lat="43.1009457067741" lon="2.943343884613819"><ele>10.5</ele><time>2026-04-03T08:50:37Z</time></trkpt><trkpt lat="43.101165187539735" lon="2.943523115750966"><ele>12.0</ele><time>2026-04-03T08:50:38Z</time></trkpt><trkpt lat="43.10138685478721" lon="2.9437018795725143"><ele>13.0</ele><time>2026-04-03T08:50:39Z</time></trkpt><trkpt lat="43.101608579879745" lon="2.9438853078888556"><ele>14.0</ele><time>2026-04-03T08:50:40Z</time></trkpt><trkpt lat="43.101831284996564" lon="2.944074931392419"><ele>12.0</ele><time>2026-04-03T08:50:41Z</time></trkpt><trkpt lat="43.10204564395365" lon="2.9442705666990094"><ele>10.0</ele><time>2026-04-03T08:50:42Z</time></trkpt><trkpt lat="43.102262620142255" lon="2.9444689018762253"><ele>10.5</ele><time>2026-04-03T08:50:43Z</time></trkpt><trkpt lat="43.1024771516569" lon="2.9446678006274816"><ele>11.0</ele><time>2026-04-03T08:50:44Z</time></trkpt><trkpt lat="43.10269242774324" lon="2.9448688176098723"><ele>12.5</ele><time>2026-04-03T08:50:45Z</time></trkpt><trkpt lat="43.10290529274533" lon="2.945072911940923"><ele>14.0</ele><time>2026-04-03T08:50:46Z</time></trkpt><trkpt lat="43.1031164735742" lon="2.9452786295546587"><ele>16.0</ele><time>2026-04-03T08:50:47Z</time></trkpt><trkpt lat="43.10332818015302" lon="2.945487836837417"><ele>18.0</ele><time>2026-04-03T08:50:48Z</time></trkpt><trkpt lat="43.103539041455186" lon="2.9456977011623056"><ele>19.0</ele><time>2026-04-03T08:50:49Z</time></trkpt><trkpt lat="43.10375412166265" lon="2.9459079951126874"><ele>20.0</ele><time>2026-04-03T08:50:50Z</time></trkpt><trkpt lat="43.10396537846833" lon="2.9461266339864016"><ele>18.5</ele><time>2026-04-03T08:50:51Z</time></trkpt><trkpt lat="43.10417831305563" lon="2.9463375511326237"><ele>17.0</ele><time>2026-04-03T08:50:52Z</time></trkpt><trkpt lat="43.10438949704139" lon="2.946545773607905"><ele>16.5</ele><time>2026-04-03T08:50:53Z</time></trkpt><trkpt lat="43.10459894286672" lon="2.9467595063928598"><ele>16.0</ele><time>2026-04-03T08:50:54Z</time></trkpt><trkpt lat="43.104807402394876" lon="2.946961798870859"><ele>15.5</ele><time>2026-04-03T08:50:55Z</time></trkpt><trkpt lat="43.10501731442472" lon="2.947165108905575"><ele>15.0</ele><time>2026-04-03T08:50:56Z</time></trkpt><trkpt lat="43.10523569347113" lon="2.9473741604162966"><ele>16.0</ele><time>2026-04-03T08:50:57Z</time></trkpt><trkpt lat="43.10544944173209" lon="2.9475750920885875"><ele>17.0</ele><time>2026-04-03T08:50:58Z</time></trkpt><trkpt lat="43.10566618814618" lon="2.9477647936128775"><ele>18.0</ele><time>2026-04-03T08:50:59Z</time></trkpt><trkpt lat="43.10588779744305" lon="2.9479506823666584"><ele>19.0</ele><time>2026-04-03T08:51:00Z</time></trkpt><trkpt lat="43.106111997352336" lon="2.9481325668995053"><ele>19.0</ele><time>2026-04-03T08:51:01Z</time></trkpt><trkpt lat="43.10633586729021" lon="2.9483187012745766"><ele>19.0</ele><time>2026-04-03T08:51:02Z</time></trkpt><trkpt lat="43.10656285152717" lon="2.9484954583113456"><ele>16.5</ele><time>2026-04-03T08:51:03Z</time></trkpt><trkpt lat="43.106787959700746" lon="2.948669452005157"><ele>14.0</ele><time>2026-04-03T08:51:04Z</time></trkpt><trkpt lat="43.107015322239604" lon="2.9488405726302624"><ele>14.0</ele><time>2026-04-03T08:51:05Z</time></trkpt><trkpt lat="43.107245629050894" lon="2.9490084579032034"><ele>14.0</ele><time>2026-04-03T08:51:06Z</time></trkpt><trkpt lat="43.107476836438515" lon="2.9491687871031145"><ele>14.0</ele><time>2026-04-03T08:51:07Z</time></trkpt><trkpt lat="43.10770841262908" lon="2.949330691088171"><ele>14.0</ele><time>2026-04-03T08:51:08Z</time></trkpt><trkpt lat="43.10794087224191" lon="2.9494916087720386"><ele>14.0</ele><time>2026-04-03T08:51:09Z</time></trkpt><trkpt lat="43.108173647291366" lon="2.949652932023044"><ele>14.0</ele><time>2026-04-03T08:51:10Z</time></trkpt><trkpt lat="43.10840437110583" lon="2.9498084028717417"><ele>15.0</ele><time>2026-04-03T08:51:11Z</time></trkpt><trkpt lat="43.10863716078982" lon="2.949964915609951"><ele>16.0</ele><time>2026-04-03T08:51:12Z</time></trkpt><trkpt lat="43.108869540652364" lon="2.950120148444851"><ele>17.5</ele><time>2026-04-03T08:51:13Z</time></trkpt><trkpt lat="43.109101097192976" lon="2.950278411424587"><ele>19.0</ele><time>2026-04-03T08:51:14Z</time></trkpt><trkpt lat="43.1093340557359" lon="2.950436033284607"><ele>19.0</ele><time>2026-04-03T08:51:15Z</time></trkpt><trkpt lat="43.109566941474505" lon="2.950594486702947"><ele>19.0</ele><time>2026-04-03T08:51:16Z</time></trkpt><trkpt lat="43.10979968215361" lon="2.9507474456749456"><ele>18.0</ele><time>2026-04-03T08:51:17Z</time></trkpt><trkpt lat="43.11003400274467" lon="2.950904077548645"><ele>17.0</ele><time>2026-04-03T08:51:18Z</time></trkpt><trkpt lat="43.11026973087401" lon="2.9510592842653844"><ele>17.0</ele><time>2026-04-03T08:51:19Z</time></trkpt><trkpt lat="43.11050450822422" lon="2.951215976269355"><ele>17.0</ele><time>2026-04-03T08:51:20Z</time></trkpt><trkpt lat="43.11074016223775" lon="2.9513747042305867"><ele>17.0</ele><time>2026-04-03T08:51:21Z</time></trkpt><trkpt lat="43.110971957180595" lon="2.9515384343118014"><ele>17.0</ele><time>2026-04-03T08:51:22Z</time></trkpt><trkpt lat="43.11119953207" lon="2.9517043266132923"><ele>17.5</ele><time>2026-04-03T08:51:23Z</time></trkpt><trkpt lat="43.11142682950142" lon="2.951876339945558"><ele>18.0</ele><time>2026-04-03T08:51:24Z</time></trkpt><trkpt lat="43.11165270158111" lon="2.952051668622456"><ele>18.0</ele><time>2026-04-03T08:51:25Z</time></trkpt><trkpt lat="43.11187318025981" lon="2.9522350317304213"><ele>18.0</ele><time>2026-04-03T08:51:26Z</time></trkpt><trkpt lat="43.11209340505044" lon="2.9524174982846296"><ele>17.0</ele><time>2026-04-03T08:51:27Z</time></trkpt><trkpt lat="43.11231434006967" lon="2.952604680279262"><ele>16.0</ele><time>2026-04-03T08:51:28Z</time></trkpt><trkpt lat="43.11253672487555" lon="2.9527764136801147"><ele>19.0</ele><time>2026-04-03T08:51:29Z</time></trkpt><trkpt lat="43.1127614645326" lon="2.952954375094944"><ele>22.0</ele><time>2026-04-03T08:51:30Z</time></trkpt><trkpt lat="43.11298724138879" lon="2.953140642567851"><ele>22.0</ele><time>2026-04-03T08:51:31Z</time></trkpt><trkpt lat="43.11321006742122" lon="2.9533172338057456"><ele>22.0</ele><time>2026-04-03T08:51:32Z</time></trkpt><trkpt lat="43.11343160260965" lon="2.9535032408681987"><ele>23.5</ele><time>2026-04-03T08:51:33Z</time></trkpt><trkpt lat="43.113656057125674" lon="2.9536875393651956"><ele>25.0</ele><time>2026-04-03T08:51:34Z</time></trkpt><trkpt lat="43.11387820088201" lon="2.9538734482491473"><ele>24.5</ele><time>2026-04-03T08:51:35Z</time></trkpt><trkpt lat="43.11410184072999" lon="2.9540624088680367"><ele>24.0</ele><time>2026-04-03T08:51:36Z</time></trkpt><trkpt lat="43.114323647646415" lon="2.9542475546475124"><ele>24.0</ele><time>2026-04-03T08:51:37Z</time></trkpt><trkpt lat="43.11454402521357" lon="2.954441982468174"><ele>24.0</ele><time>2026-04-03T08:51:38Z</time></trkpt><trkpt lat="43.1147627392359" lon="2.954634838369002"><ele>26.0</ele><time>2026-04-03T08:51:39Z</time></trkpt><trkpt lat="43.11498388276533" lon="2.9548264916691944"><ele>28.0</ele><time>2026-04-03T08:51:40Z</time></trkpt><trkpt lat="43.11520155030958" lon="2.955019647915028"><ele>24.5</ele><time>2026-04-03T08:51:41Z</time></trkpt><trkpt lat="43.115412982886085" lon="2.9552184199649574"><ele>21.0</ele><time>2026-04-03T08:51:42Z</time></trkpt><trkpt lat="43.1156199766812" lon="2.9554132629796257"><ele>23.5</ele><time>2026-04-03T08:51:43Z</time></trkpt><trkpt lat="43.115826655910894" lon="2.955606034732271"><ele>26.0</ele><time>2026-04-03T08:51:44Z</time></trkpt><trkpt lat="43.11603194785741" lon="2.9557921473360524"><ele>24.5</ele><time>2026-04-03T08:51:45Z</time></trkpt><trkpt lat="43.11623957596626" lon="2.9559760006299554"><ele>23.0</ele><time>2026-04-03T08:51:46Z</time></trkpt><trkpt lat="43.116446108188995" lon="2.9561579940625187"><ele>26.5</ele><time>2026-04-03T08:51:47Z</time></trkpt><trkpt lat="43.1166510546827" lon="2.9563361057615545"><ele>30.0</ele><time>2026-04-03T08:51:48Z</time></trkpt><trkpt lat="43.11685702791655" lon="2.956509893307181"><ele>30.0</ele><time>2026-04-03T08:51:49Z</time></trkpt><trkpt lat="43.117063231987586" lon="2.9566824435530927"><ele>30.0</ele><time>2026-04-03T08:51:50Z</time></trkpt><trkpt lat="43.117274817028644" lon="2.9568509598993775"><ele>36.0</ele><time>2026-04-03T08:51:51Z</time></trkpt><trkpt lat="43.117485234159155" lon="2.9570202941121084"><ele>42.0</ele><time>2026-04-03T08:51:52Z</time></trkpt><trkpt lat="43.11770150418697" lon="2.957187128458976"><ele>42.0</ele><time>2026-04-03T08:51:53Z</time></trkpt><trkpt lat="43.11792082106566" lon="2.9573542720202863"><ele>42.0</ele><time>2026-04-03T08:51:54Z</time></trkpt><trkpt lat="43.11814184836805" lon="2.957521711913658"><ele>44.5</ele><time>2026-04-03T08:51:55Z</time></trkpt><trkpt lat="43.118365035512255" lon="2.9576815087573896"><ele>47.0</ele><time>2026-04-03T08:51:56Z</time></trkpt><trkpt lat="43.11859064857947" lon="2.9578354835595113"><ele>47.0</ele><time>2026-04-03T08:51:57Z</time></trkpt><trkpt lat="43.11881849937672" lon="2.9579914098542637"><ele>47.0</ele><time>2026-04-03T08:51:58Z</time></trkpt><trkpt lat="43.11905030690247" lon="2.9581390820525977"><ele>44.0</ele><time>2026-04-03T08:51:59Z</time></trkpt><trkpt lat="43.11928823426559" lon="2.958286016112908"><ele>41.0</ele><time>2026-04-03T08:52:00Z</time></trkpt><trkpt lat="43.11952638469292" lon="2.958425278910639"><ele>41.0</ele><time>2026-04-03T08:52:01Z</time></trkpt><trkpt lat="43.11976839972264" lon="2.9585587504666857"><ele>41.0</ele><time>2026-04-03T08:52:02Z</time></trkpt><trkpt lat="43.12001416044067" lon="2.958683351277654"><ele>34.5</ele><time>2026-04-03T08:52:03Z</time></trkpt><trkpt lat="43.12025805346004" lon="2.9588062348111164"><ele>28.0</ele><time>2026-04-03T08:52:04Z</time></trkpt><trkpt lat="43.12050342344013" lon="2.958921333496148"><ele>32.0</ele><time>2026-04-03T08:52:05Z</time></trkpt><trkpt lat="43.12075037560187" lon="2.959026478418934"><ele>36.0</ele><time>2026-04-03T08:52:06Z</time></trkpt><trkpt lat="43.12099861402184" lon="2.95912905295244"><ele>36.5</ele><time>2026-04-03T08:52:07Z</time></trkpt><trkpt lat="43.1212473645619" lon="2.9592217466321236"><ele>37.0</ele><time>2026-04-03T08:52:08Z</time></trkpt><trkpt lat="43.12149973098096" lon="2.959311940326647"><ele>41.5</ele><time>2026-04-03T08:52:09Z</time></trkpt><trkpt lat="43.12175100841105" lon="2.959398821512679"><ele>46.0</ele><time>2026-04-03T08:52:10Z</time></trkpt><trkpt lat="43.12200500492854" lon="2.959484074507095"><ele>46.0</ele><time>2026-04-03T08:52:11Z</time></trkpt><trkpt lat="43.12225917618101" lon="2.9595688715101116"><ele>46.0</ele><time>2026-04-03T08:52:12Z</time></trkpt><trkpt lat="43.12251463052233" lon="2.959655166192272"><ele>46.5</ele><time>2026-04-03T08:52:13Z</time></trkpt><trkpt lat="43.122769969956586" lon="2.9597377544405634"><ele>47.0</ele><time>2026-04-03T08:52:14Z</time></trkpt><trkpt lat="43.123029688972096" lon="2.9598177820638467"><ele>46.0</ele><time>2026-04-03T08:52:15Z</time></trkpt><trkpt lat="43.12328497156707" lon="2.959901852927723"><ele>45.0</ele><time>2026-04-03T08:52:16Z</time></trkpt><trkpt lat="43.12354117208481" lon="2.9599884495602162"><ele>48.5</ele><time>2026-04-03T08:52:17Z</time></trkpt><trkpt lat="43.12379811131709" lon="2.9600759098523386"><ele>52.0</ele><time>2026-04-03T08:52:18Z</time></trkpt><trkpt lat="43.12405111893511" lon="2.960176635445609"><ele>51.5</ele><time>2026-04-03T08:52:19Z</time></trkpt><trkpt lat="43.12430618380874" lon="2.960275454765869"><ele>51.0</ele><time>2026-04-03T08:52:20Z</time></trkpt><trkpt lat="43.124554841906544" lon="2.960382988179389"><ele>51.0</ele><time>2026-04-03T08:52:21Z</time></trkpt><trkpt lat="43.12480146011417" lon="2.9604967949110206"><ele>51.0</ele><time>2026-04-03T08:52:22Z</time></trkpt><trkpt lat="43.12504367681036" lon="2.96061813399767"><ele>52.0</ele><time>2026-04-03T08:52:23Z</time></trkpt><trkpt lat="43.125284003529345" lon="2.9607479281104525"><ele>53.0</ele><time>2026-04-03T08:52:24Z</time></trkpt><trkpt lat="43.12552480628918" lon="2.9608749545932334"><ele>51.0</ele><time>2026-04-03T08:52:25Z</time></trkpt><trkpt lat="43.12576179844196" lon="2.9610121501997475"><ele>49.0</ele><time>2026-04-03T08:52:26Z</time></trkpt><trkpt lat="43.12599522309355" lon="2.9611647838593256"><ele>49.0</ele><time>2026-04-03T08:52:27Z</time></trkpt><trkpt lat="43.126226428690345" lon="2.9613180666989365"><ele>49.0</ele><time>2026-04-03T08:52:28Z</time></trkpt><trkpt lat="43.12645544576591" lon="2.961481593834489"><ele>50.5</ele><time>2026-04-03T08:52:29Z</time></trkpt><trkpt lat="43.126680044077425" lon="2.961653790756018"><ele>52.0</ele><time>2026-04-03T08:52:30Z</time></trkpt><trkpt lat="43.12690519377323" lon="2.9618274954598403"><ele>52.0</ele><time>2026-04-03T08:52:31Z</time></trkpt><trkpt lat="43.127124073331736" lon="2.96200827758899"><ele>52.0</ele><time>2026-04-03T08:52:32Z</time></trkpt><trkpt lat="43.12733771116995" lon="2.962198278070173"><ele>53.5</ele><time>2026-04-03T08:52:33Z</time></trkpt><trkpt lat="43.127546107918896" lon="2.962394457953557"><ele>55.0</ele><time>2026-04-03T08:52:34Z</time></trkpt><trkpt lat="43.12775322400864" lon="2.9625937669677174"><ele>55.0</ele><time>2026-04-03T08:52:35Z</time></trkpt><trkpt lat="43.12795755762177" lon="2.9627991255083987"><ele>55.0</ele><time>2026-04-03T08:52:36Z</time></trkpt><trkpt lat="43.12816001886618" lon="2.9630069065787352"><ele>50.0</ele><time>2026-04-03T08:52:37Z</time></trkpt><trkpt lat="43.12835705619115" lon="2.963220842074254"><ele>45.0</ele><time>2026-04-03T08:52:38Z</time></trkpt><trkpt lat="43.12855209989222" lon="2.9634343219693338"><ele>45.0</ele><time>2026-04-03T08:52:39Z</time></trkpt><trkpt lat="43.12874583233288" lon="2.9636504211481847"><ele>45.0</ele><time>2026-04-03T08:52:40Z</time></trkpt><trkpt lat="43.128935980591855" lon="2.963868787127871"><ele>41.0</ele><time>2026-04-03T08:52:41Z</time></trkpt><trkpt lat="43.12912706705157" lon="2.9640922676482417"><ele>37.0</ele><time>2026-04-03T08:52:42Z</time></trkpt><trkpt lat="43.129315921032244" lon="2.9643181457269723"><ele>36.0</ele><time>2026-04-03T08:52:43Z</time></trkpt><trkpt lat="43.12950109540225" lon="2.964549040031697"><ele>35.0</ele><time>2026-04-03T08:52:44Z</time></trkpt><trkpt lat="43.1296846884672" lon="2.9647797149726443"><ele>35.0</ele><time>2026-04-03T08:52:45Z</time></trkpt><trkpt lat="43.12986608523693" lon="2.9650075523237294"><ele>35.0</ele><time>2026-04-03T08:52:46Z</time></trkpt><trkpt lat="43.13004597339133" lon="2.9652390588967914"><ele>35.5</ele><time>2026-04-03T08:52:47Z</time></trkpt><trkpt lat="43.13022877490575" lon="2.9654719460815353"><ele>36.0</ele><time>2026-04-03T08:52:48Z</time></trkpt><trkpt lat="43.13041507447754" lon="2.9657050828045093"><ele>36.0</ele><time>2026-04-03T08:52:49Z</time></trkpt><trkpt lat="43.130599730668415" lon="2.9659400910895655"><ele>36.0</ele><time>2026-04-03T08:52:50Z</time></trkpt><trkpt lat="43.13078802936466" lon="2.9661796536708587"><ele>36.0</ele><time>2026-04-03T08:52:51Z</time></trkpt><trkpt lat="43.13097663257156" lon="2.9664232502881096"><ele>36.0</ele><time>2026-04-03T08:52:52Z</time></trkpt><trkpt lat="43.13116607139524" lon="2.966677369829782"><ele>37.5</ele><time>2026-04-03T08:52:53Z</time></trkpt><trkpt lat="43.131357804144486" lon="2.9669354453401597"><ele>39.0</ele><time>2026-04-03T08:52:54Z</time></trkpt><trkpt lat="43.13155120577641" lon="2.9671986377524906"><ele>36.5</ele><time>2026-04-03T08:52:55Z</time></trkpt><trkpt lat="43.13174665587533" lon="2.967460781916621"><ele>34.0</ele><time>2026-04-03T08:52:56Z</time></trkpt><trkpt lat="43.13194279408103" lon="2.9677223893090234"><ele>34.0</ele><time>2026-04-03T08:52:57Z</time></trkpt><trkpt lat="43.13213826927443" lon="2.967986320061981"><ele>34.0</ele><time>2026-04-03T08:52:58Z</time></trkpt><trkpt lat="43.13233738447069" lon="2.9682498578441985"><ele>31.5</ele><time>2026-04-03T08:52:59Z</time></trkpt><trkpt lat="43.132533612640394" lon="2.9685123224819145"><ele>29.0</ele><time>2026-04-03T08:53:00Z</time></trkpt><trkpt lat="43.13273205429426" lon="2.96877752144691"><ele>29.0</ele><time>2026-04-03T08:53:01Z</time></trkpt><trkpt lat="43.13292611783891" lon="2.96904485254948"><ele>29.0</ele><time>2026-04-03T08:53:02Z</time></trkpt><trkpt lat="43.133123747770455" lon="2.969310854749134"><ele>25.5</ele><time>2026-04-03T08:53:03Z</time></trkpt><trkpt lat="43.133321753188554" lon="2.969574886286182"><ele>22.0</ele><time>2026-04-03T08:53:04Z</time></trkpt><trkpt lat="43.133519127687435" lon="2.969837253475193"><ele>21.0</ele><time>2026-04-03T08:53:05Z</time></trkpt><trkpt lat="43.133717277390865" lon="2.970102298565357"><ele>20.0</ele><time>2026-04-03T08:53:06Z</time></trkpt><trkpt lat="43.133917635504794" lon="2.97036625814117"><ele>20.5</ele><time>2026-04-03T08:53:07Z</time></trkpt><trkpt lat="43.13411652173727" lon="2.9706277491115975"><ele>21.0</ele><time>2026-04-03T08:53:08Z</time></trkpt><trkpt lat="43.134311973057265" lon="2.9708920976018334"><ele>19.5</ele><time>2026-04-03T08:53:09Z</time></trkpt><trkpt lat="43.13450455676968" lon="2.9711608762299293"><ele>18.0</ele><time>2026-04-03T08:53:10Z</time></trkpt><trkpt lat="43.13469320219036" lon="2.971429946707232"><ele>17.5</ele><time>2026-04-03T08:53:11Z</time></trkpt><trkpt lat="43.134880329205416" lon="2.9717012121925706"><ele>17.0</ele><time>2026-04-03T08:53:12Z</time></trkpt><trkpt lat="43.13506669824338" lon="2.971968747138296"><ele>17.0</ele><time>2026-04-03T08:53:13Z</time></trkpt><trkpt lat="43.13525129415743" lon="2.972232469546636"><ele>17.0</ele><time>2026-04-03T08:53:14Z</time></trkpt><trkpt lat="43.135437509567645" lon="2.972486386439162"><ele>15.5</ele><time>2026-04-03T08:53:15Z</time></trkpt><trkpt lat="43.13562387088001" lon="2.972737932857014"><ele>14.0</ele><time>2026-04-03T08:53:16Z</time></trkpt><trkpt lat="43.13581087359572" lon="2.972987900174607"><ele>15.5</ele><time>2026-04-03T08:53:17Z</time></trkpt><trkpt lat="43.135996838459064" lon="2.973237090953578"><ele>17.0</ele><time>2026-04-03T08:53:18Z</time></trkpt><trkpt lat="43.13618273325973" lon="2.973481800042181"><ele>17.0</ele><time>2026-04-03T08:53:19Z</time></trkpt><trkpt lat="43.136371576040425" lon="2.97372419158679"><ele>17.0</ele><time>2026-04-03T08:53:20Z</time></trkpt><trkpt lat="43.136559586333426" lon="2.9739679684530533"><ele>16.0</ele><time>2026-04-03T08:53:21Z</time></trkpt><trkpt lat="43.13674774258429" lon="2.9742070858084877"><ele>15.0</ele><time>2026-04-03T08:53:22Z</time></trkpt><trkpt lat="43.136937178529934" lon="2.974446588642346"><ele>15.0</ele><time>2026-04-03T08:53:23Z</time></trkpt><trkpt lat="43.13712827320128" lon="2.97468640667599"><ele>15.0</ele><time>2026-04-03T08:53:24Z</time></trkpt><trkpt lat="43.137323662800355" lon="2.974919155433827"><ele>14.5</ele><time>2026-04-03T08:53:25Z</time></trkpt><trkpt lat="43.137519815010315" lon="2.9751542802514312"><ele>14.0</ele><time>2026-04-03T08:53:26Z</time></trkpt><trkpt lat="43.13772001592678" lon="2.975383011300138"><ele>14.0</ele><time>2026-04-03T08:53:27Z</time></trkpt><trkpt lat="43.13791992255897" lon="2.9756125152329895"><ele>14.0</ele><time>2026-04-03T08:53:28Z</time></trkpt><trkpt lat="43.138121427762606" lon="2.9758423299620533"><ele>14.5</ele><time>2026-04-03T08:53:29Z</time></trkpt><trkpt lat="43.13832038683346" lon="2.976069789698601"><ele>15.0</ele><time>2026-04-03T08:53:30Z</time></trkpt><trkpt lat="43.13852794530261" lon="2.9762891976559094"><ele>15.0</ele><time>2026-04-03T08:53:31Z</time></trkpt><trkpt lat="43.138734688835214" lon="2.9765074656404713"><ele>15.0</ele><time>2026-04-03T08:53:32Z</time></trkpt><trkpt lat="43.138946753105294" lon="2.97671824611813"><ele>15.5</ele><time>2026-04-03T08:53:33Z</time></trkpt><trkpt lat="43.139158172674406" lon="2.9769307421364593"><ele>16.0</ele><time>2026-04-03T08:53:34Z</time></trkpt><trkpt lat="43.13937254734266" lon="2.9771452035892314"><ele>16.0</ele><time>2026-04-03T08:53:35Z</time></trkpt><trkpt lat="43.13958910549131" lon="2.97735063942408"><ele>16.0</ele><time>2026-04-03T08:53:36Z</time></trkpt><trkpt lat="43.139807836808366" lon="2.9775499785025783"><ele>14.0</ele><time>2026-04-03T08:53:37Z</time></trkpt><trkpt lat="43.14003028218349" lon="2.9777446506771996"><ele>12.0</ele><time>2026-04-03T08:53:38Z</time></trkpt><trkpt lat="43.14025207947178" lon="2.9779370441424677"><ele>12.0</ele><time>2026-04-03T08:53:39Z</time></trkpt><trkpt lat="43.140473687011266" lon="2.9781236033500953"><ele>12.0</ele><time>2026-04-03T08:53:40Z</time></trkpt><trkpt lat="43.14069793948379" lon="2.978307870531244"><ele>15.0</ele><time>2026-04-03T08:53:41Z</time></trkpt><trkpt lat="43.14092305756984" lon="2.978490521141569"><ele>18.0</ele><time>2026-04-03T08:53:42Z</time></trkpt><trkpt lat="43.14114974496923" lon="2.978672811490531"><ele>18.0</ele><time>2026-04-03T08:53:43Z</time></trkpt><trkpt lat="43.141380463269364" lon="2.9788496787176753"><ele>18.0</ele><time>2026-04-03T08:53:44Z</time></trkpt><trkpt lat="43.14161126968531" lon="2.979024251636248"><ele>18.0</ele><time>2026-04-03T08:53:45Z</time></trkpt><trkpt lat="43.14184330896138" lon="2.979199401270435"><ele>18.0</ele><time>2026-04-03T08:53:46Z</time></trkpt><trkpt lat="43.14207962377517" lon="2.979363193445572"><ele>18.0</ele><time>2026-04-03T08:53:47Z</time></trkpt><trkpt lat="43.1423168711244" lon="2.9795248875055327"><ele>18.0</ele><time>2026-04-03T08:53:48Z</time></trkpt><trkpt lat="43.1425591457914" lon="2.9796696399937574"><ele>18.0</ele><time>2026-04-03T08:53:49Z</time></trkpt><trkpt lat="43.142798616902304" lon="2.9798171383508016"><ele>18.0</ele><time>2026-04-03T08:53:50Z</time></trkpt><trkpt lat="43.14303953299178" lon="2.979962353906478"><ele>16.5</ele><time>2026-04-03T08:53:51Z</time></trkpt><trkpt lat="43.14328051127921" lon="2.9801050671835494"><ele>15.0</ele><time>2026-04-03T08:53:52Z</time></trkpt><trkpt lat="43.14352657154973" lon="2.9802405636870692"><ele>15.0</ele><time>2026-04-03T08:53:53Z</time></trkpt><trkpt lat="43.14377268727143" lon="2.9803747303488146"><ele>15.0</ele><time>2026-04-03T08:53:54Z</time></trkpt><trkpt lat="43.14401923987798" lon="2.9805089737487735"><ele>13.5</ele><time>2026-04-03T08:53:55Z</time></trkpt><trkpt lat="43.14426784546366" lon="2.980638460313409"><ele>12.0</ele><time>2026-04-03T08:53:56Z</time></trkpt><trkpt lat="43.14451649065815" lon="2.9807662888936046"><ele>11.0</ele><time>2026-04-03T08:53:57Z</time></trkpt><trkpt lat="43.14476332581332" lon="2.980893933185252"><ele>10.0</ele><time>2026-04-03T08:53:58Z</time></trkpt><trkpt lat="43.14501478968806" lon="2.981016109002596"><ele>10.0</ele><time>2026-04-03T08:53:59Z</time></trkpt><trkpt lat="43.14526566558219" lon="2.9811340654665495"><ele>10.0</ele><time>2026-04-03T08:54:00Z</time></trkpt><trkpt lat="43.14551671390021" lon="2.9812518426079886"><ele>10.5</ele><time>2026-04-03T08:54:01Z</time></trkpt><trkpt lat="43.14576560973487" lon="2.9813690625016838"><ele>11.0</ele><time>2026-04-03T08:54:02Z</time></trkpt><trkpt lat="43.14601140637649" lon="2.981483175432071"><ele>11.0</ele><time>2026-04-03T08:54:03Z</time></trkpt><trkpt lat="43.1462558476997" lon="2.981593656063077"><ele>11.0</ele><time>2026-04-03T08:54:04Z</time></trkpt><trkpt lat="43.14650432884286" lon="2.9817056437688385"><ele>12.5</ele><time>2026-04-03T08:54:05Z</time></trkpt><trkpt lat="43.14675261379564" lon="2.9818186600583605"><ele>14.0</ele><time>2026-04-03T08:54:06Z</time></trkpt><trkpt lat="43.147000884041454" lon="2.981927987753175"><ele>14.0</ele><time>2026-04-03T08:54:07Z</time></trkpt><trkpt lat="43.14724712112353" lon="2.982033659939923"><ele>14.0</ele><time>2026-04-03T08:54:08Z</time></trkpt><trkpt lat="43.14749628073648" lon="2.982141318369038"><ele>14.5</ele><time>2026-04-03T08:54:09Z</time></trkpt><trkpt lat="43.1477419227902" lon="2.9822473435541483"><ele>15.0</ele><time>2026-04-03T08:54:10Z</time></trkpt><trkpt lat="43.147988126183954" lon="2.982354656698295"><ele>15.0</ele><time>2026-04-03T08:54:11Z</time></trkpt><trkpt lat="43.14823382648526" lon="2.9824632478262094"><ele>15.0</ele><time>2026-04-03T08:54:12Z</time></trkpt><trkpt lat="43.14847653336684" lon="2.9825742782542544"><ele>16.0</ele><time>2026-04-03T08:54:13Z</time></trkpt><trkpt lat="43.148718303349845" lon="2.9826892619938197"><ele>17.0</ele><time>2026-04-03T08:54:14Z</time></trkpt><trkpt lat="43.14896199759495" lon="2.9828068180843195"><ele>15.5</ele><time>2026-04-03T08:54:15Z</time></trkpt><trkpt lat="43.14920668337038" lon="2.9829275191243556"><ele>14.0</ele><time>2026-04-03T08:54:16Z</time></trkpt><trkpt lat="43.14945017037311" lon="2.9830477750198803"><ele>14.0</ele><time>2026-04-03T08:54:17Z</time></trkpt><trkpt lat="43.14969101426454" lon="2.9831678878501977"><ele>14.0</ele><time>2026-04-03T08:54:18Z</time></trkpt><trkpt lat="43.149936142577" lon="2.9832896408034006"><ele>13.0</ele><time>2026-04-03T08:54:19Z</time></trkpt><trkpt lat="43.15017941833591" lon="2.9834110255415895"><ele>12.0</ele><time>2026-04-03T08:54:20Z</time></trkpt><trkpt lat="43.150424825752275" lon="2.9835316945124997"><ele>12.0</ele><time>2026-04-03T08:54:21Z</time></trkpt><trkpt lat="43.15066867411357" lon="2.9836561472945293"><ele>12.0</ele><time>2026-04-03T08:54:22Z</time></trkpt><trkpt lat="43.15091071156761" lon="2.9837822275758437"><ele>13.5</ele><time>2026-04-03T08:54:23Z</time></trkpt><trkpt lat="43.151153588241556" lon="2.9839116789250046"><ele>15.0</ele><time>2026-04-03T08:54:24Z</time></trkpt><trkpt lat="43.15139587063335" lon="2.9840420519236717"><ele>13.5</ele><time>2026-04-03T08:54:25Z</time></trkpt><trkpt lat="43.151635118012095" lon="2.984178184174313"><ele>12.0</ele><time>2026-04-03T08:54:26Z</time></trkpt><trkpt lat="43.151873504600296" lon="2.984314434547337"><ele>10.0</ele><time>2026-04-03T08:54:27Z</time></trkpt><trkpt lat="43.152109477727834" lon="2.984450210842746"><ele>8.0</ele><time>2026-04-03T08:54:28Z</time></trkpt><trkpt lat="43.15234955561512" lon="2.9845884766074096"><ele>9.0</ele><time>2026-04-03T08:54:29Z</time></trkpt><trkpt lat="43.15258933176209" lon="2.9847305219020854"><ele>10.0</ele><time>2026-04-03T08:54:30Z</time></trkpt><trkpt lat="43.152828818796955" lon="2.984867996621289"><ele>10.0</ele><time>2026-04-03T08:54:31Z</time></trkpt><trkpt lat="43.15306847486083" lon="2.9850110412449897"><ele>10.0</ele><time>2026-04-03T08:54:32Z</time></trkpt><trkpt lat="43.15330110136549" lon="2.985154266509655"><ele>11.0</ele><time>2026-04-03T08:54:33Z</time></trkpt><trkpt lat="43.15353483197457" lon="2.985300685908457"><ele>12.0</ele><time>2026-04-03T08:54:34Z</time></trkpt><trkpt lat="43.153771367331146" lon="2.985452929746227"><ele>12.0</ele><time>2026-04-03T08:54:35Z</time></trkpt><trkpt lat="43.15400663658033" lon="2.985605001082777"><ele>12.0</ele><time>2026-04-03T08:54:36Z</time></trkpt><trkpt lat="43.154241499117006" lon="2.985752279889342"><ele>10.5</ele><time>2026-04-03T08:54:37Z</time></trkpt><trkpt lat="43.15447463048201" lon="2.9859036437084847"><ele>9.0</ele><time>2026-04-03T08:54:38Z</time></trkpt><trkpt lat="43.15470696363529" lon="2.9860608983929535"><ele>10.0</ele><time>2026-04-03T08:54:39Z</time></trkpt><trkpt lat="43.15493955851169" lon="2.9862209451529806"><ele>11.0</ele><time>2026-04-03T08:54:40Z</time></trkpt><trkpt lat="43.155171223618076" lon="2.986384339877732"><ele>11.0</ele><time>2026-04-03T08:54:41Z</time></trkpt><trkpt lat="43.15540035874853" lon="2.986544275282296"><ele>11.0</ele><time>2026-04-03T08:54:42Z</time></trkpt><trkpt lat="43.15562924829935" lon="2.986708731475697"><ele>15.5</ele><time>2026-04-03T08:54:43Z</time></trkpt><trkpt lat="43.1558601306651" lon="2.9868769302210256"><ele>20.0</ele><time>2026-04-03T08:54:44Z</time></trkpt><trkpt lat="43.156090630517305" lon="2.9870476323886064"><ele>20.0</ele><time>2026-04-03T08:54:45Z</time></trkpt><trkpt lat="43.156319469514614" lon="2.9872135103788953"><ele>20.0</ele><time>2026-04-03T08:54:46Z</time></trkpt><trkpt lat="43.15655049157042" lon="2.9873871794022806"><ele>21.0</ele><time>2026-04-03T08:54:47Z</time></trkpt><trkpt lat="43.156777592478264" lon="2.9875653340339556"><ele>22.0</ele><time>2026-04-03T08:54:48Z</time></trkpt><trkpt lat="43.15700460813355" lon="2.9877411437471384"><ele>22.0</ele><time>2026-04-03T08:54:49Z</time></trkpt><trkpt lat="43.157228072380235" lon="2.987918497932673"><ele>22.0</ele><time>2026-04-03T08:54:50Z</time></trkpt><trkpt lat="43.15745136365396" lon="2.988105814677182"><ele>21.5</ele><time>2026-04-03T08:54:51Z</time></trkpt><trkpt lat="43.157676208629006" lon="2.9882977091062215"><ele>21.0</ele><time>2026-04-03T08:54:52Z</time></trkpt><trkpt lat="43.15789940496365" lon="2.9884882408358644"><ele>21.0</ele><time>2026-04-03T08:54:53Z</time></trkpt><trkpt lat="43.158115773537475" lon="2.9886838898083457"><ele>21.0</ele><time>2026-04-03T08:54:54Z</time></trkpt><trkpt lat="43.15833625931196" lon="2.988880213730896"><ele>21.0</ele><time>2026-04-03T08:54:55Z</time></trkpt><trkpt lat="43.15855866621459" lon="2.9890771674742598"><ele>21.0</ele><time>2026-04-03T08:54:56Z</time></trkpt><trkpt lat="43.1587798667164" lon="2.9892772189525334"><ele>21.0</ele><time>2026-04-03T08:54:57Z</time></trkpt><trkpt lat="43.15899794224865" lon="2.989476720997812"><ele>21.0</ele><time>2026-04-03T08:54:58Z</time></trkpt><trkpt lat="43.159213844147374" lon="2.9896815194056408"><ele>21.0</ele><time>2026-04-03T08:54:59Z</time></trkpt><trkpt lat="43.15942897267008" lon="2.989883439861432"><ele>21.0</ele><time>2026-04-03T08:55:00Z</time></trkpt><trkpt lat="43.15963990218733" lon="2.9900944047489797"><ele>21.0</ele><time>2026-04-03T08:55:01Z</time></trkpt><trkpt lat="43.15985222148627" lon="2.990309340071548"><ele>21.0</ele><time>2026-04-03T08:55:02Z</time></trkpt><trkpt lat="43.16005960908673" lon="2.9905301840751806"><ele>21.0</ele><time>2026-04-03T08:55:03Z</time></trkpt><trkpt lat="43.16026726984522" lon="2.990748067412842"><ele>21.0</ele><time>2026-04-03T08:55:04Z</time></trkpt><trkpt lat="43.16047280269749" lon="2.99096959759884"><ele>21.0</ele><time>2026-04-03T08:55:05Z</time></trkpt><trkpt lat="43.16068118187769" lon="2.991194604980842"><ele>21.0</ele><time>2026-04-03T08:55:06Z</time></trkpt><trkpt lat="43.16088437212753" lon="2.9914246827987045"><ele>20.5</ele><time>2026-04-03T08:55:07Z</time></trkpt><trkpt lat="43.16108674020662" lon="2.991655339710888"><ele>20.0</ele><time>2026-04-03T08:55:08Z</time></trkpt><trkpt lat="43.16128608199303" lon="2.99188781353521"><ele>20.0</ele><time>2026-04-03T08:55:09Z</time></trkpt><trkpt lat="43.16148307850958" lon="2.992121475637987"><ele>20.0</ele><time>2026-04-03T08:55:10Z</time></trkpt><trkpt lat="43.16167890545592" lon="2.9923583720944054"><ele>20.5</ele><time>2026-04-03T08:55:11Z</time></trkpt><trkpt lat="43.16186879081828" lon="2.9926017719079985"><ele>21.0</ele><time>2026-04-03T08:55:12Z</time></trkpt><trkpt lat="43.162057917714584" lon="2.992847901252004"><ele>21.0</ele><time>2026-04-03T08:55:13Z</time></trkpt><trkpt lat="43.16224303018025" lon="2.993096488555703"><ele>21.0</ele><time>2026-04-03T08:55:14Z</time></trkpt><trkpt lat="43.162425993014786" lon="2.9933469855257164"><ele>19.5</ele><time>2026-04-03T08:55:15Z</time></trkpt><trkpt lat="43.16260589774144" lon="2.993603452350153"><ele>18.0</ele><time>2026-04-03T08:55:16Z</time></trkpt><trkpt lat="43.16278370066489" lon="2.9938631058374114"><ele>18.0</ele><time>2026-04-03T08:55:17Z</time></trkpt><trkpt lat="43.16295865781172" lon="2.994126516943721"><ele>18.0</ele><time>2026-04-03T08:55:18Z</time></trkpt><trkpt lat="43.16312959200613" lon="2.9943927339261376"><ele>17.0</ele><time>2026-04-03T08:55:19Z</time></trkpt><trkpt lat="43.16329645466478" lon="2.9946592406666652"><ele>16.0</ele><time>2026-04-03T08:55:20Z</time></trkpt><trkpt lat="43.16346487742648" lon="2.9949255295423054"><ele>15.5</ele><time>2026-04-03T08:55:21Z</time></trkpt><trkpt lat="43.16363783278349" lon="2.9951917183918493"><ele>15.0</ele><time>2026-04-03T08:55:22Z</time></trkpt><trkpt lat="43.163806310964254" lon="2.995459163209841"><ele>15.0</ele><time>2026-04-03T08:55:23Z</time></trkpt><trkpt lat="43.16397322292087" lon="2.9957288331914826"><ele>15.0</ele><time>2026-04-03T08:55:24Z</time></trkpt><trkpt lat="43.16413580477593" lon="2.9960024802849783"><ele>14.0</ele><time>2026-04-03T08:55:25Z</time></trkpt><trkpt lat="43.16429582150378" lon="2.9962808366769864"><ele>13.0</ele><time>2026-04-03T08:55:26Z</time></trkpt><trkpt lat="43.164453324511676" lon="2.9965642707664717"><ele>12.0</ele><time>2026-04-03T08:55:27Z</time></trkpt><trkpt lat="43.16460360393979" lon="2.9968476215843434"><ele>11.0</ele><time>2026-04-03T08:55:28Z</time></trkpt><trkpt lat="43.164749813772474" lon="2.9971389540693436"><ele>10.5</ele><time>2026-04-03T08:55:29Z</time></trkpt><trkpt lat="43.16489492354005" lon="2.997430397071557"><ele>10.0</ele><time>2026-04-03T08:55:30Z</time></trkpt><trkpt lat="43.16503689363663" lon="2.9977275825052816"><ele>9.5</ele><time>2026-04-03T08:55:31Z</time></trkpt><trkpt lat="43.1651712195085" lon="2.9980294973160695"><ele>9.0</ele><time>2026-04-03T08:55:32Z</time></trkpt><trkpt lat="43.16530254337008" lon="2.998336837656049"><ele>10.5</ele><time>2026-04-03T08:55:33Z</time></trkpt><trkpt lat="43.16543024258244" lon="2.9986458424328317"><ele>12.0</ele><time>2026-04-03T08:55:34Z</time></trkpt><trkpt lat="43.165551606827925" lon="2.9989619673477588"><ele>10.5</ele><time>2026-04-03T08:55:35Z</time></trkpt><trkpt lat="43.165667013393396" lon="2.9992846461720544"><ele>9.0</ele><time>2026-04-03T08:55:36Z</time></trkpt><trkpt lat="43.16577677965238" lon="2.9996077363187403"><ele>9.0</ele><time>2026-04-03T08:55:37Z</time></trkpt><trkpt lat="43.16587923877078" lon="2.9999304488857277"><ele>9.0</ele><time>2026-04-03T08:55:38Z</time></trkpt><trkpt lat="43.16597969918254" lon="3.000253765630654"><ele>9.0</ele><time>2026-04-03T08:55:39Z</time></trkpt><trkpt lat="43.16608084358364" lon="3.000576164466239"><ele>9.0</ele><time>2026-04-03T08:55:40Z</time></trkpt><trkpt lat="43.16617921326434" lon="3.000891401981519"><ele>8.0</ele><time>2026-04-03T08:55:41Z</time></trkpt><trkpt lat="43.16627677680823" lon="3.001210405413971"><ele>7.0</ele><time>2026-04-03T08:55:42Z</time></trkpt><trkpt lat="43.166369381780285" lon="3.0015236154463665"><ele>6.5</ele><time>2026-04-03T08:55:43Z</time></trkpt><trkpt lat="43.16646290810714" lon="3.0018365655837616"><ele>6.0</ele><time>2026-04-03T08:55:44Z</time></trkpt><trkpt lat="43.166555583794725" lon="3.002138823908686"><ele>7.0</ele><time>2026-04-03T08:55:45Z</time></trkpt><trkpt lat="43.166646854660115" lon="3.002440633859412"><ele>8.0</ele><time>2026-04-03T08:55:46Z</time></trkpt><trkpt lat="43.16673741145506" lon="3.0027475884333894"><ele>8.0</ele><time>2026-04-03T08:55:47Z</time></trkpt><trkpt lat="43.16682915288276" lon="3.003053778728338"><ele>8.0</ele><time>2026-04-03T08:55:48Z</time></trkpt><trkpt lat="43.16692188726881" lon="3.0033613490466955"><ele>8.0</ele><time>2026-04-03T08:55:49Z</time></trkpt><trkpt lat="43.16701528050347" lon="3.0036681163428356"><ele>8.0</ele><time>2026-04-03T08:55:50Z</time></trkpt><trkpt lat="43.16710747624156" lon="3.003977387285769"><ele>8.0</ele><time>2026-04-03T08:55:51Z</time></trkpt><trkpt lat="43.167199390353275" lon="3.00428689623521"><ele>8.0</ele><time>2026-04-03T08:55:52Z</time></trkpt><trkpt lat="43.16728737609717" lon="3.0045931199563003"><ele>8.0</ele><time>2026-04-03T08:55:53Z</time></trkpt><trkpt lat="43.16737596816468" lon="3.0048991971821546"><ele>8.0</ele><time>2026-04-03T08:55:54Z</time></trkpt><trkpt lat="43.16746471214244" lon="3.0052026496956605"><ele>8.0</ele><time>2026-04-03T08:55:55Z</time></trkpt><trkpt lat="43.16754995789705" lon="3.0055028993416997"><ele>8.0</ele><time>2026-04-03T08:55:56Z</time></trkpt><trkpt lat="43.16763626233038" lon="3.0058028301998676"><ele>8.0</ele><time>2026-04-03T08:55:57Z</time></trkpt><trkpt lat="43.16772546129067" lon="3.006097627260907"><ele>8.0</ele><time>2026-04-03T08:55:58Z</time></trkpt><trkpt lat="43.16781270189017" lon="3.006393989975091"><ele>7.5</ele><time>2026-04-03T08:55:59Z</time></trkpt><trkpt lat="43.167902080375406" lon="3.0066960739325688"><ele>7.0</ele><time>2026-04-03T08:56:00Z</time></trkpt><trkpt lat="43.167992046936234" lon="3.0070017370476108"><ele>7.0</ele><time>2026-04-03T08:56:01Z</time></trkpt><trkpt lat="43.16808443672516" lon="3.007309984039209"><ele>7.0</ele><time>2026-04-03T08:56:02Z</time></trkpt><trkpt lat="43.168179756869584" lon="3.0076251074875597"><ele>7.5</ele><time>2026-04-03T08:56:03Z</time></trkpt><trkpt lat="43.16827592218676" lon="3.0079391733161573"><ele>8.0</ele><time>2026-04-03T08:56:04Z</time></trkpt><trkpt lat="43.16837744890977" lon="3.0082563728367346"><ele>8.0</ele><time>2026-04-03T08:56:05Z</time></trkpt><trkpt lat="43.16847915905965" lon="3.0085732575607027"><ele>8.0</ele><time>2026-04-03T08:56:06Z</time></trkpt><trkpt lat="43.1685830384814" lon="3.008895402474088"><ele>8.0</ele><time>2026-04-03T08:56:07Z</time></trkpt><trkpt lat="43.168685719195295" lon="3.0092209079672934"><ele>8.0</ele><time>2026-04-03T08:56:08Z</time></trkpt><trkpt lat="43.168787118057324" lon="3.0095532337922672"><ele>8.0</ele><time>2026-04-03T08:56:09Z</time></trkpt><trkpt lat="43.16888623957732" lon="3.0098802293662548"><ele>8.0</ele><time>2026-04-03T08:56:10Z</time></trkpt><trkpt lat="43.16898695433424" lon="3.010210432753571"><ele>7.5</ele><time>2026-04-03T08:56:11Z</time></trkpt><trkpt lat="43.16908695191571" lon="3.0105399562245743"><ele>7.0</ele><time>2026-04-03T08:56:12Z</time></trkpt><trkpt lat="43.169187054044514" lon="3.0108720215009828"><ele>7.0</ele><time>2026-04-03T08:56:13Z</time></trkpt><trkpt lat="43.16928150722992" lon="3.0112036911378146"><ele>7.0</ele><time>2026-04-03T08:56:14Z</time></trkpt><trkpt lat="43.16938068268532" lon="3.0115362460527124"><ele>5.5</ele><time>2026-04-03T08:56:15Z</time></trkpt><trkpt lat="43.16947859646974" lon="3.0118675042137335"><ele>4.0</ele><time>2026-04-03T08:56:16Z</time></trkpt><trkpt lat="43.16958101688392" lon="3.0122028018420894"><ele>4.0</ele><time>2026-04-03T08:56:17Z</time></trkpt><trkpt lat="43.16968148347277" lon="3.0125422054379403"><ele>4.0</ele><time>2026-04-03T08:56:18Z</time></trkpt><trkpt lat="43.169783777087495" lon="3.0128816499363658"><ele>5.5</ele><time>2026-04-03T08:56:19Z</time></trkpt><trkpt lat="43.16988164976723" lon="3.013220158343874"><ele>7.0</ele><time>2026-04-03T08:56:20Z</time></trkpt><trkpt lat="43.16998101640138" lon="3.013561282830252"><ele>7.0</ele><time>2026-04-03T08:56:21Z</time></trkpt><trkpt lat="43.17008406832615" lon="3.0139023853275635"><ele>7.0</ele><time>2026-04-03T08:56:22Z</time></trkpt><trkpt lat="43.17018264590485" lon="3.0142480341507376"><ele>7.0</ele><time>2026-04-03T08:56:23Z</time></trkpt><trkpt lat="43.170285827790316" lon="3.014588996804709"><ele>7.0</ele><time>2026-04-03T08:56:24Z</time></trkpt><trkpt lat="43.1703855341874" lon="3.01493330371149"><ele>6.0</ele><time>2026-04-03T08:56:25Z</time></trkpt><trkpt lat="43.170487112927646" lon="3.0152755546544"><ele>5.0</ele><time>2026-04-03T08:56:26Z</time></trkpt><trkpt lat="43.17058852587464" lon="3.0156176758088673"><ele>5.0</ele><time>2026-04-03T08:56:27Z</time></trkpt><trkpt lat="43.17068965450212" lon="3.015956953921825"><ele>5.0</ele><time>2026-04-03T08:56:28Z</time></trkpt><trkpt lat="43.17079250899868" lon="3.0162986343982676"><ele>5.0</ele><time>2026-04-03T08:56:29Z</time></trkpt><trkpt lat="43.17089313387393" lon="3.016634954177858"><ele>5.0</ele><time>2026-04-03T08:56:30Z</time></trkpt><trkpt lat="43.17099481307246" lon="3.0169746508428945"><ele>5.0</ele><time>2026-04-03T08:56:31Z</time></trkpt><trkpt lat="43.17109612567678" lon="3.017313818255421"><ele>5.0</ele><time>2026-04-03T08:56:32Z</time></trkpt><trkpt lat="43.171196759012645" lon="3.0176546937247988"><ele>5.0</ele><time>2026-04-03T08:56:33Z</time></trkpt><trkpt lat="43.1712988178821" lon="3.0179996177616513"><ele>5.0</ele><time>2026-04-03T08:56:34Z</time></trkpt><trkpt lat="43.17140399691468" lon="3.0183450665026395"><ele>5.0</ele><time>2026-04-03T08:56:35Z</time></trkpt><trkpt lat="43.17150919479926" lon="3.018690773382393"><ele>5.0</ele><time>2026-04-03T08:56:36Z</time></trkpt><trkpt lat="43.17160987580144" lon="3.0190350288099417"><ele>5.0</ele><time>2026-04-03T08:56:37Z</time></trkpt><trkpt lat="43.1717121861457" lon="3.0193819438978227"><ele>5.0</ele><time>2026-04-03T08:56:38Z</time></trkpt><trkpt lat="43.17181491489666" lon="3.0197303404649944"><ele>4.5</ele><time>2026-04-03T08:56:39Z</time></trkpt><trkpt lat="43.17191936607031" lon="3.0200790678787723"><ele>4.0</ele><time>2026-04-03T08:56:40Z</time></trkpt><trkpt lat="43.17202525117496" lon="3.0204272344917427"><ele>4.0</ele><time>2026-04-03T08:56:41Z</time></trkpt><trkpt lat="43.17212999885892" lon="3.020782498795529"><ele>4.0</ele><time>2026-04-03T08:56:42Z</time></trkpt><trkpt lat="43.17223735489541" lon="3.0211396580820113"><ele>4.0</ele><time>2026-04-03T08:56:43Z</time></trkpt><trkpt lat="43.1723450246431" lon="3.0214964278190117"><ele>4.0</ele><time>2026-04-03T08:56:44Z</time></trkpt><trkpt lat="43.172452983609524" lon="3.0218513833671996"><ele>4.5</ele><time>2026-04-03T08:56:45Z</time></trkpt><trkpt lat="43.17255984360272" lon="3.0222062048389153"><ele>5.0</ele><time>2026-04-03T08:56:46Z</time></trkpt><trkpt lat="43.17266659168713" lon="3.022563233362657"><ele>4.0</ele><time>2026-04-03T08:56:47Z</time></trkpt><trkpt lat="43.17277371614969" lon="3.022919940958916"><ele>3.0</ele><time>2026-04-03T08:56:48Z</time></trkpt><trkpt lat="43.172880647443755" lon="3.0232786627617463"><ele>3.5</ele><time>2026-04-03T08:56:49Z</time></trkpt><trkpt lat="43.17298604504012" lon="3.02363872554703"><ele>4.0</ele><time>2026-04-03T08:56:50Z</time></trkpt><trkpt lat="43.17309245988766" lon="3.024000114411539"><ele>3.0</ele><time>2026-04-03T08:56:51Z</time></trkpt><trkpt lat="43.17319907452513" lon="3.0243607300677673"><ele>2.0</ele><time>2026-04-03T08:56:52Z</time></trkpt><trkpt lat="43.173306523073265" lon="3.024723717790419"><ele>3.5</ele><time>2026-04-03T08:56:53Z</time></trkpt><trkpt lat="43.17341342911424" lon="3.0250883418444903"><ele>5.0</ele><time>2026-04-03T08:56:54Z</time></trkpt><trkpt lat="43.17351884114047" lon="3.0254543193668635"><ele>4.0</ele><time>2026-04-03T08:56:55Z</time></trkpt><trkpt lat="43.173626326947705" lon="3.0258149783236825"><ele>3.0</ele><time>2026-04-03T08:56:56Z</time></trkpt><trkpt lat="43.173739077640704" lon="3.026179864066215"><ele>3.0</ele><time>2026-04-03T08:56:57Z</time></trkpt><trkpt lat="43.17384868792883" lon="3.026543842665948"><ele>3.0</ele><time>2026-04-03T08:56:58Z</time></trkpt><trkpt lat="43.17395692992462" lon="3.0269099427442123"><ele>4.5</ele><time>2026-04-03T08:56:59Z</time></trkpt><trkpt lat="43.17406701884911" lon="3.027275241575554"><ele>6.0</ele><time>2026-04-03T08:57:00Z</time></trkpt><trkpt lat="43.174180059907904" lon="3.0276406355114944"><ele>6.5</ele><time>2026-04-03T08:57:01Z</time></trkpt><trkpt lat="43.17428989679399" lon="3.028006182891282"><ele>7.0</ele><time>2026-04-03T08:57:02Z</time></trkpt><trkpt lat="43.17439488260977" lon="3.0283711135850133"><ele>5.5</ele><time>2026-04-03T08:57:03Z</time></trkpt><trkpt lat="43.17450806130107" lon="3.028737396202319"><ele>4.0</ele><time>2026-04-03T08:57:04Z</time></trkpt><trkpt lat="43.174618054842796" lon="3.0290984705429476"><ele>4.5</ele><time>2026-04-03T08:57:05Z</time></trkpt><trkpt lat="43.1747315161314" lon="3.029460033198629"><ele>5.0</ele><time>2026-04-03T08:57:06Z</time></trkpt><trkpt lat="43.174847523583594" lon="3.0298241125867063"><ele>6.0</ele><time>2026-04-03T08:57:07Z</time></trkpt><trkpt lat="43.174956281971234" lon="3.0301881737129577"><ele>7.0</ele><time>2026-04-03T08:57:08Z</time></trkpt><trkpt lat="43.17506922780507" lon="3.0305505604612724"><ele>7.0</ele><time>2026-04-03T08:57:09Z</time></trkpt><trkpt lat="43.17518118920975" lon="3.030912551788851"><ele>7.0</ele><time>2026-04-03T08:57:10Z</time></trkpt><trkpt lat="43.17529465525817" lon="3.031273136602381"><ele>7.0</ele><time>2026-04-03T08:57:11Z</time></trkpt><trkpt lat="43.175409903085985" lon="3.0316323300649435"><ele>7.0</ele><time>2026-04-03T08:57:12Z</time></trkpt><trkpt lat="43.17552912144409" lon="3.0319863844985093"><ele>7.0</ele><time>2026-04-03T08:57:13Z</time></trkpt><trkpt lat="43.17564963575879" lon="3.032345219026074"><ele>7.0</ele><time>2026-04-03T08:57:14Z</time></trkpt><trkpt lat="43.17576937197208" lon="3.0327010065835283"><ele>7.0</ele><time>2026-04-03T08:57:15Z</time></trkpt><trkpt lat="43.175889636332364" lon="3.0330605880199473"><ele>7.0</ele><time>2026-04-03T08:57:16Z</time></trkpt><trkpt lat="43.17601690899045" lon="3.033415491213133"><ele>7.0</ele><time>2026-04-03T08:57:17Z</time></trkpt><trkpt lat="43.17614562735607" lon="3.0337677781691585"><ele>7.0</ele><time>2026-04-03T08:57:18Z</time></trkpt><trkpt lat="43.17627859408391" lon="3.034117282846297"><ele>6.5</ele><time>2026-04-03T08:57:19Z</time></trkpt><trkpt lat="43.176411294357216" lon="3.0344638401671395"><ele>6.0</ele><time>2026-04-03T08:57:20Z</time></trkpt><trkpt lat="43.176547387546236" lon="3.0348124828936642"><ele>7.0</ele><time>2026-04-03T08:57:21Z</time></trkpt><trkpt lat="43.17668262919831" lon="3.035156128074868"><ele>8.0</ele><time>2026-04-03T08:57:22Z</time></trkpt><trkpt lat="43.17681900535807" lon="3.035507441749722"><ele>6.5</ele><time>2026-04-03T08:57:23Z</time></trkpt><trkpt lat="43.17695688536992" lon="3.035853934432169"><ele>5.0</ele><time>2026-04-03T08:57:24Z</time></trkpt><trkpt lat="43.17709996924825" lon="3.036199833464377"><ele>5.0</ele><time>2026-04-03T08:57:25Z</time></trkpt><trkpt lat="43.177244297277156" lon="3.0365415108895424"><ele>5.0</ele><time>2026-04-03T08:57:26Z</time></trkpt><trkpt lat="43.17738870625322" lon="3.0368786533197314"><ele>5.5</ele><time>2026-04-03T08:57:27Z</time></trkpt><trkpt lat="43.17753437257616" lon="3.037215368141772"><ele>6.0</ele><time>2026-04-03T08:57:28Z</time></trkpt><trkpt lat="43.17767671685274" lon="3.037546910219567"><ele>6.5</ele><time>2026-04-03T08:57:29Z</time></trkpt><trkpt lat="43.177827294107104" lon="3.037880153699899"><ele>7.0</ele><time>2026-04-03T08:57:30Z</time></trkpt><trkpt lat="43.17797716998039" lon="3.038211184402163"><ele>7.0</ele><time>2026-04-03T08:57:31Z</time></trkpt><trkpt lat="43.17812766301712" lon="3.0385421353021096"><ele>7.0</ele><time>2026-04-03T08:57:32Z</time></trkpt><trkpt lat="43.17827788305178" lon="3.038871169691896"><ele>6.5</ele><time>2026-04-03T08:57:33Z</time></trkpt><trkpt lat="43.178430886684296" lon="3.0391996820299627"><ele>6.0</ele><time>2026-04-03T08:57:34Z</time></trkpt><trkpt lat="43.178587294285535" lon="3.039526680207117"><ele>6.0</ele><time>2026-04-03T08:57:35Z</time></trkpt><trkpt lat="43.17874234014567" lon="3.0398524194537093"><ele>6.0</ele><time>2026-04-03T08:57:36Z</time></trkpt><trkpt lat="43.178892651430424" lon="3.0401771475742585"><ele>5.5</ele><time>2026-04-03T08:57:37Z</time></trkpt><trkpt lat="43.17904357695271" lon="3.0404964988393606"><ele>5.0</ele><time>2026-04-03T08:57:38Z</time></trkpt><trkpt lat="43.179193553912356" lon="3.0408166731330177"><ele>5.0</ele><time>2026-04-03T08:57:39Z</time></trkpt><trkpt lat="43.179340765528785" lon="3.0411344032043277"><ele>5.0</ele><time>2026-04-03T08:57:40Z</time></trkpt><trkpt lat="43.17949002937719" lon="3.0414490355827644"><ele>4.5</ele><time>2026-04-03T08:57:41Z</time></trkpt><trkpt lat="43.17963962413325" lon="3.0417574387489483"><ele>4.0</ele><time>2026-04-03T08:57:42Z</time></trkpt><trkpt lat="43.17978302686465" lon="3.042068865398574"><ele>4.0</ele><time>2026-04-03T08:57:43Z</time></trkpt><trkpt lat="43.179928278763285" lon="3.0423762271955197"><ele>4.0</ele><time>2026-04-03T08:57:44Z</time></trkpt><trkpt lat="43.1800734561327" lon="3.0426862482571733"><ele>4.5</ele><time>2026-04-03T08:57:45Z</time></trkpt><trkpt lat="43.18021260182512" lon="3.042991943950173"><ele>5.0</ele><time>2026-04-03T08:57:46Z</time></trkpt><trkpt lat="43.18034872176144" lon="3.043296674149189"><ele>4.5</ele><time>2026-04-03T08:57:47Z</time></trkpt><trkpt lat="43.18048403889611" lon="3.043599941600184"><ele>4.0</ele><time>2026-04-03T08:57:48Z</time></trkpt><trkpt lat="43.18062001013615" lon="3.0439035494137934"><ele>4.5</ele><time>2026-04-03T08:57:49Z</time></trkpt><trkpt lat="43.1807593563081" lon="3.044208063327697"><ele>5.0</ele><time>2026-04-03T08:57:50Z</time></trkpt><trkpt lat="43.18089248528136" lon="3.0445079899609686"><ele>5.0</ele><time>2026-04-03T08:57:51Z</time></trkpt><trkpt lat="43.1810245504155" lon="3.04481015429137"><ele>5.0</ele><time>2026-04-03T08:57:52Z</time></trkpt><trkpt lat="43.18115616086934" lon="3.045114783424625"><ele>5.0</ele><time>2026-04-03T08:57:53Z</time></trkpt><trkpt lat="43.181284072591126" lon="3.045418614792676"><ele>5.0</ele><time>2026-04-03T08:57:54Z</time></trkpt><trkpt lat="43.181414540205004" lon="3.045725314818041"><ele>4.5</ele><time>2026-04-03T08:57:55Z</time></trkpt><trkpt lat="43.181542697454304" lon="3.0460406421020267"><ele>4.0</ele><time>2026-04-03T08:57:56Z</time></trkpt><trkpt lat="43.18166882526155" lon="3.046364989888136"><ele>4.0</ele><time>2026-04-03T08:57:57Z</time></trkpt><trkpt lat="43.18179790462677" lon="3.0466933605752904"><ele>4.0</ele><time>2026-04-03T08:57:58Z</time></trkpt><trkpt lat="43.181926658054884" lon="3.047024594318718"><ele>4.0</ele><time>2026-04-03T08:57:59Z</time></trkpt><trkpt lat="43.18205770819499" lon="3.047363130205343"><ele>4.0</ele><time>2026-04-03T08:58:00Z</time></trkpt><trkpt lat="43.18218622890004" lon="3.0477027013687574"><ele>4.0</ele><time>2026-04-03T08:58:01Z</time></trkpt><trkpt lat="43.18231552930969" lon="3.0480439932309844"><ele>4.0</ele><time>2026-04-03T08:58:02Z</time></trkpt><trkpt lat="43.182443619035574" lon="3.048387100118708"><ele>4.0</ele><time>2026-04-03T08:58:03Z</time></trkpt><trkpt lat="43.182569293877606" lon="3.0487358968484077"><ele>4.0</ele><time>2026-04-03T08:58:04Z</time></trkpt><trkpt lat="43.18269723969646" lon="3.0490886395473593"><ele>4.0</ele><time>2026-04-03T08:58:05Z</time></trkpt><trkpt lat="43.18281944130096" lon="3.04944180862494"><ele>4.0</ele><time>2026-04-03T08:58:06Z</time></trkpt><trkpt lat="43.18294520914956" lon="3.049795642711916"><ele>4.0</ele><time>2026-04-03T08:58:07Z</time></trkpt><trkpt lat="43.183068865196304" lon="3.0501526919772"><ele>4.0</ele><time>2026-04-03T08:58:08Z</time></trkpt><trkpt lat="43.18318880005751" lon="3.0505096461128"><ele>4.0</ele><time>2026-04-03T08:58:09Z</time></trkpt><trkpt lat="43.183309200239286" lon="3.0508656699040198"><ele>4.0</ele><time>2026-04-03T08:58:10Z</time></trkpt><trkpt lat="43.183427208188505" lon="3.051224919265049"><ele>4.0</ele><time>2026-04-03T08:58:11Z</time></trkpt><trkpt lat="43.18353707757051" lon="3.051586443130116"><ele>4.0</ele><time>2026-04-03T08:58:12Z</time></trkpt><trkpt lat="43.18365495504262" lon="3.05194728873155"><ele>4.0</ele><time>2026-04-03T08:58:13Z</time></trkpt><trkpt lat="43.183774560169745" lon="3.0523082679905316"><ele>4.0</ele><time>2026-04-03T08:58:14Z</time></trkpt><trkpt lat="43.183893012983916" lon="3.052667957092415"><ele>4.0</ele><time>2026-04-03T08:58:15Z</time></trkpt><trkpt lat="43.18401532810795" lon="3.053026476928699"><ele>4.0</ele><time>2026-04-03T08:58:16Z</time></trkpt><trkpt lat="43.18413684010406" lon="3.0533831314502895"><ele>4.0</ele><time>2026-04-03T08:58:17Z</time></trkpt><trkpt lat="43.18425518911865" lon="3.05374249249915"><ele>4.0</ele><time>2026-04-03T08:58:18Z</time></trkpt><trkpt lat="43.1843748408471" lon="3.0540980551535655"><ele>4.5</ele><time>2026-04-03T08:58:19Z</time></trkpt><trkpt lat="43.184500410599924" lon="3.054450933048424"><ele>5.0</ele><time>2026-04-03T08:58:20Z</time></trkpt><trkpt lat="43.18462476742854" lon="3.054800884627384"><ele>5.0</ele><time>2026-04-03T08:58:21Z</time></trkpt><trkpt lat="43.18475073273683" lon="3.0551480231683454"><ele>5.0</ele><time>2026-04-03T08:58:22Z</time></trkpt><trkpt lat="43.184877998790675" lon="3.055498236416695"><ele>5.5</ele><time>2026-04-03T08:58:23Z</time></trkpt><trkpt lat="43.18500664590977" lon="3.0558454530134203"><ele>6.0</ele><time>2026-04-03T08:58:24Z</time></trkpt><trkpt lat="43.185135189811874" lon="3.0561948671995993"><ele>6.0</ele><time>2026-04-03T08:58:25Z</time></trkpt><trkpt lat="43.18526705596935" lon="3.056542220281585"><ele>6.0</ele><time>2026-04-03T08:58:26Z</time></trkpt><trkpt lat="43.185401545973434" lon="3.056889450850556"><ele>5.5</ele><time>2026-04-03T08:58:27Z</time></trkpt><trkpt lat="43.18553678310301" lon="3.0572322443037745"><ele>5.0</ele><time>2026-04-03T08:58:28Z</time></trkpt><trkpt lat="43.18567650962908" lon="3.0575764208265466"><ele>5.5</ele><time>2026-04-03T08:58:29Z</time></trkpt><trkpt lat="43.18581891345944" lon="3.0579243811824663"><ele>6.0</ele><time>2026-04-03T08:58:30Z</time></trkpt><trkpt lat="43.18595751533689" lon="3.058266823573209"><ele>6.0</ele><time>2026-04-03T08:58:31Z</time></trkpt><trkpt lat="43.18609888559363" lon="3.058607198628323"><ele>6.0</ele><time>2026-04-03T08:58:32Z</time></trkpt><trkpt lat="43.186241789841255" lon="3.0589435701252916"><ele>5.0</ele><time>2026-04-03T08:58:33Z</time></trkpt><trkpt lat="43.186389488450864" lon="3.0592782827555856"><ele>4.0</ele><time>2026-04-03T08:58:34Z</time></trkpt><trkpt lat="43.186535493581815" lon="3.059610059513444"><ele>4.0</ele><time>2026-04-03T08:58:35Z</time></trkpt><trkpt lat="43.18668638019127" lon="3.0599432336106434"><ele>4.0</ele><time>2026-04-03T08:58:36Z</time></trkpt><trkpt lat="43.18682994655638" lon="3.060277851804059"><ele>4.5</ele><time>2026-04-03T08:58:37Z</time></trkpt><trkpt lat="43.18698129467042" lon="3.0606086608173833"><ele>5.0</ele><time>2026-04-03T08:58:38Z</time></trkpt><trkpt lat="43.18713677441393" lon="3.060937506444209"><ele>5.0</ele><time>2026-04-03T08:58:39Z</time></trkpt><trkpt lat="43.18729482092203" lon="3.061265319209996"><ele>5.0</ele><time>2026-04-03T08:58:40Z</time></trkpt><trkpt lat="43.18745008805988" lon="3.061594285787969"><ele>5.5</ele><time>2026-04-03T08:58:41Z</time></trkpt><trkpt lat="43.187609713247106" lon="3.061920217240216"><ele>6.0</ele><time>2026-04-03T08:58:42Z</time></trkpt><trkpt lat="43.18776661731985" lon="3.062243796873013"><ele>7.5</ele><time>2026-04-03T08:58:43Z</time></trkpt><trkpt lat="43.187928865816836" lon="3.0625644247389276"><ele>9.0</ele><time>2026-04-03T08:58:44Z</time></trkpt><trkpt lat="43.18808864154279" lon="3.0628899198022195"><ele>9.0</ele><time>2026-04-03T08:58:45Z</time></trkpt><trkpt lat="43.18825246226305" lon="3.0632108830536753"><ele>9.0</ele><time>2026-04-03T08:58:46Z</time></trkpt><trkpt lat="43.18841881937823" lon="3.0635327992273855"><ele>9.0</ele><time>2026-04-03T08:58:47Z</time></trkpt><trkpt lat="43.18858908108844" lon="3.063851027717334"><ele>9.0</ele><time>2026-04-03T08:58:48Z</time></trkpt><trkpt lat="43.188757679710996" lon="3.0641713291029813"><ele>9.5</ele><time>2026-04-03T08:58:49Z</time></trkpt><trkpt lat="43.18892323346655" lon="3.0644918858734265"><ele>10.0</ele><time>2026-04-03T08:58:50Z</time></trkpt><trkpt lat="43.18909605282913" lon="3.0648051286044997"><ele>11.5</ele><time>2026-04-03T08:58:51Z</time></trkpt><trkpt lat="43.189267189541866" lon="3.0651191372311786"><ele>13.0</ele><time>2026-04-03T08:58:52Z</time></trkpt><trkpt lat="43.18944067124714" lon="3.0654299341913136"><ele>13.0</ele><time>2026-04-03T08:58:53Z</time></trkpt><trkpt lat="43.18961669435487" lon="3.0657360785675594"><ele>13.0</ele><time>2026-04-03T08:58:54Z</time></trkpt><trkpt lat="43.18979440118138" lon="3.0660436263989754"><ele>13.0</ele><time>2026-04-03T08:58:55Z</time></trkpt><trkpt lat="43.189967911818016" lon="3.066350512591863"><ele>13.0</ele><time>2026-04-03T08:58:56Z</time></trkpt><trkpt lat="43.19033297758637" lon="3.066957235095922"><ele>13.0</ele><time>2026-04-03T08:58:58Z</time></trkpt><trkpt lat="43.19051326250645" lon="3.0672561026732903"><ele>13.0</ele><time>2026-04-03T08:58:59Z</time></trkpt><trkpt lat="43.190695027453664" lon="3.067553728715053"><ele>11.0</ele><time>2026-04-03T08:59:00Z</time></trkpt><trkpt lat="43.190878470889196" lon="3.067850739546244"><ele>9.0</ele><time>2026-04-03T08:59:01Z</time></trkpt><trkpt lat="43.19106088272512" lon="3.0681439482288044"><ele>10.5</ele><time>2026-04-03T08:59:02Z</time></trkpt><trkpt lat="43.191246625512505" lon="3.0684363778053085"><ele>12.0</ele><time>2026-04-03T08:59:03Z</time></trkpt><trkpt lat="43.191430445627674" lon="3.0687292741264622"><ele>11.5</ele><time>2026-04-03T08:59:04Z</time></trkpt><trkpt lat="43.19161506917226" lon="3.0690136106179704"><ele>11.0</ele><time>2026-04-03T08:59:05Z</time></trkpt><trkpt lat="43.19180218524316" lon="3.0692990261450586"><ele>11.0</ele><time>2026-04-03T08:59:06Z</time></trkpt><trkpt lat="43.19198740579402" lon="3.0695830642056823"><ele>11.0</ele><time>2026-04-03T08:59:07Z</time></trkpt><trkpt lat="43.19218141032152" lon="3.069858292950005"><ele>10.5</ele><time>2026-04-03T08:59:08Z</time></trkpt><trkpt lat="43.192373905090875" lon="3.0701297447134057"><ele>10.0</ele><time>2026-04-03T08:59:09Z</time></trkpt><trkpt lat="43.19256929217089" lon="3.07040211930373"><ele>10.0</ele><time>2026-04-03T08:59:10Z</time></trkpt><trkpt lat="43.192770123237445" lon="3.0706781498005697"><ele>10.0</ele><time>2026-04-03T08:59:11Z</time></trkpt><trkpt lat="43.19296881829486" lon="3.0709522827513562"><ele>9.5</ele><time>2026-04-03T08:59:12Z</time></trkpt><trkpt lat="43.19317183805714" lon="3.0712258571334834"><ele>9.0</ele><time>2026-04-03T08:59:13Z</time></trkpt><trkpt lat="43.19337464514002" lon="3.071499819316238"><ele>9.5</ele><time>2026-04-03T08:59:14Z</time></trkpt><trkpt lat="43.19357884533155" lon="3.071773444291325"><ele>10.0</ele><time>2026-04-03T08:59:15Z</time></trkpt><trkpt lat="43.19378550945419" lon="3.072049337082286"><ele>10.0</ele><time>2026-04-03T08:59:16Z</time></trkpt><trkpt lat="43.193989953078784" lon="3.0723206890433032"><ele>10.0</ele><time>2026-04-03T08:59:17Z</time></trkpt><trkpt lat="43.19419419846115" lon="3.072591016066984"><ele>10.0</ele><time>2026-04-03T08:59:18Z</time></trkpt><trkpt lat="43.1943996630122" lon="3.072864327197576"><ele>10.0</ele><time>2026-04-03T08:59:19Z</time></trkpt><trkpt lat="43.19460064476184" lon="3.0731368879900387"><ele>10.5</ele><time>2026-04-03T08:59:20Z</time></trkpt><trkpt lat="43.19480435522949" lon="3.0734111602451786"><ele>11.0</ele><time>2026-04-03T08:59:21Z</time></trkpt><trkpt lat="43.1950106131911" lon="3.073676107438573"><ele>11.0</ele><time>2026-04-03T08:59:22Z</time></trkpt><trkpt lat="43.195219470205195" lon="3.0739374764462877"><ele>11.0</ele><time>2026-04-03T08:59:23Z</time></trkpt><trkpt lat="43.195431689032915" lon="3.0741974288321874"><ele>12.0</ele><time>2026-04-03T08:59:24Z</time></trkpt><trkpt lat="43.19564363601464" lon="3.0744535037405085"><ele>13.0</ele><time>2026-04-03T08:59:25Z</time></trkpt><trkpt lat="43.195856788834284" lon="3.074702339421198"><ele>15.5</ele><time>2026-04-03T08:59:26Z</time></trkpt><trkpt lat="43.19607064661883" lon="3.0749490234518304"><ele>18.0</ele><time>2026-04-03T08:59:27Z</time></trkpt><trkpt lat="43.196284903497" lon="3.0751908837294764"><ele>18.0</ele><time>2026-04-03T08:59:28Z</time></trkpt><trkpt lat="43.19649846593426" lon="3.0754320159602884"><ele>18.0</ele><time>2026-04-03T08:59:29Z</time></trkpt><trkpt lat="43.19671191411362" lon="3.0756699342475384"><ele>20.0</ele><time>2026-04-03T08:59:30Z</time></trkpt><trkpt lat="43.19692630717516" lon="3.075904876890341"><ele>22.0</ele><time>2026-04-03T08:59:31Z</time></trkpt><trkpt lat="43.19713973625552" lon="3.076137502739269"><ele>23.0</ele><time>2026-04-03T08:59:32Z</time></trkpt><trkpt lat="43.19735168950696" lon="3.0763694873559313"><ele>24.0</ele><time>2026-04-03T08:59:33Z</time></trkpt><trkpt lat="43.19756458050174" lon="3.076607223287411"><ele>25.5</ele><time>2026-04-03T08:59:34Z</time></trkpt><trkpt lat="43.19777394327086" lon="3.076847762783544"><ele>27.0</ele><time>2026-04-03T08:59:35Z</time></trkpt><trkpt lat="43.19798876418306" lon="3.077081908280498"><ele>27.5</ele><time>2026-04-03T08:59:36Z</time></trkpt><trkpt lat="43.19820649422186" lon="3.077311623031484"><ele>28.0</ele><time>2026-04-03T08:59:37Z</time></trkpt><trkpt lat="43.19842910102733" lon="3.0775400586560537"><ele>28.0</ele><time>2026-04-03T08:59:38Z</time></trkpt><trkpt lat="43.19865481171093" lon="3.077769686701131"><ele>28.0</ele><time>2026-04-03T08:59:39Z</time></trkpt><trkpt lat="43.19888359535599" lon="3.077998936718552"><ele>28.5</ele><time>2026-04-03T08:59:40Z</time></trkpt><trkpt lat="43.19911253591919" lon="3.078227922031449"><ele>29.0</ele><time>2026-04-03T08:59:41Z</time></trkpt><trkpt lat="43.199344577967565" lon="3.0784561958871217"><ele>29.5</ele><time>2026-04-03T08:59:42Z</time></trkpt><trkpt lat="43.199579449415424" lon="3.0786805002939426"><ele>30.0</ele><time>2026-04-03T08:59:43Z</time></trkpt><trkpt lat="43.19981643183476" lon="3.0789011455769404"><ele>32.5</ele><time>2026-04-03T08:59:44Z</time></trkpt><trkpt lat="43.20005413290404" lon="3.0791210139864815"><ele>35.0</ele><time>2026-04-03T08:59:45Z</time></trkpt><trkpt lat="43.20029211449019" lon="3.0793405395144204"><ele>35.0</ele><time>2026-04-03T08:59:46Z</time></trkpt><trkpt lat="43.200531754016055" lon="3.079553834585034"><ele>35.0</ele><time>2026-04-03T08:59:47Z</time></trkpt><trkpt lat="43.20077204445002" lon="3.0797698848070354"><ele>41.0</ele><time>2026-04-03T08:59:48Z</time></trkpt><trkpt lat="43.201013363951866" lon="3.0799883995543804"><ele>47.0</ele><time>2026-04-03T08:59:49Z</time></trkpt><trkpt lat="43.20125371996486" lon="3.0802107848062747"><ele>47.0</ele><time>2026-04-03T08:59:50Z</time></trkpt><trkpt lat="43.20149523255176" lon="3.080430828841191"><ele>47.0</ele><time>2026-04-03T08:59:51Z</time></trkpt><trkpt lat="43.201736940770736" lon="3.0806493129334394"><ele>47.0</ele><time>2026-04-03T08:59:52Z</time></trkpt><trkpt lat="43.20197453147919" lon="3.080867952742703"><ele>47.0</ele><time>2026-04-03T08:59:53Z</time></trkpt><trkpt lat="43.202213033386215" lon="3.0810830998664103"><ele>44.5</ele><time>2026-04-03T08:59:54Z</time></trkpt><trkpt lat="43.20245387577408" lon="3.0812988420267433"><ele>42.0</ele><time>2026-04-03T08:59:55Z</time></trkpt><trkpt lat="43.2026961758859" lon="3.081516444859092"><ele>45.5</ele><time>2026-04-03T08:59:56Z</time></trkpt><trkpt lat="43.202936973666176" lon="3.0817339747203323"><ele>49.0</ele><time>2026-04-03T08:59:57Z</time></trkpt><trkpt lat="43.20317663416306" lon="3.0819544392220592"><ele>49.0</ele><time>2026-04-03T08:59:58Z</time></trkpt><trkpt lat="43.20341435237288" lon="3.082180420005953"><ele>49.0</ele><time>2026-04-03T08:59:59Z</time></trkpt><trkpt lat="43.203654939821945" lon="3.082401789097094"><ele>48.0</ele><time>2026-04-03T09:00:00Z</time></trkpt><trkpt lat="43.20389454235182" lon="3.082631546829373"><ele>47.0</ele><time>2026-04-03T09:00:01Z</time></trkpt><trkpt lat="43.204131276929026" lon="3.082859577502321"><ele>47.0</ele><time>2026-04-03T09:00:02Z</time></trkpt><trkpt lat="43.20437081463547" lon="3.0830800827388356"><ele>47.0</ele><time>2026-04-03T09:00:03Z</time></trkpt><trkpt lat="43.20461224233664" lon="3.0833024454208724"><ele>45.0</ele><time>2026-04-03T09:00:04Z</time></trkpt><trkpt lat="43.20485004651686" lon="3.0835320616562045"><ele>43.0</ele><time>2026-04-03T09:00:05Z</time></trkpt><trkpt lat="43.205090548652116" lon="3.0837600082645698"><ele>43.0</ele><time>2026-04-03T09:00:06Z</time></trkpt><trkpt lat="43.20532830141309" lon="3.0839849573016296"><ele>43.0</ele><time>2026-04-03T09:00:07Z</time></trkpt><trkpt lat="43.20556118373492" lon="3.084218541734292"><ele>44.5</ele><time>2026-04-03T09:00:08Z</time></trkpt><trkpt lat="43.205794832165886" lon="3.0844550894278164"><ele>46.0</ele><time>2026-04-03T09:00:09Z</time></trkpt><trkpt lat="43.20602787174654" lon="3.084695101119283"><ele>50.0</ele><time>2026-04-03T09:00:10Z</time></trkpt><trkpt lat="43.206258032518335" lon="3.084937115476169"><ele>54.0</ele><time>2026-04-03T09:00:11Z</time></trkpt><trkpt lat="43.20648687723538" lon="3.08518140397074"><ele>50.0</ele><time>2026-04-03T09:00:12Z</time></trkpt><trkpt lat="43.20671526617938" lon="3.0854239582442173"><ele>46.0</ele><time>2026-04-03T09:00:13Z</time></trkpt><trkpt lat="43.20694616278326" lon="3.085667306796468"><ele>44.5</ele><time>2026-04-03T09:00:14Z</time></trkpt><trkpt lat="43.2071767817079" lon="3.085910040403491"><ele>43.0</ele><time>2026-04-03T09:00:15Z</time></trkpt><trkpt lat="43.207406704999414" lon="3.0861515324770643"><ele>43.0</ele><time>2026-04-03T09:00:16Z</time></trkpt><trkpt lat="43.20763848040456" lon="3.0863915704421685"><ele>43.0</ele><time>2026-04-03T09:00:17Z</time></trkpt><trkpt lat="43.20786926287071" lon="3.0866314777070576"><ele>42.5</ele><time>2026-04-03T09:00:18Z</time></trkpt><trkpt lat="43.208102406523714" lon="3.086867582434567"><ele>42.0</ele><time>2026-04-03T09:00:19Z</time></trkpt><trkpt lat="43.208341627284234" lon="3.0871032094292343"><ele>42.0</ele><time>2026-04-03T09:00:20Z</time></trkpt><trkpt lat="43.208580312478304" lon="3.0873319716576457"><ele>42.0</ele><time>2026-04-03T09:00:21Z</time></trkpt><trkpt lat="43.20882148112562" lon="3.087554628350229"><ele>41.0</ele><time>2026-04-03T09:00:22Z</time></trkpt><trkpt lat="43.20906790226083" lon="3.087771106673188"><ele>40.0</ele><time>2026-04-03T09:00:23Z</time></trkpt><trkpt lat="43.20931293520152" lon="3.0879818574522973"><ele>40.0</ele><time>2026-04-03T09:00:24Z</time></trkpt><trkpt lat="43.20956198185614" lon="3.088183138957217"><ele>40.0</ele><time>2026-04-03T09:00:25Z</time></trkpt><trkpt lat="43.20981350340198" lon="3.0883760967941423"><ele>37.0</ele><time>2026-04-03T09:00:26Z</time></trkpt><trkpt lat="43.21006446664388" lon="3.0885712056702697"><ele>34.0</ele><time>2026-04-03T09:00:27Z</time></trkpt><trkpt lat="43.210316442596024" lon="3.088759567402905"><ele>34.0</ele><time>2026-04-03T09:00:28Z</time></trkpt><trkpt lat="43.21057127618495" lon="3.0889397403118037"><ele>34.0</ele><time>2026-04-03T09:00:29Z</time></trkpt><trkpt lat="43.21082624425285" lon="3.0891146907093425"><ele>33.0</ele><time>2026-04-03T09:00:30Z</time></trkpt><trkpt lat="43.21108306257012" lon="3.0892841339402173"><ele>32.0</ele><time>2026-04-03T09:00:31Z</time></trkpt><trkpt lat="43.21134035824429" lon="3.0894469476646536"><ele>30.5</ele><time>2026-04-03T09:00:32Z</time></trkpt><trkpt lat="43.2116003434223" lon="3.0896072614328802"><ele>29.0</ele><time>2026-04-03T09:00:33Z</time></trkpt><trkpt lat="43.21186094809055" lon="3.0897601075840506"><ele>29.0</ele><time>2026-04-03T09:00:34Z</time></trkpt><trkpt lat="43.21212173089127" lon="3.0899070910872464"><ele>29.0</ele><time>2026-04-03T09:00:35Z</time></trkpt><trkpt lat="43.21238517700374" lon="3.090050658481035"><ele>30.0</ele><time>2026-04-03T09:00:36Z</time></trkpt><trkpt lat="43.21265016884843" lon="3.0901915263478257"><ele>31.0</ele><time>2026-04-03T09:00:37Z</time></trkpt><trkpt lat="43.21291303044603" lon="3.090330060136334"><ele>30.5</ele><time>2026-04-03T09:00:38Z</time></trkpt><trkpt lat="43.213180516814994" lon="3.0904619788823355"><ele>30.0</ele><time>2026-04-03T09:00:39Z</time></trkpt><trkpt lat="43.21344914615492" lon="3.0905946290581006"><ele>30.0</ele><time>2026-04-03T09:00:40Z</time></trkpt><trkpt lat="43.21371612352204" lon="3.0907239651953775"><ele>30.0</ele><time>2026-04-03T09:00:41Z</time></trkpt><trkpt lat="43.21398311447635" lon="3.090850016916076"><ele>29.5</ele><time>2026-04-03T09:00:42Z</time></trkpt><trkpt lat="43.214251192193245" lon="3.090973204912858"><ele>29.0</ele><time>2026-04-03T09:00:43Z</time></trkpt><trkpt lat="43.214521519166965" lon="3.0910956941607"><ele>29.0</ele><time>2026-04-03T09:00:44Z</time></trkpt><trkpt lat="43.21479167262634" lon="3.0912153533603903"><ele>29.0</ele><time>2026-04-03T09:00:45Z</time></trkpt><trkpt lat="43.215063033532175" lon="3.091340190007154"><ele>29.5</ele><time>2026-04-03T09:00:46Z</time></trkpt><trkpt lat="43.21533691945695" lon="3.0914638676812958"><ele>30.0</ele><time>2026-04-03T09:00:47Z</time></trkpt><trkpt lat="43.215609436312654" lon="3.091587599062583"><ele>30.0</ele><time>2026-04-03T09:00:48Z</time></trkpt><trkpt lat="43.21587884875066" lon="3.0917105139029264"><ele>30.0</ele><time>2026-04-03T09:00:49Z</time></trkpt><trkpt lat="43.21614925077546" lon="3.091837440999382"><ele>30.0</ele><time>2026-04-03T09:00:50Z</time></trkpt><trkpt lat="43.216420129411794" lon="3.0919667083527975"><ele>30.0</ele><time>2026-04-03T09:00:51Z</time></trkpt><trkpt lat="43.216692784869664" lon="3.0920936562347747"><ele>30.0</ele><time>2026-04-03T09:00:52Z</time></trkpt><trkpt lat="43.21696641945443" lon="3.092220694038997"><ele>30.0</ele><time>2026-04-03T09:00:53Z</time></trkpt><trkpt lat="43.2172378414162" lon="3.0923496532272483"><ele>30.0</ele><time>2026-04-03T09:00:54Z</time></trkpt><trkpt lat="43.21751332547509" lon="3.0924787643983636"><ele>30.0</ele><time>2026-04-03T09:00:55Z</time></trkpt><trkpt lat="43.21778246691626" lon="3.092612333279109"><ele>30.0</ele><time>2026-04-03T09:00:56Z</time></trkpt><trkpt lat="43.21805612317793" lon="3.0927505056032105"><ele>30.0</ele><time>2026-04-03T09:00:57Z</time></trkpt><trkpt lat="43.21832243570139" lon="3.0928920376369877"><ele>29.5</ele><time>2026-04-03T09:00:58Z</time></trkpt><trkpt lat="43.21858804946114" lon="3.0930452351121143"><ele>29.0</ele><time>2026-04-03T09:00:59Z</time></trkpt><trkpt lat="43.218849015461686" lon="3.093196431920275"><ele>30.0</ele><time>2026-04-03T09:01:00Z</time></trkpt><trkpt lat="43.21911050388619" lon="3.093352030610876"><ele>31.0</ele><time>2026-04-03T09:01:01Z</time></trkpt><trkpt lat="43.21937213384523" lon="3.0935137213915924"><ele>31.0</ele><time>2026-04-03T09:01:02Z</time></trkpt><trkpt lat="43.219633107237414" lon="3.093679336191141"><ele>31.0</ele><time>2026-04-03T09:01:03Z</time></trkpt><trkpt lat="43.21989120872297" lon="3.093853174526461"><ele>30.5</ele><time>2026-04-03T09:01:04Z</time></trkpt><trkpt lat="43.22014723127397" lon="3.0940300077022185"><ele>30.0</ele><time>2026-04-03T09:01:05Z</time></trkpt><trkpt lat="43.22040510616712" lon="3.0942123906363705"><ele>31.0</ele><time>2026-04-03T09:01:06Z</time></trkpt><trkpt lat="43.22065878206988" lon="3.0944027431582715"><ele>32.0</ele><time>2026-04-03T09:01:07Z</time></trkpt><trkpt lat="43.22090909804027" lon="3.0945947864913808"><ele>32.0</ele><time>2026-04-03T09:01:08Z</time></trkpt><trkpt lat="43.22115936112391" lon="3.094794580605959"><ele>32.0</ele><time>2026-04-03T09:01:09Z</time></trkpt><trkpt lat="43.22140614805177" lon="3.095001453370478"><ele>32.5</ele><time>2026-04-03T09:01:10Z</time></trkpt><trkpt lat="43.221648691255815" lon="3.0952112456106557"><ele>33.0</ele><time>2026-04-03T09:01:11Z</time></trkpt><trkpt lat="43.221889604766986" lon="3.0954257281817767"><ele>33.0</ele><time>2026-04-03T09:01:12Z</time></trkpt><trkpt lat="43.22212426106084" lon="3.095647484743376"><ele>33.0</ele><time>2026-04-03T09:01:13Z</time></trkpt><trkpt lat="43.22235600340203" lon="3.0958757913578894"><ele>34.5</ele><time>2026-04-03T09:01:14Z</time></trkpt><trkpt lat="43.22258763803316" lon="3.0961059670028486"><ele>36.0</ele><time>2026-04-03T09:01:15Z</time></trkpt><trkpt lat="43.2228150257521" lon="3.096344755342845"><ele>36.0</ele><time>2026-04-03T09:01:16Z</time></trkpt><trkpt lat="43.22304015629183" lon="3.0965822532288345"><ele>36.0</ele><time>2026-04-03T09:01:17Z</time></trkpt><trkpt lat="43.22326478087991" lon="3.096826633422623"><ele>38.5</ele><time>2026-04-03T09:01:18Z</time></trkpt><trkpt lat="43.22348531816288" lon="3.097075083911086"><ele>41.0</ele><time>2026-04-03T09:01:19Z</time></trkpt><trkpt lat="43.2237020778286" lon="3.097327099825523"><ele>42.0</ele><time>2026-04-03T09:01:20Z</time></trkpt><trkpt lat="43.22391564456219" lon="3.097584103196434"><ele>43.0</ele><time>2026-04-03T09:01:21Z</time></trkpt><trkpt lat="43.22412739368892" lon="3.0978472462588718"><ele>43.0</ele><time>2026-04-03T09:01:22Z</time></trkpt><trkpt lat="43.224337743482444" lon="3.0981173549699146"><ele>43.0</ele><time>2026-04-03T09:01:23Z</time></trkpt><trkpt lat="43.22454529318239" lon="3.0983925324830066"><ele>44.5</ele><time>2026-04-03T09:01:24Z</time></trkpt><trkpt lat="43.22474614493883" lon="3.0986698546176283"><ele>46.0</ele><time>2026-04-03T09:01:25Z</time></trkpt><trkpt lat="43.22494804823237" lon="3.0989526735891366"><ele>49.5</ele><time>2026-04-03T09:01:26Z</time></trkpt><trkpt lat="43.2251428698974" lon="3.09923869017888"><ele>53.0</ele><time>2026-04-03T09:01:27Z</time></trkpt><trkpt lat="43.22533370951994" lon="3.0995294090173386"><ele>53.0</ele><time>2026-04-03T09:01:28Z</time></trkpt><trkpt lat="43.225523128724426" lon="3.0998258964682686"><ele>53.0</ele><time>2026-04-03T09:01:29Z</time></trkpt><trkpt lat="43.225711379656516" lon="3.100127894426135"><ele>51.5</ele><time>2026-04-03T09:01:30Z</time></trkpt><trkpt lat="43.22589634766385" lon="3.100430552100658"><ele>50.0</ele><time>2026-04-03T09:01:31Z</time></trkpt><trkpt lat="43.22607660357945" lon="3.100740922312942"><ele>51.0</ele><time>2026-04-03T09:01:32Z</time></trkpt><trkpt lat="43.22625342331554" lon="3.1010551471880614"><ele>52.0</ele><time>2026-04-03T09:01:33Z</time></trkpt><trkpt lat="43.22642564350674" lon="3.1013728873253448"><ele>50.5</ele><time>2026-04-03T09:01:34Z</time></trkpt><trkpt lat="43.22659658326121" lon="3.1016948927255426"><ele>49.0</ele><time>2026-04-03T09:01:35Z</time></trkpt><trkpt lat="43.22676056076583" lon="3.1020190339535696"><ele>49.0</ele><time>2026-04-03T09:01:36Z</time></trkpt><trkpt lat="43.22692237945277" lon="3.1023460581332976"><ele>49.0</ele><time>2026-04-03T09:01:37Z</time></trkpt><trkpt lat="43.22707823523488" lon="3.1026787554241557"><ele>51.0</ele><time>2026-04-03T09:01:38Z</time></trkpt><trkpt lat="43.22723074263781" lon="3.1030096551247004"><ele>53.0</ele><time>2026-04-03T09:01:39Z</time></trkpt><trkpt lat="43.22737828557602" lon="3.1033480296127083"><ele>53.0</ele><time>2026-04-03T09:01:40Z</time></trkpt><trkpt lat="43.22752333517954" lon="3.1036914131810756"><ele>53.0</ele><time>2026-04-03T09:01:41Z</time></trkpt><trkpt lat="43.227661146779205" lon="3.1040329240573796"><ele>53.5</ele><time>2026-04-03T09:01:42Z</time></trkpt><trkpt lat="43.22779065984354" lon="3.104379775309152"><ele>54.0</ele><time>2026-04-03T09:01:43Z</time></trkpt><trkpt lat="43.22791401660236" lon="3.104730996899681"><ele>54.0</ele><time>2026-04-03T09:01:44Z</time></trkpt><trkpt lat="43.22803770703682" lon="3.1050840456080824"><ele>54.0</ele><time>2026-04-03T09:01:45Z</time></trkpt><trkpt lat="43.228157245081434" lon="3.1054427637296915"><ele>52.5</ele><time>2026-04-03T09:01:46Z</time></trkpt><trkpt lat="43.22827213031473" lon="3.1058002320482374"><ele>51.0</ele><time>2026-04-03T09:01:47Z</time></trkpt><trkpt lat="43.22838340851163" lon="3.1061594968405015"><ele>51.0</ele><time>2026-04-03T09:01:48Z</time></trkpt><trkpt lat="43.22849133469622" lon="3.1065238802723254"><ele>51.0</ele><time>2026-04-03T09:01:49Z</time></trkpt><trkpt lat="43.22859893835534" lon="3.1068873136333295"><ele>52.0</ele><time>2026-04-03T09:01:50Z</time></trkpt><trkpt lat="43.228702620743995" lon="3.107254068455603"><ele>53.0</ele><time>2026-04-03T09:01:51Z</time></trkpt><trkpt lat="43.228799277836046" lon="3.1076247713830543"><ele>53.5</ele><time>2026-04-03T09:01:52Z</time></trkpt><trkpt lat="43.22889380450209" lon="3.107997176303888"><ele>54.0</ele><time>2026-04-03T09:01:53Z</time></trkpt><trkpt lat="43.22898535333558" lon="3.108372042027729"><ele>51.5</ele><time>2026-04-03T09:01:54Z</time></trkpt><trkpt lat="43.22907070397109" lon="3.1087524750746227"><ele>49.0</ele><time>2026-04-03T09:01:55Z</time></trkpt><trkpt lat="43.2291534985443" lon="3.1091346466329273"><ele>49.0</ele><time>2026-04-03T09:01:56Z</time></trkpt><trkpt lat="43.22922822547567" lon="3.109519890292979"><ele>49.0</ele><time>2026-04-03T09:01:57Z</time></trkpt><trkpt lat="43.22929777343414" lon="3.1099059433779765"><ele>50.0</ele><time>2026-04-03T09:01:58Z</time></trkpt><trkpt lat="43.2293633043793" lon="3.1102935372910028"><ele>51.0</ele><time>2026-04-03T09:01:59Z</time></trkpt><trkpt lat="43.229430980020076" lon="3.11068005642812"><ele>51.0</ele><time>2026-04-03T09:02:00Z</time></trkpt><trkpt lat="43.22948719784258" lon="3.111071601651817"><ele>51.0</ele><time>2026-04-03T09:02:01Z</time></trkpt><trkpt lat="43.22953868863652" lon="3.1114675300212884"><ele>51.5</ele><time>2026-04-03T09:02:02Z</time></trkpt><trkpt lat="43.22959563683629" lon="3.111859827221134"><ele>52.0</ele><time>2026-04-03T09:02:03Z</time></trkpt><trkpt lat="43.229647013794" lon="3.1122529060288264"><ele>51.0</ele><time>2026-04-03T09:02:04Z</time></trkpt><trkpt lat="43.22969403087119" lon="3.112643520969546"><ele>50.0</ele><time>2026-04-03T09:02:05Z</time></trkpt><trkpt lat="43.229742683862035" lon="3.1130291126062772"><ele>50.0</ele><time>2026-04-03T09:02:06Z</time></trkpt><trkpt lat="43.229786887080714" lon="3.113416821610991"><ele>50.0</ele><time>2026-04-03T09:02:07Z</time></trkpt><trkpt lat="43.22983680111074" lon="3.113801133823595"><ele>49.5</ele><time>2026-04-03T09:02:08Z</time></trkpt><trkpt lat="43.22987925218965" lon="3.1141896021479774"><ele>49.0</ele><time>2026-04-03T09:02:09Z</time></trkpt><trkpt lat="43.22992627828621" lon="3.114572212119837"><ele>48.5</ele><time>2026-04-03T09:02:10Z</time></trkpt><trkpt lat="43.22996425033822" lon="3.114954273912425"><ele>48.0</ele><time>2026-04-03T09:02:11Z</time></trkpt><trkpt lat="43.230010302948564" lon="3.1153441967405344"><ele>48.0</ele><time>2026-04-03T09:02:12Z</time></trkpt><trkpt lat="43.23005333683095" lon="3.1157350315071537"><ele>48.0</ele><time>2026-04-03T09:02:13Z</time></trkpt><trkpt lat="43.23009197513696" lon="3.1161241074364603"><ele>49.0</ele><time>2026-04-03T09:02:14Z</time></trkpt><trkpt lat="43.23013893600889" lon="3.1165128248353544"><ele>50.0</ele><time>2026-04-03T09:02:15Z</time></trkpt><trkpt lat="43.23018707423019" lon="3.11690051189063"><ele>50.0</ele><time>2026-04-03T09:02:16Z</time></trkpt><trkpt lat="43.23022459346956" lon="3.117289061018005"><ele>50.0</ele><time>2026-04-03T09:02:17Z</time></trkpt><trkpt lat="43.23027203492078" lon="3.117681040317188"><ele>50.0</ele><time>2026-04-03T09:02:18Z</time></trkpt><trkpt lat="43.230313880492105" lon="3.1180694850311954"><ele>50.0</ele><time>2026-04-03T09:02:19Z</time></trkpt><trkpt lat="43.23036218551012" lon="3.1184608298513865"><ele>51.0</ele><time>2026-04-03T09:02:20Z</time></trkpt><trkpt lat="43.2304108296465" lon="3.1188626316066346"><ele>52.0</ele><time>2026-04-03T09:02:21Z</time></trkpt><trkpt lat="43.23045467068872" lon="3.1192553537732013"><ele>52.0</ele><time>2026-04-03T09:02:22Z</time></trkpt><trkpt lat="43.230495066760675" lon="3.1196475949556755"><ele>52.0</ele><time>2026-04-03T09:02:23Z</time></trkpt><trkpt lat="43.23053681985874" lon="3.120047979931927"><ele>51.5</ele><time>2026-04-03T09:02:24Z</time></trkpt><trkpt lat="43.23057928878438" lon="3.1204523880512123"><ele>51.0</ele><time>2026-04-03T09:02:25Z</time></trkpt><trkpt lat="43.23062250047119" lon="3.1208390061162277"><ele>47.5</ele><time>2026-04-03T09:02:26Z</time></trkpt><trkpt lat="43.23066608696052" lon="3.1212335702860887"><ele>44.0</ele><time>2026-04-03T09:02:27Z</time></trkpt><trkpt lat="43.23070865873719" lon="3.1216272717702744"><ele>43.0</ele><time>2026-04-03T09:02:28Z</time></trkpt><trkpt lat="43.23075162129167" lon="3.1220162324447864"><ele>42.0</ele><time>2026-04-03T09:02:29Z</time></trkpt><trkpt lat="43.230797781959424" lon="3.122400171560456"><ele>42.0</ele><time>2026-04-03T09:02:30Z</time></trkpt><trkpt lat="43.23084995182686" lon="3.12279608313632"><ele>42.0</ele><time>2026-04-03T09:02:31Z</time></trkpt><trkpt lat="43.23089906993914" lon="3.123184235260922"><ele>43.5</ele><time>2026-04-03T09:02:32Z</time></trkpt><trkpt lat="43.23094717042496" lon="3.1235725004513237"><ele>45.0</ele><time>2026-04-03T09:02:33Z</time></trkpt><trkpt lat="43.23100131660082" lon="3.123961919044488"><ele>43.5</ele><time>2026-04-03T09:02:34Z</time></trkpt><trkpt lat="43.231056369826526" lon="3.1243492287286694"><ele>42.0</ele><time>2026-04-03T09:02:35Z</time></trkpt><trkpt lat="43.23111137988673" lon="3.124735657828891"><ele>38.5</ele><time>2026-04-03T09:02:36Z</time></trkpt><trkpt lat="43.23118596488115" lon="3.125124676412746"><ele>35.0</ele><time>2026-04-03T09:02:37Z</time></trkpt><trkpt lat="43.23124735461038" lon="3.1254974421329207"><ele>32.5</ele><time>2026-04-03T09:02:38Z</time></trkpt><trkpt lat="43.231309515118845" lon="3.125866608480605"><ele>30.0</ele><time>2026-04-03T09:02:39Z</time></trkpt><trkpt lat="43.23137637648616" lon="3.1262412973374145"><ele>29.5</ele><time>2026-04-03T09:02:40Z</time></trkpt><trkpt lat="43.23145241028887" lon="3.1266204040760246"><ele>29.0</ele><time>2026-04-03T09:02:41Z</time></trkpt><trkpt lat="43.23152893867037" lon="3.127003218914201"><ele>29.5</ele><time>2026-04-03T09:02:42Z</time></trkpt><trkpt lat="43.231609942064225" lon="3.127380425513851"><ele>30.0</ele><time>2026-04-03T09:02:43Z</time></trkpt><trkpt lat="43.23169710642623" lon="3.127756124015883"><ele>30.0</ele><time>2026-04-03T09:02:44Z</time></trkpt><trkpt lat="43.231777969165584" lon="3.128127910892864"><ele>30.0</ele><time>2026-04-03T09:02:45Z</time></trkpt><trkpt lat="43.23186036262331" lon="3.1285045059688206"><ele>30.0</ele><time>2026-04-03T09:02:46Z</time></trkpt><trkpt lat="43.23194498051094" lon="3.12887377719044"><ele>30.0</ele><time>2026-04-03T09:02:47Z</time></trkpt><trkpt lat="43.23203458450277" lon="3.1292391075762724"><ele>30.5</ele><time>2026-04-03T09:02:48Z</time></trkpt><trkpt lat="43.232129013945226" lon="3.1296152797998236"><ele>31.0</ele><time>2026-04-03T09:02:49Z</time></trkpt><trkpt lat="43.23222192180502" lon="3.1299833221906925"><ele>31.0</ele><time>2026-04-03T09:02:50Z</time></trkpt><trkpt lat="43.23232295301911" lon="3.130351557571837"><ele>31.0</ele><time>2026-04-03T09:02:51Z</time></trkpt><trkpt lat="43.2324262903395" lon="3.130718967870883"><ele>31.0</ele><time>2026-04-03T09:02:52Z</time></trkpt><trkpt lat="43.23253160100006" lon="3.1310860258564457"><ele>31.0</ele><time>2026-04-03T09:02:53Z</time></trkpt><trkpt lat="43.23264173174726" lon="3.131454256221274"><ele>30.0</ele><time>2026-04-03T09:02:54Z</time></trkpt><trkpt lat="43.23275502405872" lon="3.131816759392375"><ele>29.0</ele><time>2026-04-03T09:02:55Z</time></trkpt><trkpt lat="43.232871099535586" lon="3.1321769765699043"><ele>27.5</ele><time>2026-04-03T09:02:56Z</time></trkpt><trkpt lat="43.23298884880223" lon="3.132536501650421"><ele>26.0</ele><time>2026-04-03T09:02:57Z</time></trkpt><trkpt lat="43.23310795465711" lon="3.1328956925011284"><ele>27.0</ele><time>2026-04-03T09:02:58Z</time></trkpt><trkpt lat="43.23323143800612" lon="3.1332514009382595"><ele>28.0</ele><time>2026-04-03T09:02:59Z</time></trkpt><trkpt lat="43.233356510462556" lon="3.133610429848534"><ele>28.0</ele><time>2026-04-03T09:03:00Z</time></trkpt><trkpt lat="43.23348738885294" lon="3.133962776323175"><ele>28.0</ele><time>2026-04-03T09:03:01Z</time></trkpt><trkpt lat="43.23361806953996" lon="3.1343174950261754"><ele>27.5</ele><time>2026-04-03T09:03:02Z</time></trkpt><trkpt lat="43.23375499620237" lon="3.134663143857799"><ele>27.0</ele><time>2026-04-03T09:03:03Z</time></trkpt><trkpt lat="43.2338898560195" lon="3.1350064282106906"><ele>28.5</ele><time>2026-04-03T09:03:04Z</time></trkpt><trkpt lat="43.23402944875581" lon="3.135351361561898"><ele>30.0</ele><time>2026-04-03T09:03:05Z</time></trkpt><trkpt lat="43.234173361290104" lon="3.135696769570627"><ele>29.5</ele><time>2026-04-03T09:03:06Z</time></trkpt><trkpt lat="43.234318852122314" lon="3.1360440336146738"><ele>29.0</ele><time>2026-04-03T09:03:07Z</time></trkpt><trkpt lat="43.234464725567555" lon="3.1363869707998595"><ele>27.5</ele><time>2026-04-03T09:03:08Z</time></trkpt><trkpt lat="43.23461372314955" lon="3.136723754576895"><ele>26.0</ele><time>2026-04-03T09:03:09Z</time></trkpt><trkpt lat="43.23476636204033" lon="3.1370608273185474"><ele>27.0</ele><time>2026-04-03T09:03:10Z</time></trkpt><trkpt lat="43.234925884590574" lon="3.1373959450774422"><ele>28.0</ele><time>2026-04-03T09:03:11Z</time></trkpt><trkpt lat="43.235082673267776" lon="3.1377249327942223"><ele>28.0</ele><time>2026-04-03T09:03:12Z</time></trkpt><trkpt lat="43.2352444103845" lon="3.1380546875077933"><ele>28.0</ele><time>2026-04-03T09:03:13Z</time></trkpt><trkpt lat="43.23540843022814" lon="3.138379676089323"><ele>27.0</ele><time>2026-04-03T09:03:14Z</time></trkpt><trkpt lat="43.23557438686492" lon="3.138700849181003"><ele>26.0</ele><time>2026-04-03T09:03:15Z</time></trkpt><trkpt lat="43.23574182308211" lon="3.1390218901195044"><ele>27.0</ele><time>2026-04-03T09:03:16Z</time></trkpt><trkpt lat="43.23591155660842" lon="3.1393370981832205"><ele>28.0</ele><time>2026-04-03T09:03:17Z</time></trkpt><trkpt lat="43.23608539552243" lon="3.1396515727322964"><ele>27.5</ele><time>2026-04-03T09:03:18Z</time></trkpt><trkpt lat="43.23626672378861" lon="3.139963119561984"><ele>27.0</ele><time>2026-04-03T09:03:19Z</time></trkpt><trkpt lat="43.236446517444136" lon="3.140275457270644"><ele>27.0</ele><time>2026-04-03T09:03:20Z</time></trkpt><trkpt lat="43.23662765843248" lon="3.1405843250438497"><ele>27.0</ele><time>2026-04-03T09:03:21Z</time></trkpt><trkpt lat="43.23681130555848" lon="3.140891225577355"><ele>27.0</ele><time>2026-04-03T09:03:22Z</time></trkpt><trkpt lat="43.23699628359716" lon="3.141197128301704"><ele>27.0</ele><time>2026-04-03T09:03:23Z</time></trkpt><trkpt lat="43.2371879282638" lon="3.1414970206682975"><ele>26.5</ele><time>2026-04-03T09:03:24Z</time></trkpt><trkpt lat="43.23737737684304" lon="3.1417930190536243"><ele>26.0</ele><time>2026-04-03T09:03:25Z</time></trkpt><trkpt lat="43.237572240149234" lon="3.1420895509652773"><ele>25.5</ele><time>2026-04-03T09:03:26Z</time></trkpt><trkpt lat="43.23776976092556" lon="3.142381618617772"><ele>25.0</ele><time>2026-04-03T09:03:27Z</time></trkpt><trkpt lat="43.23796788696825" lon="3.142672515933374"><ele>26.0</ele><time>2026-04-03T09:03:28Z</time></trkpt><trkpt lat="43.238172409905424" lon="3.142959640375462"><ele>27.0</ele><time>2026-04-03T09:03:29Z</time></trkpt><trkpt lat="43.23837558509043" lon="3.143243108673208"><ele>25.0</ele><time>2026-04-03T09:03:30Z</time></trkpt><trkpt lat="43.23858353779092" lon="3.143524221911361"><ele>23.0</ele><time>2026-04-03T09:03:31Z</time></trkpt><trkpt lat="43.238793077533224" lon="3.1438005883686526"><ele>23.0</ele><time>2026-04-03T09:03:32Z</time></trkpt><trkpt lat="43.23900336056845" lon="3.1440737718268563"><ele>23.0</ele><time>2026-04-03T09:03:33Z</time></trkpt><trkpt lat="43.23921446761783" lon="3.144345330783996"><ele>23.0</ele><time>2026-04-03T09:03:34Z</time></trkpt><trkpt lat="43.239431001847315" lon="3.144611798483787"><ele>23.0</ele><time>2026-04-03T09:03:35Z</time></trkpt><trkpt lat="43.239644325279286" lon="3.1448735724132653"><ele>21.0</ele><time>2026-04-03T09:03:36Z</time></trkpt><trkpt lat="43.239855028289135" lon="3.145129258817007"><ele>19.0</ele><time>2026-04-03T09:03:37Z</time></trkpt><trkpt lat="43.24007062217239" lon="3.145383667119815"><ele>19.0</ele><time>2026-04-03T09:03:38Z</time></trkpt><trkpt lat="43.2402876520499" lon="3.145635841199966"><ele>19.0</ele><time>2026-04-03T09:03:39Z</time></trkpt><trkpt lat="43.240506684165155" lon="3.145886940905735"><ele>15.5</ele><time>2026-04-03T09:03:40Z</time></trkpt><trkpt lat="43.240728435155425" lon="3.1461309129705826"><ele>12.0</ele><time>2026-04-03T09:03:41Z</time></trkpt><trkpt lat="43.24094866684389" lon="3.146368848512516"><ele>10.5</ele><time>2026-04-03T09:03:42Z</time></trkpt><trkpt lat="43.24116861972956" lon="3.146602130135959"><ele>9.0</ele><time>2026-04-03T09:03:43Z</time></trkpt><trkpt lat="43.241385942303076" lon="3.1468374987744707"><ele>8.5</ele><time>2026-04-03T09:03:44Z</time></trkpt><trkpt lat="43.24160527958526" lon="3.1470715957529203"><ele>8.0</ele><time>2026-04-03T09:03:45Z</time></trkpt><trkpt lat="43.24182522526345" lon="3.147304992328016"><ele>7.5</ele><time>2026-04-03T09:03:46Z</time></trkpt><trkpt lat="43.242045823433635" lon="3.1475375763237956"><ele>7.0</ele><time>2026-04-03T09:03:47Z</time></trkpt><trkpt lat="43.242267603560755" lon="3.147773265851863"><ele>7.0</ele><time>2026-04-03T09:03:48Z</time></trkpt><trkpt lat="43.24248979303265" lon="3.148009193506761"><ele>7.0</ele><time>2026-04-03T09:03:49Z</time></trkpt><trkpt lat="43.24271138311114" lon="3.1482463887275203"><ele>7.0</ele><time>2026-04-03T09:03:50Z</time></trkpt><trkpt lat="43.24293588462046" lon="3.148478095919016"><ele>7.0</ele><time>2026-04-03T09:03:51Z</time></trkpt><trkpt lat="43.243158832243786" lon="3.1487216333416477"><ele>7.0</ele><time>2026-04-03T09:03:52Z</time></trkpt><trkpt lat="43.24338412066985" lon="3.14895913620437"><ele>7.0</ele><time>2026-04-03T09:03:53Z</time></trkpt><trkpt lat="43.24360561812198" lon="3.1492023031614234"><ele>7.0</ele><time>2026-04-03T09:03:54Z</time></trkpt><trkpt lat="43.24382783183733" lon="3.149440323125071"><ele>7.0</ele><time>2026-04-03T09:03:55Z</time></trkpt><trkpt lat="43.24405107189802" lon="3.1496768401410242"><ele>7.5</ele><time>2026-04-03T09:03:56Z</time></trkpt><trkpt lat="43.244275867112975" lon="3.1499150993959373"><ele>8.0</ele><time>2026-04-03T09:03:57Z</time></trkpt><trkpt lat="43.24449383182973" lon="3.1501611398317038"><ele>8.0</ele><time>2026-04-03T09:03:58Z</time></trkpt><trkpt lat="43.24471226265536" lon="3.1504065217159627"><ele>8.0</ele><time>2026-04-03T09:03:59Z</time></trkpt><trkpt lat="43.24493103041645" lon="3.150654326805874"><ele>7.0</ele><time>2026-04-03T09:04:00Z</time></trkpt><trkpt lat="43.245151191674275" lon="3.1508987377952424"><ele>6.0</ele><time>2026-04-03T09:04:01Z</time></trkpt><trkpt lat="43.24537163435137" lon="3.151142405867551"><ele>6.0</ele><time>2026-04-03T09:04:02Z</time></trkpt><trkpt lat="43.245591935843684" lon="3.1513847470650544"><ele>6.0</ele><time>2026-04-03T09:04:03Z</time></trkpt><trkpt lat="43.2458171078397" lon="3.15161952793851"><ele>6.0</ele><time>2026-04-03T09:04:04Z</time></trkpt><trkpt lat="43.2460442068575" lon="3.1518526606275836"><ele>6.0</ele><time>2026-04-03T09:04:05Z</time></trkpt><trkpt lat="43.24627092392842" lon="3.1520946186908536"><ele>5.5</ele><time>2026-04-03T09:04:06Z</time></trkpt><trkpt lat="43.246495480536616" lon="3.152335201799161"><ele>5.0</ele><time>2026-04-03T09:04:07Z</time></trkpt><trkpt lat="43.246720660987364" lon="3.1525811437384137"><ele>6.0</ele><time>2026-04-03T09:04:08Z</time></trkpt><trkpt lat="43.24694729839166" lon="3.1528249059653146"><ele>7.0</ele><time>2026-04-03T09:04:09Z</time></trkpt><trkpt lat="43.247172611156564" lon="3.1530649554219186"><ele>6.5</ele><time>2026-04-03T09:04:10Z</time></trkpt><trkpt lat="43.247400673161685" lon="3.153306158600527"><ele>6.0</ele><time>2026-04-03T09:04:11Z</time></trkpt><trkpt lat="43.247623144265695" lon="3.1535468055404716"><ele>6.0</ele><time>2026-04-03T09:04:12Z</time></trkpt><trkpt lat="43.24784466485687" lon="3.153780984477336"><ele>6.0</ele><time>2026-04-03T09:04:13Z</time></trkpt><trkpt lat="43.24806911342709" lon="3.1540183913457174"><ele>7.0</ele><time>2026-04-03T09:04:14Z</time></trkpt><trkpt lat="43.24829462556975" lon="3.1542498483974764"><ele>8.0</ele><time>2026-04-03T09:04:15Z</time></trkpt><trkpt lat="43.24852153941447" lon="3.1544801347623266"><ele>8.0</ele><time>2026-04-03T09:04:16Z</time></trkpt><trkpt lat="43.248744446557396" lon="3.154708319747756"><ele>8.0</ele><time>2026-04-03T09:04:17Z</time></trkpt><trkpt lat="43.248965299096945" lon="3.1549398476881585"><ele>7.0</ele><time>2026-04-03T09:04:18Z</time></trkpt><trkpt lat="43.24918509061507" lon="3.1551725131940387"><ele>6.0</ele><time>2026-04-03T09:04:19Z</time></trkpt><trkpt lat="43.24940891564538" lon="3.155406362912127"><ele>6.0</ele><time>2026-04-03T09:04:20Z</time></trkpt><trkpt lat="43.24963019110349" lon="3.1556418048696813"><ele>6.0</ele><time>2026-04-03T09:04:21Z</time></trkpt><trkpt lat="43.24985139471769" lon="3.15587925184"><ele>6.0</ele><time>2026-04-03T09:04:22Z</time></trkpt><trkpt lat="43.25007412691803" lon="3.1561121620133177"><ele>6.0</ele><time>2026-04-03T09:04:23Z</time></trkpt><trkpt lat="43.25029436713131" lon="3.1563454855086017"><ele>6.0</ele><time>2026-04-03T09:04:24Z</time></trkpt><trkpt lat="43.250512005019225" lon="3.156585808431447"><ele>6.0</ele><time>2026-04-03T09:04:25Z</time></trkpt><trkpt lat="43.25073547671578" lon="3.1568253209413193"><ele>5.0</ele><time>2026-04-03T09:04:26Z</time></trkpt><trkpt lat="43.250955687725295" lon="3.157058973401716"><ele>4.0</ele><time>2026-04-03T09:04:27Z</time></trkpt><trkpt lat="43.25117764001653" lon="3.15729788603529"><ele>4.5</ele><time>2026-04-03T09:04:28Z</time></trkpt><trkpt lat="43.25139945962302" lon="3.157537785688222"><ele>5.0</ele><time>2026-04-03T09:04:29Z</time></trkpt><trkpt lat="43.25162540992464" lon="3.157772723144216"><ele>5.5</ele><time>2026-04-03T09:04:30Z</time></trkpt><trkpt lat="43.25184832090123" lon="3.1580125701384794"><ele>6.0</ele><time>2026-04-03T09:04:31Z</time></trkpt><trkpt lat="43.25207168244028" lon="3.1582549293927564"><ele>5.5</ele><time>2026-04-03T09:04:32Z</time></trkpt><trkpt lat="43.2522931531464" lon="3.1585012580167127"><ele>5.0</ele><time>2026-04-03T09:04:33Z</time></trkpt><trkpt lat="43.25251891345502" lon="3.158740812928973"><ele>5.0</ele><time>2026-04-03T09:04:34Z</time></trkpt><trkpt lat="43.252746084993795" lon="3.15898169312024"><ele>5.0</ele><time>2026-04-03T09:04:35Z</time></trkpt><trkpt lat="43.25296982349572" lon="3.1592245961348513"><ele>6.0</ele><time>2026-04-03T09:04:36Z</time></trkpt><trkpt lat="43.25319553059714" lon="3.1594708522480706"><ele>7.0</ele><time>2026-04-03T09:04:37Z</time></trkpt><trkpt lat="43.25341440630671" lon="3.159720755893152"><ele>6.0</ele><time>2026-04-03T09:04:38Z</time></trkpt><trkpt lat="43.25363487403551" lon="3.1599689524093457"><ele>5.0</ele><time>2026-04-03T09:04:39Z</time></trkpt><trkpt lat="43.25385444878216" lon="3.1602167819825135"><ele>6.0</ele><time>2026-04-03T09:04:40Z</time></trkpt><trkpt lat="43.25407683807587" lon="3.160459694291447"><ele>7.0</ele><time>2026-04-03T09:04:41Z</time></trkpt><trkpt lat="43.25429351664176" lon="3.160710733074486"><ele>7.5</ele><time>2026-04-03T09:04:42Z</time></trkpt><trkpt lat="43.25451257711516" lon="3.160965847458305"><ele>8.0</ele><time>2026-04-03T09:04:43Z</time></trkpt><trkpt lat="43.254731386376" lon="3.1612207648966533"><ele>8.0</ele><time>2026-04-03T09:04:44Z</time></trkpt><trkpt lat="43.25494834215765" lon="3.1614740865146476"><ele>8.0</ele><time>2026-04-03T09:04:45Z</time></trkpt><trkpt lat="43.255163024290894" lon="3.161735381223111"><ele>8.0</ele><time>2026-04-03T09:04:46Z</time></trkpt><trkpt lat="43.255377412606016" lon="3.161997542827863"><ele>8.0</ele><time>2026-04-03T09:04:47Z</time></trkpt><trkpt lat="43.25559089705739" lon="3.1622636469613923"><ele>12.5</ele><time>2026-04-03T09:04:48Z</time></trkpt><trkpt lat="43.25580085259652" lon="3.1625304276729556"><ele>17.0</ele><time>2026-04-03T09:04:49Z</time></trkpt><trkpt lat="43.25601227262507" lon="3.1628016586483962"><ele>17.0</ele><time>2026-04-03T09:04:50Z</time></trkpt><trkpt lat="43.256220731671654" lon="3.163072957277302"><ele>17.0</ele><time>2026-04-03T09:04:51Z</time></trkpt><trkpt lat="43.25642280845167" lon="3.163355687479011"><ele>18.0</ele><time>2026-04-03T09:04:52Z</time></trkpt><trkpt lat="43.256628668463904" lon="3.1636381876314656"><ele>19.0</ele><time>2026-04-03T09:04:53Z</time></trkpt><trkpt lat="43.25683281365356" lon="3.163923583692438"><ele>20.5</ele><time>2026-04-03T09:04:54Z</time></trkpt><trkpt lat="43.25703677607003" lon="3.1642064154480742"><ele>22.0</ele><time>2026-04-03T09:04:55Z</time></trkpt><trkpt lat="43.25723975406744" lon="3.1644931127532434"><ele>22.5</ele><time>2026-04-03T09:04:56Z</time></trkpt><trkpt lat="43.257441554778424" lon="3.164781888971841"><ele>23.0</ele><time>2026-04-03T09:04:57Z</time></trkpt><trkpt lat="43.25764425755125" lon="3.1650705061930604"><ele>24.0</ele><time>2026-04-03T09:04:58Z</time></trkpt><trkpt lat="43.25784829519489" lon="3.1653539876900054"><ele>25.0</ele><time>2026-04-03T09:04:59Z</time></trkpt><trkpt lat="43.25805027587017" lon="3.1656386819457327"><ele>26.0</ele><time>2026-04-03T09:05:00Z</time></trkpt><trkpt lat="43.258249055410396" lon="3.1659271210100415"><ele>27.0</ele><time>2026-04-03T09:05:01Z</time></trkpt><trkpt lat="43.25844734341274" lon="3.1662170728171537"><ele>27.0</ele><time>2026-04-03T09:05:02Z</time></trkpt><trkpt lat="43.2586440417603" lon="3.1665073542850326"><ele>27.0</ele><time>2026-04-03T09:05:03Z</time></trkpt><trkpt lat="43.258839735254135" lon="3.166795805473924"><ele>28.5</ele><time>2026-04-03T09:05:04Z</time></trkpt><trkpt lat="43.25903542055681" lon="3.1670814352333614"><ele>30.0</ele><time>2026-04-03T09:05:05Z</time></trkpt><trkpt lat="43.25923109765832" lon="3.1673651579497735"><ele>30.0</ele><time>2026-04-03T09:05:06Z</time></trkpt><trkpt lat="43.25942677002619" lon="3.1676487529570942"><ele>30.0</ele><time>2026-04-03T09:05:07Z</time></trkpt><trkpt lat="43.259622274278364" lon="3.1679322721134797"><ele>30.0</ele><time>2026-04-03T09:05:08Z</time></trkpt><trkpt lat="43.25981739141788" lon="3.168215041941308"><ele>30.0</ele><time>2026-04-03T09:05:09Z</time></trkpt><trkpt lat="43.26001393833079" lon="3.1684940366231604"><ele>30.0</ele><time>2026-04-03T09:05:10Z</time></trkpt><trkpt lat="43.26020805877166" lon="3.1687785039665974"><ele>30.0</ele><time>2026-04-03T09:05:11Z</time></trkpt><trkpt lat="43.26040531743148" lon="3.169056168176593"><ele>30.0</ele><time>2026-04-03T09:05:12Z</time></trkpt><trkpt lat="43.26060075775325" lon="3.1693350738704633"><ele>30.0</ele><time>2026-04-03T09:05:13Z</time></trkpt><trkpt lat="43.26079630810003" lon="3.1696157061051466"><ele>31.0</ele><time>2026-04-03T09:05:14Z</time></trkpt><trkpt lat="43.2609937347815" lon="3.1698935469730705"><ele>32.0</ele><time>2026-04-03T09:05:15Z</time></trkpt><trkpt lat="43.261191135299796" lon="3.1701706068779476"><ele>32.0</ele><time>2026-04-03T09:05:16Z</time></trkpt><trkpt lat="43.26139150827041" lon="3.170444431521222"><ele>32.0</ele><time>2026-04-03T09:05:17Z</time></trkpt><trkpt lat="43.26159044095271" lon="3.170716820818394"><ele>33.5</ele><time>2026-04-03T09:05:18Z</time></trkpt><trkpt lat="43.261790424513755" lon="3.1709800802487056"><ele>35.0</ele><time>2026-04-03T09:05:19Z</time></trkpt><trkpt lat="43.26199272403828" lon="3.171253760868372"><ele>36.0</ele><time>2026-04-03T09:05:20Z</time></trkpt><trkpt lat="43.2621960159624" lon="3.171525894729659"><ele>37.0</ele><time>2026-04-03T09:05:21Z</time></trkpt><trkpt lat="43.26240186726396" lon="3.1717921811240752"><ele>37.5</ele><time>2026-04-03T09:05:22Z</time></trkpt><trkpt lat="43.2626145920867" lon="3.1720575757314315"><ele>38.0</ele><time>2026-04-03T09:05:23Z</time></trkpt><trkpt lat="43.26282184265485" lon="3.1723304951075453"><ele>38.5</ele><time>2026-04-03T09:05:24Z</time></trkpt><trkpt lat="43.26303239272434" lon="3.172599837959911"><ele>39.0</ele><time>2026-04-03T09:05:25Z</time></trkpt><trkpt lat="43.26324468906016" lon="3.1728609548662616"><ele>39.0</ele><time>2026-04-03T09:05:26Z</time></trkpt><trkpt lat="43.263452749798255" lon="3.1731247327261953"><ele>39.0</ele><time>2026-04-03T09:05:27Z</time></trkpt><trkpt lat="43.26365596192268" lon="3.1733851423831485"><ele>39.0</ele><time>2026-04-03T09:05:28Z</time></trkpt><trkpt lat="43.26385821367528" lon="3.173633209695591"><ele>39.0</ele><time>2026-04-03T09:05:29Z</time></trkpt><trkpt lat="43.26406211964756" lon="3.1738771847288634"><ele>39.5</ele><time>2026-04-03T09:05:30Z</time></trkpt><trkpt lat="43.26426226365068" lon="3.174114029726803"><ele>40.0</ele><time>2026-04-03T09:05:31Z</time></trkpt><trkpt lat="43.264467308082764" lon="3.1743448773039007"><ele>40.0</ele><time>2026-04-03T09:05:32Z</time></trkpt><trkpt lat="43.264681018824284" lon="3.174570601815459"><ele>40.0</ele><time>2026-04-03T09:05:33Z</time></trkpt><trkpt lat="43.26489901003513" lon="3.1747951421346525"><ele>40.5</ele><time>2026-04-03T09:05:34Z</time></trkpt><trkpt lat="43.26511775955334" lon="3.175021898950442"><ele>41.0</ele><time>2026-04-03T09:05:35Z</time></trkpt><trkpt lat="43.265338134261846" lon="3.175249825076782"><ele>41.0</ele><time>2026-04-03T09:05:36Z</time></trkpt><trkpt lat="43.265552428754695" lon="3.1754792382113775"><ele>41.0</ele><time>2026-04-03T09:05:37Z</time></trkpt><trkpt lat="43.265769787666756" lon="3.175708054076659"><ele>42.5</ele><time>2026-04-03T09:05:38Z</time></trkpt><trkpt lat="43.26598617883315" lon="3.175938173078047"><ele>44.0</ele><time>2026-04-03T09:05:39Z</time></trkpt><trkpt lat="43.26620796624209" lon="3.1761637195428034"><ele>44.0</ele><time>2026-04-03T09:05:40Z</time></trkpt><trkpt lat="43.26642716533872" lon="3.176387841005314"><ele>44.0</ele><time>2026-04-03T09:05:41Z</time></trkpt><trkpt lat="43.26663964965762" lon="3.1766168449093106"><ele>43.5</ele><time>2026-04-03T09:05:42Z</time></trkpt><trkpt lat="43.26685163474462" lon="3.176850476800144"><ele>43.0</ele><time>2026-04-03T09:05:43Z</time></trkpt><trkpt lat="43.26706150457346" lon="3.1770820704862257"><ele>43.0</ele><time>2026-04-03T09:05:44Z</time></trkpt><trkpt lat="43.26727479775121" lon="3.177307960107303"><ele>43.0</ele><time>2026-04-03T09:05:45Z</time></trkpt><trkpt lat="43.26749978472805" lon="3.1775267806461773"><ele>44.5</ele><time>2026-04-03T09:05:46Z</time></trkpt><trkpt lat="43.26772758936996" lon="3.1777440108080985"><ele>46.0</ele><time>2026-04-03T09:05:47Z</time></trkpt><trkpt lat="43.26795823953382" lon="3.177958427504079"><ele>46.0</ele><time>2026-04-03T09:05:48Z</time></trkpt><trkpt lat="43.268194051666995" lon="3.1781684403911683"><ele>46.0</ele><time>2026-04-03T09:05:49Z</time></trkpt><trkpt lat="43.26843279891688" lon="3.1783766224582894"><ele>48.0</ele><time>2026-04-03T09:05:50Z</time></trkpt><trkpt lat="43.26867341195445" lon="3.1785846609633412"><ele>50.0</ele><time>2026-04-03T09:05:51Z</time></trkpt><trkpt lat="43.26891592764845" lon="3.178790514803752"><ele>51.5</ele><time>2026-04-03T09:05:52Z</time></trkpt><trkpt lat="43.26916196131196" lon="3.178988803261881"><ele>53.0</ele><time>2026-04-03T09:05:53Z</time></trkpt><trkpt lat="43.26941006299954" lon="3.1791919595193243"><ele>54.0</ele><time>2026-04-03T09:05:54Z</time></trkpt><trkpt lat="43.269659110697155" lon="3.179390552247792"><ele>55.0</ele><time>2026-04-03T09:05:55Z</time></trkpt><trkpt lat="43.26991122740069" lon="3.1795839605546083"><ele>56.0</ele><time>2026-04-03T09:05:56Z</time></trkpt><trkpt lat="43.27015969654992" lon="3.179777208840168"><ele>57.0</ele><time>2026-04-03T09:05:57Z</time></trkpt><trkpt lat="43.27041013674256" lon="3.1799650853441164"><ele>55.0</ele><time>2026-04-03T09:05:58Z</time></trkpt><trkpt lat="43.270663187584894" lon="3.180154721582004"><ele>53.0</ele><time>2026-04-03T09:05:59Z</time></trkpt><trkpt lat="43.270917277139276" lon="3.180334997711287"><ele>53.0</ele><time>2026-04-03T09:06:00Z</time></trkpt><trkpt lat="43.27117066545181" lon="3.180513559995896"><ele>53.0</ele><time>2026-04-03T09:06:01Z</time></trkpt><trkpt lat="43.271423273301274" lon="3.180689773311945"><ele>51.0</ele><time>2026-04-03T09:06:02Z</time></trkpt><trkpt lat="43.27167951240145" lon="3.180866298111371"><ele>49.0</ele><time>2026-04-03T09:06:03Z</time></trkpt><trkpt lat="43.27193481483768" lon="3.1810388067665887"><ele>49.0</ele><time>2026-04-03T09:06:04Z</time></trkpt><trkpt lat="43.2721938265505" lon="3.1812143824848778"><ele>49.0</ele><time>2026-04-03T09:06:05Z</time></trkpt><trkpt lat="43.272452323239015" lon="3.1813842682398064"><ele>49.5</ele><time>2026-04-03T09:06:06Z</time></trkpt><trkpt lat="43.272713953116515" lon="3.1815527938003796"><ele>50.0</ele><time>2026-04-03T09:06:07Z</time></trkpt><trkpt lat="43.27297665864437" lon="3.181716982387216"><ele>49.0</ele><time>2026-04-03T09:06:08Z</time></trkpt><trkpt lat="43.27324014036932" lon="3.1818786760164794"><ele>48.0</ele><time>2026-04-03T09:06:09Z</time></trkpt><trkpt lat="43.27350670156003" lon="3.1820393439307977"><ele>48.0</ele><time>2026-04-03T09:06:10Z</time></trkpt><trkpt lat="43.27377123210929" lon="3.18219479170691"><ele>48.0</ele><time>2026-04-03T09:06:11Z</time></trkpt><trkpt lat="43.274034438854216" lon="3.1823511367771933"><ele>46.5</ele><time>2026-04-03T09:06:12Z</time></trkpt><trkpt lat="43.27429637981749" lon="3.1825056671642167"><ele>45.0</ele><time>2026-04-03T09:06:13Z</time></trkpt><trkpt lat="43.27455898069226" lon="3.1826569085847454"><ele>43.0</ele><time>2026-04-03T09:06:14Z</time></trkpt><trkpt lat="43.27482275695124" lon="3.1828017314778796"><ele>41.0</ele><time>2026-04-03T09:06:15Z</time></trkpt><trkpt lat="43.275085490282144" lon="3.182944173609366"><ele>41.0</ele><time>2026-04-03T09:06:16Z</time></trkpt><trkpt lat="43.275349846250705" lon="3.1830863630126296"><ele>41.0</ele><time>2026-04-03T09:06:17Z</time></trkpt><trkpt lat="43.27561278253487" lon="3.1832282521324076"><ele>39.5</ele><time>2026-04-03T09:06:18Z</time></trkpt><trkpt lat="43.275878636509134" lon="3.1833682997862867"><ele>38.0</ele><time>2026-04-03T09:06:19Z</time></trkpt><trkpt lat="43.27614346064479" lon="3.183512658674458"><ele>38.0</ele><time>2026-04-03T09:06:20Z</time></trkpt><trkpt lat="43.27640972987817" lon="3.18365188749081"><ele>38.0</ele><time>2026-04-03T09:06:21Z</time></trkpt><trkpt lat="43.276674649781306" lon="3.183790371115687"><ele>38.0</ele><time>2026-04-03T09:06:22Z</time></trkpt><trkpt lat="43.27693969415786" lon="3.1839331191762277"><ele>38.0</ele><time>2026-04-03T09:06:23Z</time></trkpt><trkpt lat="43.2772076689005" lon="3.184079208527618"><ele>37.5</ele><time>2026-04-03T09:06:24Z</time></trkpt><trkpt lat="43.27747522132671" lon="3.184220913661517"><ele>37.0</ele><time>2026-04-03T09:06:25Z</time></trkpt><trkpt lat="43.27773770059898" lon="3.1843708366462247"><ele>37.0</ele><time>2026-04-03T09:06:26Z</time></trkpt><trkpt lat="43.2780012305479" lon="3.184523001676283"><ele>37.0</ele><time>2026-04-03T09:06:27Z</time></trkpt><trkpt lat="43.278266423835426" lon="3.1846769387678844"><ele>36.5</ele><time>2026-04-03T09:06:28Z</time></trkpt><trkpt lat="43.278531218125565" lon="3.1848227317091764"><ele>36.0</ele><time>2026-04-03T09:06:29Z</time></trkpt><trkpt lat="43.27880120606549" lon="3.1849684408722454"><ele>33.0</ele><time>2026-04-03T09:06:30Z</time></trkpt><trkpt lat="43.27907017729428" lon="3.185110292869686"><ele>30.0</ele><time>2026-04-03T09:06:31Z</time></trkpt><trkpt lat="43.27933739812197" lon="3.185250860896177"><ele>30.0</ele><time>2026-04-03T09:06:32Z</time></trkpt><trkpt lat="43.27960696494553" lon="3.1853963060571995"><ele>30.0</ele><time>2026-04-03T09:06:33Z</time></trkpt><trkpt lat="43.279875307940785" lon="3.1855398140406685"><ele>26.0</ele><time>2026-04-03T09:06:34Z</time></trkpt><trkpt lat="43.28014304883294" lon="3.1856796505452367"><ele>22.0</ele><time>2026-04-03T09:06:35Z</time></trkpt><trkpt lat="43.28041094128924" lon="3.1858175050148323"><ele>22.5</ele><time>2026-04-03T09:06:36Z</time></trkpt><trkpt lat="43.28067875329024" lon="3.1859576892158605"><ele>23.0</ele><time>2026-04-03T09:06:37Z</time></trkpt><trkpt lat="43.28094572490054" lon="3.186098079903267"><ele>23.0</ele><time>2026-04-03T09:06:38Z</time></trkpt><trkpt lat="43.281212292209766" lon="3.1862384946501496"><ele>23.0</ele><time>2026-04-03T09:06:39Z</time></trkpt><trkpt lat="43.28147834093577" lon="3.1863804571463765"><ele>20.5</ele><time>2026-04-03T09:06:40Z</time></trkpt><trkpt lat="43.28174202480866" lon="3.1865243098074183"><ele>18.0</ele><time>2026-04-03T09:06:41Z</time></trkpt><trkpt lat="43.28200648601229" lon="3.1866699105749254"><ele>19.0</ele><time>2026-04-03T09:06:42Z</time></trkpt><trkpt lat="43.28226975096407" lon="3.1868149457206534"><ele>20.0</ele><time>2026-04-03T09:06:43Z</time></trkpt><trkpt lat="43.28253370036322" lon="3.186960387683411"><ele>20.0</ele><time>2026-04-03T09:06:44Z</time></trkpt><trkpt lat="43.28279539436039" lon="3.187107378772036"><ele>20.0</ele><time>2026-04-03T09:06:45Z</time></trkpt><trkpt lat="43.2830581153939" lon="3.1872578863660377"><ele>20.0</ele><time>2026-04-03T09:06:46Z</time></trkpt><trkpt lat="43.28332011125194" lon="3.1874057245309024"><ele>20.0</ele><time>2026-04-03T09:06:47Z</time></trkpt><trkpt lat="43.28358132514869" lon="3.1875618832175365"><ele>20.0</ele><time>2026-04-03T09:06:48Z</time></trkpt><trkpt lat="43.28384175189878" lon="3.187717254344411"><ele>20.0</ele><time>2026-04-03T09:06:49Z</time></trkpt><trkpt lat="43.284101050197044" lon="3.187876081727043"><ele>20.0</ele><time>2026-04-03T09:06:50Z</time></trkpt><trkpt lat="43.28435973057179" lon="3.188036074109432"><ele>20.0</ele><time>2026-04-03T09:06:51Z</time></trkpt><trkpt lat="43.28461755559509" lon="3.188199050719821"><ele>22.0</ele><time>2026-04-03T09:06:52Z</time></trkpt><trkpt lat="43.28487636122849" lon="3.1883612309423324"><ele>24.0</ele><time>2026-04-03T09:06:53Z</time></trkpt><trkpt lat="43.28513264410387" lon="3.1885328763726855"><ele>24.0</ele><time>2026-04-03T09:06:54Z</time></trkpt><trkpt lat="43.28539058277311" lon="3.1887024608984835"><ele>24.0</ele><time>2026-04-03T09:06:55Z</time></trkpt><trkpt lat="43.28564242983163" lon="3.188881653576763"><ele>27.0</ele><time>2026-04-03T09:06:56Z</time></trkpt><trkpt lat="43.2858965186135" lon="3.189059181292834"><ele>30.0</ele><time>2026-04-03T09:06:57Z</time></trkpt><trkpt lat="43.286152023907576" lon="3.189234794805789"><ele>30.0</ele><time>2026-04-03T09:06:58Z</time></trkpt><trkpt lat="43.28640302957676" lon="3.1894203384912165"><ele>30.0</ele><time>2026-04-03T09:06:59Z</time></trkpt><trkpt lat="43.28665802054854" lon="3.1896071844944087"><ele>30.0</ele><time>2026-04-03T09:07:00Z</time></trkpt><trkpt lat="43.28690830627553" lon="3.1897950842875864"><ele>30.0</ele><time>2026-04-03T09:07:01Z</time></trkpt><trkpt lat="43.28715729126569" lon="3.189987283156369"><ele>30.5</ele><time>2026-04-03T09:07:02Z</time></trkpt><trkpt lat="43.287407922937746" lon="3.1901889783231145"><ele>31.0</ele><time>2026-04-03T09:07:03Z</time></trkpt><trkpt lat="43.287655071546915" lon="3.1903851596029114"><ele>31.0</ele><time>2026-04-03T09:07:04Z</time></trkpt><trkpt lat="43.2879013730549" lon="3.1905899700657225"><ele>31.0</ele><time>2026-04-03T09:07:05Z</time></trkpt><trkpt lat="43.288145895268926" lon="3.19079813991969"><ele>30.5</ele><time>2026-04-03T09:07:06Z</time></trkpt><trkpt lat="43.288388966058704" lon="3.1910030906049682"><ele>30.0</ele><time>2026-04-03T09:07:07Z</time></trkpt><trkpt lat="43.288629329213045" lon="3.191214907155233"><ele>30.0</ele><time>2026-04-03T09:07:08Z</time></trkpt><trkpt lat="43.28886866390929" lon="3.1914330669997515"><ele>30.0</ele><time>2026-04-03T09:07:09Z</time></trkpt><trkpt lat="43.28910141308503" lon="3.191651526978757"><ele>29.5</ele><time>2026-04-03T09:07:10Z</time></trkpt><trkpt lat="43.289335905153614" lon="3.1918691229627365"><ele>29.0</ele><time>2026-04-03T09:07:11Z</time></trkpt><trkpt lat="43.289571441640454" lon="3.1920885103791563"><ele>30.5</ele><time>2026-04-03T09:07:12Z</time></trkpt><trkpt lat="43.28980723099886" lon="3.1923065845697676"><ele>32.0</ele><time>2026-04-03T09:07:13Z</time></trkpt><trkpt lat="43.29004413403287" lon="3.192528760017619"><ele>32.0</ele><time>2026-04-03T09:07:14Z</time></trkpt><trkpt lat="43.290274494652415" lon="3.192756065394002"><ele>32.0</ele><time>2026-04-03T09:07:15Z</time></trkpt><trkpt lat="43.29050970601863" lon="3.192984039363615"><ele>32.5</ele><time>2026-04-03T09:07:16Z</time></trkpt><trkpt lat="43.290738669786805" lon="3.193214903705787"><ele>33.0</ele><time>2026-04-03T09:07:17Z</time></trkpt><trkpt lat="43.290967960854076" lon="3.1934495207849816"><ele>33.0</ele><time>2026-04-03T09:07:18Z</time></trkpt><trkpt lat="43.291196493729394" lon="3.1936874890356806"><ele>33.0</ele><time>2026-04-03T09:07:19Z</time></trkpt><trkpt lat="43.2914182043587" lon="3.193934025265554"><ele>33.0</ele><time>2026-04-03T09:07:20Z</time></trkpt><trkpt lat="43.29164197497797" lon="3.194175094628409"><ele>33.0</ele><time>2026-04-03T09:07:21Z</time></trkpt><trkpt lat="43.29186054135466" lon="3.194423687018586"><ele>33.0</ele><time>2026-04-03T09:07:22Z</time></trkpt><trkpt lat="43.29208086991731" lon="3.1946756960687273"><ele>33.0</ele><time>2026-04-03T09:07:23Z</time></trkpt><trkpt lat="43.29229756964406" lon="3.194930876583436"><ele>34.0</ele><time>2026-04-03T09:07:24Z</time></trkpt><trkpt lat="43.29251167379866" lon="3.195192373912086"><ele>35.0</ele><time>2026-04-03T09:07:25Z</time></trkpt><trkpt lat="43.29272140195779" lon="3.1954525695644054"><ele>35.5</ele><time>2026-04-03T09:07:26Z</time></trkpt><trkpt lat="43.2929287633292" lon="3.1957167098897545"><ele>36.0</ele><time>2026-04-03T09:07:27Z</time></trkpt><trkpt lat="43.29313625318691" lon="3.1959854737934132"><ele>37.0</ele><time>2026-04-03T09:07:28Z</time></trkpt><trkpt lat="43.29334140831109" lon="3.1962591631427335"><ele>38.0</ele><time>2026-04-03T09:07:29Z</time></trkpt><trkpt lat="43.29354482072345" lon="3.196531780343944"><ele>38.0</ele><time>2026-04-03T09:07:30Z</time></trkpt><trkpt lat="43.293750878576716" lon="3.196803795055239"><ele>38.0</ele><time>2026-04-03T09:07:31Z</time></trkpt><trkpt lat="43.293956399333595" lon="3.197079141698443"><ele>38.0</ele><time>2026-04-03T09:07:32Z</time></trkpt><trkpt lat="43.29415789055655" lon="3.1973560283508706"><ele>38.0</ele><time>2026-04-03T09:07:33Z</time></trkpt><trkpt lat="43.29435729549957" lon="3.197636202175741"><ele>38.0</ele><time>2026-04-03T09:07:34Z</time></trkpt><trkpt lat="43.294559767782346" lon="3.197907191824197"><ele>38.0</ele><time>2026-04-03T09:07:35Z</time></trkpt><trkpt lat="43.29475717540827" lon="3.198192878946551"><ele>39.0</ele><time>2026-04-03T09:07:36Z</time></trkpt><trkpt lat="43.294952653574995" lon="3.1984803253124747"><ele>40.0</ele><time>2026-04-03T09:07:37Z</time></trkpt><trkpt lat="43.2951434803177" lon="3.1987715235391754"><ele>40.0</ele><time>2026-04-03T09:07:38Z</time></trkpt><trkpt lat="43.29533610683212" lon="3.199063026952278"><ele>40.0</ele><time>2026-04-03T09:07:39Z</time></trkpt><trkpt lat="43.29552473365311" lon="3.1993591829941996"><ele>39.5</ele><time>2026-04-03T09:07:40Z</time></trkpt><trkpt lat="43.29571369021608" lon="3.1996567380517917"><ele>39.0</ele><time>2026-04-03T09:07:41Z</time></trkpt><trkpt lat="43.29589945221805" lon="3.199958333473509"><ele>38.5</ele><time>2026-04-03T09:07:42Z</time></trkpt><trkpt lat="43.29608473830152" lon="3.2002601519916007"><ele>38.0</ele><time>2026-04-03T09:07:43Z</time></trkpt><trkpt lat="43.29627024537638" lon="3.2005651394034604"><ele>38.0</ele><time>2026-04-03T09:07:44Z</time></trkpt><trkpt lat="43.29645243395975" lon="3.2008738895788333"><ele>38.0</ele><time>2026-04-03T09:07:45Z</time></trkpt><trkpt lat="43.29663554695358" lon="3.201187751641361"><ele>37.0</ele><time>2026-04-03T09:07:46Z</time></trkpt><trkpt lat="43.296813833130976" lon="3.201498860150724"><ele>36.0</ele><time>2026-04-03T09:07:47Z</time></trkpt><trkpt lat="43.29698662234815" lon="3.201813706786229"><ele>36.0</ele><time>2026-04-03T09:07:48Z</time></trkpt><trkpt lat="43.29716259746705" lon="3.202127999530281"><ele>36.0</ele><time>2026-04-03T09:07:49Z</time></trkpt><trkpt lat="43.29733528357079" lon="3.2024427220884175"><ele>38.5</ele><time>2026-04-03T09:07:50Z</time></trkpt><trkpt lat="43.297509341824934" lon="3.2027607339351643"><ele>41.0</ele><time>2026-04-03T09:07:51Z</time></trkpt><trkpt lat="43.29767169039451" lon="3.203076532941317"><ele>42.5</ele><time>2026-04-03T09:07:52Z</time></trkpt><trkpt lat="43.29783574892154" lon="3.203401375485775"><ele>44.0</ele><time>2026-04-03T09:07:53Z</time></trkpt><trkpt lat="43.29800012834455" lon="3.203724379714275"><ele>46.0</ele><time>2026-04-03T09:07:54Z</time></trkpt><trkpt lat="43.29816002815291" lon="3.2040503819487065"><ele>48.0</ele><time>2026-04-03T09:07:55Z</time></trkpt><trkpt lat="43.298319241998634" lon="3.204377352155016"><ele>48.0</ele><time>2026-04-03T09:07:56Z</time></trkpt><trkpt lat="43.298475341844714" lon="3.2047120800087443"><ele>48.0</ele><time>2026-04-03T09:07:57Z</time></trkpt><trkpt lat="43.298630606940705" lon="3.205047806287593"><ele>48.5</ele><time>2026-04-03T09:07:58Z</time></trkpt><trkpt lat="43.29878782325795" lon="3.205382445323631"><ele>49.0</ele><time>2026-04-03T09:07:59Z</time></trkpt><trkpt lat="43.29894053734513" lon="3.2057196767832328"><ele>49.0</ele><time>2026-04-03T09:08:00Z</time></trkpt><trkpt lat="43.299090038159534" lon="3.20605774961962"><ele>49.0</ele><time>2026-04-03T09:08:01Z</time></trkpt><trkpt lat="43.29923755998656" lon="3.2063953108610495"><ele>47.0</ele><time>2026-04-03T09:08:02Z</time></trkpt><trkpt lat="43.29938261401468" lon="3.2067393887976356"><ele>45.0</ele><time>2026-04-03T09:08:03Z</time></trkpt><trkpt lat="43.299526181937786" lon="3.2070786400666016"><ele>47.5</ele><time>2026-04-03T09:08:04Z</time></trkpt><trkpt lat="43.29966439736433" lon="3.2074178885350224"><ele>50.0</ele><time>2026-04-03T09:08:05Z</time></trkpt><trkpt lat="43.29980361578813" lon="3.2077633271834243"><ele>50.0</ele><time>2026-04-03T09:08:06Z</time></trkpt><trkpt lat="43.29993778960202" lon="3.2081040040048676"><ele>50.0</ele><time>2026-04-03T09:08:07Z</time></trkpt><trkpt lat="43.30006674449449" lon="3.208445400202721"><ele>48.0</ele><time>2026-04-03T09:08:08Z</time></trkpt><trkpt lat="43.300197431630295" lon="3.208791222538313"><ele>46.0</ele><time>2026-04-03T09:08:09Z</time></trkpt><trkpt lat="43.300327252513476" lon="3.209138326272156"><ele>46.0</ele><time>2026-04-03T09:08:10Z</time></trkpt><trkpt lat="43.30045656811241" lon="3.2094862359926335"><ele>46.0</ele><time>2026-04-03T09:08:11Z</time></trkpt><trkpt lat="43.30058801473284" lon="3.2098355363495945"><ele>46.0</ele><time>2026-04-03T09:08:12Z</time></trkpt><trkpt lat="43.30071794092039" lon="3.210191815436676"><ele>46.0</ele><time>2026-04-03T09:08:13Z</time></trkpt><trkpt lat="43.30084433842227" lon="3.210552499215808"><ele>45.0</ele><time>2026-04-03T09:08:14Z</time></trkpt><trkpt lat="43.30096700655322" lon="3.2109171471716236"><ele>44.0</ele><time>2026-04-03T09:08:15Z</time></trkpt><trkpt lat="43.30108629695382" lon="3.2112849747878953"><ele>43.0</ele><time>2026-04-03T09:08:16Z</time></trkpt><trkpt lat="43.301204898628775" lon="3.211657959120999"><ele>42.0</ele><time>2026-04-03T09:08:17Z</time></trkpt><trkpt lat="43.30132077459903" lon="3.2120372287013206"><ele>43.0</ele><time>2026-04-03T09:08:18Z</time></trkpt><trkpt lat="43.30143107137057" lon="3.21241303315106"><ele>44.0</ele><time>2026-04-03T09:08:19Z</time></trkpt><trkpt lat="43.3015400484116" lon="3.2127903272053824"><ele>42.5</ele><time>2026-04-03T09:08:20Z</time></trkpt><trkpt lat="43.30164516746928" lon="3.2131688568357313"><ele>41.0</ele><time>2026-04-03T09:08:21Z</time></trkpt><trkpt lat="43.301748820946926" lon="3.2135479366433573"><ele>41.0</ele><time>2026-04-03T09:08:22Z</time></trkpt><trkpt lat="43.30184920805208" lon="3.213925161686664"><ele>41.0</ele><time>2026-04-03T09:08:23Z</time></trkpt><trkpt lat="43.3019456503068" lon="3.2142966786609977"><ele>40.5</ele><time>2026-04-03T09:08:24Z</time></trkpt><trkpt lat="43.30203969892552" lon="3.214668271449173"><ele>40.0</ele><time>2026-04-03T09:08:25Z</time></trkpt><trkpt lat="43.30213314461943" lon="3.2150420029545583"><ele>39.0</ele><time>2026-04-03T09:08:26Z</time></trkpt><trkpt lat="43.30222487052757" lon="3.2154171824455062"><ele>38.0</ele><time>2026-04-03T09:08:27Z</time></trkpt><trkpt lat="43.30231135879488" lon="3.2157895319294494"><ele>38.0</ele><time>2026-04-03T09:08:28Z</time></trkpt><trkpt lat="43.30239731733849" lon="3.216163653879637"><ele>38.0</ele><time>2026-04-03T09:08:29Z</time></trkpt><trkpt lat="43.30248165507253" lon="3.216538390195583"><ele>38.0</ele><time>2026-04-03T09:08:30Z</time></trkpt><trkpt lat="43.3025637011658" lon="3.2169176847426146"><ele>38.0</ele><time>2026-04-03T09:08:31Z</time></trkpt><trkpt lat="43.302640488333395" lon="3.2172973186971965"><ele>38.0</ele><time>2026-04-03T09:08:32Z</time></trkpt><trkpt lat="43.30271122876712" lon="3.2176761314207587"><ele>38.0</ele><time>2026-04-03T09:08:33Z</time></trkpt><trkpt lat="43.30278035853725" lon="3.2180580638416596"><ele>38.0</ele><time>2026-04-03T09:08:34Z</time></trkpt><trkpt lat="43.30284615288887" lon="3.2184390199934"><ele>38.0</ele><time>2026-04-03T09:08:35Z</time></trkpt><trkpt lat="43.30290682456745" lon="3.218822008526047"><ele>39.5</ele><time>2026-04-03T09:08:36Z</time></trkpt><trkpt lat="43.302964169034446" lon="3.2192092615620216"><ele>41.0</ele><time>2026-04-03T09:08:37Z</time></trkpt><trkpt lat="43.303022067487085" lon="3.21959745210912"><ele>41.0</ele><time>2026-04-03T09:08:38Z</time></trkpt><trkpt lat="43.303076874395316" lon="3.219980265008805"><ele>41.0</ele><time>2026-04-03T09:08:39Z</time></trkpt><trkpt lat="43.3031350057822" lon="3.22036970664587"><ele>41.0</ele><time>2026-04-03T09:08:40Z</time></trkpt><trkpt lat="43.30319382329131" lon="3.2207569497179334"><ele>41.0</ele><time>2026-04-03T09:08:41Z</time></trkpt><trkpt lat="43.30325107839764" lon="3.221145347532901"><ele>39.5</ele><time>2026-04-03T09:08:42Z</time></trkpt><trkpt lat="43.303305571506456" lon="3.22153589169765"><ele>38.0</ele><time>2026-04-03T09:08:43Z</time></trkpt><trkpt lat="43.303357173296895" lon="3.2219256293715737"><ele>39.0</ele><time>2026-04-03T09:08:44Z</time></trkpt><trkpt lat="43.303408640081045" lon="3.222316858697172"><ele>40.0</ele><time>2026-04-03T09:08:45Z</time></trkpt><trkpt lat="43.30345827651492" lon="3.222709424432061"><ele>40.0</ele><time>2026-04-03T09:08:46Z</time></trkpt><trkpt lat="43.30350732461996" lon="3.223101745317219"><ele>40.0</ele><time>2026-04-03T09:08:47Z</time></trkpt><trkpt lat="43.30355786363073" lon="3.2234956496906313"><ele>40.5</ele><time>2026-04-03T09:08:48Z</time></trkpt><trkpt lat="43.303602602140856" lon="3.223886709721976"><ele>41.0</ele><time>2026-04-03T09:08:49Z</time></trkpt><trkpt lat="43.30365078803736" lon="3.224273397367867"><ele>41.0</ele><time>2026-04-03T09:08:50Z</time></trkpt><trkpt lat="43.3036976511888" lon="3.2246624114079276"><ele>41.0</ele><time>2026-04-03T09:08:51Z</time></trkpt><trkpt lat="43.303741580348536" lon="3.225052731698294"><ele>41.0</ele><time>2026-04-03T09:08:52Z</time></trkpt><trkpt lat="43.30378637390014" lon="3.2254422528188633"><ele>41.0</ele><time>2026-04-03T09:08:53Z</time></trkpt><trkpt lat="43.303838962023356" lon="3.2258362903786213"><ele>41.0</ele><time>2026-04-03T09:08:54Z</time></trkpt><trkpt lat="43.30388480125712" lon="3.2262248021817626"><ele>41.0</ele><time>2026-04-03T09:08:55Z</time></trkpt><trkpt lat="43.30392701510939" lon="3.2266133049253685"><ele>40.0</ele><time>2026-04-03T09:08:56Z</time></trkpt><trkpt lat="43.303971836933535" lon="3.2270021611140214"><ele>39.0</ele><time>2026-04-03T09:08:57Z</time></trkpt><trkpt lat="43.30401338677393" lon="3.227387146599868"><ele>38.5</ele><time>2026-04-03T09:08:58Z</time></trkpt><trkpt lat="43.30406075343508" lon="3.2277686807116956"><ele>38.0</ele><time>2026-04-03T09:08:59Z</time></trkpt><trkpt lat="43.3041052426606" lon="3.2281419657916683"><ele>38.0</ele><time>2026-04-03T09:09:00Z</time></trkpt><trkpt lat="43.30414609168553" lon="3.2285154830558938"><ele>38.0</ele><time>2026-04-03T09:09:01Z</time></trkpt><trkpt lat="43.304192610732926" lon="3.2288891135692346"><ele>38.0</ele><time>2026-04-03T09:09:02Z</time></trkpt><trkpt lat="43.30423851592219" lon="3.229254989004707"><ele>38.0</ele><time>2026-04-03T09:09:03Z</time></trkpt><trkpt lat="43.30428496709671" lon="3.229619559307543"><ele>37.0</ele><time>2026-04-03T09:09:04Z</time></trkpt><trkpt lat="43.304334618224" lon="3.2299884204583815"><ele>36.0</ele><time>2026-04-03T09:09:05Z</time></trkpt><trkpt lat="43.30438466787678" lon="3.2303598235928512"><ele>36.5</ele><time>2026-04-03T09:09:06Z</time></trkpt><trkpt lat="43.304439447668294" lon="3.230731935067281"><ele>37.0</ele><time>2026-04-03T09:09:07Z</time></trkpt><trkpt lat="43.30449497283551" lon="3.2311044869333108"><ele>37.0</ele><time>2026-04-03T09:09:08Z</time></trkpt><trkpt lat="43.304555449654124" lon="3.2314857181179866"><ele>37.0</ele><time>2026-04-03T09:09:09Z</time></trkpt><trkpt lat="43.30461912026479" lon="3.2318630156698784"><ele>37.0</ele><time>2026-04-03T09:09:10Z</time></trkpt><trkpt lat="43.304683505576456" lon="3.2322403364362815"><ele>37.0</ele><time>2026-04-03T09:09:11Z</time></trkpt><trkpt lat="43.304743389301606" lon="3.2326154070763"><ele>35.0</ele><time>2026-04-03T09:09:12Z</time></trkpt><trkpt lat="43.30480480482887" lon="3.232992068284465"><ele>33.0</ele><time>2026-04-03T09:09:13Z</time></trkpt><trkpt lat="43.304865970143354" lon="3.233371448733043"><ele>31.5</ele><time>2026-04-03T09:09:14Z</time></trkpt><trkpt lat="43.30492957041032" lon="3.2337514084487635"><ele>30.0</ele><time>2026-04-03T09:09:15Z</time></trkpt><trkpt lat="43.304999071526225" lon="3.2341315546743177"><ele>28.0</ele><time>2026-04-03T09:09:16Z</time></trkpt><trkpt lat="43.30506610751906" lon="3.2345015660674887"><ele>26.0</ele><time>2026-04-03T09:09:17Z</time></trkpt><trkpt lat="43.30513220851423" lon="3.2348726150062497"><ele>23.5</ele><time>2026-04-03T09:09:18Z</time></trkpt><trkpt lat="43.30520671001248" lon="3.2352448768865796"><ele>21.0</ele><time>2026-04-03T09:09:19Z</time></trkpt><trkpt lat="43.305275223321686" lon="3.235618819336465"><ele>19.5</ele><time>2026-04-03T09:09:20Z</time></trkpt><trkpt lat="43.30535451735012" lon="3.2359883366695334"><ele>18.0</ele><time>2026-04-03T09:09:21Z</time></trkpt><trkpt lat="43.305434656175514" lon="3.236366400189974"><ele>17.0</ele><time>2026-04-03T09:09:22Z</time></trkpt><trkpt lat="43.3055183390418" lon="3.2367405848500015"><ele>16.0</ele><time>2026-04-03T09:09:23Z</time></trkpt><trkpt lat="43.305598884688436" lon="3.237112046583856"><ele>15.0</ele><time>2026-04-03T09:09:24Z</time></trkpt><trkpt lat="43.30567774808483" lon="3.237486744953857"><ele>14.0</ele><time>2026-04-03T09:09:25Z</time></trkpt><trkpt lat="43.30575864020982" lon="3.2378592267437205"><ele>14.0</ele><time>2026-04-03T09:09:26Z</time></trkpt><trkpt lat="43.305845390130585" lon="3.238226844542512"><ele>14.0</ele><time>2026-04-03T09:09:27Z</time></trkpt><trkpt lat="43.305933804460736" lon="3.2385923643831838"><ele>14.0</ele><time>2026-04-03T09:09:28Z</time></trkpt><trkpt lat="43.30602523179005" lon="3.238961226360201"><ele>14.0</ele><time>2026-04-03T09:09:29Z</time></trkpt><trkpt lat="43.30611910472385" lon="3.2393253426789457"><ele>13.5</ele><time>2026-04-03T09:09:30Z</time></trkpt><trkpt lat="43.30621822271861" lon="3.2396932035999457"><ele>13.0</ele><time>2026-04-03T09:09:31Z</time></trkpt><trkpt lat="43.306318511421814" lon="3.2400556158865066"><ele>12.5</ele><time>2026-04-03T09:09:32Z</time></trkpt><trkpt lat="43.30642083556913" lon="3.2404174368170087"><ele>12.0</ele><time>2026-04-03T09:09:33Z</time></trkpt><trkpt lat="43.3065274910201" lon="3.2407824374609318"><ele>11.0</ele><time>2026-04-03T09:09:34Z</time></trkpt><trkpt lat="43.306633787215155" lon="3.2411385426261474"><ele>10.0</ele><time>2026-04-03T09:09:35Z</time></trkpt><trkpt lat="43.306744624931376" lon="3.2414990414204183"><ele>9.5</ele><time>2026-04-03T09:09:36Z</time></trkpt><trkpt lat="43.30685428462852" lon="3.2418583518014965"><ele>9.0</ele><time>2026-04-03T09:09:37Z</time></trkpt><trkpt lat="43.3069704212777" lon="3.242216028423455"><ele>8.5</ele><time>2026-04-03T09:09:38Z</time></trkpt><trkpt lat="43.307085255309914" lon="3.242575017766728"><ele>8.0</ele><time>2026-04-03T09:09:39Z</time></trkpt><trkpt lat="43.307202952803564" lon="3.2429263182493147"><ele>8.0</ele><time>2026-04-03T09:09:40Z</time></trkpt><trkpt lat="43.30732526772563" lon="3.2432852573679365"><ele>8.0</ele><time>2026-04-03T09:09:41Z</time></trkpt><trkpt lat="43.30744342411438" lon="3.243640321015827"><ele>9.0</ele><time>2026-04-03T09:09:42Z</time></trkpt><trkpt lat="43.30756716303895" lon="3.2439912180395885"><ele>10.0</ele><time>2026-04-03T09:09:43Z</time></trkpt><trkpt lat="43.30769555171078" lon="3.2443468549023433"><ele>10.0</ele><time>2026-04-03T09:09:44Z</time></trkpt><trkpt lat="43.307826032365796" lon="3.244693422853961"><ele>10.0</ele><time>2026-04-03T09:09:45Z</time></trkpt><trkpt lat="43.3079543683578" lon="3.245034448609444"><ele>10.5</ele><time>2026-04-03T09:09:46Z</time></trkpt><trkpt lat="43.30808575124442" lon="3.245380890709061"><ele>11.0</ele><time>2026-04-03T09:09:47Z</time></trkpt><trkpt lat="43.30822391393673" lon="3.2457296291546864"><ele>11.0</ele><time>2026-04-03T09:09:48Z</time></trkpt><trkpt lat="43.30835995994322" lon="3.2460730195030387"><ele>11.0</ele><time>2026-04-03T09:09:49Z</time></trkpt><trkpt lat="43.308498466676475" lon="3.246412743090478"><ele>10.5</ele><time>2026-04-03T09:09:50Z</time></trkpt><trkpt lat="43.30863776903013" lon="3.2467550519952972"><ele>10.0</ele><time>2026-04-03T09:09:51Z</time></trkpt><trkpt lat="43.308778141036115" lon="3.247092121160153"><ele>9.5</ele><time>2026-04-03T09:09:52Z</time></trkpt><trkpt lat="43.30892340585808" lon="3.2474277387453983"><ele>9.0</ele><time>2026-04-03T09:09:53Z</time></trkpt><trkpt lat="43.30906689786103" lon="3.2477580514084843"><ele>9.0</ele><time>2026-04-03T09:09:54Z</time></trkpt><trkpt lat="43.30921422819362" lon="3.24809239825672"><ele>9.0</ele><time>2026-04-03T09:09:55Z</time></trkpt><trkpt lat="43.30936350257646" lon="3.24842675957415"><ele>9.0</ele><time>2026-04-03T09:09:56Z</time></trkpt><trkpt lat="43.309511996328304" lon="3.2487585831456585"><ele>9.0</ele><time>2026-04-03T09:09:57Z</time></trkpt><trkpt lat="43.30966036044021" lon="3.249086591025089"><ele>9.5</ele><time>2026-04-03T09:09:58Z</time></trkpt><trkpt lat="43.30980862270276" lon="3.2494070618327875"><ele>10.0</ele><time>2026-04-03T09:09:59Z</time></trkpt><trkpt lat="43.309965976817764" lon="3.2497263275835597"><ele>10.0</ele><time>2026-04-03T09:10:00Z</time></trkpt><trkpt lat="43.31012388869101" lon="3.2500451689146552"><ele>10.0</ele><time>2026-04-03T09:10:01Z</time></trkpt><trkpt lat="43.31028249091168" lon="3.2503611481067374"><ele>9.5</ele><time>2026-04-03T09:10:02Z</time></trkpt><trkpt lat="43.3104414048052" lon="3.2506727208210586"><ele>9.0</ele><time>2026-04-03T09:10:03Z</time></trkpt><trkpt lat="43.310604441940455" lon="3.25098061814714"><ele>10.5</ele><time>2026-04-03T09:10:04Z</time></trkpt><trkpt lat="43.31076434818883" lon="3.2512837212180856"><ele>12.0</ele><time>2026-04-03T09:10:05Z</time></trkpt><trkpt lat="43.31092361952008" lon="3.2515870919776257"><ele>12.5</ele><time>2026-04-03T09:10:06Z</time></trkpt><trkpt lat="43.31108307522443" lon="3.2518850644153523"><ele>13.0</ele><time>2026-04-03T09:10:07Z</time></trkpt><trkpt lat="43.311247492534605" lon="3.252185152219049"><ele>11.5</ele><time>2026-04-03T09:10:08Z</time></trkpt><trkpt lat="43.31141181751721" lon="3.25247597809037"><ele>10.0</ele><time>2026-04-03T09:10:09Z</time></trkpt><trkpt lat="43.311572964625014" lon="3.2527687894564625"><ele>10.0</ele><time>2026-04-03T09:10:10Z</time></trkpt><trkpt lat="43.311733024085754" lon="3.2530590273079953"><ele>10.0</ele><time>2026-04-03T09:10:11Z</time></trkpt><trkpt lat="43.31190094859654" lon="3.2533440361808164"><ele>9.0</ele><time>2026-04-03T09:10:12Z</time></trkpt><trkpt lat="43.31206561117918" lon="3.2536259785844464"><ele>8.0</ele><time>2026-04-03T09:10:13Z</time></trkpt><trkpt lat="43.312233516691265" lon="3.253908760555094"><ele>9.5</ele><time>2026-04-03T09:10:14Z</time></trkpt><trkpt lat="43.312401913143844" lon="3.2541969834089475"><ele>11.0</ele><time>2026-04-03T09:10:15Z</time></trkpt><trkpt lat="43.312576291812306" lon="3.2544750225635455"><ele>11.0</ele><time>2026-04-03T09:10:16Z</time></trkpt><trkpt lat="43.312749718506005" lon="3.2547556245618163"><ele>11.0</ele><time>2026-04-03T09:10:17Z</time></trkpt><trkpt lat="43.31292650600723" lon="3.255029634736381"><ele>10.5</ele><time>2026-04-03T09:10:18Z</time></trkpt><trkpt lat="43.3131023775731" lon="3.2553058870574905"><ele>10.0</ele><time>2026-04-03T09:10:19Z</time></trkpt><trkpt lat="43.31327797861875" lon="3.2555809604281154"><ele>10.5</ele><time>2026-04-03T09:10:20Z</time></trkpt><trkpt lat="43.31345543994108" lon="3.2558584377371016"><ele>11.0</ele><time>2026-04-03T09:10:21Z</time></trkpt><trkpt lat="43.31363094153687" lon="3.2561339740412905"><ele>11.0</ele><time>2026-04-03T09:10:22Z</time></trkpt><trkpt lat="43.313814501194464" lon="3.2564055204241424"><ele>11.0</ele><time>2026-04-03T09:10:23Z</time></trkpt><trkpt lat="43.313996919518075" lon="3.256678145207977"><ele>11.0</ele><time>2026-04-03T09:10:24Z</time></trkpt><trkpt lat="43.31418456106004" lon="3.2569511159630147"><ele>11.0</ele><time>2026-04-03T09:10:25Z</time></trkpt><trkpt lat="43.314377897007056" lon="3.257222955457108"><ele>11.5</ele><time>2026-04-03T09:10:26Z</time></trkpt><trkpt lat="43.31457621371664" lon="3.257493369273212"><ele>12.0</ele><time>2026-04-03T09:10:27Z</time></trkpt><trkpt lat="43.31477073520746" lon="3.2577710920128564"><ele>12.0</ele><time>2026-04-03T09:10:28Z</time></trkpt><trkpt lat="43.3149653106777" lon="3.258049536942465"><ele>12.0</ele><time>2026-04-03T09:10:29Z</time></trkpt><trkpt lat="43.3151626998986" lon="3.258328527720727"><ele>12.5</ele><time>2026-04-03T09:10:30Z</time></trkpt><trkpt lat="43.31535925866019" lon="3.258612786347154"><ele>13.0</ele><time>2026-04-03T09:10:31Z</time></trkpt><trkpt lat="43.315553928079545" lon="3.2588959497705674"><ele>12.5</ele><time>2026-04-03T09:10:32Z</time></trkpt><trkpt lat="43.315749611314985" lon="3.259180346435327"><ele>12.0</ele><time>2026-04-03T09:10:33Z</time></trkpt><trkpt lat="43.31595009542727" lon="3.259461775263278"><ele>12.0</ele><time>2026-04-03T09:10:34Z</time></trkpt><trkpt lat="43.31614971799317" lon="3.259741192740659"><ele>12.0</ele><time>2026-04-03T09:10:35Z</time></trkpt><trkpt lat="43.3163510124175" lon="3.2600230459159123"><ele>11.0</ele><time>2026-04-03T09:10:36Z</time></trkpt><trkpt lat="43.316551111337" lon="3.260309726219723"><ele>10.0</ele><time>2026-04-03T09:10:37Z</time></trkpt><trkpt lat="43.31674442479351" lon="3.2605950468406917"><ele>9.5</ele><time>2026-04-03T09:10:38Z</time></trkpt><trkpt lat="43.31694356330184" lon="3.260881431593251"><ele>9.0</ele><time>2026-04-03T09:10:39Z</time></trkpt><trkpt lat="43.31713914489865" lon="3.2611715628548206"><ele>9.5</ele><time>2026-04-03T09:10:40Z</time></trkpt><trkpt lat="43.31733314491564" lon="3.261462480679195"><ele>10.0</ele><time>2026-04-03T09:10:41Z</time></trkpt><trkpt lat="43.31753368384225" lon="3.2617469249706583"><ele>10.0</ele><time>2026-04-03T09:10:42Z</time></trkpt><trkpt lat="43.31773649240833" lon="3.262030672925741"><ele>10.0</ele><time>2026-04-03T09:10:43Z</time></trkpt><trkpt lat="43.31793903351852" lon="3.262315174121677"><ele>10.5</ele><time>2026-04-03T09:10:44Z</time></trkpt><trkpt lat="43.318142422476974" lon="3.2625970971196008"><ele>11.0</ele><time>2026-04-03T09:10:45Z</time></trkpt><trkpt lat="43.318346283569376" lon="3.2628791477070527"><ele>10.5</ele><time>2026-04-03T09:10:46Z</time></trkpt><trkpt lat="43.318547073371356" lon="3.2631603101908184"><ele>10.0</ele><time>2026-04-03T09:10:47Z</time></trkpt><trkpt lat="43.318752125591374" lon="3.263438002070528"><ele>10.0</ele><time>2026-04-03T09:10:48Z</time></trkpt><trkpt lat="43.31895759658727" lon="3.263715805133295"><ele>10.0</ele><time>2026-04-03T09:10:49Z</time></trkpt><trkpt lat="43.31916204440301" lon="3.2639938992745976"><ele>10.0</ele><time>2026-04-03T09:10:50Z</time></trkpt><trkpt lat="43.319365095684454" lon="3.2642702183293166"><ele>10.0</ele><time>2026-04-03T09:10:51Z</time></trkpt><trkpt lat="43.319568185470054" lon="3.264548542940045"><ele>10.5</ele><time>2026-04-03T09:10:52Z</time></trkpt><trkpt lat="43.319767336366134" lon="3.264823953816173"><ele>11.0</ele><time>2026-04-03T09:10:53Z</time></trkpt><trkpt lat="43.31996952755911" lon="3.265102271803316"><ele>11.0</ele><time>2026-04-03T09:10:54Z</time></trkpt><trkpt lat="43.32017256472594" lon="3.2653844525529445"><ele>11.0</ele><time>2026-04-03T09:10:55Z</time></trkpt><trkpt lat="43.3203702651598" lon="3.2656644046829846"><ele>10.5</ele><time>2026-04-03T09:10:56Z</time></trkpt><trkpt lat="43.32056781470134" lon="3.2659431978703397"><ele>10.0</ele><time>2026-04-03T09:10:57Z</time></trkpt><trkpt lat="43.32076628099354" lon="3.266219961640987"><ele>10.5</ele><time>2026-04-03T09:10:58Z</time></trkpt><trkpt lat="43.3209653750436" lon="3.266498449013709"><ele>11.0</ele><time>2026-04-03T09:10:59Z</time></trkpt><trkpt lat="43.32116484806564" lon="3.266775222675738"><ele>11.0</ele><time>2026-04-03T09:11:00Z</time></trkpt><trkpt lat="43.32136612335315" lon="3.2670505606520996"><ele>11.0</ele><time>2026-04-03T09:11:01Z</time></trkpt><trkpt lat="43.32156309670354" lon="3.2673276246103033"><ele>12.5</ele><time>2026-04-03T09:11:02Z</time></trkpt><trkpt lat="43.32176199034764" lon="3.2676061830204888"><ele>14.0</ele><time>2026-04-03T09:11:03Z</time></trkpt><trkpt lat="43.321956873746615" lon="3.2678844218238785"><ele>13.5</ele><time>2026-04-03T09:11:04Z</time></trkpt><trkpt lat="43.322155082225464" lon="3.2681608798542237"><ele>13.0</ele><time>2026-04-03T09:11:05Z</time></trkpt><trkpt lat="43.32235228724482" lon="3.2684391418939835"><ele>13.0</ele><time>2026-04-03T09:11:06Z</time></trkpt><trkpt lat="43.32255008345027" lon="3.2687158907019973"><ele>13.0</ele><time>2026-04-03T09:11:07Z</time></trkpt><trkpt lat="43.3227502629869" lon="3.268993142378418"><ele>13.0</ele><time>2026-04-03T09:11:08Z</time></trkpt><trkpt lat="43.322946245999866" lon="3.2692729847665754"><ele>13.0</ele><time>2026-04-03T09:11:09Z</time></trkpt><trkpt lat="43.32314351747516" lon="3.2695527290651722"><ele>12.0</ele><time>2026-04-03T09:11:10Z</time></trkpt><trkpt lat="43.323345073412895" lon="3.2698226557724133"><ele>11.0</ele><time>2026-04-03T09:11:11Z</time></trkpt><trkpt lat="43.323549418914574" lon="3.270102419152394"><ele>11.0</ele><time>2026-04-03T09:11:12Z</time></trkpt><trkpt lat="43.323747309269784" lon="3.270385176275045"><ele>11.0</ele><time>2026-04-03T09:11:13Z</time></trkpt><trkpt lat="43.323952308262065" lon="3.2706641248048864"><ele>12.5</ele><time>2026-04-03T09:11:14Z</time></trkpt><trkpt lat="43.32415120640766" lon="3.270945205638285"><ele>14.0</ele><time>2026-04-03T09:11:15Z</time></trkpt><trkpt lat="43.324350073297396" lon="3.271223755718803"><ele>14.0</ele><time>2026-04-03T09:11:16Z</time></trkpt><trkpt lat="43.324550040344995" lon="3.2715021069942107"><ele>14.0</ele><time>2026-04-03T09:11:17Z</time></trkpt><trkpt lat="43.324750017085115" lon="3.271779510710651"><ele>14.0</ele><time>2026-04-03T09:11:18Z</time></trkpt><trkpt lat="43.32494809353302" lon="3.2720599921357203"><ele>14.0</ele><time>2026-04-03T09:11:19Z</time></trkpt><trkpt lat="43.32514658148503" lon="3.2723421273727635"><ele>13.5</ele><time>2026-04-03T09:11:20Z</time></trkpt><trkpt lat="43.32534120988395" lon="3.2726234680675064"><ele>13.0</ele><time>2026-04-03T09:11:21Z</time></trkpt><trkpt lat="43.32553473668742" lon="3.2729098579107556"><ele>14.5</ele><time>2026-04-03T09:11:22Z</time></trkpt><trkpt lat="43.32572939250914" lon="3.2731958314221314"><ele>16.0</ele><time>2026-04-03T09:11:23Z</time></trkpt><trkpt lat="43.32592321046627" lon="3.2734801545730217"><ele>16.0</ele><time>2026-04-03T09:11:24Z</time></trkpt><trkpt lat="43.326119517627" lon="3.273764057722564"><ele>16.0</ele><time>2026-04-03T09:11:25Z</time></trkpt><trkpt lat="43.32631812031097" lon="3.274046760704312"><ele>16.5</ele><time>2026-04-03T09:11:26Z</time></trkpt><trkpt lat="43.326517823227945" lon="3.2743296749292403"><ele>17.0</ele><time>2026-04-03T09:11:27Z</time></trkpt><trkpt lat="43.3267153989109" lon="3.274609354416448"><ele>16.0</ele><time>2026-04-03T09:11:28Z</time></trkpt><trkpt lat="43.32691463574002" lon="3.274889002293888"><ele>15.0</ele><time>2026-04-03T09:11:29Z</time></trkpt><trkpt lat="43.32711665712596" lon="3.275171509325022"><ele>17.0</ele><time>2026-04-03T09:11:30Z</time></trkpt><trkpt lat="43.32731539186204" lon="3.275453579144381"><ele>19.0</ele><time>2026-04-03T09:11:31Z</time></trkpt><trkpt lat="43.327515742659926" lon="3.275734479042263"><ele>19.5</ele><time>2026-04-03T09:11:32Z</time></trkpt><trkpt lat="43.327720351865025" lon="3.276014280607656"><ele>20.0</ele><time>2026-04-03T09:11:33Z</time></trkpt><trkpt lat="43.32791953280506" lon="3.276297487646771"><ele>20.0</ele><time>2026-04-03T09:11:34Z</time></trkpt><trkpt lat="43.32811979126631" lon="3.276581720646946"><ele>20.0</ele><time>2026-04-03T09:11:35Z</time></trkpt><trkpt lat="43.32831818292733" lon="3.276860976940942"><ele>20.0</ele><time>2026-04-03T09:11:36Z</time></trkpt><trkpt lat="43.32851257470207" lon="3.2771327548476887"><ele>20.0</ele><time>2026-04-03T09:11:37Z</time></trkpt><trkpt lat="43.3287088197591" lon="3.2774062474059598"><ele>20.5</ele><time>2026-04-03T09:11:38Z</time></trkpt><trkpt lat="43.32890066136589" lon="3.2776789873560928"><ele>21.0</ele><time>2026-04-03T09:11:39Z</time></trkpt><trkpt lat="43.32909025695292" lon="3.277946126009186"><ele>19.5</ele><time>2026-04-03T09:11:40Z</time></trkpt><trkpt lat="43.32928463402411" lon="3.2782114977152235"><ele>18.0</ele><time>2026-04-03T09:11:41Z</time></trkpt><trkpt lat="43.32947307526948" lon="3.2784780355066023"><ele>18.0</ele><time>2026-04-03T09:11:42Z</time></trkpt><trkpt lat="43.32967031945325" lon="3.2787449616152897"><ele>18.0</ele><time>2026-04-03T09:11:43Z</time></trkpt><trkpt lat="43.32987263361769" lon="3.279008122975348"><ele>20.0</ele><time>2026-04-03T09:11:44Z</time></trkpt><trkpt lat="43.330073313494694" lon="3.2792773016818404"><ele>22.0</ele><time>2026-04-03T09:11:45Z</time></trkpt><trkpt lat="43.33027415230001" lon="3.279547808967582"><ele>22.5</ele><time>2026-04-03T09:11:46Z</time></trkpt><trkpt lat="43.33047501494056" lon="3.2798218496492373"><ele>23.0</ele><time>2026-04-03T09:11:47Z</time></trkpt><trkpt lat="43.330674803784326" lon="3.280097361236968"><ele>24.0</ele><time>2026-04-03T09:11:48Z</time></trkpt><trkpt lat="43.33087362001026" lon="3.2803748459036197"><ele>25.0</ele><time>2026-04-03T09:11:49Z</time></trkpt><trkpt lat="43.33107468192378" lon="3.2806545675086647"><ele>25.0</ele><time>2026-04-03T09:11:50Z</time></trkpt><trkpt lat="43.33127728850557" lon="3.2809329929071187"><ele>25.0</ele><time>2026-04-03T09:11:51Z</time></trkpt><trkpt lat="43.3314810575954" lon="3.2812171419874603"><ele>26.5</ele><time>2026-04-03T09:11:52Z</time></trkpt><trkpt lat="43.33168343835442" lon="3.2815026123182043"><ele>28.0</ele><time>2026-04-03T09:11:53Z</time></trkpt><trkpt lat="43.331886496312634" lon="3.2817893872217785"><ele>28.0</ele><time>2026-04-03T09:11:54Z</time></trkpt><trkpt lat="43.33208329519041" lon="3.282079076415382"><ele>28.0</ele><time>2026-04-03T09:11:55Z</time></trkpt><trkpt lat="43.33228052738407" lon="3.2823703224163285"><ele>29.5</ele><time>2026-04-03T09:11:56Z</time></trkpt><trkpt lat="43.33247151402941" lon="3.2826603552650693"><ele>31.0</ele><time>2026-04-03T09:11:57Z</time></trkpt><trkpt lat="43.332672660014154" lon="3.282951908076888"><ele>31.5</ele><time>2026-04-03T09:11:58Z</time></trkpt><trkpt lat="43.33287340282887" lon="3.2832417745372915"><ele>32.0</ele><time>2026-04-03T09:11:59Z</time></trkpt><trkpt lat="43.33307624265771" lon="3.2835303909109173"><ele>32.0</ele><time>2026-04-03T09:12:00Z</time></trkpt><trkpt lat="43.33328038777768" lon="3.2838225818478013"><ele>32.0</ele><time>2026-04-03T09:12:01Z</time></trkpt><trkpt lat="43.33347744491938" lon="3.284111640361118"><ele>32.5</ele><time>2026-04-03T09:12:02Z</time></trkpt><trkpt lat="43.333675659163376" lon="3.2844062318727745"><ele>33.0</ele><time>2026-04-03T09:12:03Z</time></trkpt><trkpt lat="43.33387748254003" lon="3.28469635378129"><ele>33.0</ele><time>2026-04-03T09:12:04Z</time></trkpt><trkpt lat="43.33407564094539" lon="3.2849952063859877"><ele>33.0</ele><time>2026-04-03T09:12:05Z</time></trkpt><trkpt lat="43.33426941454806" lon="3.2852883138177376"><ele>33.0</ele><time>2026-04-03T09:12:06Z</time></trkpt><trkpt lat="43.33446234754569" lon="3.2855853444461474"><ele>33.0</ele><time>2026-04-03T09:12:07Z</time></trkpt><trkpt lat="43.33465065576899" lon="3.28588332660354"><ele>33.0</ele><time>2026-04-03T09:12:08Z</time></trkpt><trkpt lat="43.334839281325" lon="3.2861803844607613"><ele>33.0</ele><time>2026-04-03T09:12:09Z</time></trkpt><trkpt lat="43.33502619849184" lon="3.286483527197147"><ele>34.5</ele><time>2026-04-03T09:12:10Z</time></trkpt><trkpt lat="43.335208539223906" lon="3.286785931596498"><ele>36.0</ele><time>2026-04-03T09:12:11Z</time></trkpt><trkpt lat="43.335382696881965" lon="3.287092054462159"><ele>36.5</ele><time>2026-04-03T09:12:12Z</time></trkpt><trkpt lat="43.335560493492004" lon="3.2873940925893512"><ele>37.0</ele><time>2026-04-03T09:12:13Z</time></trkpt><trkpt lat="43.335734185864744" lon="3.287711402914671"><ele>37.0</ele><time>2026-04-03T09:12:14Z</time></trkpt><trkpt lat="43.33590454333013" lon="3.288022787514706"><ele>37.0</ele><time>2026-04-03T09:12:15Z</time></trkpt><trkpt lat="43.33607528765818" lon="3.2883425479732176"><ele>36.0</ele><time>2026-04-03T09:12:16Z</time></trkpt><trkpt lat="43.3362362340934" lon="3.288664356064584"><ele>35.0</ele><time>2026-04-03T09:12:17Z</time></trkpt><trkpt lat="43.336399398042644" lon="3.2889867067522083"><ele>37.0</ele><time>2026-04-03T09:12:18Z</time></trkpt><trkpt lat="43.3365609965224" lon="3.2893135602408616"><ele>39.0</ele><time>2026-04-03T09:12:19Z</time></trkpt><trkpt lat="43.3367169782937" lon="3.2896411285299507"><ele>38.0</ele><time>2026-04-03T09:12:20Z</time></trkpt><trkpt lat="43.3368627024496" lon="3.289972223333247"><ele>37.0</ele><time>2026-04-03T09:12:21Z</time></trkpt><trkpt lat="43.33700991990965" lon="3.2903065686599335"><ele>38.5</ele><time>2026-04-03T09:12:22Z</time></trkpt><trkpt lat="43.33715802565072" lon="3.290640942243318"><ele>40.0</ele><time>2026-04-03T09:12:23Z</time></trkpt><trkpt lat="43.337295694441636" lon="3.290976595747662"><ele>41.0</ele><time>2026-04-03T09:12:24Z</time></trkpt><trkpt lat="43.33743881365804" lon="3.291317450102382"><ele>42.0</ele><time>2026-04-03T09:12:25Z</time></trkpt><trkpt lat="43.33757737995142" lon="3.2916586707807802"><ele>42.0</ele><time>2026-04-03T09:12:26Z</time></trkpt><trkpt lat="43.33771131339622" lon="3.292004283817017"><ele>42.0</ele><time>2026-04-03T09:12:27Z</time></trkpt><trkpt lat="43.33783993893316" lon="3.29235139344298"><ele>42.0</ele><time>2026-04-03T09:12:28Z</time></trkpt><trkpt lat="43.33797169191938" lon="3.2926943673261517"><ele>42.0</ele><time>2026-04-03T09:12:29Z</time></trkpt><trkpt lat="43.33809991533253" lon="3.2930425573639246"><ele>42.0</ele><time>2026-04-03T09:12:30Z</time></trkpt><trkpt lat="43.33822746971663" lon="3.293396740605918"><ele>42.0</ele><time>2026-04-03T09:12:31Z</time></trkpt><trkpt lat="43.338351079347866" lon="3.293749484600034"><ele>42.0</ele><time>2026-04-03T09:12:32Z</time></trkpt><trkpt lat="43.33847032161482" lon="3.294101761201462"><ele>42.0</ele><time>2026-04-03T09:12:33Z</time></trkpt><trkpt lat="43.33858580207161" lon="3.294455089190203"><ele>41.0</ele><time>2026-04-03T09:12:34Z</time></trkpt><trkpt lat="43.338696083262754" lon="3.2948141873187127"><ele>40.0</ele><time>2026-04-03T09:12:35Z</time></trkpt><trkpt lat="43.338805343902315" lon="3.295184680380269"><ele>40.0</ele><time>2026-04-03T09:12:36Z</time></trkpt><trkpt lat="43.338907139272365" lon="3.295553160154834"><ele>40.0</ele><time>2026-04-03T09:12:37Z</time></trkpt><trkpt lat="43.339004056933014" lon="3.295921608749182"><ele>40.0</ele><time>2026-04-03T09:12:38Z</time></trkpt><trkpt lat="43.33909981015427" lon="3.2962951062482038"><ele>40.0</ele><time>2026-04-03T09:12:39Z</time></trkpt><trkpt lat="43.33918690519246" lon="3.2966680889766495"><ele>40.0</ele><time>2026-04-03T09:12:40Z</time></trkpt><trkpt lat="43.339276577760415" lon="3.297046402199461"><ele>40.0</ele><time>2026-04-03T09:12:41Z</time></trkpt><trkpt lat="43.33936575001984" lon="3.297418902891051"><ele>40.0</ele><time>2026-04-03T09:12:42Z</time></trkpt><trkpt lat="43.33945916325063" lon="3.297795009648514"><ele>40.0</ele><time>2026-04-03T09:12:43Z</time></trkpt><trkpt lat="43.33954914003354" lon="3.2981667980602656"><ele>40.0</ele><time>2026-04-03T09:12:44Z</time></trkpt><trkpt lat="43.339637867234174" lon="3.298543356491103"><ele>40.0</ele><time>2026-04-03T09:12:45Z</time></trkpt><trkpt lat="43.339725332934655" lon="3.2989172200749115"><ele>38.5</ele><time>2026-04-03T09:12:46Z</time></trkpt><trkpt lat="43.33981596192925" lon="3.299295229640764"><ele>37.0</ele><time>2026-04-03T09:12:47Z</time></trkpt><trkpt lat="43.339903997510284" lon="3.299675298390698"><ele>37.5</ele><time>2026-04-03T09:12:48Z</time></trkpt><trkpt lat="43.339988660706396" lon="3.3000532363860158"><ele>38.0</ele><time>2026-04-03T09:12:49Z</time></trkpt><trkpt lat="43.34007950754249" lon="3.300429330242764"><ele>38.0</ele><time>2026-04-03T09:12:50Z</time></trkpt><trkpt lat="43.34016736610792" lon="3.3008047881137674"><ele>38.0</ele><time>2026-04-03T09:12:51Z</time></trkpt><trkpt lat="43.34025473863879" lon="3.301182435907088"><ele>38.5</ele><time>2026-04-03T09:12:52Z</time></trkpt><trkpt lat="43.340345140194756" lon="3.3015613474223073"><ele>39.0</ele><time>2026-04-03T09:12:53Z</time></trkpt><trkpt lat="43.34043179741095" lon="3.3019401448407515"><ele>39.0</ele><time>2026-04-03T09:12:54Z</time></trkpt><trkpt lat="43.34052130910588" lon="3.3023167429082045"><ele>39.0</ele><time>2026-04-03T09:12:55Z</time></trkpt><trkpt lat="43.34060737168122" lon="3.302690198508813"><ele>40.0</ele><time>2026-04-03T09:12:56Z</time></trkpt><trkpt lat="43.34069583849264" lon="3.303072453031532"><ele>41.0</ele><time>2026-04-03T09:12:57Z</time></trkpt><trkpt lat="43.34078336287512" lon="3.3034485978606765"><ele>41.5</ele><time>2026-04-03T09:12:58Z</time></trkpt><trkpt lat="43.34087049983661" lon="3.303826724318575"><ele>42.0</ele><time>2026-04-03T09:12:59Z</time></trkpt><trkpt lat="43.34095777422789" lon="3.304197259552074"><ele>42.0</ele><time>2026-04-03T09:13:00Z</time></trkpt><trkpt lat="43.3410432512006" lon="3.3045604984543013"><ele>42.0</ele><time>2026-04-03T09:13:01Z</time></trkpt><trkpt lat="43.3411297473833" lon="3.3049321393253437"><ele>42.5</ele><time>2026-04-03T09:13:02Z</time></trkpt><trkpt lat="43.34121650713291" lon="3.3053045246006514"><ele>43.0</ele><time>2026-04-03T09:13:03Z</time></trkpt><trkpt lat="43.34130296050051" lon="3.3056731437939026"><ele>44.0</ele><time>2026-04-03T09:13:04Z</time></trkpt><trkpt lat="43.34139538462946" lon="3.306046271387359"><ele>45.0</ele><time>2026-04-03T09:13:05Z</time></trkpt><trkpt lat="43.3414841284284" lon="3.3064150402440897"><ele>45.0</ele><time>2026-04-03T09:13:06Z</time></trkpt><trkpt lat="43.34157463447791" lon="3.3067849321115084"><ele>45.0</ele><time>2026-04-03T09:13:07Z</time></trkpt><trkpt lat="43.341661374400694" lon="3.3071449601970837"><ele>45.0</ele><time>2026-04-03T09:13:08Z</time></trkpt><trkpt lat="43.34175276824847" lon="3.3075174190823815"><ele>45.0</ele><time>2026-04-03T09:13:09Z</time></trkpt><trkpt lat="43.34184188976108" lon="3.307882936636136"><ele>45.5</ele><time>2026-04-03T09:13:10Z</time></trkpt><trkpt lat="43.34193134374998" lon="3.30825034571823"><ele>46.0</ele><time>2026-04-03T09:13:11Z</time></trkpt><trkpt lat="43.34202587076016" lon="3.308625308703071"><ele>46.0</ele><time>2026-04-03T09:13:12Z</time></trkpt><trkpt lat="43.342121051569464" lon="3.3089973239026813"><ele>46.0</ele><time>2026-04-03T09:13:13Z</time></trkpt><trkpt lat="43.342207595786824" lon="3.3093682953824737"><ele>45.5</ele><time>2026-04-03T09:13:14Z</time></trkpt><trkpt lat="43.34229582593165" lon="3.309740899799924"><ele>45.0</ele><time>2026-04-03T09:13:15Z</time></trkpt><trkpt lat="43.34238388622806" lon="3.3101144242561253"><ele>45.0</ele><time>2026-04-03T09:13:16Z</time></trkpt><trkpt lat="43.342472330569" lon="3.3104875053490113"><ele>45.0</ele><time>2026-04-03T09:13:17Z</time></trkpt><trkpt lat="43.34255848048407" lon="3.3108657189570905"><ele>45.0</ele><time>2026-04-03T09:13:18Z</time></trkpt><trkpt lat="43.34263692653621" lon="3.3112427487572726"><ele>45.0</ele><time>2026-04-03T09:13:19Z</time></trkpt><trkpt lat="43.34271352647957" lon="3.311625397282468"><ele>45.0</ele><time>2026-04-03T09:13:20Z</time></trkpt><trkpt lat="43.34278701002536" lon="3.312007443465397"><ele>45.0</ele><time>2026-04-03T09:13:21Z</time></trkpt><trkpt lat="43.34286388820595" lon="3.312390835304049"><ele>45.0</ele><time>2026-04-03T09:13:22Z</time></trkpt><trkpt lat="43.34293721144064" lon="3.312770729326316"><ele>45.0</ele><time>2026-04-03T09:13:23Z</time></trkpt><trkpt lat="43.34301624899899" lon="3.3131493573151087"><ele>43.5</ele><time>2026-04-03T09:13:24Z</time></trkpt><trkpt lat="43.34309959244281" lon="3.313524135220908"><ele>42.0</ele><time>2026-04-03T09:13:25Z</time></trkpt><trkpt lat="43.34318480106265" lon="3.3138961757899073"><ele>41.5</ele><time>2026-04-03T09:13:26Z</time></trkpt><trkpt lat="43.34327176732265" lon="3.314264582255906"><ele>41.0</ele><time>2026-04-03T09:13:27Z</time></trkpt><trkpt lat="43.34335583600571" lon="3.3146370698033403"><ele>40.5</ele><time>2026-04-03T09:13:28Z</time></trkpt><trkpt lat="43.343440604890105" lon="3.315009846776709"><ele>40.0</ele><time>2026-04-03T09:13:29Z</time></trkpt><trkpt lat="43.34352680734169" lon="3.3153789288462705"><ele>40.0</ele><time>2026-04-03T09:13:30Z</time></trkpt><trkpt lat="43.34361220586027" lon="3.315747114276821"><ele>40.0</ele><time>2026-04-03T09:13:31Z</time></trkpt><trkpt lat="43.3436977423969" lon="3.3161146171882967"><ele>38.5</ele><time>2026-04-03T09:13:32Z</time></trkpt><trkpt lat="43.34378453199271" lon="3.3164837433255006"><ele>37.0</ele><time>2026-04-03T09:13:33Z</time></trkpt><trkpt lat="43.34386806408982" lon="3.3168519420076477"><ele>38.0</ele><time>2026-04-03T09:13:34Z</time></trkpt><trkpt lat="43.34394983368735" lon="3.317218673475663"><ele>39.0</ele><time>2026-04-03T09:13:35Z</time></trkpt><trkpt lat="43.344033453384235" lon="3.3175795453442145"><ele>39.0</ele><time>2026-04-03T09:13:36Z</time></trkpt><trkpt lat="43.344118715522995" lon="3.317941139400431"><ele>39.0</ele><time>2026-04-03T09:13:37Z</time></trkpt><trkpt lat="43.344202944278095" lon="3.31830712381104"><ele>39.5</ele><time>2026-04-03T09:13:38Z</time></trkpt><trkpt lat="43.34428810745666" lon="3.318670478038357"><ele>40.0</ele><time>2026-04-03T09:13:39Z</time></trkpt><trkpt lat="43.34437559157111" lon="3.3190349467380686"><ele>40.0</ele><time>2026-04-03T09:13:40Z</time></trkpt><trkpt lat="43.344463718792845" lon="3.319404258110423"><ele>40.0</ele><time>2026-04-03T09:13:41Z</time></trkpt><trkpt lat="43.3445510601738" lon="3.3197671991526247"><ele>40.5</ele><time>2026-04-03T09:13:42Z</time></trkpt><trkpt lat="43.344632859135075" lon="3.3201342351351033"><ele>41.0</ele><time>2026-04-03T09:13:43Z</time></trkpt><trkpt lat="43.344713875110095" lon="3.320498503280257"><ele>43.0</ele><time>2026-04-03T09:13:44Z</time></trkpt><trkpt lat="43.3448019900718" lon="3.320856653847145"><ele>45.0</ele><time>2026-04-03T09:13:45Z</time></trkpt><trkpt lat="43.34489230930304" lon="3.32121897505886"><ele>44.5</ele><time>2026-04-03T09:13:46Z</time></trkpt><trkpt lat="43.34498740779389" lon="3.321578076822963"><ele>44.0</ele><time>2026-04-03T09:13:47Z</time></trkpt><trkpt lat="43.345086835813035" lon="3.3219370998908238"><ele>43.5</ele><time>2026-04-03T09:13:48Z</time></trkpt><trkpt lat="43.3451817645747" lon="3.322295641890495"><ele>43.0</ele><time>2026-04-03T09:13:49Z</time></trkpt><trkpt lat="43.3452764546289" lon="3.3226526928963804"><ele>43.0</ele><time>2026-04-03T09:13:50Z</time></trkpt><trkpt lat="43.34538047711484" lon="3.3230096977432364"><ele>43.0</ele><time>2026-04-03T09:13:51Z</time></trkpt><trkpt lat="43.345488894712055" lon="3.3233644407540277"><ele>42.0</ele><time>2026-04-03T09:13:52Z</time></trkpt><trkpt lat="43.34559781876768" lon="3.3237153917958993"><ele>41.0</ele><time>2026-04-03T09:13:53Z</time></trkpt><trkpt lat="43.34570862991235" lon="3.3240641044229404"><ele>41.0</ele><time>2026-04-03T09:13:54Z</time></trkpt><trkpt lat="43.345824420716966" lon="3.324413100821777"><ele>41.0</ele><time>2026-04-03T09:13:55Z</time></trkpt><trkpt lat="43.34594480166053" lon="3.324757538293208"><ele>41.0</ele><time>2026-04-03T09:13:56Z</time></trkpt><trkpt lat="43.346070492253205" lon="3.3250951785888314"><ele>41.0</ele><time>2026-04-03T09:13:57Z</time></trkpt><trkpt lat="43.346199727045246" lon="3.3254306189863936"><ele>40.5</ele><time>2026-04-03T09:13:58Z</time></trkpt><trkpt lat="43.34633257997086" lon="3.3257649176928163"><ele>40.0</ele><time>2026-04-03T09:13:59Z</time></trkpt><trkpt lat="43.3464715309485" lon="3.32609273244019"><ele>37.5</ele><time>2026-04-03T09:14:00Z</time></trkpt><trkpt lat="43.34660892387664" lon="3.3264162935718367"><ele>35.0</ele><time>2026-04-03T09:14:01Z</time></trkpt><trkpt lat="43.346747826199014" lon="3.326738135482757"><ele>35.0</ele><time>2026-04-03T09:14:02Z</time></trkpt><trkpt lat="43.346885030586" lon="3.3270580777606837"><ele>35.0</ele><time>2026-04-03T09:14:03Z</time></trkpt><trkpt lat="43.347032167362585" lon="3.3273746527179773"><ele>34.5</ele><time>2026-04-03T09:14:04Z</time></trkpt><trkpt lat="43.347180391567086" lon="3.3276903854041677"><ele>34.0</ele><time>2026-04-03T09:14:05Z</time></trkpt><trkpt lat="43.34733324944211" lon="3.327997332793879"><ele>32.0</ele><time>2026-04-03T09:14:06Z</time></trkpt><trkpt lat="43.34748858886673" lon="3.3283096858423353"><ele>30.0</ele><time>2026-04-03T09:14:07Z</time></trkpt><trkpt lat="43.34764621164467" lon="3.3286128215803203"><ele>31.0</ele><time>2026-04-03T09:14:08Z</time></trkpt><trkpt lat="43.347804144772695" lon="3.3289040295331866"><ele>32.0</ele><time>2026-04-03T09:14:09Z</time></trkpt><trkpt lat="43.347966862302364" lon="3.329191800620832"><ele>31.5</ele><time>2026-04-03T09:14:10Z</time></trkpt><trkpt lat="43.34813190659817" lon="3.3294768878960777"><ele>31.0</ele><time>2026-04-03T09:14:11Z</time></trkpt><trkpt lat="43.34830056092346" lon="3.3297588860880336"><ele>31.0</ele><time>2026-04-03T09:14:12Z</time></trkpt><trkpt lat="43.3484720529954" lon="3.3300381592314743"><ele>31.0</ele><time>2026-04-03T09:14:13Z</time></trkpt><trkpt lat="43.34865345963628" lon="3.3303161013218"><ele>31.0</ele><time>2026-04-03T09:14:14Z</time></trkpt><trkpt lat="43.34883797643621" lon="3.330594940811347"><ele>31.0</ele><time>2026-04-03T09:14:15Z</time></trkpt><trkpt lat="43.349030732016445" lon="3.3308687042376057"><ele>30.5</ele><time>2026-04-03T09:14:16Z</time></trkpt><trkpt lat="43.34922592889874" lon="3.331137800717585"><ele>30.0</ele><time>2026-04-03T09:14:17Z</time></trkpt><trkpt lat="43.349424977063215" lon="3.3314059115361045"><ele>30.0</ele><time>2026-04-03T09:14:18Z</time></trkpt><trkpt lat="43.34963311262151" lon="3.3316708508933015"><ele>30.0</ele><time>2026-04-03T09:14:19Z</time></trkpt><trkpt lat="43.34984029670044" lon="3.331931660250033"><ele>29.5</ele><time>2026-04-03T09:14:20Z</time></trkpt><trkpt lat="43.3500474390778" lon="3.3321936434253487"><ele>29.0</ele><time>2026-04-03T09:14:21Z</time></trkpt><trkpt lat="43.35025647337809" lon="3.33244944237883"><ele>29.0</ele><time>2026-04-03T09:14:22Z</time></trkpt><trkpt lat="43.35046603252172" lon="3.33270261893163"><ele>29.0</ele><time>2026-04-03T09:14:23Z</time></trkpt><trkpt lat="43.35067912406955" lon="3.3329492752979393"><ele>26.5</ele><time>2026-04-03T09:14:24Z</time></trkpt><trkpt lat="43.35089274426791" lon="3.333192378382418"><ele>24.0</ele><time>2026-04-03T09:14:25Z</time></trkpt><trkpt lat="43.35110607861738" lon="3.3334315665600074"><ele>24.0</ele><time>2026-04-03T09:14:26Z</time></trkpt><trkpt lat="43.35132044020236" lon="3.3336615202108955"><ele>24.0</ele><time>2026-04-03T09:14:27Z</time></trkpt><trkpt lat="43.3515350304442" lon="3.333894041682822"><ele>25.0</ele><time>2026-04-03T09:14:28Z</time></trkpt><trkpt lat="43.35175117178843" lon="3.334122327486694"><ele>26.0</ele><time>2026-04-03T09:14:29Z</time></trkpt><trkpt lat="43.351967977487455" lon="3.3343477544024087"><ele>26.0</ele><time>2026-04-03T09:14:30Z</time></trkpt><trkpt lat="43.3521844925332" lon="3.3345694574444225"><ele>26.0</ele><time>2026-04-03T09:14:31Z</time></trkpt><trkpt lat="43.35240036677409" lon="3.3347883641153775"><ele>25.0</ele><time>2026-04-03T09:14:32Z</time></trkpt><trkpt lat="43.35261925726845" lon="3.3350072999493854"><ele>24.0</ele><time>2026-04-03T09:14:33Z</time></trkpt><trkpt lat="43.352841605708164" lon="3.3352238053068244"><ele>23.5</ele><time>2026-04-03T09:14:34Z</time></trkpt><trkpt lat="43.35306599100905" lon="3.335435357367133"><ele>23.0</ele><time>2026-04-03T09:14:35Z</time></trkpt><trkpt lat="43.353292673764706" lon="3.3356530986184336"><ele>23.0</ele><time>2026-04-03T09:14:36Z</time></trkpt><trkpt lat="43.3535190028447" lon="3.3358699953963646"><ele>23.0</ele><time>2026-04-03T09:14:37Z</time></trkpt><trkpt lat="43.3537443911536" lon="3.336086488615284"><ele>22.5</ele><time>2026-04-03T09:14:38Z</time></trkpt><trkpt lat="43.353968317449315" lon="3.336307484001924"><ele>22.0</ele><time>2026-04-03T09:14:39Z</time></trkpt><trkpt lat="43.354190643793046" lon="3.3365309205930695"><ele>23.0</ele><time>2026-04-03T09:14:40Z</time></trkpt><trkpt lat="43.3544135553086" lon="3.3367572816125013"><ele>24.0</ele><time>2026-04-03T09:14:41Z</time></trkpt><trkpt lat="43.35463959185645" lon="3.33698768710751"><ele>24.0</ele><time>2026-04-03T09:14:42Z</time></trkpt><trkpt lat="43.3548633598431" lon="3.3372256081320044"><ele>24.0</ele><time>2026-04-03T09:14:43Z</time></trkpt><trkpt lat="43.35508550225221" lon="3.337467541405751"><ele>24.0</ele><time>2026-04-03T09:14:44Z</time></trkpt><trkpt lat="43.35530647843994" lon="3.3377117637873357"><ele>24.0</ele><time>2026-04-03T09:14:45Z</time></trkpt><trkpt lat="43.35552720425146" lon="3.3379595480708235"><ele>24.0</ele><time>2026-04-03T09:14:46Z</time></trkpt><trkpt lat="43.3557460975179" lon="3.33821111627649"><ele>24.0</ele><time>2026-04-03T09:14:47Z</time></trkpt><trkpt lat="43.355959408989065" lon="3.338466663335577"><ele>24.0</ele><time>2026-04-03T09:14:48Z</time></trkpt><trkpt lat="43.35616802218161" lon="3.338726885853631"><ele>24.0</ele><time>2026-04-03T09:14:49Z</time></trkpt><trkpt lat="43.35637535710015" lon="3.338997478747708"><ele>26.0</ele><time>2026-04-03T09:14:50Z</time></trkpt><trkpt lat="43.35657989281296" lon="3.339271632083267"><ele>28.0</ele><time>2026-04-03T09:14:51Z</time></trkpt><trkpt lat="43.356781949336636" lon="3.339551537333838"><ele>28.0</ele><time>2026-04-03T09:14:52Z</time></trkpt><trkpt lat="43.35698206595336" lon="3.339833083957158"><ele>28.0</ele><time>2026-04-03T09:14:53Z</time></trkpt><trkpt lat="43.35718295623746" lon="3.3401160484791728"><ele>28.5</ele><time>2026-04-03T09:14:54Z</time></trkpt><trkpt lat="43.357376916929994" lon="3.340406842080245"><ele>29.0</ele><time>2026-04-03T09:14:55Z</time></trkpt><trkpt lat="43.35757130172548" lon="3.3407005882225254"><ele>29.0</ele><time>2026-04-03T09:14:56Z</time></trkpt><trkpt lat="43.35776418740869" lon="3.340998013882983"><ele>29.0</ele><time>2026-04-03T09:14:57Z</time></trkpt><trkpt lat="43.3579498554549" lon="3.3413007436212836"><ele>29.0</ele><time>2026-04-03T09:14:58Z</time></trkpt><trkpt lat="43.35813411415278" lon="3.34160571064474"><ele>29.0</ele><time>2026-04-03T09:14:59Z</time></trkpt><trkpt lat="43.358314633795935" lon="3.341915513090189"><ele>28.5</ele><time>2026-04-03T09:15:00Z</time></trkpt><trkpt lat="43.358493431223096" lon="3.342229672420805"><ele>28.0</ele><time>2026-04-03T09:15:01Z</time></trkpt><trkpt lat="43.358670104447306" lon="3.342546937470079"><ele>28.0</ele><time>2026-04-03T09:15:02Z</time></trkpt><trkpt lat="43.35883640556325" lon="3.3428708288132873"><ele>28.0</ele><time>2026-04-03T09:15:03Z</time></trkpt><trkpt lat="43.35900287163539" lon="3.3431958347682538"><ele>29.5</ele><time>2026-04-03T09:15:04Z</time></trkpt><trkpt lat="43.359165786635536" lon="3.343525013526372"><ele>31.0</ele><time>2026-04-03T09:15:05Z</time></trkpt><trkpt lat="43.35932512096601" lon="3.3438542893528522"><ele>31.5</ele><time>2026-04-03T09:15:06Z</time></trkpt><trkpt lat="43.35947842311399" lon="3.3441893778712863"><ele>32.0</ele><time>2026-04-03T09:15:07Z</time></trkpt><trkpt lat="43.35963127573139" lon="3.3445304520709196"><ele>32.5</ele><time>2026-04-03T09:15:08Z</time></trkpt><trkpt lat="43.35977999641577" lon="3.3448720601416255"><ele>33.0</ele><time>2026-04-03T09:15:09Z</time></trkpt><trkpt lat="43.35992592771961" lon="3.3452183615066784"><ele>32.5</ele><time>2026-04-03T09:15:10Z</time></trkpt><trkpt lat="43.36006400170254" lon="3.34556628468237"><ele>32.0</ele><time>2026-04-03T09:15:11Z</time></trkpt><trkpt lat="43.360197484255714" lon="3.345919219687816"><ele>32.0</ele><time>2026-04-03T09:15:12Z</time></trkpt><trkpt lat="43.36032332905282" lon="3.3462714060495498"><ele>32.0</ele><time>2026-04-03T09:15:13Z</time></trkpt><trkpt lat="43.36044711398549" lon="3.3466319521759806"><ele>32.5</ele><time>2026-04-03T09:15:14Z</time></trkpt><trkpt lat="43.360568435226966" lon="3.3469910593396115"><ele>33.0</ele><time>2026-04-03T09:15:15Z</time></trkpt><trkpt lat="43.360688653589484" lon="3.347353762436067"><ele>34.5</ele><time>2026-04-03T09:15:16Z</time></trkpt><trkpt lat="43.36080115868129" lon="3.3477235496814535"><ele>36.0</ele><time>2026-04-03T09:15:17Z</time></trkpt><trkpt lat="43.36091038167107" lon="3.3480923303492633"><ele>38.0</ele><time>2026-04-03T09:15:18Z</time></trkpt><trkpt lat="43.36101117336396" lon="3.3484609090471884"><ele>40.0</ele><time>2026-04-03T09:15:19Z</time></trkpt><trkpt lat="43.36111303080855" lon="3.348831260506915"><ele>40.0</ele><time>2026-04-03T09:15:20Z</time></trkpt><trkpt lat="43.361208223428285" lon="3.349202837621702"><ele>40.0</ele><time>2026-04-03T09:15:21Z</time></trkpt><trkpt lat="43.361296779434205" lon="3.349575566093869"><ele>39.5</ele><time>2026-04-03T09:15:22Z</time></trkpt><trkpt lat="43.36138274112429" lon="3.3499516194277157"><ele>39.0</ele><time>2026-04-03T09:15:23Z</time></trkpt><trkpt lat="43.3614618512049" lon="3.350328206201814"><ele>39.5</ele><time>2026-04-03T09:15:24Z</time></trkpt><trkpt lat="43.36153773422409" lon="3.3507078149207663"><ele>40.0</ele><time>2026-04-03T09:15:25Z</time></trkpt><trkpt lat="43.36160902491738" lon="3.3510888471586067"><ele>39.0</ele><time>2026-04-03T09:15:26Z</time></trkpt><trkpt lat="43.36167626905648" lon="3.351473250679461"><ele>38.0</ele><time>2026-04-03T09:15:27Z</time></trkpt><trkpt lat="43.36173970423449" lon="3.351860182028693"><ele>37.5</ele><time>2026-04-03T09:15:28Z</time></trkpt><trkpt lat="43.361800040709205" lon="3.3522483178094555"><ele>37.0</ele><time>2026-04-03T09:15:29Z</time></trkpt><trkpt lat="43.36185854153968" lon="3.352636979795555"><ele>37.0</ele><time>2026-04-03T09:15:30Z</time></trkpt><trkpt lat="43.36191124601428" lon="3.353029707185099"><ele>37.0</ele><time>2026-04-03T09:15:31Z</time></trkpt><trkpt lat="43.36195416839551" lon="3.353422055332513"><ele>36.5</ele><time>2026-04-03T09:15:32Z</time></trkpt><trkpt lat="43.36199797286574" lon="3.3538118755274415"><ele>36.0</ele><time>2026-04-03T09:15:33Z</time></trkpt><trkpt lat="43.362033116298605" lon="3.354203098585766"><ele>35.0</ele><time>2026-04-03T09:15:34Z</time></trkpt><trkpt lat="43.362062687690546" lon="3.354598758101523"><ele>34.0</ele><time>2026-04-03T09:15:35Z</time></trkpt><trkpt lat="43.36209053174377" lon="3.354993687933542"><ele>34.0</ele><time>2026-04-03T09:15:36Z</time></trkpt><trkpt lat="43.36211637782959" lon="3.3553888244262837"><ele>34.0</ele><time>2026-04-03T09:15:37Z</time></trkpt><trkpt lat="43.36213673027203" lon="3.3557820571735113"><ele>34.0</ele><time>2026-04-03T09:15:38Z</time></trkpt><trkpt lat="43.36215423408199" lon="3.3561747155764667"><ele>34.0</ele><time>2026-04-03T09:15:39Z</time></trkpt><trkpt lat="43.36216922967541" lon="3.356568640115504"><ele>35.0</ele><time>2026-04-03T09:15:40Z</time></trkpt><trkpt lat="43.3621829736626" lon="3.3569641848581706"><ele>36.0</ele><time>2026-04-03T09:15:41Z</time></trkpt><trkpt lat="43.36219312642963" lon="3.3573598483614244"><ele>39.5</ele><time>2026-04-03T09:15:42Z</time></trkpt><trkpt lat="43.362203246692275" lon="3.3577541964273983"><ele>43.0</ele><time>2026-04-03T09:15:43Z</time></trkpt><trkpt lat="43.36221274080224" lon="3.3581483971648876"><ele>43.0</ele><time>2026-04-03T09:15:44Z</time></trkpt><trkpt lat="43.36221786633841" lon="3.358547099972673"><ele>43.0</ele><time>2026-04-03T09:15:45Z</time></trkpt><trkpt lat="43.362220725783565" lon="3.358947363132361"><ele>43.0</ele><time>2026-04-03T09:15:46Z</time></trkpt><trkpt lat="43.36222683916614" lon="3.359343867406944"><ele>43.0</ele><time>2026-04-03T09:15:47Z</time></trkpt><trkpt lat="43.36223433763229" lon="3.359742688693607"><ele>43.0</ele><time>2026-04-03T09:15:48Z</time></trkpt><trkpt lat="43.36224386381081" lon="3.3601420601068726"><ele>43.0</ele><time>2026-04-03T09:15:49Z</time></trkpt><trkpt lat="43.36224596684621" lon="3.360539665126062"><ele>43.0</ele><time>2026-04-03T09:15:50Z</time></trkpt><trkpt lat="43.362252228585014" lon="3.3609385464185424"><ele>43.0</ele><time>2026-04-03T09:15:51Z</time></trkpt><trkpt lat="43.36226084790957" lon="3.3613308097775474"><ele>43.0</ele><time>2026-04-03T09:15:52Z</time></trkpt><trkpt lat="43.362266840513435" lon="3.3617273877632305"><ele>43.0</ele><time>2026-04-03T09:15:53Z</time></trkpt><trkpt lat="43.36227217883247" lon="3.362123946922861"><ele>42.0</ele><time>2026-04-03T09:15:54Z</time></trkpt><trkpt lat="43.36227862163182" lon="3.362516352974685"><ele>41.0</ele><time>2026-04-03T09:15:55Z</time></trkpt><trkpt lat="43.36228346353103" lon="3.362908490405741"><ele>40.5</ele><time>2026-04-03T09:15:56Z</time></trkpt><trkpt lat="43.362292404920375" lon="3.363296983357499"><ele>40.0</ele><time>2026-04-03T09:15:57Z</time></trkpt><trkpt lat="43.36230098940213" lon="3.3636883313228334"><ele>40.0</ele><time>2026-04-03T09:15:58Z</time></trkpt><trkpt lat="43.3623041223622" lon="3.3640829916535195"><ele>40.0</ele><time>2026-04-03T09:15:59Z</time></trkpt><trkpt lat="43.36231137859693" lon="3.364483576040404"><ele>41.5</ele><time>2026-04-03T09:16:00Z</time></trkpt><trkpt lat="43.36231991601629" lon="3.3648728641481997"><ele>43.0</ele><time>2026-04-03T09:16:01Z</time></trkpt><trkpt lat="43.3623237191157" lon="3.365263064552086"><ele>43.0</ele><time>2026-04-03T09:16:02Z</time></trkpt><trkpt lat="43.362331202766384" lon="3.3656530642149423"><ele>43.0</ele><time>2026-04-03T09:16:03Z</time></trkpt><trkpt lat="43.362336281036036" lon="3.3660446295423583"><ele>44.0</ele><time>2026-04-03T09:16:04Z</time></trkpt><trkpt lat="43.362343377862246" lon="3.3664392521976163"><ele>45.0</ele><time>2026-04-03T09:16:05Z</time></trkpt><trkpt lat="43.36235115836292" lon="3.366829918531897"><ele>43.5</ele><time>2026-04-03T09:16:06Z</time></trkpt><trkpt lat="43.362358414610604" lon="3.367223182979281"><ele>42.0</ele><time>2026-04-03T09:16:07Z</time></trkpt><trkpt lat="43.36236718862102" lon="3.367619434561928"><ele>42.0</ele><time>2026-04-03T09:16:08Z</time></trkpt><trkpt lat="43.36237686470524" lon="3.3680185621338325"><ele>42.0</ele><time>2026-04-03T09:16:09Z</time></trkpt><trkpt lat="43.362388349732285" lon="3.368415950080003"><ele>42.0</ele><time>2026-04-03T09:16:10Z</time></trkpt><trkpt lat="43.36240181979212" lon="3.368811616280294"><ele>42.0</ele><time>2026-04-03T09:16:11Z</time></trkpt><trkpt lat="43.362417360518435" lon="3.3692115906841873"><ele>43.5</ele><time>2026-04-03T09:16:12Z</time></trkpt><trkpt lat="43.36243443998716" lon="3.369609153693265"><ele>45.0</ele><time>2026-04-03T09:16:13Z</time></trkpt><trkpt lat="43.36244886302268" lon="3.3700071624315235"><ele>46.5</ele><time>2026-04-03T09:16:14Z</time></trkpt><trkpt lat="43.362469414373535" lon="3.370405636080961"><ele>48.0</ele><time>2026-04-03T09:16:15Z</time></trkpt><trkpt lat="43.36249018496221" lon="3.370800192699365"><ele>48.0</ele><time>2026-04-03T09:16:16Z</time></trkpt><trkpt lat="43.3625124709452" lon="3.3711958867091827"><ele>48.0</ele><time>2026-04-03T09:16:17Z</time></trkpt><trkpt lat="43.36254232423459" lon="3.371589235902683"><ele>47.0</ele><time>2026-04-03T09:16:18Z</time></trkpt><trkpt lat="43.36257429006374" lon="3.3719857139501874"><ele>46.0</ele><time>2026-04-03T09:16:19Z</time></trkpt><trkpt lat="43.36260806131063" lon="3.3723795996606376"><ele>45.0</ele><time>2026-04-03T09:16:20Z</time></trkpt><trkpt lat="43.36264330950388" lon="3.3727743226651308"><ele>44.0</ele><time>2026-04-03T09:16:21Z</time></trkpt><trkpt lat="43.36268050028571" lon="3.3731698601817457"><ele>43.5</ele><time>2026-04-03T09:16:22Z</time></trkpt><trkpt lat="43.362721712582044" lon="3.3735610116362977"><ele>43.0</ele><time>2026-04-03T09:16:23Z</time></trkpt><trkpt lat="43.36277026825248" lon="3.373951572342323"><ele>43.0</ele><time>2026-04-03T09:16:24Z</time></trkpt><trkpt lat="43.36282119173902" lon="3.374343268658478"><ele>43.0</ele><time>2026-04-03T09:16:25Z</time></trkpt><trkpt lat="43.362873241639775" lon="3.3747346682996944"><ele>41.0</ele><time>2026-04-03T09:16:26Z</time></trkpt><trkpt lat="43.36292626795864" lon="3.3751264341248968"><ele>39.0</ele><time>2026-04-03T09:16:27Z</time></trkpt><trkpt lat="43.36298568128766" lon="3.3755148249080476"><ele>38.0</ele><time>2026-04-03T09:16:28Z</time></trkpt><trkpt lat="43.36304758018277" lon="3.3759031648653024"><ele>37.0</ele><time>2026-04-03T09:16:29Z</time></trkpt><trkpt lat="43.36311155270367" lon="3.376291439288948"><ele>35.0</ele><time>2026-04-03T09:16:30Z</time></trkpt><trkpt lat="43.363176624781524" lon="3.376677539397593"><ele>33.0</ele><time>2026-04-03T09:16:31Z</time></trkpt><trkpt lat="43.36324680201498" lon="3.3770625447755678"><ele>34.0</ele><time>2026-04-03T09:16:32Z</time></trkpt><trkpt lat="43.36332033843204" lon="3.3774463362424383"><ele>35.0</ele><time>2026-04-03T09:16:33Z</time></trkpt><trkpt lat="43.363398296117616" lon="3.377828496565084"><ele>34.5</ele><time>2026-04-03T09:16:34Z</time></trkpt><trkpt lat="43.3634762156152" lon="3.3782127748414172"><ele>34.0</ele><time>2026-04-03T09:16:35Z</time></trkpt><trkpt lat="43.36356207206698" lon="3.378593394393114"><ele>34.5</ele><time>2026-04-03T09:16:36Z</time></trkpt><trkpt lat="43.36364667015364" lon="3.3789738504251967"><ele>35.0</ele><time>2026-04-03T09:16:37Z</time></trkpt><trkpt lat="43.363735066573234" lon="3.379356235227051"><ele>35.0</ele><time>2026-04-03T09:16:38Z</time></trkpt><trkpt lat="43.36382467478409" lon="3.3797338149855465"><ele>35.0</ele><time>2026-04-03T09:16:39Z</time></trkpt><trkpt lat="43.36391652158883" lon="3.380111903816807"><ele>34.5</ele><time>2026-04-03T09:16:40Z</time></trkpt><trkpt lat="43.36401276965298" lon="3.38048398857264"><ele>34.0</ele><time>2026-04-03T09:16:41Z</time></trkpt><trkpt lat="43.364114185237526" lon="3.3808551322146942"><ele>34.0</ele><time>2026-04-03T09:16:42Z</time></trkpt><trkpt lat="43.36421552686389" lon="3.3812226876846814"><ele>34.0</ele><time>2026-04-03T09:16:43Z</time></trkpt><trkpt lat="43.36432173197376" lon="3.381590895647647"><ele>34.0</ele><time>2026-04-03T09:16:44Z</time></trkpt><trkpt lat="43.36443097952424" lon="3.381959966267618"><ele>34.0</ele><time>2026-04-03T09:16:45Z</time></trkpt><trkpt lat="43.364539721808825" lon="3.38232348940753"><ele>33.5</ele><time>2026-04-03T09:16:46Z</time></trkpt><trkpt lat="43.36465356600238" lon="3.3826833980565514"><ele>33.0</ele><time>2026-04-03T09:16:47Z</time></trkpt><trkpt lat="43.36476656526086" lon="3.383046393601396"><ele>30.5</ele><time>2026-04-03T09:16:48Z</time></trkpt><trkpt lat="43.36488725274742" lon="3.3834077572778423"><ele>28.0</ele><time>2026-04-03T09:16:49Z</time></trkpt><trkpt lat="43.36500837613291" lon="3.383760487854939"><ele>26.5</ele><time>2026-04-03T09:16:50Z</time></trkpt><trkpt lat="43.365133514989594" lon="3.3841119122970227"><ele>25.0</ele><time>2026-04-03T09:16:51Z</time></trkpt><trkpt lat="43.36525942856712" lon="3.3844639364775144"><ele>24.5</ele><time>2026-04-03T09:16:52Z</time></trkpt><trkpt lat="43.36538946776281" lon="3.384815483273"><ele>24.0</ele><time>2026-04-03T09:16:53Z</time></trkpt><trkpt lat="43.365521077824816" lon="3.385158459205824"><ele>24.5</ele><time>2026-04-03T09:16:54Z</time></trkpt><trkpt lat="43.36565552335317" lon="3.3855022594580433"><ele>25.0</ele><time>2026-04-03T09:16:55Z</time></trkpt><trkpt lat="43.3657946753416" lon="3.385844365816318"><ele>23.0</ele><time>2026-04-03T09:16:56Z</time></trkpt><trkpt lat="43.365935123654836" lon="3.386182970004326"><ele>21.0</ele><time>2026-04-03T09:16:57Z</time></trkpt><trkpt lat="43.36608019887713" lon="3.3865136342280113"><ele>19.5</ele><time>2026-04-03T09:16:58Z</time></trkpt><trkpt lat="43.36622603814851" lon="3.3868529029035868"><ele>18.0</ele><time>2026-04-03T09:16:59Z</time></trkpt><trkpt lat="43.366372465830956" lon="3.3871911895892093"><ele>18.0</ele><time>2026-04-03T09:17:00Z</time></trkpt><trkpt lat="43.366519014707194" lon="3.387526354148257"><ele>18.0</ele><time>2026-04-03T09:17:01Z</time></trkpt><trkpt lat="43.36667007412423" lon="3.3878607056815135"><ele>17.5</ele><time>2026-04-03T09:17:02Z</time></trkpt><trkpt lat="43.36681967480341" lon="3.3881927514863612"><ele>17.0</ele><time>2026-04-03T09:17:03Z</time></trkpt><trkpt lat="43.36696918751297" lon="3.388522319066477"><ele>17.0</ele><time>2026-04-03T09:17:04Z</time></trkpt><trkpt lat="43.367122265953235" lon="3.3888493070229098"><ele>17.0</ele><time>2026-04-03T09:17:05Z</time></trkpt><trkpt lat="43.36727641309693" lon="3.3891743626539284"><ele>17.5</ele><time>2026-04-03T09:17:06Z</time></trkpt><trkpt lat="43.36743480612925" lon="3.389499207077216"><ele>18.0</ele><time>2026-04-03T09:17:07Z</time></trkpt><trkpt lat="43.367592634911105" lon="3.389821883270612"><ele>18.0</ele><time>2026-04-03T09:17:08Z</time></trkpt><trkpt lat="43.36775194965363" lon="3.3901473856048168"><ele>18.0</ele><time>2026-04-03T09:17:09Z</time></trkpt><trkpt lat="43.36791220549008" lon="3.3904683419786434"><ele>19.5</ele><time>2026-04-03T09:17:10Z</time></trkpt><trkpt lat="43.3680685625094" lon="3.390792048686999"><ele>21.0</ele><time>2026-04-03T09:17:11Z</time></trkpt><trkpt lat="43.36822272705249" lon="3.391110993641596"><ele>22.5</ele><time>2026-04-03T09:17:12Z</time></trkpt><trkpt lat="43.36838628042023" lon="3.3914380561283997"><ele>24.0</ele><time>2026-04-03T09:17:13Z</time></trkpt><trkpt lat="43.368546801476256" lon="3.391760657933826"><ele>24.0</ele><time>2026-04-03T09:17:14Z</time></trkpt><trkpt lat="43.36870750046129" lon="3.3920860646410578"><ele>24.0</ele><time>2026-04-03T09:17:15Z</time></trkpt><trkpt lat="43.36886575068156" lon="3.3924112805760274"><ele>24.0</ele><time>2026-04-03T09:17:16Z</time></trkpt><trkpt lat="43.36902676060798" lon="3.3927362023910206"><ele>24.0</ele><time>2026-04-03T09:17:17Z</time></trkpt><trkpt lat="43.36918509582686" lon="3.3930574460274254"><ele>24.0</ele><time>2026-04-03T09:17:18Z</time></trkpt><trkpt lat="43.36934340828791" lon="3.3933833736522327"><ele>24.0</ele><time>2026-04-03T09:17:19Z</time></trkpt><trkpt lat="43.36950480966654" lon="3.393709576283039"><ele>23.5</ele><time>2026-04-03T09:17:20Z</time></trkpt><trkpt lat="43.369665174442694" lon="3.39403540510828"><ele>23.0</ele><time>2026-04-03T09:17:21Z</time></trkpt><trkpt lat="43.36982828667103" lon="3.3943605181599272"><ele>22.5</ele><time>2026-04-03T09:17:22Z</time></trkpt><trkpt lat="43.36998978199383" lon="3.3946889877842445"><ele>22.0</ele><time>2026-04-03T09:17:23Z</time></trkpt><trkpt lat="43.37015230023287" lon="3.395012806979903"><ele>22.0</ele><time>2026-04-03T09:17:24Z</time></trkpt><trkpt lat="43.37031455916199" lon="3.3953424210896124"><ele>22.0</ele><time>2026-04-03T09:17:25Z</time></trkpt><trkpt lat="43.37048033488139" lon="3.3956690631914914"><ele>23.0</ele><time>2026-04-03T09:17:26Z</time></trkpt><trkpt lat="43.37063949416453" lon="3.3959980022349603"><ele>24.0</ele><time>2026-04-03T09:17:27Z</time></trkpt><trkpt lat="43.3707997495287" lon="3.3963227948434933"><ele>26.0</ele><time>2026-04-03T09:17:28Z</time></trkpt><trkpt lat="43.37096111886513" lon="3.39665185557494"><ele>28.0</ele><time>2026-04-03T09:17:29Z</time></trkpt><trkpt lat="43.371122841002766" lon="3.3969757546467583"><ele>29.0</ele><time>2026-04-03T09:17:30Z</time></trkpt><trkpt lat="43.37128854716002" lon="3.3973051859347536"><ele>30.0</ele><time>2026-04-03T09:17:31Z</time></trkpt><trkpt lat="43.37145193592309" lon="3.3976318374602"><ele>30.0</ele><time>2026-04-03T09:17:32Z</time></trkpt><trkpt lat="43.37161229925669" lon="3.397961843338237"><ele>30.0</ele><time>2026-04-03T09:17:33Z</time></trkpt><trkpt lat="43.37177042958298" lon="3.398297969503835"><ele>29.0</ele><time>2026-04-03T09:17:34Z</time></trkpt><trkpt lat="43.37193233060649" lon="3.3986303944053176"><ele>28.0</ele><time>2026-04-03T09:17:35Z</time></trkpt><trkpt lat="43.372094807619426" lon="3.398958799777705"><ele>28.5</ele><time>2026-04-03T09:17:36Z</time></trkpt><trkpt lat="43.37225675489517" lon="3.399286079629097"><ele>29.0</ele><time>2026-04-03T09:17:37Z</time></trkpt><trkpt lat="43.372418032101265" lon="3.399608102698951"><ele>27.5</ele><time>2026-04-03T09:17:38Z</time></trkpt><trkpt lat="43.37257717726828" lon="3.3999365011234577"><ele>26.0</ele><time>2026-04-03T09:17:39Z</time></trkpt><trkpt lat="43.37273569809081" lon="3.400263658809694"><ele>26.0</ele><time>2026-04-03T09:17:40Z</time></trkpt><trkpt lat="43.37289241178156" lon="3.400593218536144"><ele>26.0</ele><time>2026-04-03T09:17:41Z</time></trkpt><trkpt lat="43.37304746085462" lon="3.4009191620736394"><ele>26.0</ele><time>2026-04-03T09:17:42Z</time></trkpt><trkpt lat="43.37320167086632" lon="3.4012482810007945"><ele>26.0</ele><time>2026-04-03T09:17:43Z</time></trkpt><trkpt lat="43.37335478409368" lon="3.401582204704829"><ele>26.0</ele><time>2026-04-03T09:17:44Z</time></trkpt><trkpt lat="43.373505617583284" lon="3.401921239077855"><ele>26.0</ele><time>2026-04-03T09:17:45Z</time></trkpt><trkpt lat="43.3736529035168" lon="3.402256849238262"><ele>26.0</ele><time>2026-04-03T09:17:46Z</time></trkpt><trkpt lat="43.373796245050436" lon="3.4025917792001357"><ele>26.0</ele><time>2026-04-03T09:17:47Z</time></trkpt><trkpt lat="43.373938157972916" lon="3.402934133210083"><ele>27.0</ele><time>2026-04-03T09:17:48Z</time></trkpt><trkpt lat="43.37407533554714" lon="3.403276642261416"><ele>28.0</ele><time>2026-04-03T09:17:49Z</time></trkpt><trkpt lat="43.374212033680145" lon="3.4036229697667246"><ele>27.0</ele><time>2026-04-03T09:17:50Z</time></trkpt><trkpt lat="43.374343303255884" lon="3.403968615483596"><ele>26.0</ele><time>2026-04-03T09:17:51Z</time></trkpt><trkpt lat="43.37447337187799" lon="3.404320671291529"><ele>25.5</ele><time>2026-04-03T09:17:52Z</time></trkpt><trkpt lat="43.37460064914258" lon="3.404681530512637"><ele>25.0</ele><time>2026-04-03T09:17:53Z</time></trkpt><trkpt lat="43.37472570022175" lon="3.4050407781521206"><ele>26.0</ele><time>2026-04-03T09:17:54Z</time></trkpt><trkpt lat="43.37484607952927" lon="3.4053992272576123"><ele>27.0</ele><time>2026-04-03T09:17:55Z</time></trkpt><trkpt lat="43.37496116322679" lon="3.4057610483115752"><ele>27.5</ele><time>2026-04-03T09:17:56Z</time></trkpt><trkpt lat="43.37507387877179" lon="3.4061231016567923"><ele>28.0</ele><time>2026-04-03T09:17:57Z</time></trkpt><trkpt lat="43.37518249501667" lon="3.406491663599156"><ele>28.0</ele><time>2026-04-03T09:17:58Z</time></trkpt><trkpt lat="43.37528626259601" lon="3.406862546191326"><ele>28.0</ele><time>2026-04-03T09:17:59Z</time></trkpt><trkpt lat="43.37538794886592" lon="3.4072330442234584"><ele>27.5</ele><time>2026-04-03T09:18:00Z</time></trkpt><trkpt lat="43.375485851655554" lon="3.407606572716149"><ele>27.0</ele><time>2026-04-03T09:18:01Z</time></trkpt><trkpt lat="43.375581660470665" lon="3.4079827812958325"><ele>28.0</ele><time>2026-04-03T09:18:02Z</time></trkpt><trkpt lat="43.37567055985925" lon="3.408352679664974"><ele>29.0</ele><time>2026-04-03T09:18:03Z</time></trkpt><trkpt lat="43.375757010820166" lon="3.4087255700921912"><ele>30.0</ele><time>2026-04-03T09:18:04Z</time></trkpt><trkpt lat="43.37584069046827" lon="3.409102224884371"><ele>31.0</ele><time>2026-04-03T09:18:05Z</time></trkpt><trkpt lat="43.37592137553064" lon="3.409482585055846"><ele>32.5</ele><time>2026-04-03T09:18:06Z</time></trkpt><trkpt lat="43.37599948418678" lon="3.4098663351406984"><ele>34.0</ele><time>2026-04-03T09:18:07Z</time></trkpt><trkpt lat="43.37607432686373" lon="3.410249197085607"><ele>36.5</ele><time>2026-04-03T09:18:08Z</time></trkpt><trkpt lat="43.37614517656196" lon="3.410637580032057"><ele>39.0</ele><time>2026-04-03T09:18:09Z</time></trkpt><trkpt lat="43.376212089039015" lon="3.411024469935624"><ele>40.5</ele><time>2026-04-03T09:18:10Z</time></trkpt><trkpt lat="43.37627503480547" lon="3.411414121087119"><ele>42.0</ele><time>2026-04-03T09:18:11Z</time></trkpt><trkpt lat="43.3763331486835" lon="3.4118066836856746"><ele>39.5</ele><time>2026-04-03T09:18:12Z</time></trkpt><trkpt lat="43.376390248171916" lon="3.412200523515768"><ele>37.0</ele><time>2026-04-03T09:18:13Z</time></trkpt><trkpt lat="43.376443107415874" lon="3.412599417965386"><ele>36.5</ele><time>2026-04-03T09:18:14Z</time></trkpt><trkpt lat="43.376493793691694" lon="3.4129942043954444"><ele>36.0</ele><time>2026-04-03T09:18:15Z</time></trkpt><trkpt lat="43.376539703356094" lon="3.413386798958851"><ele>36.0</ele><time>2026-04-03T09:18:16Z</time></trkpt><trkpt lat="43.37658045901917" lon="3.413779173013076"><ele>36.0</ele><time>2026-04-03T09:18:17Z</time></trkpt><trkpt lat="43.3766208931379" lon="3.4141720232137662"><ele>36.0</ele><time>2026-04-03T09:18:18Z</time></trkpt><trkpt lat="43.3766550175699" lon="3.4145643226550106"><ele>36.0</ele><time>2026-04-03T09:18:19Z</time></trkpt><trkpt lat="43.376686188906774" lon="3.4149564399372796"><ele>35.5</ele><time>2026-04-03T09:18:20Z</time></trkpt><trkpt lat="43.37671201448917" lon="3.415349588683333"><ele>35.0</ele><time>2026-04-03T09:18:21Z</time></trkpt><trkpt lat="43.376734310840675" lon="3.415741395993247"><ele>35.5</ele><time>2026-04-03T09:18:22Z</time></trkpt><trkpt lat="43.37675059842875" lon="3.416136337647532"><ele>36.0</ele><time>2026-04-03T09:18:23Z</time></trkpt><trkpt lat="43.376766040344926" lon="3.416530907410801"><ele>36.0</ele><time>2026-04-03T09:18:24Z</time></trkpt><trkpt lat="43.376768411179405" lon="3.416929749701377"><ele>36.0</ele><time>2026-04-03T09:18:25Z</time></trkpt><trkpt lat="43.3767685688785" lon="3.417325035011535"><ele>34.5</ele><time>2026-04-03T09:18:26Z</time></trkpt><trkpt lat="43.37676705883318" lon="3.4177216905053664"><ele>33.0</ele><time>2026-04-03T09:18:27Z</time></trkpt><trkpt lat="43.37676129362631" lon="3.4181078923348447"><ele>33.0</ele><time>2026-04-03T09:18:28Z</time></trkpt><trkpt lat="43.376758486653735" lon="3.418498957819273"><ele>33.0</ele><time>2026-04-03T09:18:29Z</time></trkpt><trkpt lat="43.376748712590626" lon="3.4188966557237555"><ele>33.5</ele><time>2026-04-03T09:18:30Z</time></trkpt><trkpt lat="43.37673858296056" lon="3.419296728783603"><ele>34.0</ele><time>2026-04-03T09:18:31Z</time></trkpt><trkpt lat="43.37672904677613" lon="3.4196952560823646"><ele>32.5</ele><time>2026-04-03T09:18:32Z</time></trkpt><trkpt lat="43.37671824597236" lon="3.4200850264797515"><ele>31.0</ele><time>2026-04-03T09:18:33Z</time></trkpt><trkpt lat="43.37670496924422" lon="3.4204857766583556"><ele>31.0</ele><time>2026-04-03T09:18:34Z</time></trkpt><trkpt lat="43.37669289366632" lon="3.420882788421734"><ele>31.0</ele><time>2026-04-03T09:18:35Z</time></trkpt><trkpt lat="43.37668082243357" lon="3.4212795151203848"><ele>30.5</ele><time>2026-04-03T09:18:36Z</time></trkpt><trkpt lat="43.376667657691" lon="3.4216767353487563"><ele>30.0</ele><time>2026-04-03T09:18:37Z</time></trkpt><trkpt lat="43.37665376988559" lon="3.422068289593584"><ele>30.0</ele><time>2026-04-03T09:18:38Z</time></trkpt><trkpt lat="43.37664097345833" lon="3.422465102173898"><ele>30.0</ele><time>2026-04-03T09:18:39Z</time></trkpt><trkpt lat="43.37662730149507" lon="3.4228642352593392"><ele>29.5</ele><time>2026-04-03T09:18:40Z</time></trkpt><trkpt lat="43.37661375351851" lon="3.423261494193497"><ele>29.0</ele><time>2026-04-03T09:18:41Z</time></trkpt><trkpt lat="43.376599122174504" lon="3.4236566046556236"><ele>28.5</ele><time>2026-04-03T09:18:42Z</time></trkpt><trkpt lat="43.37658570591638" lon="3.424052874228281"><ele>28.0</ele><time>2026-04-03T09:18:43Z</time></trkpt><trkpt lat="43.376572650216225" lon="3.424446572329894"><ele>27.5</ele><time>2026-04-03T09:18:44Z</time></trkpt><trkpt lat="43.376560395631394" lon="3.4248428039224668"><ele>27.0</ele><time>2026-04-03T09:18:45Z</time></trkpt><trkpt lat="43.37655249029809" lon="3.4252373490331287"><ele>26.0</ele><time>2026-04-03T09:18:46Z</time></trkpt><trkpt lat="43.37654300264839" lon="3.4256332588401186"><ele>25.0</ele><time>2026-04-03T09:18:47Z</time></trkpt><trkpt lat="43.37653684400807" lon="3.4260330821446296"><ele>24.0</ele><time>2026-04-03T09:18:48Z</time></trkpt><trkpt lat="43.37653402699058" lon="3.42643257465866"><ele>23.0</ele><time>2026-04-03T09:18:49Z</time></trkpt><trkpt lat="43.37652963973257" lon="3.426829819109139"><ele>22.5</ele><time>2026-04-03T09:18:50Z</time></trkpt><trkpt lat="43.37652422313136" lon="3.4272275015018305"><ele>22.0</ele><time>2026-04-03T09:18:51Z</time></trkpt><trkpt lat="43.37651838168508" lon="3.427619382723434"><ele>21.5</ele><time>2026-04-03T09:18:52Z</time></trkpt><trkpt lat="43.37650917531937" lon="3.42801805231511"><ele>21.0</ele><time>2026-04-03T09:18:53Z</time></trkpt><trkpt lat="43.3765019896743" lon="3.4284065518806375"><ele>21.0</ele><time>2026-04-03T09:18:54Z</time></trkpt><trkpt lat="43.37649872296151" lon="3.4287976529334836"><ele>21.0</ele><time>2026-04-03T09:18:55Z</time></trkpt><trkpt lat="43.376496232476505" lon="3.429190172910396"><ele>21.0</ele><time>2026-04-03T09:18:56Z</time></trkpt><trkpt lat="43.37649899827652" lon="3.429580154449508"><ele>21.0</ele><time>2026-04-03T09:18:57Z</time></trkpt><trkpt lat="43.37650195996569" lon="3.42996904832848"><ele>20.0</ele><time>2026-04-03T09:18:58Z</time></trkpt><trkpt lat="43.37650446572292" lon="3.4303600115940203"><ele>19.0</ele><time>2026-04-03T09:18:59Z</time></trkpt><trkpt lat="43.37650850495214" lon="3.430750783145114"><ele>18.5</ele><time>2026-04-03T09:19:00Z</time></trkpt><trkpt lat="43.376511572885796" lon="3.4311415702996455"><ele>18.0</ele><time>2026-04-03T09:19:01Z</time></trkpt><trkpt lat="43.3765136791767" lon="3.431534545184206"><ele>17.5</ele><time>2026-04-03T09:19:02Z</time></trkpt><trkpt lat="43.37652229717783" lon="3.4319230989734297"><ele>17.0</ele><time>2026-04-03T09:19:03Z</time></trkpt><trkpt lat="43.376538240461656" lon="3.432310411317523"><ele>17.0</ele><time>2026-04-03T09:19:04Z</time></trkpt><trkpt lat="43.37655660539346" lon="3.432701620691228"><ele>17.0</ele><time>2026-04-03T09:19:05Z</time></trkpt><trkpt lat="43.376579572889604" lon="3.433088009156545"><ele>16.0</ele><time>2026-04-03T09:19:06Z</time></trkpt><trkpt lat="43.376611074669945" lon="3.433473839348648"><ele>15.0</ele><time>2026-04-03T09:19:07Z</time></trkpt><trkpt lat="43.376645866914444" lon="3.4338639376497544"><ele>14.0</ele><time>2026-04-03T09:19:08Z</time></trkpt><trkpt lat="43.37668238026416" lon="3.4342528359733944"><ele>13.0</ele><time>2026-04-03T09:19:09Z</time></trkpt><trkpt lat="43.3767243913122" lon="3.4346419493617577"><ele>12.5</ele><time>2026-04-03T09:19:10Z</time></trkpt><trkpt lat="43.37677029813316" lon="3.435025322029548"><ele>12.0</ele><time>2026-04-03T09:19:11Z</time></trkpt><trkpt lat="43.376818223115144" lon="3.4354122637171565"><ele>11.5</ele><time>2026-04-03T09:19:12Z</time></trkpt><trkpt lat="43.376871491714354" lon="3.4358022853834167"><ele>11.0</ele><time>2026-04-03T09:19:13Z</time></trkpt><trkpt lat="43.376929310380525" lon="3.4361894499511387"><ele>10.0</ele><time>2026-04-03T09:19:14Z</time></trkpt><trkpt lat="43.37699133806054" lon="3.4365694633489783"><ele>9.0</ele><time>2026-04-03T09:19:15Z</time></trkpt><trkpt lat="43.377056077944886" lon="3.436952305761022"><ele>9.0</ele><time>2026-04-03T09:19:16Z</time></trkpt><trkpt lat="43.377122927052625" lon="3.4373385500800033"><ele>9.0</ele><time>2026-04-03T09:19:17Z</time></trkpt><trkpt lat="43.37719197150825" lon="3.4377252346131777"><ele>11.0</ele><time>2026-04-03T09:19:18Z</time></trkpt><trkpt lat="43.377268732285884" lon="3.4381041173758553"><ele>13.0</ele><time>2026-04-03T09:19:19Z</time></trkpt><trkpt lat="43.37734989032934" lon="3.4384789090009455"><ele>12.5</ele><time>2026-04-03T09:19:20Z</time></trkpt><trkpt lat="43.37743234153145" lon="3.43885327023638"><ele>12.0</ele><time>2026-04-03T09:19:21Z</time></trkpt><trkpt lat="43.37751843562898" lon="3.4392167957583415"><ele>12.0</ele><time>2026-04-03T09:19:22Z</time></trkpt><trkpt lat="43.37760909738289" lon="3.4395829697262874"><ele>12.0</ele><time>2026-04-03T09:19:23Z</time></trkpt><trkpt lat="43.377707123140155" lon="3.4399498968348654"><ele>11.5</ele><time>2026-04-03T09:19:24Z</time></trkpt><trkpt lat="43.377810134406594" lon="3.440314750997072"><ele>11.0</ele><time>2026-04-03T09:19:25Z</time></trkpt><trkpt lat="43.3779170445515" lon="3.4406776635732164"><ele>11.0</ele><time>2026-04-03T09:19:26Z</time></trkpt><trkpt lat="43.378026936237106" lon="3.4410401864414313"><ele>11.0</ele><time>2026-04-03T09:19:27Z</time></trkpt><trkpt lat="43.37813890465423" lon="3.441401793076197"><ele>10.5</ele><time>2026-04-03T09:19:28Z</time></trkpt><trkpt lat="43.3782527392882" lon="3.4417645993914125"><ele>10.0</ele><time>2026-04-03T09:19:29Z</time></trkpt><trkpt lat="43.378371837657106" lon="3.4421249463698476"><ele>9.5</ele><time>2026-04-03T09:19:30Z</time></trkpt><trkpt lat="43.37849415293963" lon="3.4424822336065213"><ele>9.0</ele><time>2026-04-03T09:19:31Z</time></trkpt><trkpt lat="43.37861500188084" lon="3.4428400599228994"><ele>8.5</ele><time>2026-04-03T09:19:32Z</time></trkpt><trkpt lat="43.37874457483328" lon="3.443191197531108"><ele>8.0</ele><time>2026-04-03T09:19:33Z</time></trkpt><trkpt lat="43.37887750276093" lon="3.4435438345197253"><ele>8.0</ele><time>2026-04-03T09:19:34Z</time></trkpt><trkpt lat="43.3790138913052" lon="3.4438889655742737"><ele>8.0</ele><time>2026-04-03T09:19:35Z</time></trkpt><trkpt lat="43.37915382440649" lon="3.4442354835471893"><ele>8.0</ele><time>2026-04-03T09:19:36Z</time></trkpt><trkpt lat="43.37929773624432" lon="3.4445771481913474"><ele>8.0</ele><time>2026-04-03T09:19:37Z</time></trkpt><trkpt lat="43.37944405311062" lon="3.4449166965211298"><ele>8.5</ele><time>2026-04-03T09:19:38Z</time></trkpt><trkpt lat="43.37959850126542" lon="3.4452545714747136"><ele>9.0</ele><time>2026-04-03T09:19:39Z</time></trkpt><trkpt lat="43.37975507525352" lon="3.445591067358472"><ele>9.0</ele><time>2026-04-03T09:19:40Z</time></trkpt><trkpt lat="43.37991492564048" lon="3.445925992627315"><ele>9.0</ele><time>2026-04-03T09:19:41Z</time></trkpt><trkpt lat="43.38007510969651" lon="3.44625289855852"><ele>9.5</ele><time>2026-04-03T09:19:42Z</time></trkpt><trkpt lat="43.38024206405711" lon="3.446581659246598"><ele>10.0</ele><time>2026-04-03T09:19:43Z</time></trkpt><trkpt lat="43.3804112754403" lon="3.4469025144280114"><ele>9.5</ele><time>2026-04-03T09:19:44Z</time></trkpt><trkpt lat="43.38058226556294" lon="3.447218502371613"><ele>9.0</ele><time>2026-04-03T09:19:45Z</time></trkpt><trkpt lat="43.38075884510242" lon="3.447532855796626"><ele>9.0</ele><time>2026-04-03T09:19:46Z</time></trkpt><trkpt lat="43.380935724870305" lon="3.4478474884066"><ele>9.0</ele><time>2026-04-03T09:19:47Z</time></trkpt><trkpt lat="43.38111644071408" lon="3.4481582585188684"><ele>8.5</ele><time>2026-04-03T09:19:48Z</time></trkpt><trkpt lat="43.38129896469276" lon="3.44845856385614"><ele>8.0</ele><time>2026-04-03T09:19:49Z</time></trkpt><trkpt lat="43.38148473471539" lon="3.4487594630916147"><ele>7.5</ele><time>2026-04-03T09:19:50Z</time></trkpt><trkpt lat="43.38167098540336" lon="3.449054513288201"><ele>7.0</ele><time>2026-04-03T09:19:51Z</time></trkpt><trkpt lat="43.38186100592763" lon="3.4493470996499256"><ele>7.0</ele><time>2026-04-03T09:19:52Z</time></trkpt><trkpt lat="43.38205426551356" lon="3.4496327826293234"><ele>7.0</ele><time>2026-04-03T09:19:53Z</time></trkpt><trkpt lat="43.38225241654737" lon="3.4499214190150425"><ele>7.5</ele><time>2026-04-03T09:19:54Z</time></trkpt><trkpt lat="43.38245215094635" lon="3.45020370258746"><ele>8.0</ele><time>2026-04-03T09:19:55Z</time></trkpt><trkpt lat="43.38265118411436" lon="3.450477997268065"><ele>8.0</ele><time>2026-04-03T09:19:56Z</time></trkpt><trkpt lat="43.38285627302589" lon="3.4507551500900235"><ele>8.0</ele><time>2026-04-03T09:19:57Z</time></trkpt><trkpt lat="43.38306307492516" lon="3.451026065003617"><ele>8.0</ele><time>2026-04-03T09:19:58Z</time></trkpt><trkpt lat="43.38326989413622" lon="3.45129551752817"><ele>8.0</ele><time>2026-04-03T09:19:59Z</time></trkpt><trkpt lat="43.38347943597876" lon="3.4515621687290587"><ele>8.0</ele><time>2026-04-03T09:20:00Z</time></trkpt><trkpt lat="43.38369056170251" lon="3.451825959229638"><ele>8.0</ele><time>2026-04-03T09:20:01Z</time></trkpt><trkpt lat="43.38390306993502" lon="3.452094850735094"><ele>8.0</ele><time>2026-04-03T09:20:02Z</time></trkpt><trkpt lat="43.38411445627943" lon="3.45236000971462"><ele>8.0</ele><time>2026-04-03T09:20:03Z</time></trkpt><trkpt lat="43.38432284486383" lon="3.4526196946875523"><ele>8.0</ele><time>2026-04-03T09:20:04Z</time></trkpt><trkpt lat="43.38452613786423" lon="3.452877313824449"><ele>8.0</ele><time>2026-04-03T09:20:05Z</time></trkpt><trkpt lat="43.38473271530377" lon="3.4531357649340277"><ele>8.0</ele><time>2026-04-03T09:20:06Z</time></trkpt><trkpt lat="43.384936374470904" lon="3.4533924621661853"><ele>8.0</ele><time>2026-04-03T09:20:07Z</time></trkpt><trkpt lat="43.38513619579412" lon="3.4536438055772765"><ele>8.5</ele><time>2026-04-03T09:20:08Z</time></trkpt><trkpt lat="43.38533619391945" lon="3.453891694557762"><ele>9.0</ele><time>2026-04-03T09:20:09Z</time></trkpt><trkpt lat="43.38554000461502" lon="3.454144344430112"><ele>8.5</ele><time>2026-04-03T09:20:10Z</time></trkpt><trkpt lat="43.385741649583984" lon="3.4543969170715"><ele>8.0</ele><time>2026-04-03T09:20:11Z</time></trkpt><trkpt lat="43.3859425093917" lon="3.454650932401657"><ele>8.0</ele><time>2026-04-03T09:20:12Z</time></trkpt><trkpt lat="43.386144668532076" lon="3.4549019899266455"><ele>8.0</ele><time>2026-04-03T09:20:13Z</time></trkpt><trkpt lat="43.386345324924946" lon="3.4551573985851696"><ele>8.0</ele><time>2026-04-03T09:20:14Z</time></trkpt><trkpt lat="43.386547187784906" lon="3.4554139479335126"><ele>8.0</ele><time>2026-04-03T09:20:15Z</time></trkpt><trkpt lat="43.38675262628121" lon="3.4556639158303244"><ele>9.0</ele><time>2026-04-03T09:20:16Z</time></trkpt><trkpt lat="43.38695645143782" lon="3.455924519404379"><ele>10.0</ele><time>2026-04-03T09:20:17Z</time></trkpt><trkpt lat="43.387163301154004" lon="3.4561830776362052"><ele>8.5</ele><time>2026-04-03T09:20:18Z</time></trkpt><trkpt lat="43.387372035097286" lon="3.456441045149984"><ele>7.0</ele><time>2026-04-03T09:20:19Z</time></trkpt><trkpt lat="43.38757859841533" lon="3.4567006017840747"><ele>7.0</ele><time>2026-04-03T09:20:20Z</time></trkpt><trkpt lat="43.38778912875726" lon="3.4569645634759127"><ele>7.0</ele><time>2026-04-03T09:20:21Z</time></trkpt><trkpt lat="43.38799648101768" lon="3.4572228793969053"><ele>7.5</ele><time>2026-04-03T09:20:22Z</time></trkpt><trkpt lat="43.38820779214913" lon="3.4574908709041514"><ele>8.0</ele><time>2026-04-03T09:20:23Z</time></trkpt><trkpt lat="43.388418656259226" lon="3.4577557736551445"><ele>8.0</ele><time>2026-04-03T09:20:24Z</time></trkpt><trkpt lat="43.3886282371961" lon="3.458022274390528"><ele>8.0</ele><time>2026-04-03T09:20:25Z</time></trkpt><trkpt lat="43.38883829244427" lon="3.458283095894226"><ele>7.5</ele><time>2026-04-03T09:20:26Z</time></trkpt><trkpt lat="43.3890475509101" lon="3.4585404354981564"><ele>7.0</ele><time>2026-04-03T09:20:27Z</time></trkpt><trkpt lat="43.389263145818255" lon="3.4588001244310655"><ele>7.0</ele><time>2026-04-03T09:20:28Z</time></trkpt><trkpt lat="43.38947454979535" lon="3.4590602926255998"><ele>7.0</ele><time>2026-04-03T09:20:29Z</time></trkpt><trkpt lat="43.38968276232027" lon="3.4593252649644954"><ele>7.0</ele><time>2026-04-03T09:20:30Z</time></trkpt><trkpt lat="43.38989052548612" lon="3.4595938605489645"><ele>7.0</ele><time>2026-04-03T09:20:31Z</time></trkpt><trkpt lat="43.390094633308074" lon="3.4598641426520698"><ele>8.0</ele><time>2026-04-03T09:20:32Z</time></trkpt><trkpt lat="43.390299086475885" lon="3.460132916167904"><ele>9.0</ele><time>2026-04-03T09:20:33Z</time></trkpt><trkpt lat="43.39050522534987" lon="3.4604020124241077"><ele>10.0</ele><time>2026-04-03T09:20:34Z</time></trkpt><trkpt lat="43.39071136383806" lon="3.46066408185017"><ele>11.0</ele><time>2026-04-03T09:20:35Z</time></trkpt><trkpt lat="43.390918861891116" lon="3.4609250932475963"><ele>11.0</ele><time>2026-04-03T09:20:36Z</time></trkpt><trkpt lat="43.391122752030924" lon="3.46118679135966"><ele>11.0</ele><time>2026-04-03T09:20:37Z</time></trkpt><trkpt lat="43.391327619087335" lon="3.4614480676715087"><ele>11.5</ele><time>2026-04-03T09:20:38Z</time></trkpt><trkpt lat="43.39153204319592" lon="3.461709639937619"><ele>12.0</ele><time>2026-04-03T09:20:39Z</time></trkpt><trkpt lat="43.39173601174637" lon="3.4619680738497176"><ele>12.5</ele><time>2026-04-03T09:20:40Z</time></trkpt><trkpt lat="43.391940461177185" lon="3.462234096667779"><ele>13.0</ele><time>2026-04-03T09:20:41Z</time></trkpt><trkpt lat="43.392143719218694" lon="3.46250166169433"><ele>12.5</ele><time>2026-04-03T09:20:42Z</time></trkpt><trkpt lat="43.39234506653271" lon="3.4627682176532235"><ele>12.0</ele><time>2026-04-03T09:20:43Z</time></trkpt><trkpt lat="43.392541881871686" lon="3.463033929128754"><ele>14.0</ele><time>2026-04-03T09:20:44Z</time></trkpt><trkpt lat="43.39273789782264" lon="3.463309006182105"><ele>16.0</ele><time>2026-04-03T09:20:45Z</time></trkpt><trkpt lat="43.39293043590127" lon="3.463578849878821"><ele>18.0</ele><time>2026-04-03T09:20:46Z</time></trkpt><trkpt lat="43.393123113368574" lon="3.4638562202893928"><ele>20.0</ele><time>2026-04-03T09:20:47Z</time></trkpt><trkpt lat="43.39331189122995" lon="3.464133832973673"><ele>20.0</ele><time>2026-04-03T09:20:48Z</time></trkpt><trkpt lat="43.393501365551245" lon="3.4644131476541324"><ele>20.0</ele><time>2026-04-03T09:20:49Z</time></trkpt><trkpt lat="43.39368724585973" lon="3.464693341386294"><ele>21.0</ele><time>2026-04-03T09:20:50Z</time></trkpt><trkpt lat="43.39387305519238" lon="3.4649760596372605"><ele>22.0</ele><time>2026-04-03T09:20:51Z</time></trkpt><trkpt lat="43.394054359249324" lon="3.465259424320259"><ele>22.5</ele><time>2026-04-03T09:20:52Z</time></trkpt><trkpt lat="43.39423646602258" lon="3.465547421346101"><ele>23.0</ele><time>2026-04-03T09:20:53Z</time></trkpt><trkpt lat="43.39441753230436" lon="3.4658349143980227"><ele>23.0</ele><time>2026-04-03T09:20:54Z</time></trkpt><trkpt lat="43.39459861212032" lon="3.46612428720634"><ele>23.0</ele><time>2026-04-03T09:20:55Z</time></trkpt><trkpt lat="43.394777223667944" lon="3.4664115146916155"><ele>24.0</ele><time>2026-04-03T09:20:56Z</time></trkpt><trkpt lat="43.394955811196844" lon="3.466704879387122"><ele>25.0</ele><time>2026-04-03T09:20:57Z</time></trkpt><trkpt lat="43.39513358968527" lon="3.4669958595020627"><ele>25.5</ele><time>2026-04-03T09:20:58Z</time></trkpt><trkpt lat="43.395314183302254" lon="3.46728460871871"><ele>26.0</ele><time>2026-04-03T09:20:59Z</time></trkpt><trkpt lat="43.3954962802112" lon="3.467573907701058"><ele>26.0</ele><time>2026-04-03T09:21:00Z</time></trkpt><trkpt lat="43.395679694267756" lon="3.467861842574876"><ele>26.0</ele><time>2026-04-03T09:21:01Z</time></trkpt><trkpt lat="43.39585979988394" lon="3.468154502449467"><ele>27.5</ele><time>2026-04-03T09:21:02Z</time></trkpt><trkpt lat="43.396042488083985" lon="3.4684493414494475"><ele>29.0</ele><time>2026-04-03T09:21:03Z</time></trkpt><trkpt lat="43.39622445102102" lon="3.4687424050690248"><ele>31.0</ele><time>2026-04-03T09:21:04Z</time></trkpt><trkpt lat="43.39640586847336" lon="3.4690385933610557"><ele>33.0</ele><time>2026-04-03T09:21:05Z</time></trkpt><trkpt lat="43.39658893485754" lon="3.469336407244707"><ele>32.0</ele><time>2026-04-03T09:21:06Z</time></trkpt><trkpt lat="43.39677114481222" lon="3.4696347144458834"><ele>31.0</ele><time>2026-04-03T09:21:07Z</time></trkpt><trkpt lat="43.396953306771394" lon="3.469933531019146"><ele>31.0</ele><time>2026-04-03T09:21:08Z</time></trkpt><trkpt lat="43.397139641907344" lon="3.470232358027061"><ele>31.0</ele><time>2026-04-03T09:21:09Z</time></trkpt><trkpt lat="43.39732466289021" lon="3.4705258748544656"><ele>31.5</ele><time>2026-04-03T09:21:10Z</time></trkpt><trkpt lat="43.397509054305694" lon="3.470823136028812"><ele>32.0</ele><time>2026-04-03T09:21:11Z</time></trkpt><trkpt lat="43.39769155899431" lon="3.471123538873492"><ele>32.5</ele><time>2026-04-03T09:21:12Z</time></trkpt><trkpt lat="43.397876855877065" lon="3.471422838811779"><ele>33.0</ele><time>2026-04-03T09:21:13Z</time></trkpt><trkpt lat="43.39806016061626" lon="3.471719300952167"><ele>33.0</ele><time>2026-04-03T09:21:14Z</time></trkpt><trkpt lat="43.398242228642445" lon="3.472018011029188"><ele>33.0</ele><time>2026-04-03T09:21:15Z</time></trkpt><trkpt lat="43.398426153423536" lon="3.4723155603565394"><ele>35.0</ele><time>2026-04-03T09:21:16Z</time></trkpt><trkpt lat="43.39861036647985" lon="3.4726139512401977"><ele>37.0</ele><time>2026-04-03T09:21:17Z</time></trkpt><trkpt lat="43.39879572676424" lon="3.472913625397351"><ele>40.0</ele><time>2026-04-03T09:21:18Z</time></trkpt><trkpt lat="43.398983496038475" lon="3.4732127343494352"><ele>43.0</ele><time>2026-04-03T09:21:19Z</time></trkpt><trkpt lat="43.399171437265" lon="3.4735128931689894"><ele>43.5</ele><time>2026-04-03T09:21:20Z</time></trkpt><trkpt lat="43.39935898949083" lon="3.473812182672506"><ele>44.0</ele><time>2026-04-03T09:21:21Z</time></trkpt><trkpt lat="43.39954647859387" lon="3.474114903052986"><ele>44.0</ele><time>2026-04-03T09:21:22Z</time></trkpt><trkpt lat="43.399734688294714" lon="3.4744209401352357"><ele>44.0</ele><time>2026-04-03T09:21:23Z</time></trkpt><trkpt lat="43.399922556648704" lon="3.4747245301837713"><ele>44.0</ele><time>2026-04-03T09:21:24Z</time></trkpt><trkpt lat="43.400109609416596" lon="3.475027529915604"><ele>44.0</ele><time>2026-04-03T09:21:25Z</time></trkpt><trkpt lat="43.4002953750581" lon="3.475331673550427"><ele>44.0</ele><time>2026-04-03T09:21:26Z</time></trkpt><trkpt lat="43.40047907753193" lon="3.4756340829700205"><ele>44.0</ele><time>2026-04-03T09:21:27Z</time></trkpt><trkpt lat="43.400663914214014" lon="3.4759354075331936"><ele>43.0</ele><time>2026-04-03T09:21:28Z</time></trkpt><trkpt lat="43.40085084001525" lon="3.4762360900611284"><ele>42.0</ele><time>2026-04-03T09:21:29Z</time></trkpt><trkpt lat="43.401035654527625" lon="3.4765383930475"><ele>41.0</ele><time>2026-04-03T09:21:30Z</time></trkpt><trkpt lat="43.40121915088654" lon="3.4768387228258377"><ele>40.0</ele><time>2026-04-03T09:21:31Z</time></trkpt><trkpt lat="43.40140162947755" lon="3.4771393700839965"><ele>40.0</ele><time>2026-04-03T09:21:32Z</time></trkpt><trkpt lat="43.40158719142429" lon="3.4774379627710927"><ele>40.0</ele><time>2026-04-03T09:21:33Z</time></trkpt><trkpt lat="43.401770639495666" lon="3.4777379167500877"><ele>40.5</ele><time>2026-04-03T09:21:34Z</time></trkpt><trkpt lat="43.40195393007321" lon="3.478037596333314"><ele>41.0</ele><time>2026-04-03T09:21:35Z</time></trkpt><trkpt lat="43.40213490633306" lon="3.478335148847638"><ele>41.5</ele><time>2026-04-03T09:21:36Z</time></trkpt><trkpt lat="43.40231451494885" lon="3.47863755684484"><ele>42.0</ele><time>2026-04-03T09:21:37Z</time></trkpt><trkpt lat="43.40249070569071" lon="3.4789332131398325"><ele>42.0</ele><time>2026-04-03T09:21:38Z</time></trkpt><trkpt lat="43.402672698205976" lon="3.4792364476406985"><ele>42.0</ele><time>2026-04-03T09:21:39Z</time></trkpt><trkpt lat="43.40285102395819" lon="3.4795435103996852"><ele>40.5</ele><time>2026-04-03T09:21:40Z</time></trkpt><trkpt lat="43.40302541049366" lon="3.479845750623169"><ele>39.0</ele><time>2026-04-03T09:21:41Z</time></trkpt><trkpt lat="43.403197682737805" lon="3.4801491443991526"><ele>39.5</ele><time>2026-04-03T09:21:42Z</time></trkpt><trkpt lat="43.40336757475966" lon="3.4804543324255572"><ele>40.0</ele><time>2026-04-03T09:21:43Z</time></trkpt><trkpt lat="43.40353687157219" lon="3.4807628969090096"><ele>40.0</ele><time>2026-04-03T09:21:44Z</time></trkpt><trkpt lat="43.40370046737819" lon="3.481076318643394"><ele>40.0</ele><time>2026-04-03T09:21:45Z</time></trkpt><trkpt lat="43.40386357317171" lon="3.48139235568294"><ele>43.5</ele><time>2026-04-03T09:21:46Z</time></trkpt><trkpt lat="43.404022359971044" lon="3.481712771527583"><ele>47.0</ele><time>2026-04-03T09:21:47Z</time></trkpt><trkpt lat="43.40418129663645" lon="3.4820386564599777"><ele>46.5</ele><time>2026-04-03T09:21:48Z</time></trkpt><trkpt lat="43.40433360276065" lon="3.482372604654364"><ele>46.0</ele><time>2026-04-03T09:21:49Z</time></trkpt><trkpt lat="43.40448454415985" lon="3.482702876449241"><ele>45.0</ele><time>2026-04-03T09:21:50Z</time></trkpt><trkpt lat="43.404633128316064" lon="3.48303847673626"><ele>44.0</ele><time>2026-04-03T09:21:51Z</time></trkpt><trkpt lat="43.40477289169775" lon="3.48337804984344"><ele>44.0</ele><time>2026-04-03T09:21:52Z</time></trkpt><trkpt lat="43.40491299214539" lon="3.4837184287890715"><ele>44.0</ele><time>2026-04-03T09:21:53Z</time></trkpt><trkpt lat="43.40504676628151" lon="3.48406170534833"><ele>43.5</ele><time>2026-04-03T09:21:54Z</time></trkpt><trkpt lat="43.40518365136949" lon="3.4844075491531754"><ele>43.0</ele><time>2026-04-03T09:21:55Z</time></trkpt><trkpt lat="43.4053143362669" lon="3.484753993059484"><ele>43.0</ele><time>2026-04-03T09:21:56Z</time></trkpt><trkpt lat="43.40544036786539" lon="3.485099375317543"><ele>43.0</ele><time>2026-04-03T09:21:57Z</time></trkpt><trkpt lat="43.405559853229654" lon="3.485454065270327"><ele>44.5</ele><time>2026-04-03T09:21:58Z</time></trkpt><trkpt lat="43.40568189007048" lon="3.485805445125806"><ele>46.0</ele><time>2026-04-03T09:21:59Z</time></trkpt><trkpt lat="43.40579135817321" lon="3.4861689137204435"><ele>46.5</ele><time>2026-04-03T09:22:00Z</time></trkpt><trkpt lat="43.40590536127145" lon="3.4865291735573756"><ele>47.0</ele><time>2026-04-03T09:22:01Z</time></trkpt><trkpt lat="43.4060145131847" lon="3.4868923299148094"><ele>46.5</ele><time>2026-04-03T09:22:02Z</time></trkpt><trkpt lat="43.40612396722298" lon="3.48725662857953"><ele>46.0</ele><time>2026-04-03T09:22:03Z</time></trkpt><trkpt lat="43.40623002919111" lon="3.487622551906547"><ele>47.0</ele><time>2026-04-03T09:22:04Z</time></trkpt><trkpt lat="43.406332893989166" lon="3.487993980118366"><ele>48.0</ele><time>2026-04-03T09:22:05Z</time></trkpt><trkpt lat="43.40643090148118" lon="3.4883645647732404"><ele>48.0</ele><time>2026-04-03T09:22:06Z</time></trkpt><trkpt lat="43.40652479043302" lon="3.48873729246877"><ele>48.0</ele><time>2026-04-03T09:22:07Z</time></trkpt><trkpt lat="43.40661577804031" lon="3.4891139506579316"><ele>48.5</ele><time>2026-04-03T09:22:08Z</time></trkpt><trkpt lat="43.40670037952756" lon="3.489488805307935"><ele>49.0</ele><time>2026-04-03T09:22:09Z</time></trkpt><trkpt lat="43.40678321337823" lon="3.4898663845596753"><ele>49.5</ele><time>2026-04-03T09:22:10Z</time></trkpt><trkpt lat="43.40686527437374" lon="3.490244764145978"><ele>50.0</ele><time>2026-04-03T09:22:11Z</time></trkpt><trkpt lat="43.406944819183806" lon="3.4906243428676635"><ele>50.0</ele><time>2026-04-03T09:22:12Z</time></trkpt><trkpt lat="43.40701988094779" lon="3.4910034082365597"><ele>50.0</ele><time>2026-04-03T09:22:13Z</time></trkpt><trkpt lat="43.407091670977174" lon="3.4913846698309774"><ele>51.0</ele><time>2026-04-03T09:22:14Z</time></trkpt><trkpt lat="43.40716520311498" lon="3.4917656957440646"><ele>52.0</ele><time>2026-04-03T09:22:15Z</time></trkpt><trkpt lat="43.40723576866243" lon="3.4921511097324744"><ele>52.5</ele><time>2026-04-03T09:22:16Z</time></trkpt><trkpt lat="43.40730171821665" lon="3.4925321198642556"><ele>53.0</ele><time>2026-04-03T09:22:17Z</time></trkpt><trkpt lat="43.407367996463385" lon="3.492918624156671"><ele>52.0</ele><time>2026-04-03T09:22:18Z</time></trkpt><trkpt lat="43.407433477710875" lon="3.493307883026738"><ele>51.0</ele><time>2026-04-03T09:22:19Z</time></trkpt><trkpt lat="43.40750081913684" lon="3.493696433728182"><ele>51.0</ele><time>2026-04-03T09:22:20Z</time></trkpt><trkpt lat="43.40756715985607" lon="3.4940794104204587"><ele>51.0</ele><time>2026-04-03T09:22:21Z</time></trkpt><trkpt lat="43.40763395666929" lon="3.4944676441999407"><ele>50.5</ele><time>2026-04-03T09:22:22Z</time></trkpt><trkpt lat="43.407702642791776" lon="3.4948517043809844"><ele>50.0</ele><time>2026-04-03T09:22:23Z</time></trkpt><trkpt lat="43.40776830442987" lon="3.495237157840081"><ele>50.0</ele><time>2026-04-03T09:22:24Z</time></trkpt><trkpt lat="43.40782880930754" lon="3.4956085154678704"><ele>50.0</ele><time>2026-04-03T09:22:25Z</time></trkpt><trkpt lat="43.40789113971211" lon="3.495975657739576"><ele>48.0</ele><time>2026-04-03T09:22:26Z</time></trkpt><trkpt lat="43.40795204706947" lon="3.4963327805127054"><ele>46.0</ele><time>2026-04-03T09:22:27Z</time></trkpt><trkpt lat="43.40800945680695" lon="3.4966830184436906"><ele>46.0</ele><time>2026-04-03T09:22:28Z</time></trkpt><trkpt lat="43.40806948087825" lon="3.4970215606364956"><ele>46.0</ele><time>2026-04-03T09:22:29Z</time></trkpt><trkpt lat="43.408127223648144" lon="3.4973584633555035"><ele>45.0</ele><time>2026-04-03T09:22:30Z</time></trkpt><trkpt lat="43.408186158537745" lon="3.497686739991044"><ele>44.0</ele><time>2026-04-03T09:22:31Z</time></trkpt><trkpt lat="43.40824233165226" lon="3.49800744889549"><ele>43.5</ele><time>2026-04-03T09:22:32Z</time></trkpt><trkpt lat="43.4082990702955" lon="3.4983236802220565"><ele>43.0</ele><time>2026-04-03T09:22:33Z</time></trkpt><trkpt lat="43.4083569573107" lon="3.498636241584362"><ele>42.5</ele><time>2026-04-03T09:22:34Z</time></trkpt><trkpt lat="43.408418520595234" lon="3.498940927527503"><ele>42.0</ele><time>2026-04-03T09:22:35Z</time></trkpt><trkpt lat="43.40848076410851" lon="3.499249269815112"><ele>42.0</ele><time>2026-04-03T09:22:36Z</time></trkpt><trkpt lat="43.40854261195981" lon="3.49956188662686"><ele>42.0</ele><time>2026-04-03T09:22:37Z</time></trkpt><trkpt lat="43.40861974868216" lon="3.499890401144771"><ele>41.5</ele><time>2026-04-03T09:22:38Z</time></trkpt><trkpt lat="43.40870337149659" lon="3.50021144260752"><ele>41.0</ele><time>2026-04-03T09:22:39Z</time></trkpt><trkpt lat="43.40877836963664" lon="3.5005501007128523"><ele>41.0</ele><time>2026-04-03T09:22:40Z</time></trkpt><trkpt lat="43.40885631420608" lon="3.500891092829135"><ele>41.0</ele><time>2026-04-03T09:22:41Z</time></trkpt><trkpt lat="43.40893668110809" lon="3.501241453677514"><ele>40.0</ele><time>2026-04-03T09:22:42Z</time></trkpt><trkpt lat="43.40901783764348" lon="3.5015910176047123"><ele>39.0</ele><time>2026-04-03T09:22:43Z</time></trkpt><trkpt lat="43.40910045403636" lon="3.5019485598569218"><ele>39.5</ele><time>2026-04-03T09:22:44Z</time></trkpt><trkpt lat="43.40917818217563" lon="3.502300435315814"><ele>40.0</ele><time>2026-04-03T09:22:45Z</time></trkpt><trkpt lat="43.40925796798631" lon="3.502655435684804"><ele>40.0</ele><time>2026-04-03T09:22:46Z</time></trkpt><trkpt lat="43.409334479838236" lon="3.5030146000640903"><ele>40.0</ele><time>2026-04-03T09:22:47Z</time></trkpt><trkpt lat="43.40941602917109" lon="3.5033742680530313"><ele>40.0</ele><time>2026-04-03T09:22:48Z</time></trkpt><trkpt lat="43.409495696569536" lon="3.5037299456410658"><ele>40.0</ele><time>2026-04-03T09:22:49Z</time></trkpt><trkpt lat="43.40958117794356" lon="3.504086542826456"><ele>39.0</ele><time>2026-04-03T09:22:50Z</time></trkpt><trkpt lat="43.40967066882624" lon="3.504442118213147"><ele>38.0</ele><time>2026-04-03T09:22:51Z</time></trkpt><trkpt lat="43.409762117273445" lon="3.504799659838122"><ele>37.0</ele><time>2026-04-03T09:22:52Z</time></trkpt><trkpt lat="43.409856019272134" lon="3.505150817535216"><ele>36.0</ele><time>2026-04-03T09:22:53Z</time></trkpt><trkpt lat="43.40994738416125" lon="3.505487561159201"><ele>35.0</ele><time>2026-04-03T09:22:54Z</time></trkpt><trkpt lat="43.41004489605375" lon="3.5058359159101613"><ele>34.0</ele><time>2026-04-03T09:22:55Z</time></trkpt><trkpt lat="43.41015039466948" lon="3.506194080019851"><ele>33.0</ele><time>2026-04-03T09:22:56Z</time></trkpt><trkpt lat="43.41025448877659" lon="3.5065520560915755"><ele>32.0</ele><time>2026-04-03T09:22:57Z</time></trkpt><trkpt lat="43.410359046643784" lon="3.5069100380537592"><ele>32.0</ele><time>2026-04-03T09:22:58Z</time></trkpt><trkpt lat="43.41046449976259" lon="3.5072706431352136"><ele>32.0</ele><time>2026-04-03T09:22:59Z</time></trkpt><trkpt lat="43.41057463598789" lon="3.5076300985150204"><ele>31.0</ele><time>2026-04-03T09:23:00Z</time></trkpt><trkpt lat="43.410691105780934" lon="3.507989608099211"><ele>30.0</ele><time>2026-04-03T09:23:01Z</time></trkpt><trkpt lat="43.410806656007075" lon="3.5083465446011384"><ele>30.0</ele><time>2026-04-03T09:23:02Z</time></trkpt><trkpt lat="43.41092502266403" lon="3.5087037070319838"><ele>30.0</ele><time>2026-04-03T09:23:03Z</time></trkpt><trkpt lat="43.411042621324945" lon="3.5090574179202005"><ele>30.0</ele><time>2026-04-03T09:23:04Z</time></trkpt><trkpt lat="43.41116059105838" lon="3.509406836420024"><ele>30.0</ele><time>2026-04-03T09:23:05Z</time></trkpt><trkpt lat="43.4112767533383" lon="3.509752683522435"><ele>29.5</ele><time>2026-04-03T09:23:06Z</time></trkpt><trkpt lat="43.411393639960046" lon="3.5100938986593713"><ele>29.0</ele><time>2026-04-03T09:23:07Z</time></trkpt><trkpt lat="43.41151681226536" lon="3.5104309221562526"><ele>29.0</ele><time>2026-04-03T09:23:08Z</time></trkpt><trkpt lat="43.4116404405184" lon="3.5107604455732675"><ele>29.0</ele><time>2026-04-03T09:23:09Z</time></trkpt><trkpt lat="43.411760740871394" lon="3.5110844982754594"><ele>29.5</ele><time>2026-04-03T09:23:10Z</time></trkpt><trkpt lat="43.41188053355732" lon="3.51140595880886"><ele>30.0</ele><time>2026-04-03T09:23:11Z</time></trkpt><trkpt lat="43.41200463519306" lon="3.511724884174932"><ele>30.0</ele><time>2026-04-03T09:23:12Z</time></trkpt><trkpt lat="43.41213124621135" lon="3.5120424023278582"><ele>30.0</ele><time>2026-04-03T09:23:13Z</time></trkpt><trkpt lat="43.41226619409192" lon="3.5123585991706316"><ele>31.5</ele><time>2026-04-03T09:23:14Z</time></trkpt><trkpt lat="43.412402855875555" lon="3.51267457041046"><ele>33.0</ele><time>2026-04-03T09:23:15Z</time></trkpt><trkpt lat="43.412538492876294" lon="3.512995760081375"><ele>33.0</ele><time>2026-04-03T09:23:16Z</time></trkpt><trkpt lat="43.412674711616525" lon="3.513326002439128"><ele>33.0</ele><time>2026-04-03T09:23:17Z</time></trkpt><trkpt lat="43.412813939484835" lon="3.513662900688423"><ele>33.0</ele><time>2026-04-03T09:23:18Z</time></trkpt><trkpt lat="43.412955997933544" lon="3.513996519352821"><ele>33.0</ele><time>2026-04-03T09:23:19Z</time></trkpt><trkpt lat="43.41310350945064" lon="3.5143292526158127"><ele>34.0</ele><time>2026-04-03T09:23:20Z</time></trkpt><trkpt lat="43.41324980877872" lon="3.514673108141214"><ele>35.0</ele><time>2026-04-03T09:23:21Z</time></trkpt><trkpt lat="43.41338978269767" lon="3.5150193823401823"><ele>35.0</ele><time>2026-04-03T09:23:22Z</time></trkpt><trkpt lat="43.41352768119654" lon="3.515361389170753"><ele>35.0</ele><time>2026-04-03T09:23:23Z</time></trkpt><trkpt lat="43.4136689407532" lon="3.51569658146079"><ele>35.5</ele><time>2026-04-03T09:23:24Z</time></trkpt><trkpt lat="43.41381696672995" lon="3.51603030422705"><ele>36.0</ele><time>2026-04-03T09:23:25Z</time></trkpt><trkpt lat="43.41396855094162" lon="3.5163600646983717"><ele>36.0</ele><time>2026-04-03T09:23:26Z</time></trkpt><trkpt lat="43.41412189147852" lon="3.5166897230304293"><ele>36.0</ele><time>2026-04-03T09:23:27Z</time></trkpt><trkpt lat="43.41427516221627" lon="3.51702290679953"><ele>35.5</ele><time>2026-04-03T09:23:28Z</time></trkpt><trkpt lat="43.4144263156531" lon="3.51735928841123"><ele>35.0</ele><time>2026-04-03T09:23:29Z</time></trkpt><trkpt lat="43.41457900959813" lon="3.517691047878372"><ele>36.0</ele><time>2026-04-03T09:23:30Z</time></trkpt><trkpt lat="43.41473300846602" lon="3.518022606650821"><ele>37.0</ele><time>2026-04-03T09:23:31Z</time></trkpt><trkpt lat="43.41488533815379" lon="3.5183584581142435"><ele>37.0</ele><time>2026-04-03T09:23:32Z</time></trkpt><trkpt lat="43.415039980034415" lon="3.5186905291803194"><ele>37.0</ele><time>2026-04-03T09:23:33Z</time></trkpt><trkpt lat="43.41519400952472" lon="3.519028752828466"><ele>37.0</ele><time>2026-04-03T09:23:34Z</time></trkpt><trkpt lat="43.415346173973724" lon="3.5193654405382677"><ele>37.0</ele><time>2026-04-03T09:23:35Z</time></trkpt><trkpt lat="43.41550141226806" lon="3.519703739130899"><ele>39.0</ele><time>2026-04-03T09:23:36Z</time></trkpt><trkpt lat="43.41565442591434" lon="3.520039977151147"><ele>41.0</ele><time>2026-04-03T09:23:37Z</time></trkpt><trkpt lat="43.415808815626185" lon="3.5203779272733278"><ele>41.5</ele><time>2026-04-03T09:23:38Z</time></trkpt><trkpt lat="43.41596535230643" lon="3.5207168626810486"><ele>42.0</ele><time>2026-04-03T09:23:39Z</time></trkpt><trkpt lat="43.416119431533694" lon="3.52105499157756"><ele>43.0</ele><time>2026-04-03T09:23:40Z</time></trkpt><trkpt lat="43.416274361059" lon="3.5213914939425837"><ele>44.0</ele><time>2026-04-03T09:23:41Z</time></trkpt><trkpt lat="43.41643118865127" lon="3.52172387071119"><ele>44.0</ele><time>2026-04-03T09:23:42Z</time></trkpt><trkpt lat="43.41658569437737" lon="3.5220620617123135"><ele>44.0</ele><time>2026-04-03T09:23:43Z</time></trkpt><trkpt lat="43.41674152775194" lon="3.5223996913022058"><ele>44.0</ele><time>2026-04-03T09:23:44Z</time></trkpt><trkpt lat="43.4168951639431" lon="3.522740755596179"><ele>44.0</ele><time>2026-04-03T09:23:45Z</time></trkpt><trkpt lat="43.41704911608494" lon="3.5230747032673464"><ele>44.0</ele><time>2026-04-03T09:23:46Z</time></trkpt><trkpt lat="43.41720293996069" lon="3.523414118665508"><ele>44.0</ele><time>2026-04-03T09:23:47Z</time></trkpt><trkpt lat="43.41735291401843" lon="3.523748609221046"><ele>44.0</ele><time>2026-04-03T09:23:48Z</time></trkpt><trkpt lat="43.417504796477225" lon="3.5240829793405326"><ele>44.0</ele><time>2026-04-03T09:23:49Z</time></trkpt><trkpt lat="43.4176552705668" lon="3.5244237719963305"><ele>43.0</ele><time>2026-04-03T09:23:50Z</time></trkpt><trkpt lat="43.41780331358498" lon="3.5247569389258286"><ele>42.0</ele><time>2026-04-03T09:23:51Z</time></trkpt><trkpt lat="43.41794963315067" lon="3.525099067241142"><ele>43.5</ele><time>2026-04-03T09:23:52Z</time></trkpt><trkpt lat="43.41809689758134" lon="3.525437339356055"><ele>45.0</ele><time>2026-04-03T09:23:53Z</time></trkpt><trkpt lat="43.418236403024" lon="3.5257757328677286"><ele>45.0</ele><time>2026-04-03T09:23:54Z</time></trkpt><trkpt lat="43.41837178737985" lon="3.5261136108380553"><ele>45.0</ele><time>2026-04-03T09:23:55Z</time></trkpt><trkpt lat="43.41850399797665" lon="3.5264509953864547"><ele>44.0</ele><time>2026-04-03T09:23:56Z</time></trkpt><trkpt lat="43.41863591630823" lon="3.5267915277255266"><ele>43.0</ele><time>2026-04-03T09:23:57Z</time></trkpt><trkpt lat="43.418765299505054" lon="3.527135451127305"><ele>43.0</ele><time>2026-04-03T09:23:58Z</time></trkpt><trkpt lat="43.41889017540892" lon="3.527474758572213"><ele>43.0</ele><time>2026-04-03T09:23:59Z</time></trkpt><trkpt lat="43.41900999126458" lon="3.527812608032967"><ele>42.5</ele><time>2026-04-03T09:24:00Z</time></trkpt><trkpt lat="43.41913037357585" lon="3.5281553922670725"><ele>42.0</ele><time>2026-04-03T09:24:01Z</time></trkpt><trkpt lat="43.41925087810761" lon="3.5285016046959954"><ele>42.0</ele><time>2026-04-03T09:24:02Z</time></trkpt><trkpt lat="43.41936753739958" lon="3.528854046310321"><ele>42.0</ele><time>2026-04-03T09:24:03Z</time></trkpt><trkpt lat="43.41947993194173" lon="3.5292116262647526"><ele>42.0</ele><time>2026-04-03T09:24:04Z</time></trkpt><trkpt lat="43.41958700607238" lon="3.5295701526258045"><ele>42.0</ele><time>2026-04-03T09:24:05Z</time></trkpt><trkpt lat="43.4196894534557" lon="3.5299326528386468"><ele>42.0</ele><time>2026-04-03T09:24:06Z</time></trkpt><trkpt lat="43.419794121226204" lon="3.5303008349888687"><ele>42.0</ele><time>2026-04-03T09:24:07Z</time></trkpt><trkpt lat="43.41989402248183" lon="3.530669564439314"><ele>42.0</ele><time>2026-04-03T09:24:08Z</time></trkpt><trkpt lat="43.419989723394195" lon="3.5310433278873865"><ele>42.0</ele><time>2026-04-03T09:24:09Z</time></trkpt><trkpt lat="43.42008706862866" lon="3.5314186847774596"><ele>40.5</ele><time>2026-04-03T09:24:10Z</time></trkpt><trkpt lat="43.42018196430785" lon="3.5317956113970834"><ele>39.0</ele><time>2026-04-03T09:24:11Z</time></trkpt><trkpt lat="43.42027657012101" lon="3.5321682042512035"><ele>38.5</ele><time>2026-04-03T09:24:12Z</time></trkpt><trkpt lat="43.42036696438638" lon="3.53253965948724"><ele>38.0</ele><time>2026-04-03T09:24:13Z</time></trkpt><trkpt lat="43.42045838444685" lon="3.532914134812763"><ele>38.0</ele><time>2026-04-03T09:24:14Z</time></trkpt><trkpt lat="43.42055125702137" lon="3.533293268055379"><ele>38.0</ele><time>2026-04-03T09:24:15Z</time></trkpt><trkpt lat="43.42064665882592" lon="3.5336742570694932"><ele>39.0</ele><time>2026-04-03T09:24:16Z</time></trkpt><trkpt lat="43.42074520669922" lon="3.5340538407987747"><ele>40.0</ele><time>2026-04-03T09:24:17Z</time></trkpt><trkpt lat="43.42084473996822" lon="3.5344359332649464"><ele>38.5</ele><time>2026-04-03T09:24:18Z</time></trkpt><trkpt lat="43.420942539565694" lon="3.534818084351319"><ele>37.0</ele><time>2026-04-03T09:24:19Z</time></trkpt><trkpt lat="43.42103890045459" lon="3.5352042556134418"><ele>36.0</ele><time>2026-04-03T09:24:20Z</time></trkpt><trkpt lat="43.421134506520204" lon="3.535588402054239"><ele>35.0</ele><time>2026-04-03T09:24:21Z</time></trkpt><trkpt lat="43.421231425463105" lon="3.535973965386115"><ele>35.5</ele><time>2026-04-03T09:24:22Z</time></trkpt><trkpt lat="43.42132882102935" lon="3.536362554076644"><ele>36.0</ele><time>2026-04-03T09:24:23Z</time></trkpt><trkpt lat="43.421425005533074" lon="3.5367466352115717"><ele>34.5</ele><time>2026-04-03T09:24:24Z</time></trkpt><trkpt lat="43.42151675258852" lon="3.537125265919018"><ele>33.0</ele><time>2026-04-03T09:24:25Z</time></trkpt><trkpt lat="43.421606017953685" lon="3.537506409071359"><ele>32.5</ele><time>2026-04-03T09:24:26Z</time></trkpt><trkpt lat="43.42169175454275" lon="3.537892142977261"><ele>32.0</ele><time>2026-04-03T09:24:27Z</time></trkpt><trkpt lat="43.42177497114074" lon="3.538275867137034"><ele>32.0</ele><time>2026-04-03T09:24:28Z</time></trkpt><trkpt lat="43.42185601009322" lon="3.5386630176065474"><ele>32.0</ele><time>2026-04-03T09:24:29Z</time></trkpt><trkpt lat="43.421933947295145" lon="3.5390479878753216"><ele>31.5</ele><time>2026-04-03T09:24:30Z</time></trkpt><trkpt lat="43.42200789156059" lon="3.539434994278044"><ele>31.0</ele><time>2026-04-03T09:24:31Z</time></trkpt><trkpt lat="43.422079426202515" lon="3.539819640365579"><ele>32.0</ele><time>2026-04-03T09:24:32Z</time></trkpt><trkpt lat="43.42215049429345" lon="3.5402037291419557"><ele>33.0</ele><time>2026-04-03T09:24:33Z</time></trkpt><trkpt lat="43.42221795294618" lon="3.540590779870296"><ele>33.5</ele><time>2026-04-03T09:24:34Z</time></trkpt><trkpt lat="43.42228449693387" lon="3.5409805502593787"><ele>34.0</ele><time>2026-04-03T09:24:35Z</time></trkpt><trkpt lat="43.4223493564459" lon="3.5413707977852034"><ele>33.0</ele><time>2026-04-03T09:24:36Z</time></trkpt><trkpt lat="43.4224132084923" lon="3.541764277657418"><ele>32.0</ele><time>2026-04-03T09:24:37Z</time></trkpt><trkpt lat="43.42247580169092" lon="3.5421548128946037"><ele>29.5</ele><time>2026-04-03T09:24:38Z</time></trkpt><trkpt lat="43.42253772004292" lon="3.542540293367141"><ele>27.0</ele><time>2026-04-03T09:24:39Z</time></trkpt><trkpt lat="43.42260134250202" lon="3.542925253603036"><ele>26.0</ele><time>2026-04-03T09:24:40Z</time></trkpt><trkpt lat="43.422662461211445" lon="3.5433125633730596"><ele>25.0</ele><time>2026-04-03T09:24:41Z</time></trkpt><trkpt lat="43.42272316906071" lon="3.5436953418712167"><ele>24.0</ele><time>2026-04-03T09:24:42Z</time></trkpt><trkpt lat="43.422783502317486" lon="3.5440765295420777"><ele>23.0</ele><time>2026-04-03T09:24:43Z</time></trkpt><trkpt lat="43.42284555161394" lon="3.5444598165649333"><ele>21.5</ele><time>2026-04-03T09:24:44Z</time></trkpt><trkpt lat="43.42290750740209" lon="3.544837036423555"><ele>20.0</ele><time>2026-04-03T09:24:45Z</time></trkpt><trkpt lat="43.42296897865802" lon="3.5452191852704975"><ele>18.5</ele><time>2026-04-03T09:24:46Z</time></trkpt><trkpt lat="43.423032924485746" lon="3.5456018753098877"><ele>17.0</ele><time>2026-04-03T09:24:47Z</time></trkpt><trkpt lat="43.42309689204541" lon="3.5459863280053954"><ele>16.0</ele><time>2026-04-03T09:24:48Z</time></trkpt><trkpt lat="43.423163938720855" lon="3.5463738446251236"><ele>15.0</ele><time>2026-04-03T09:24:49Z</time></trkpt><trkpt lat="43.423231632559066" lon="3.546763876948443"><ele>15.0</ele><time>2026-04-03T09:24:50Z</time></trkpt><trkpt lat="43.42330022462818" lon="3.547156172132724"><ele>15.0</ele><time>2026-04-03T09:24:51Z</time></trkpt><trkpt lat="43.4233717532407" lon="3.5475487386201996"><ele>13.5</ele><time>2026-04-03T09:24:52Z</time></trkpt><trkpt lat="43.42344909319064" lon="3.5479394598105487"><ele>12.0</ele><time>2026-04-03T09:24:53Z</time></trkpt><trkpt lat="43.42352576889444" lon="3.5483384311213877"><ele>12.0</ele><time>2026-04-03T09:24:54Z</time></trkpt><trkpt lat="43.42360431121767" lon="3.548729463822871"><ele>12.0</ele><time>2026-04-03T09:24:55Z</time></trkpt><trkpt lat="43.42368726822477" lon="3.5491264719390734"><ele>12.0</ele><time>2026-04-03T09:24:56Z</time></trkpt><trkpt lat="43.42377554690865" lon="3.5495190267354713"><ele>12.0</ele><time>2026-04-03T09:24:57Z</time></trkpt><trkpt lat="43.423870621367286" lon="3.5499077414151885"><ele>12.0</ele><time>2026-04-03T09:24:58Z</time></trkpt><trkpt lat="43.42396879226437" lon="3.550295638891924"><ele>12.0</ele><time>2026-04-03T09:24:59Z</time></trkpt><trkpt lat="43.42406663611566" lon="3.550676366577469"><ele>12.0</ele><time>2026-04-03T09:25:00Z</time></trkpt><trkpt lat="43.42416726341445" lon="3.551056626935415"><ele>12.0</ele><time>2026-04-03T09:25:01Z</time></trkpt><trkpt lat="43.424281704571094" lon="3.5514275672537923"><ele>12.0</ele><time>2026-04-03T09:25:02Z</time></trkpt><trkpt lat="43.42439906053358" lon="3.5517964437921026"><ele>12.0</ele><time>2026-04-03T09:25:03Z</time></trkpt><trkpt lat="43.424524150464364" lon="3.552151781360568"><ele>12.5</ele><time>2026-04-03T09:25:04Z</time></trkpt><trkpt lat="43.42465693449469" lon="3.5525026540412226"><ele>13.0</ele><time>2026-04-03T09:25:05Z</time></trkpt><trkpt lat="43.42479538860296" lon="3.5528491782343012"><ele>13.5</ele><time>2026-04-03T09:25:06Z</time></trkpt><trkpt lat="43.42494052614577" lon="3.5531898531407338"><ele>14.0</ele><time>2026-04-03T09:25:07Z</time></trkpt><trkpt lat="43.42508870999054" lon="3.5535321705957954"><ele>13.0</ele><time>2026-04-03T09:25:08Z</time></trkpt><trkpt lat="43.42523876924349" lon="3.553867016881741"><ele>12.0</ele><time>2026-04-03T09:25:09Z</time></trkpt><trkpt lat="43.425390938846625" lon="3.554199423499393"><ele>13.0</ele><time>2026-04-03T09:25:10Z</time></trkpt><trkpt lat="43.425545105804424" lon="3.5545291927800737"><ele>14.0</ele><time>2026-04-03T09:25:11Z</time></trkpt><trkpt lat="43.42569861494463" lon="3.554856076435882"><ele>15.0</ele><time>2026-04-03T09:25:12Z</time></trkpt><trkpt lat="43.425857789024484" lon="3.55518293052102"><ele>16.0</ele><time>2026-04-03T09:25:13Z</time></trkpt><trkpt lat="43.4260145974309" lon="3.555511514852797"><ele>17.5</ele><time>2026-04-03T09:25:14Z</time></trkpt><trkpt lat="43.426176518675376" lon="3.5558372760118275"><ele>19.0</ele><time>2026-04-03T09:25:15Z</time></trkpt><trkpt lat="43.42633546233676" lon="3.5561615135519737"><ele>20.0</ele><time>2026-04-03T09:25:16Z</time></trkpt><trkpt lat="43.42649876297978" lon="3.556482145322498"><ele>21.0</ele><time>2026-04-03T09:25:17Z</time></trkpt><trkpt lat="43.42667010232521" lon="3.5568035610420004"><ele>20.5</ele><time>2026-04-03T09:25:18Z</time></trkpt><trkpt lat="43.4268317833002" lon="3.5571245580841464"><ele>20.0</ele><time>2026-04-03T09:25:19Z</time></trkpt><trkpt lat="43.426998264541716" lon="3.557444182920226"><ele>19.5</ele><time>2026-04-03T09:25:20Z</time></trkpt><trkpt lat="43.42716657995048" lon="3.5577603635496917"><ele>19.0</ele><time>2026-04-03T09:25:21Z</time></trkpt><trkpt lat="43.427339304684565" lon="3.558069641292015"><ele>19.0</ele><time>2026-04-03T09:25:22Z</time></trkpt><trkpt lat="43.427518816093475" lon="3.558371636261458"><ele>19.0</ele><time>2026-04-03T09:25:23Z</time></trkpt><trkpt lat="43.427699907973604" lon="3.5586700221006526"><ele>19.5</ele><time>2026-04-03T09:25:24Z</time></trkpt><trkpt lat="43.42788557493437" lon="3.5589604098995538"><ele>20.0</ele><time>2026-04-03T09:25:25Z</time></trkpt><trkpt lat="43.42807896500288" lon="3.559247731414442"><ele>20.5</ele><time>2026-04-03T09:25:26Z</time></trkpt><trkpt lat="43.428276706576085" lon="3.5595303344314493"><ele>21.0</ele><time>2026-04-03T09:25:27Z</time></trkpt><trkpt lat="43.428476697548554" lon="3.5598098646729937"><ele>21.0</ele><time>2026-04-03T09:25:28Z</time></trkpt><trkpt lat="43.428681707318255" lon="3.5600812340875083"><ele>21.0</ele><time>2026-04-03T09:25:29Z</time></trkpt><trkpt lat="43.42889386196569" lon="3.560342085184439"><ele>21.5</ele><time>2026-04-03T09:25:30Z</time></trkpt><trkpt lat="43.42910948141951" lon="3.5605988618104005"><ele>22.0</ele><time>2026-04-03T09:25:31Z</time></trkpt><trkpt lat="43.42932793844795" lon="3.5608501717583"><ele>22.0</ele><time>2026-04-03T09:25:32Z</time></trkpt><trkpt lat="43.42955151322" lon="3.561092779596577"><ele>22.0</ele><time>2026-04-03T09:25:33Z</time></trkpt><trkpt lat="43.42977593949182" lon="3.56133543814567"><ele>23.5</ele><time>2026-04-03T09:25:34Z</time></trkpt><trkpt lat="43.43000880002765" lon="3.561565487006753"><ele>25.0</ele><time>2026-04-03T09:25:35Z</time></trkpt><trkpt lat="43.43024276753698" lon="3.5617920221707187"><ele>25.5</ele><time>2026-04-03T09:25:36Z</time></trkpt><trkpt lat="43.43047723587772" lon="3.562017976030293"><ele>26.0</ele><time>2026-04-03T09:25:37Z</time></trkpt><trkpt lat="43.430715662715784" lon="3.5622327382224075"><ele>27.0</ele><time>2026-04-03T09:25:38Z</time></trkpt><trkpt lat="43.430958267347" lon="3.562443103998814"><ele>28.0</ele><time>2026-04-03T09:25:39Z</time></trkpt><trkpt lat="43.4312005655595" lon="3.5626425134996342"><ele>29.0</ele><time>2026-04-03T09:25:40Z</time></trkpt><trkpt lat="43.431449469924374" lon="3.56283887749714"><ele>30.0</ele><time>2026-04-03T09:25:41Z</time></trkpt><trkpt lat="43.431707899068115" lon="3.5630292757011817"><ele>30.0</ele><time>2026-04-03T09:25:42Z</time></trkpt><trkpt lat="43.431955571905696" lon="3.563215386066215"><ele>30.0</ele><time>2026-04-03T09:25:43Z</time></trkpt><trkpt lat="43.4322147274358" lon="3.563401012155362"><ele>32.0</ele><time>2026-04-03T09:25:44Z</time></trkpt><trkpt lat="43.43247184172231" lon="3.5635775986692444"><ele>34.0</ele><time>2026-04-03T09:25:45Z</time></trkpt><trkpt lat="43.43273050698137" lon="3.563751537054669"><ele>35.0</ele><time>2026-04-03T09:25:46Z</time></trkpt><trkpt lat="43.43299032040421" lon="3.563925680530467"><ele>36.0</ele><time>2026-04-03T09:25:47Z</time></trkpt><trkpt lat="43.433249238596" lon="3.564103287953051"><ele>36.0</ele><time>2026-04-03T09:25:48Z</time></trkpt><trkpt lat="43.43351187707503" lon="3.5642746276201662"><ele>36.0</ele><time>2026-04-03T09:25:49Z</time></trkpt><trkpt lat="43.43377290495325" lon="3.5644550684208642"><ele>34.5</ele><time>2026-04-03T09:25:50Z</time></trkpt><trkpt lat="43.43402785921579" lon="3.5646285529426094"><ele>33.0</ele><time>2026-04-03T09:25:51Z</time></trkpt><trkpt lat="43.43428381823523" lon="3.5648025951900175"><ele>33.0</ele><time>2026-04-03T09:25:52Z</time></trkpt><trkpt lat="43.43454185799562" lon="3.564981077011577"><ele>33.0</ele><time>2026-04-03T09:25:53Z</time></trkpt><trkpt lat="43.43479825465852" lon="3.565161206591528"><ele>31.5</ele><time>2026-04-03T09:25:54Z</time></trkpt><trkpt lat="43.43505266342301" lon="3.5653433603206093"><ele>30.0</ele><time>2026-04-03T09:25:55Z</time></trkpt><trkpt lat="43.435305171595914" lon="3.565527015009145"><ele>31.5</ele><time>2026-04-03T09:25:56Z</time></trkpt><trkpt lat="43.43555686203995" lon="3.5657185874493273"><ele>33.0</ele><time>2026-04-03T09:25:57Z</time></trkpt><trkpt lat="43.43580782717813" lon="3.5659110435649337"><ele>33.0</ele><time>2026-04-03T09:25:58Z</time></trkpt><trkpt lat="43.43605639223309" lon="3.566111868138585"><ele>33.0</ele><time>2026-04-03T09:25:59Z</time></trkpt><trkpt lat="43.436302609250916" lon="3.566319888254575"><ele>31.0</ele><time>2026-04-03T09:26:00Z</time></trkpt><trkpt lat="43.43654296181449" lon="3.5665340786667343"><ele>29.0</ele><time>2026-04-03T09:26:01Z</time></trkpt><trkpt lat="43.436781401807515" lon="3.5667508355009945"><ele>29.0</ele><time>2026-04-03T09:26:02Z</time></trkpt><trkpt lat="43.43701999920049" lon="3.566971286449574"><ele>29.0</ele><time>2026-04-03T09:26:03Z</time></trkpt><trkpt lat="43.43725952515583" lon="3.5671892289322717"><ele>27.5</ele><time>2026-04-03T09:26:04Z</time></trkpt><trkpt lat="43.437494510932055" lon="3.5674160826067847"><ele>26.0</ele><time>2026-04-03T09:26:05Z</time></trkpt><trkpt lat="43.437728750988924" lon="3.56764530099872"><ele>25.0</ele><time>2026-04-03T09:26:06Z</time></trkpt><trkpt lat="43.4379600344016" lon="3.5678797503222177"><ele>24.0</ele><time>2026-04-03T09:26:07Z</time></trkpt><trkpt lat="43.438194006289855" lon="3.5681132607993007"><ele>27.0</ele><time>2026-04-03T09:26:08Z</time></trkpt><trkpt lat="43.43843172394356" lon="3.568348004457599"><ele>30.0</ele><time>2026-04-03T09:26:09Z</time></trkpt><trkpt lat="43.438667867683975" lon="3.5685866539486333"><ele>29.5</ele><time>2026-04-03T09:26:10Z</time></trkpt><trkpt lat="43.43890633206825" lon="3.568824124534443"><ele>29.0</ele><time>2026-04-03T09:26:11Z</time></trkpt><trkpt lat="43.43914233364472" lon="3.56906812846638"><ele>29.0</ele><time>2026-04-03T09:26:12Z</time></trkpt><trkpt lat="43.43937886915119" lon="3.569313837242666"><ele>29.0</ele><time>2026-04-03T09:26:13Z</time></trkpt><trkpt lat="43.439617095117825" lon="3.5695549958283896"><ele>30.5</ele><time>2026-04-03T09:26:14Z</time></trkpt><trkpt lat="43.4398521566127" lon="3.5697944709835476"><ele>32.0</ele><time>2026-04-03T09:26:15Z</time></trkpt><trkpt lat="43.440087127335886" lon="3.570034879972505"><ele>32.0</ele><time>2026-04-03T09:26:16Z</time></trkpt><trkpt lat="43.44032153861309" lon="3.570277026618648"><ele>32.0</ele><time>2026-04-03T09:26:17Z</time></trkpt><trkpt lat="43.44055833283053" lon="3.5705205492867242"><ele>30.0</ele><time>2026-04-03T09:26:18Z</time></trkpt><trkpt lat="43.440792278203475" lon="3.570764292192646"><ele>28.0</ele><time>2026-04-03T09:26:19Z</time></trkpt><trkpt lat="43.44102213857648" lon="3.571014224714327"><ele>28.0</ele><time>2026-04-03T09:26:20Z</time></trkpt><trkpt lat="43.44124954026633" lon="3.5712655403599354"><ele>28.0</ele><time>2026-04-03T09:26:21Z</time></trkpt><trkpt lat="43.44147282322222" lon="3.57152313171691"><ele>28.0</ele><time>2026-04-03T09:26:22Z</time></trkpt><trkpt lat="43.44169643989767" lon="3.5717775549948017"><ele>28.0</ele><time>2026-04-03T09:26:23Z</time></trkpt><trkpt lat="43.44192330232142" lon="3.572024214817399"><ele>27.5</ele><time>2026-04-03T09:26:24Z</time></trkpt><trkpt lat="43.44215388694092" lon="3.57226540512308"><ele>27.0</ele><time>2026-04-03T09:26:25Z</time></trkpt><trkpt lat="43.44238392869939" lon="3.5725052597813414"><ele>27.0</ele><time>2026-04-03T09:26:26Z</time></trkpt><trkpt lat="43.442615144886304" lon="3.572744874904701"><ele>27.0</ele><time>2026-04-03T09:26:27Z</time></trkpt><trkpt lat="43.4428431943296" lon="3.572979260057043"><ele>28.0</ele><time>2026-04-03T09:26:28Z</time></trkpt><trkpt lat="43.44306963181842" lon="3.5732170834714427"><ele>29.0</ele><time>2026-04-03T09:26:29Z</time></trkpt><trkpt lat="43.44329784763329" lon="3.5734585871959488"><ele>29.0</ele><time>2026-04-03T09:26:30Z</time></trkpt><trkpt lat="43.44352682236624" lon="3.57369643384514"><ele>29.0</ele><time>2026-04-03T09:26:31Z</time></trkpt><trkpt lat="43.44375439657239" lon="3.573932846870037"><ele>30.5</ele><time>2026-04-03T09:26:32Z</time></trkpt><trkpt lat="43.44398148703439" lon="3.5741694811929805"><ele>32.0</ele><time>2026-04-03T09:26:33Z</time></trkpt><trkpt lat="43.4442094419968" lon="3.5744056905205723"><ele>31.5</ele><time>2026-04-03T09:26:34Z</time></trkpt><trkpt lat="43.44443029689966" lon="3.5746421467473897"><ele>31.0</ele><time>2026-04-03T09:26:35Z</time></trkpt><trkpt lat="43.44465945019447" lon="3.5748821869850596"><ele>31.0</ele><time>2026-04-03T09:26:36Z</time></trkpt><trkpt lat="43.44488154381036" lon="3.5751276332068853"><ele>31.0</ele><time>2026-04-03T09:26:37Z</time></trkpt><trkpt lat="43.44510406514653" lon="3.575370425472144"><ele>30.5</ele><time>2026-04-03T09:26:38Z</time></trkpt><trkpt lat="43.44531928626163" lon="3.575621259809798"><ele>30.0</ele><time>2026-04-03T09:26:39Z</time></trkpt><trkpt lat="43.44554101819564" lon="3.5758724778712905"><ele>27.5</ele><time>2026-04-03T09:26:40Z</time></trkpt><trkpt lat="43.44575804554324" lon="3.5761248906205707"><ele>25.0</ele><time>2026-04-03T09:26:41Z</time></trkpt><trkpt lat="43.44597355869197" lon="3.5763823005435693"><ele>24.5</ele><time>2026-04-03T09:26:42Z</time></trkpt><trkpt lat="43.446184008098484" lon="3.5766471174308845"><ele>24.0</ele><time>2026-04-03T09:26:43Z</time></trkpt><trkpt lat="43.44639666626817" lon="3.5769137767132957"><ele>28.0</ele><time>2026-04-03T09:26:44Z</time></trkpt><trkpt lat="43.4466036497231" lon="3.5771888133360767"><ele>32.0</ele><time>2026-04-03T09:26:45Z</time></trkpt><trkpt lat="43.446804685469864" lon="3.5774609653076004"><ele>32.0</ele><time>2026-04-03T09:26:46Z</time></trkpt><trkpt lat="43.44700226409186" lon="3.5777395317804257"><ele>32.0</ele><time>2026-04-03T09:26:47Z</time></trkpt><trkpt lat="43.44719235595344" lon="3.5780276843864858"><ele>33.5</ele><time>2026-04-03T09:26:48Z</time></trkpt><trkpt lat="43.4473768389963" lon="3.5783267049750855"><ele>35.0</ele><time>2026-04-03T09:26:49Z</time></trkpt><trkpt lat="43.44756007576438" lon="3.5786258805536684"><ele>35.5</ele><time>2026-04-03T09:26:50Z</time></trkpt><trkpt lat="43.447738529636496" lon="3.5789334325547837"><ele>36.0</ele><time>2026-04-03T09:26:51Z</time></trkpt><trkpt lat="43.44791120908237" lon="3.579240144209608"><ele>36.0</ele><time>2026-04-03T09:26:52Z</time></trkpt><trkpt lat="43.448077814092905" lon="3.57956000192185"><ele>36.0</ele><time>2026-04-03T09:26:53Z</time></trkpt><trkpt lat="43.448240754790255" lon="3.579880974681882"><ele>36.0</ele><time>2026-04-03T09:26:54Z</time></trkpt><trkpt lat="43.448400259378936" lon="3.5802096599644893"><ele>36.0</ele><time>2026-04-03T09:26:55Z</time></trkpt><trkpt lat="43.44855527022786" lon="3.580544087424852"><ele>35.0</ele><time>2026-04-03T09:26:56Z</time></trkpt><trkpt lat="43.44870476113359" lon="3.580884224963293"><ele>34.0</ele><time>2026-04-03T09:26:57Z</time></trkpt><trkpt lat="43.44884326751585" lon="3.5812339936999518"><ele>33.5</ele><time>2026-04-03T09:26:58Z</time></trkpt><trkpt lat="43.4489808031435" lon="3.581583496678919"><ele>33.0</ele><time>2026-04-03T09:26:59Z</time></trkpt><trkpt lat="43.44911203808872" lon="3.581939718351563"><ele>32.0</ele><time>2026-04-03T09:27:00Z</time></trkpt><trkpt lat="43.44923740099902" lon="3.5822969784101573"><ele>31.0</ele><time>2026-04-03T09:27:01Z</time></trkpt><trkpt lat="43.449358227119795" lon="3.5826541033079113"><ele>29.5</ele><time>2026-04-03T09:27:02Z</time></trkpt><trkpt lat="43.449470253708384" lon="3.5830196838657797"><ele>28.0</ele><time>2026-04-03T09:27:03Z</time></trkpt><trkpt lat="43.44957391218109" lon="3.5833888973140215"><ele>30.0</ele><time>2026-04-03T09:27:04Z</time></trkpt><trkpt lat="43.44967646114025" lon="3.5837577628210364"><ele>32.0</ele><time>2026-04-03T09:27:05Z</time></trkpt><trkpt lat="43.4497701561382" lon="3.5841333692619064"><ele>32.0</ele><time>2026-04-03T09:27:06Z</time></trkpt><trkpt lat="43.44985848223336" lon="3.584514851499284"><ele>32.0</ele><time>2026-04-03T09:27:07Z</time></trkpt><trkpt lat="43.449933722748426" lon="3.584896702211491"><ele>32.0</ele><time>2026-04-03T09:27:08Z</time></trkpt><trkpt lat="43.45000406165829" lon="3.5852850530420333"><ele>32.0</ele><time>2026-04-03T09:27:09Z</time></trkpt><trkpt lat="43.45006576792947" lon="3.585672249634926"><ele>30.0</ele><time>2026-04-03T09:27:10Z</time></trkpt><trkpt lat="43.45012239642159" lon="3.5860635014768127"><ele>28.0</ele><time>2026-04-03T09:27:11Z</time></trkpt><trkpt lat="43.45017923350328" lon="3.5864545708094724"><ele>26.5</ele><time>2026-04-03T09:27:12Z</time></trkpt><trkpt lat="43.45022800581922" lon="3.5868492636592335"><ele>25.0</ele><time>2026-04-03T09:27:13Z</time></trkpt><trkpt lat="43.45028043196802" lon="3.5872409740274263"><ele>25.0</ele><time>2026-04-03T09:27:14Z</time></trkpt><trkpt lat="43.45032965258362" lon="3.5876317554601638"><ele>25.0</ele><time>2026-04-03T09:27:15Z</time></trkpt><trkpt lat="43.45037304583714" lon="3.588025831095059"><ele>25.0</ele><time>2026-04-03T09:27:16Z</time></trkpt><trkpt lat="43.45042105207392" lon="3.5884203669938297"><ele>25.0</ele><time>2026-04-03T09:27:17Z</time></trkpt><trkpt lat="43.45046661127961" lon="3.588812500875167"><ele>25.0</ele><time>2026-04-03T09:27:18Z</time></trkpt><trkpt lat="43.4505129049602" lon="3.589202567128308"><ele>25.0</ele><time>2026-04-03T09:27:19Z</time></trkpt><trkpt lat="43.45055967720507" lon="3.5895946937325216"><ele>24.5</ele><time>2026-04-03T09:27:20Z</time></trkpt><trkpt lat="43.450601479109785" lon="3.5899874012568467"><ele>24.0</ele><time>2026-04-03T09:27:21Z</time></trkpt><trkpt lat="43.450643781640736" lon="3.590380119627925"><ele>23.0</ele><time>2026-04-03T09:27:22Z</time></trkpt><trkpt lat="43.45068802102414" lon="3.590772448384333"><ele>22.0</ele><time>2026-04-03T09:27:23Z</time></trkpt><trkpt lat="43.45073239814624" lon="3.5911621173750854"><ele>21.5</ele><time>2026-04-03T09:27:24Z</time></trkpt><trkpt lat="43.450774741144755" lon="3.591553488135096"><ele>21.0</ele><time>2026-04-03T09:27:25Z</time></trkpt><trkpt lat="43.4508186890715" lon="3.5919469702497175"><ele>20.5</ele><time>2026-04-03T09:27:26Z</time></trkpt><trkpt lat="43.45086052400755" lon="3.592340358371028"><ele>20.0</ele><time>2026-04-03T09:27:27Z</time></trkpt><trkpt lat="43.45090146130859" lon="3.5927356263220895"><ele>20.5</ele><time>2026-04-03T09:27:28Z</time></trkpt><trkpt lat="43.45094832882719" lon="3.5931247284771026"><ele>21.0</ele><time>2026-04-03T09:27:29Z</time></trkpt><trkpt lat="43.45099529533798" lon="3.5935135945188454"><ele>20.5</ele><time>2026-04-03T09:27:30Z</time></trkpt><trkpt lat="43.45104025598003" lon="3.5939023697018357"><ele>20.0</ele><time>2026-04-03T09:27:31Z</time></trkpt><trkpt lat="43.451080635385935" lon="3.594287373393848"><ele>19.5</ele><time>2026-04-03T09:27:32Z</time></trkpt><trkpt lat="43.451126617631324" lon="3.594677941391659"><ele>19.0</ele><time>2026-04-03T09:27:33Z</time></trkpt><trkpt lat="43.451172355410094" lon="3.5950687299787485"><ele>20.0</ele><time>2026-04-03T09:27:34Z</time></trkpt><trkpt lat="43.45122675119647" lon="3.5954548288827475"><ele>21.0</ele><time>2026-04-03T09:27:35Z</time></trkpt><trkpt lat="43.45128160817986" lon="3.5958414226714996"><ele>17.0</ele><time>2026-04-03T09:27:36Z</time></trkpt><trkpt lat="43.45134000595618" lon="3.596226843023576"><ele>13.0</ele><time>2026-04-03T09:27:37Z</time></trkpt><trkpt lat="43.451401857729486" lon="3.596614417353845"><ele>13.0</ele><time>2026-04-03T09:27:38Z</time></trkpt><trkpt lat="43.45146581995835" lon="3.5969990254890067"><ele>13.0</ele><time>2026-04-03T09:27:39Z</time></trkpt><trkpt lat="43.45153140208624" lon="3.597384704263229"><ele>12.5</ele><time>2026-04-03T09:27:40Z</time></trkpt><trkpt lat="43.45160505875958" lon="3.597762927226119"><ele>12.0</ele><time>2026-04-03T09:27:41Z</time></trkpt><trkpt lat="43.45168326468693" lon="3.59814071239339"><ele>11.5</ele><time>2026-04-03T09:27:42Z</time></trkpt><trkpt lat="43.451764470555744" lon="3.598517369378783"><ele>11.0</ele><time>2026-04-03T09:27:43Z</time></trkpt><trkpt lat="43.451851388312065" lon="3.598893319926278"><ele>10.5</ele><time>2026-04-03T09:27:44Z</time></trkpt><trkpt lat="43.45194605054762" lon="3.599265810174506"><ele>10.0</ele><time>2026-04-03T09:27:45Z</time></trkpt><trkpt lat="43.45204136595987" lon="3.599639389975013"><ele>13.0</ele><time>2026-04-03T09:27:46Z</time></trkpt><trkpt lat="43.452141326991764" lon="3.6000031883998966"><ele>16.0</ele><time>2026-04-03T09:27:47Z</time></trkpt><trkpt lat="43.45224486067281" lon="3.6003707375177334"><ele>17.5</ele><time>2026-04-03T09:27:48Z</time></trkpt><trkpt lat="43.45235005255548" lon="3.6007379226150555"><ele>19.0</ele><time>2026-04-03T09:27:49Z</time></trkpt><trkpt lat="43.45246437350109" lon="3.601096117445728"><ele>19.5</ele><time>2026-04-03T09:27:50Z</time></trkpt><trkpt lat="43.4525805191724" lon="3.6014549278245136"><ele>20.0</ele><time>2026-04-03T09:27:51Z</time></trkpt><trkpt lat="43.452696421851684" lon="3.6018084500484884"><ele>19.5</ele><time>2026-04-03T09:27:52Z</time></trkpt><trkpt lat="43.452819326831786" lon="3.6021569375793803"><ele>19.0</ele><time>2026-04-03T09:27:53Z</time></trkpt><trkpt lat="43.452950465073265" lon="3.602506981879833"><ele>19.5</ele><time>2026-04-03T09:27:54Z</time></trkpt><trkpt lat="43.45307925057212" lon="3.6028590920919625"><ele>20.0</ele><time>2026-04-03T09:27:55Z</time></trkpt><trkpt lat="43.45322000096022" lon="3.603202126535508"><ele>20.0</ele><time>2026-04-03T09:27:56Z</time></trkpt><trkpt lat="43.453360837353365" lon="3.6035459653860613"><ele>20.0</ele><time>2026-04-03T09:27:57Z</time></trkpt><trkpt lat="43.45350383232157" lon="3.6038853831833384"><ele>20.5</ele><time>2026-04-03T09:27:58Z</time></trkpt><trkpt lat="43.45365127425137" lon="3.6042119563395905"><ele>21.0</ele><time>2026-04-03T09:27:59Z</time></trkpt><trkpt lat="43.45380089295822" lon="3.604543755928192"><ele>22.0</ele><time>2026-04-03T09:28:00Z</time></trkpt><trkpt lat="43.45395261404908" lon="3.6048747207180827"><ele>23.0</ele><time>2026-04-03T09:28:01Z</time></trkpt><trkpt lat="43.45410480072224" lon="3.6051955214185925"><ele>23.5</ele><time>2026-04-03T09:28:02Z</time></trkpt><trkpt lat="43.45426591698972" lon="3.605517012579652"><ele>24.0</ele><time>2026-04-03T09:28:03Z</time></trkpt><trkpt lat="43.45443026733637" lon="3.605834900037373"><ele>24.0</ele><time>2026-04-03T09:28:04Z</time></trkpt><trkpt lat="43.45459587793469" lon="3.6061448915267507"><ele>24.0</ele><time>2026-04-03T09:28:05Z</time></trkpt><trkpt lat="43.4547601855333" lon="3.606447470989304"><ele>25.5</ele><time>2026-04-03T09:28:06Z</time></trkpt><trkpt lat="43.45493167093416" lon="3.6067461298032164"><ele>27.0</ele><time>2026-04-03T09:28:07Z</time></trkpt><trkpt lat="43.45511014543554" lon="3.6070395683097747"><ele>27.0</ele><time>2026-04-03T09:28:08Z</time></trkpt><trkpt lat="43.455293882878344" lon="3.607334093939226"><ele>27.0</ele><time>2026-04-03T09:28:09Z</time></trkpt><trkpt lat="43.455481951030386" lon="3.607623415377584"><ele>28.0</ele><time>2026-04-03T09:28:10Z</time></trkpt><trkpt lat="43.45567075895452" lon="3.607916163845983"><ele>29.0</ele><time>2026-04-03T09:28:11Z</time></trkpt><trkpt lat="43.4558605059409" lon="3.6082072910588363"><ele>29.0</ele><time>2026-04-03T09:28:12Z</time></trkpt><trkpt lat="43.45604991451175" lon="3.6085044712065155"><ele>29.0</ele><time>2026-04-03T09:28:13Z</time></trkpt><trkpt lat="43.456240342958765" lon="3.608796474118175"><ele>31.0</ele><time>2026-04-03T09:28:14Z</time></trkpt><trkpt lat="43.45643234875761" lon="3.6090926726469568"><ele>33.0</ele><time>2026-04-03T09:28:15Z</time></trkpt><trkpt lat="43.45662345031978" lon="3.609388806995255"><ele>35.0</ele><time>2026-04-03T09:28:16Z</time></trkpt><trkpt lat="43.45681275285762" lon="3.6096870437912734"><ele>37.0</ele><time>2026-04-03T09:28:17Z</time></trkpt><trkpt lat="43.457003599838416" lon="3.609988847122911"><ele>38.5</ele><time>2026-04-03T09:28:18Z</time></trkpt><trkpt lat="43.4571872558292" lon="3.6102952259229975"><ele>40.0</ele><time>2026-04-03T09:28:19Z</time></trkpt><trkpt lat="43.45736388906776" lon="3.610610528364416"><ele>40.0</ele><time>2026-04-03T09:28:20Z</time></trkpt><trkpt lat="43.4575435400409" lon="3.610933340250049"><ele>40.0</ele><time>2026-04-03T09:28:21Z</time></trkpt><trkpt lat="43.45770928348396" lon="3.6112557297588133"><ele>40.5</ele><time>2026-04-03T09:28:22Z</time></trkpt><trkpt lat="43.457866643846096" lon="3.6115817381851882"><ele>41.0</ele><time>2026-04-03T09:28:23Z</time></trkpt><trkpt lat="43.458020950391266" lon="3.6119143960741633"><ele>44.0</ele><time>2026-04-03T09:28:24Z</time></trkpt><trkpt lat="43.45817013154705" lon="3.6122514223832707"><ele>47.0</ele><time>2026-04-03T09:28:25Z</time></trkpt><trkpt lat="43.458314797591505" lon="3.6125913456967425"><ele>47.0</ele><time>2026-04-03T09:28:26Z</time></trkpt><trkpt lat="43.45845781477766" lon="3.6129298534188488"><ele>47.0</ele><time>2026-04-03T09:28:27Z</time></trkpt><trkpt lat="43.458592557967044" lon="3.613266385992098"><ele>47.0</ele><time>2026-04-03T09:28:28Z</time></trkpt><trkpt lat="43.45872441893289" lon="3.6136074200111143"><ele>47.0</ele><time>2026-04-03T09:28:29Z</time></trkpt><trkpt lat="43.4588544863977" lon="3.6139495251831124"><ele>47.5</ele><time>2026-04-03T09:28:30Z</time></trkpt><trkpt lat="43.4589803172413" lon="3.614287012632158"><ele>48.0</ele><time>2026-04-03T09:28:31Z</time></trkpt><trkpt lat="43.459107248309934" lon="3.614615404487524"><ele>48.5</ele><time>2026-04-03T09:28:32Z</time></trkpt><trkpt lat="43.45923325926108" lon="3.6149470475569245"><ele>49.0</ele><time>2026-04-03T09:28:33Z</time></trkpt><trkpt lat="43.45936017899401" lon="3.615281649925871"><ele>50.0</ele><time>2026-04-03T09:28:34Z</time></trkpt><trkpt lat="43.45949109978465" lon="3.6156154215867273"><ele>51.0</ele><time>2026-04-03T09:28:35Z</time></trkpt><trkpt lat="43.45962230132043" lon="3.6159471970388144"><ele>52.0</ele><time>2026-04-03T09:28:36Z</time></trkpt><trkpt lat="43.4597547489949" lon="3.616284137144849"><ele>53.0</ele><time>2026-04-03T09:28:37Z</time></trkpt><trkpt lat="43.45988546885625" lon="3.616634378878151"><ele>53.5</ele><time>2026-04-03T09:28:38Z</time></trkpt><trkpt lat="43.46001357713535" lon="3.6169874036923315"><ele>54.0</ele><time>2026-04-03T09:28:39Z</time></trkpt><trkpt lat="43.460140339143955" lon="3.6173448521912275"><ele>54.0</ele><time>2026-04-03T09:28:40Z</time></trkpt><trkpt lat="43.46025958545889" lon="3.617700695723651"><ele>54.0</ele><time>2026-04-03T09:28:41Z</time></trkpt><trkpt lat="43.460375408557105" lon="3.618061656891346"><ele>55.0</ele><time>2026-04-03T09:28:42Z</time></trkpt><trkpt lat="43.4604826612601" lon="3.618426179965621"><ele>56.0</ele><time>2026-04-03T09:28:43Z</time></trkpt><trkpt lat="43.4605923664736" lon="3.6187859784067276"><ele>57.5</ele><time>2026-04-03T09:28:44Z</time></trkpt><trkpt lat="43.46069628768291" lon="3.6191517365822135"><ele>59.0</ele><time>2026-04-03T09:28:45Z</time></trkpt><trkpt lat="43.46079407501498" lon="3.619521330718687"><ele>61.0</ele><time>2026-04-03T09:28:46Z</time></trkpt><trkpt lat="43.460886966412104" lon="3.619891523623147"><ele>63.0</ele><time>2026-04-03T09:28:47Z</time></trkpt><trkpt lat="43.46097782281668" lon="3.6202672288178928"><ele>64.5</ele><time>2026-04-03T09:28:48Z</time></trkpt><trkpt lat="43.461064970559995" lon="3.620644970543201"><ele>66.0</ele><time>2026-04-03T09:28:49Z</time></trkpt><trkpt lat="43.46115011625349" lon="3.621023847090508"><ele>66.5</ele><time>2026-04-03T09:28:50Z</time></trkpt><trkpt lat="43.46123348871348" lon="3.6214067042601603"><ele>67.0</ele><time>2026-04-03T09:28:51Z</time></trkpt><trkpt lat="43.461315452394274" lon="3.6217900256784668"><ele>65.5</ele><time>2026-04-03T09:28:52Z</time></trkpt><trkpt lat="43.461396900747566" lon="3.6221697185993937"><ele>64.0</ele><time>2026-04-03T09:28:53Z</time></trkpt><trkpt lat="43.461476267547496" lon="3.622551395964759"><ele>61.5</ele><time>2026-04-03T09:28:54Z</time></trkpt><trkpt lat="43.46155615693061" lon="3.622924571961683"><ele>59.0</ele><time>2026-04-03T09:28:55Z</time></trkpt><trkpt lat="43.46163636353298" lon="3.6233005479853286"><ele>59.0</ele><time>2026-04-03T09:28:56Z</time></trkpt><trkpt lat="43.461714603253256" lon="3.623673832244464"><ele>59.0</ele><time>2026-04-03T09:28:57Z</time></trkpt><trkpt lat="43.461794837731965" lon="3.6240478764695108"><ele>59.0</ele><time>2026-04-03T09:28:58Z</time></trkpt><trkpt lat="43.46187427787612" lon="3.6244227736672556"><ele>59.0</ele><time>2026-04-03T09:28:59Z</time></trkpt><trkpt lat="43.46195501535322" lon="3.62479991370368"><ele>60.0</ele><time>2026-04-03T09:29:00Z</time></trkpt><trkpt lat="43.46204040040263" lon="3.625173905572119"><ele>61.0</ele><time>2026-04-03T09:29:01Z</time></trkpt><trkpt lat="43.46213357655293" lon="3.6255410777960413"><ele>64.5</ele><time>2026-04-03T09:29:02Z</time></trkpt><trkpt lat="43.46222951003597" lon="3.625909444305203"><ele>68.0</ele><time>2026-04-03T09:29:03Z</time></trkpt><trkpt lat="43.46233200761456" lon="3.626280532416925"><ele>68.0</ele><time>2026-04-03T09:29:04Z</time></trkpt><trkpt lat="43.46243538209876" lon="3.6266480823867457"><ele>68.0</ele><time>2026-04-03T09:29:05Z</time></trkpt><trkpt lat="43.462541155428006" lon="3.6270240693819398"><ele>67.5</ele><time>2026-04-03T09:29:06Z</time></trkpt><trkpt lat="43.46265378214917" lon="3.627390853122433"><ele>67.0</ele><time>2026-04-03T09:29:07Z</time></trkpt><trkpt lat="43.46277041254181" lon="3.6277545775621753"><ele>67.5</ele><time>2026-04-03T09:29:08Z</time></trkpt><trkpt lat="43.462893141527196" lon="3.6281152763343383"><ele>68.0</ele><time>2026-04-03T09:29:09Z</time></trkpt><trkpt lat="43.46301813798305" lon="3.6284745173796313"><ele>70.5</ele><time>2026-04-03T09:29:10Z</time></trkpt><trkpt lat="43.46314692443361" lon="3.6288286255245215"><ele>73.0</ele><time>2026-04-03T09:29:11Z</time></trkpt><trkpt lat="43.463281081419254" lon="3.629189781948322"><ele>73.5</ele><time>2026-04-03T09:29:12Z</time></trkpt><trkpt lat="43.463420501256984" lon="3.629543056063384"><ele>74.0</ele><time>2026-04-03T09:29:13Z</time></trkpt><trkpt lat="43.4635699660359" lon="3.6298924961927597"><ele>74.0</ele><time>2026-04-03T09:29:14Z</time></trkpt><trkpt lat="43.46371704633483" lon="3.6302398774253803"><ele>74.0</ele><time>2026-04-03T09:29:15Z</time></trkpt><trkpt lat="43.463869883347925" lon="3.630579491807482"><ele>74.0</ele><time>2026-04-03T09:29:16Z</time></trkpt><trkpt lat="43.46402333617743" lon="3.630921799612883"><ele>74.0</ele><time>2026-04-03T09:29:17Z</time></trkpt><trkpt lat="43.46418495373073" lon="3.631259584506116"><ele>73.5</ele><time>2026-04-03T09:29:18Z</time></trkpt><trkpt lat="43.464340749322304" lon="3.631593348018612"><ele>73.0</ele><time>2026-04-03T09:29:19Z</time></trkpt><trkpt lat="43.46450460440249" lon="3.631919589671126"><ele>72.0</ele><time>2026-04-03T09:29:20Z</time></trkpt><trkpt lat="43.46467472838869" lon="3.6322442292379953"><ele>71.0</ele><time>2026-04-03T09:29:21Z</time></trkpt><trkpt lat="43.464848285770955" lon="3.6325657814995767"><ele>72.0</ele><time>2026-04-03T09:29:22Z</time></trkpt><trkpt lat="43.46502631639731" lon="3.63289075476115"><ele>73.0</ele><time>2026-04-03T09:29:23Z</time></trkpt><trkpt lat="43.46521119846281" lon="3.6332082721448558"><ele>73.0</ele><time>2026-04-03T09:29:24Z</time></trkpt><trkpt lat="43.46539935623399" lon="3.633529609082194"><ele>73.0</ele><time>2026-04-03T09:29:25Z</time></trkpt><trkpt lat="43.4655892820262" lon="3.6338483881652475"><ele>73.0</ele><time>2026-04-03T09:29:26Z</time></trkpt><trkpt lat="43.46578184625754" lon="3.6341663711150693"><ele>73.0</ele><time>2026-04-03T09:29:27Z</time></trkpt><trkpt lat="43.46597579472337" lon="3.634483997861507"><ele>73.0</ele><time>2026-04-03T09:29:28Z</time></trkpt><trkpt lat="43.46617054668636" lon="3.634797867309847"><ele>73.0</ele><time>2026-04-03T09:29:29Z</time></trkpt><trkpt lat="43.46636603018916" lon="3.6351148742111334"><ele>72.0</ele><time>2026-04-03T09:29:30Z</time></trkpt><trkpt lat="43.46656432529437" lon="3.635429850412007"><ele>71.0</ele><time>2026-04-03T09:29:31Z</time></trkpt><trkpt lat="43.466761395263994" lon="3.6357471486870576"><ele>71.0</ele><time>2026-04-03T09:29:32Z</time></trkpt><trkpt lat="43.46695936549683" lon="3.6360646936617655"><ele>71.0</ele><time>2026-04-03T09:29:33Z</time></trkpt><trkpt lat="43.46715693764314" lon="3.636387678326949"><ele>70.5</ele><time>2026-04-03T09:29:34Z</time></trkpt><trkpt lat="43.467355986891576" lon="3.6367086283336683"><ele>70.0</ele><time>2026-04-03T09:29:35Z</time></trkpt><trkpt lat="43.4675572961447" lon="3.637029020989524"><ele>69.5</ele><time>2026-04-03T09:29:36Z</time></trkpt><trkpt lat="43.46775865308962" lon="3.637347008769152"><ele>69.0</ele><time>2026-04-03T09:29:37Z</time></trkpt><trkpt lat="43.46795766075951" lon="3.6376651033682292"><ele>68.5</ele><time>2026-04-03T09:29:38Z</time></trkpt><trkpt lat="43.46815767405389" lon="3.6379760352529265"><ele>68.0</ele><time>2026-04-03T09:29:39Z</time></trkpt><trkpt lat="43.46835517126335" lon="3.6382882546479403"><ele>68.0</ele><time>2026-04-03T09:29:40Z</time></trkpt><trkpt lat="43.46854750836763" lon="3.6386021342320745"><ele>68.0</ele><time>2026-04-03T09:29:41Z</time></trkpt><trkpt lat="43.46873548130831" lon="3.6389133444803736"><ele>67.5</ele><time>2026-04-03T09:29:42Z</time></trkpt><trkpt lat="43.468923551236" lon="3.6392251991066242"><ele>67.0</ele><time>2026-04-03T09:29:43Z</time></trkpt><trkpt lat="43.46911114613637" lon="3.639535009811379"><ele>67.0</ele><time>2026-04-03T09:29:44Z</time></trkpt><trkpt lat="43.46929797704428" lon="3.6398450335439296"><ele>67.0</ele><time>2026-04-03T09:29:45Z</time></trkpt><trkpt lat="43.4694838560879" lon="3.640152398786931"><ele>66.0</ele><time>2026-04-03T09:29:46Z</time></trkpt><trkpt lat="43.46966838814891" lon="3.6404610691892167"><ele>65.0</ele><time>2026-04-03T09:29:47Z</time></trkpt><trkpt lat="43.46985137037874" lon="3.6407683721275204"><ele>65.0</ele><time>2026-04-03T09:29:48Z</time></trkpt><trkpt lat="43.4700335125632" lon="3.641072192103106"><ele>65.0</ele><time>2026-04-03T09:29:49Z</time></trkpt><trkpt lat="43.47021469109176" lon="3.6413760654956557"><ele>64.0</ele><time>2026-04-03T09:29:50Z</time></trkpt><trkpt lat="43.47039433894437" lon="3.6416829019043244"><ele>63.0</ele><time>2026-04-03T09:29:51Z</time></trkpt><trkpt lat="43.47057535328666" lon="3.6419880929791897"><ele>65.0</ele><time>2026-04-03T09:29:52Z</time></trkpt><trkpt lat="43.470755298385775" lon="3.642294133874251"><ele>67.0</ele><time>2026-04-03T09:29:53Z</time></trkpt><trkpt lat="43.470933380331786" lon="3.6426024533929198"><ele>66.5</ele><time>2026-04-03T09:29:54Z</time></trkpt><trkpt lat="43.4711104950096" lon="3.642911121741234"><ele>66.0</ele><time>2026-04-03T09:29:55Z</time></trkpt><trkpt lat="43.47128776152854" lon="3.643219939929595"><ele>66.0</ele><time>2026-04-03T09:29:56Z</time></trkpt><trkpt lat="43.471463255245965" lon="3.6435319502292596"><ele>66.0</ele><time>2026-04-03T09:29:57Z</time></trkpt><trkpt lat="43.471636838937904" lon="3.6438436985485247"><ele>65.0</ele><time>2026-04-03T09:29:58Z</time></trkpt><trkpt lat="43.47181359728987" lon="3.6441551926303934"><ele>64.0</ele><time>2026-04-03T09:29:59Z</time></trkpt><trkpt lat="43.47198964606666" lon="3.6444694008035787"><ele>65.0</ele><time>2026-04-03T09:30:00Z</time></trkpt><trkpt lat="43.47216306713517" lon="3.6447839889513483"><ele>66.0</ele><time>2026-04-03T09:30:01Z</time></trkpt><trkpt lat="43.47233390718034" lon="3.64509832919619"><ele>65.5</ele><time>2026-04-03T09:30:02Z</time></trkpt><trkpt lat="43.47250403063808" lon="3.645410870493888"><ele>65.0</ele><time>2026-04-03T09:30:03Z</time></trkpt><trkpt lat="43.47267558571796" lon="3.6457251702034297"><ele>65.0</ele><time>2026-04-03T09:30:04Z</time></trkpt><trkpt lat="43.472846610858916" lon="3.6460385527769437"><ele>65.0</ele><time>2026-04-03T09:30:05Z</time></trkpt><trkpt lat="43.47301455499142" lon="3.646359458839248"><ele>63.5</ele><time>2026-04-03T09:30:06Z</time></trkpt><trkpt lat="43.47318444773338" lon="3.646675615975493"><ele>62.0</ele><time>2026-04-03T09:30:07Z</time></trkpt><trkpt lat="43.47335292494211" lon="3.646993823509088"><ele>62.0</ele><time>2026-04-03T09:30:08Z</time></trkpt><trkpt lat="43.473519557671175" lon="3.6473160008277925"><ele>62.0</ele><time>2026-04-03T09:30:09Z</time></trkpt><trkpt lat="43.47368629682858" lon="3.647637990701246"><ele>62.5</ele><time>2026-04-03T09:30:10Z</time></trkpt><trkpt lat="43.47385452936831" lon="3.6479624787179086"><ele>63.0</ele><time>2026-04-03T09:30:11Z</time></trkpt><trkpt lat="43.474020828003574" lon="3.6482851821456714"><ele>63.0</ele><time>2026-04-03T09:30:12Z</time></trkpt><trkpt lat="43.47418420892963" lon="3.6486117984401374"><ele>63.0</ele><time>2026-04-03T09:30:13Z</time></trkpt><trkpt lat="43.47434933291778" lon="3.6489364133275846"><ele>64.0</ele><time>2026-04-03T09:30:14Z</time></trkpt><trkpt lat="43.47451265712201" lon="3.649257504897615"><ele>65.0</ele><time>2026-04-03T09:30:15Z</time></trkpt><trkpt lat="43.47467369554548" lon="3.6495834582855395"><ele>66.0</ele><time>2026-04-03T09:30:16Z</time></trkpt><trkpt lat="43.47483911417801" lon="3.6499055211172613"><ele>67.0</ele><time>2026-04-03T09:30:17Z</time></trkpt><trkpt lat="43.475000534215226" lon="3.650231597940015"><ele>66.5</ele><time>2026-04-03T09:30:18Z</time></trkpt><trkpt lat="43.475163769473326" lon="3.6505571854561247"><ele>66.0</ele><time>2026-04-03T09:30:19Z</time></trkpt><trkpt lat="43.47532601912471" lon="3.650882564546971"><ele>65.5</ele><time>2026-04-03T09:30:20Z</time></trkpt><trkpt lat="43.47548966014909" lon="3.651209810681763"><ele>65.0</ele><time>2026-04-03T09:30:21Z</time></trkpt><trkpt lat="43.475653938041845" lon="3.651540710836794"><ele>65.0</ele><time>2026-04-03T09:30:22Z</time></trkpt><trkpt lat="43.475816433418245" lon="3.65187032027962"><ele>65.0</ele><time>2026-04-03T09:30:23Z</time></trkpt><trkpt lat="43.4759790085833" lon="3.652206432080517"><ele>66.0</ele><time>2026-04-03T09:30:24Z</time></trkpt><trkpt lat="43.47613791254203" lon="3.652541987658464"><ele>67.0</ele><time>2026-04-03T09:30:25Z</time></trkpt><trkpt lat="43.476298336093" lon="3.6528755332125913"><ele>69.0</ele><time>2026-04-03T09:30:26Z</time></trkpt><trkpt lat="43.476451544624176" lon="3.6532128929617333"><ele>71.0</ele><time>2026-04-03T09:30:27Z</time></trkpt><trkpt lat="43.47661061127168" lon="3.6535484422307354"><ele>69.0</ele><time>2026-04-03T09:30:28Z</time></trkpt><trkpt lat="43.476761619939836" lon="3.6538873807928782"><ele>67.0</ele><time>2026-04-03T09:30:29Z</time></trkpt><trkpt lat="43.47691075721043" lon="3.6542303322535146"><ele>65.5</ele><time>2026-04-03T09:30:30Z</time></trkpt><trkpt lat="43.47705896660941" lon="3.6545688089493162"><ele>64.0</ele><time>2026-04-03T09:30:31Z</time></trkpt><trkpt lat="43.47720266372832" lon="3.6549110456653113"><ele>64.0</ele><time>2026-04-03T09:30:32Z</time></trkpt><trkpt lat="43.477345706828274" lon="3.655250437902703"><ele>64.0</ele><time>2026-04-03T09:30:33Z</time></trkpt><trkpt lat="43.477484232706125" lon="3.65559726384125"><ele>64.0</ele><time>2026-04-03T09:30:34Z</time></trkpt><trkpt lat="43.47761820988776" lon="3.655948917223658"><ele>64.0</ele><time>2026-04-03T09:30:35Z</time></trkpt><trkpt lat="43.47774425585287" lon="3.656300758195476"><ele>63.0</ele><time>2026-04-03T09:30:36Z</time></trkpt><trkpt lat="43.477868299322246" lon="3.656654733499837"><ele>62.0</ele><time>2026-04-03T09:30:37Z</time></trkpt><trkpt lat="43.477986868371225" lon="3.657009254965612"><ele>58.5</ele><time>2026-04-03T09:30:38Z</time></trkpt><trkpt lat="43.478108959543114" lon="3.65736972238822"><ele>55.0</ele><time>2026-04-03T09:30:39Z</time></trkpt><trkpt lat="43.478218415604985" lon="3.6577261074407743"><ele>52.5</ele><time>2026-04-03T09:30:40Z</time></trkpt><trkpt lat="43.47832777080819" lon="3.658094812007021"><ele>50.0</ele><time>2026-04-03T09:30:41Z</time></trkpt><trkpt lat="43.4784261156064" lon="3.6584659540874642"><ele>48.0</ele><time>2026-04-03T09:30:42Z</time></trkpt><trkpt lat="43.47852164378536" lon="3.6588397407100697"><ele>46.0</ele><time>2026-04-03T09:30:43Z</time></trkpt><trkpt lat="43.47861130653818" lon="3.6592128325309905"><ele>45.0</ele><time>2026-04-03T09:30:44Z</time></trkpt><trkpt lat="43.47869960030765" lon="3.659589192258281"><ele>44.0</ele><time>2026-04-03T09:30:45Z</time></trkpt><trkpt lat="43.47878569826436" lon="3.659964422811998"><ele>43.5</ele><time>2026-04-03T09:30:46Z</time></trkpt><trkpt lat="43.47886728468998" lon="3.660344330294902"><ele>43.0</ele><time>2026-04-03T09:30:47Z</time></trkpt><trkpt lat="43.47894381754433" lon="3.660721225831974"><ele>43.0</ele><time>2026-04-03T09:30:48Z</time></trkpt><trkpt lat="43.47901384192528" lon="3.661098423501978"><ele>43.0</ele><time>2026-04-03T09:30:49Z</time></trkpt><trkpt lat="43.479080902208615" lon="3.661477695529101"><ele>44.0</ele><time>2026-04-03T09:30:50Z</time></trkpt><trkpt lat="43.47914474196447" lon="3.6618559909871404"><ele>45.0</ele><time>2026-04-03T09:30:51Z</time></trkpt><trkpt lat="43.47920096614831" lon="3.662241125332733"><ele>42.5</ele><time>2026-04-03T09:30:52Z</time></trkpt><trkpt lat="43.47925309520954" lon="3.6626231952572703"><ele>40.0</ele><time>2026-04-03T09:30:53Z</time></trkpt><trkpt lat="43.479301833136525" lon="3.6630049205080493"><ele>38.5</ele><time>2026-04-03T09:30:54Z</time></trkpt><trkpt lat="43.47934486027198" lon="3.6633894608353317"><ele>37.0</ele><time>2026-04-03T09:30:55Z</time></trkpt><trkpt lat="43.479383198985474" lon="3.663777881975606"><ele>35.0</ele><time>2026-04-03T09:30:56Z</time></trkpt><trkpt lat="43.47941839096456" lon="3.664168496285102"><ele>33.0</ele><time>2026-04-03T09:30:57Z</time></trkpt><trkpt lat="43.479451196849844" lon="3.6645518475721497"><ele>32.5</ele><time>2026-04-03T09:30:58Z</time></trkpt><trkpt lat="43.479480402293866" lon="3.6649416323076767"><ele>32.0</ele><time>2026-04-03T09:30:59Z</time></trkpt><trkpt lat="43.47950407738029" lon="3.665333600279243"><ele>31.5</ele><time>2026-04-03T09:31:00Z</time></trkpt><trkpt lat="43.47952582832878" lon="3.66571964121992"><ele>31.0</ele><time>2026-04-03T09:31:01Z</time></trkpt><trkpt lat="43.479546040690124" lon="3.6661023089892724"><ele>31.0</ele><time>2026-04-03T09:31:02Z</time></trkpt><trkpt lat="43.47956130207225" lon="3.666481965190315"><ele>31.0</ele><time>2026-04-03T09:31:03Z</time></trkpt><trkpt lat="43.47957824980474" lon="3.666854640955911"><ele>32.0</ele><time>2026-04-03T09:31:04Z</time></trkpt><trkpt lat="43.47959699404685" lon="3.6672286292726235"><ele>33.0</ele><time>2026-04-03T09:31:05Z</time></trkpt><trkpt lat="43.47961214511098" lon="3.6676017533059633"><ele>36.5</ele><time>2026-04-03T09:31:06Z</time></trkpt><trkpt lat="43.479628394414" lon="3.6679712133074838"><ele>40.0</ele><time>2026-04-03T09:31:07Z</time></trkpt><trkpt lat="43.47964392091846" lon="3.668338501799533"><ele>39.0</ele><time>2026-04-03T09:31:08Z</time></trkpt><trkpt lat="43.47965872219956" lon="3.668695365580571"><ele>38.0</ele><time>2026-04-03T09:31:09Z</time></trkpt><trkpt lat="43.4796729653627" lon="3.6690404402812917"><ele>38.0</ele><time>2026-04-03T09:31:10Z</time></trkpt><trkpt lat="43.479687008679036" lon="3.669379972632984"><ele>38.0</ele><time>2026-04-03T09:31:11Z</time></trkpt><trkpt lat="43.479700707250224" lon="3.6697179395968904"><ele>36.5</ele><time>2026-04-03T09:31:12Z</time></trkpt><trkpt lat="43.479714245474405" lon="3.6700513873022027"><ele>35.0</ele><time>2026-04-03T09:31:13Z</time></trkpt><trkpt lat="43.479724792396425" lon="3.6703785428393125"><ele>33.5</ele><time>2026-04-03T09:31:14Z</time></trkpt><trkpt lat="43.47973728586435" lon="3.6706966081818955"><ele>32.0</ele><time>2026-04-03T09:31:15Z</time></trkpt><trkpt lat="43.47974956530015" lon="3.6710101760757907"><ele>30.0</ele><time>2026-04-03T09:31:16Z</time></trkpt><trkpt lat="43.479761567181086" lon="3.6713286547561412"><ele>28.0</ele><time>2026-04-03T09:31:17Z</time></trkpt><trkpt lat="43.47977351051313" lon="3.6716464123106305"><ele>27.5</ele><time>2026-04-03T09:31:18Z</time></trkpt><trkpt lat="43.47978769409882" lon="3.6719657758278834"><ele>27.0</ele><time>2026-04-03T09:31:19Z</time></trkpt><trkpt lat="43.479800753254416" lon="3.6722825349634927"><ele>27.0</ele><time>2026-04-03T09:31:20Z</time></trkpt><trkpt lat="43.47981404124749" lon="3.6726007149588"><ele>27.0</ele><time>2026-04-03T09:31:21Z</time></trkpt><trkpt lat="43.47982878651971" lon="3.672915698803523"><ele>25.0</ele><time>2026-04-03T09:31:22Z</time></trkpt><trkpt lat="43.47984205347522" lon="3.6732354505074776"><ele>23.0</ele><time>2026-04-03T09:31:23Z</time></trkpt><trkpt lat="43.4798558347532" lon="3.6735564219038315"><ele>21.0</ele><time>2026-04-03T09:31:24Z</time></trkpt><trkpt lat="43.479866830376004" lon="3.67387908282626"><ele>19.0</ele><time>2026-04-03T09:31:25Z</time></trkpt><trkpt lat="43.47987850268184" lon="3.674198392406922"><ele>19.0</ele><time>2026-04-03T09:31:26Z</time></trkpt><trkpt lat="43.47988951412732" lon="3.6745200436173553"><ele>19.0</ele><time>2026-04-03T09:31:27Z</time></trkpt><trkpt lat="43.479904155608125" lon="3.6748412929657475"><ele>19.0</ele><time>2026-04-03T09:31:28Z</time></trkpt><trkpt lat="43.47991818996239" lon="3.6751627406552805"><ele>19.0</ele><time>2026-04-03T09:31:29Z</time></trkpt><trkpt lat="43.47992896883553" lon="3.675489233094324"><ele>17.0</ele><time>2026-04-03T09:31:30Z</time></trkpt><trkpt lat="43.47994072620168" lon="3.6758182268513333"><ele>15.0</ele><time>2026-04-03T09:31:31Z</time></trkpt><trkpt lat="43.479958536598176" lon="3.6761430422888273"><ele>14.0</ele><time>2026-04-03T09:31:32Z</time></trkpt><trkpt lat="43.47997818814641" lon="3.6764694278377505"><ele>13.0</ele><time>2026-04-03T09:31:33Z</time></trkpt><trkpt lat="43.47999560860163" lon="3.6767992938913703"><ele>14.0</ele><time>2026-04-03T09:31:34Z</time></trkpt><trkpt lat="43.48002008961063" lon="3.6771257042481658"><ele>15.0</ele><time>2026-04-03T09:31:35Z</time></trkpt><trkpt lat="43.48004462176365" lon="3.6774564268822707"><ele>15.0</ele><time>2026-04-03T09:31:36Z</time></trkpt><trkpt lat="43.4800689184984" lon="3.677790062778044"><ele>15.0</ele><time>2026-04-03T09:31:37Z</time></trkpt><trkpt lat="43.48009412963402" lon="3.6781188824196756"><ele>15.0</ele><time>2026-04-03T09:31:38Z</time></trkpt><trkpt lat="43.4801253001269" lon="3.678447691411628"><ele>15.0</ele><time>2026-04-03T09:31:39Z</time></trkpt><trkpt lat="43.48015945686888" lon="3.6787721383770244"><ele>15.5</ele><time>2026-04-03T09:31:40Z</time></trkpt><trkpt lat="43.480196017152444" lon="3.6790905242524534"><ele>16.0</ele><time>2026-04-03T09:31:41Z</time></trkpt><trkpt lat="43.4802381190695" lon="3.6794047674653823"><ele>15.5</ele><time>2026-04-03T09:31:42Z</time></trkpt><trkpt lat="43.48028051310433" lon="3.6797144330229923"><ele>15.0</ele><time>2026-04-03T09:31:43Z</time></trkpt><trkpt lat="43.48032230485686" lon="3.6800215229412263"><ele>15.0</ele><time>2026-04-03T09:31:44Z</time></trkpt><trkpt lat="43.48036475995021" lon="3.6803279628212433"><ele>15.0</ele><time>2026-04-03T09:31:45Z</time></trkpt><trkpt lat="43.480408466262425" lon="3.68062720444513"><ele>15.0</ele><time>2026-04-03T09:31:46Z</time></trkpt><trkpt lat="43.48045454698887" lon="3.6809149295824155"><ele>15.666666666666668</ele><time>2026-04-03T09:31:47Z</time></trkpt><trkpt lat="43.48049900876403" lon="3.681196596482111"><ele>16.333333333333336</ele><time>2026-04-03T09:31:48Z</time></trkpt><trkpt lat="43.48053222116505" lon="3.6814771198613188"><ele>17.0</ele><time>2026-04-03T09:31:49Z</time></trkpt><trkpt lat="43.480553814713836" lon="3.681747736339948"><ele>18.333333333333336</ele><time>2026-04-03T09:31:50Z</time></trkpt><trkpt lat="43.48055892998814" lon="3.682009031309386"><ele>19.666666666666668</ele><time>2026-04-03T09:31:51Z</time></trkpt><trkpt lat="43.480543151083054" lon="3.6822700065755822"><ele>21.0</ele><time>2026-04-03T09:31:52Z</time></trkpt><trkpt lat="43.48050364167502" lon="3.6825264200336756"><ele>21.333333333333332</ele><time>2026-04-03T09:31:53Z</time></trkpt><trkpt lat="43.48044598721253" lon="3.682777501120925"><ele>21.666666666666664</ele><time>2026-04-03T09:31:54Z</time></trkpt><trkpt lat="43.48037251401763" lon="3.6830126401490735"><ele>22.0</ele><time>2026-04-03T09:31:55Z</time></trkpt><trkpt lat="43.48027723211185" lon="3.6832367141721396"><ele>22.0</ele><time>2026-04-03T09:31:56Z</time></trkpt><trkpt lat="43.480164876021675" lon="3.683445145976403"><ele>22.0</ele><time>2026-04-03T09:31:57Z</time></trkpt><trkpt lat="43.48003999311211" lon="3.683636929445416"><ele>22.0</ele><time>2026-04-03T09:31:58Z</time></trkpt><trkpt lat="43.47990364987629" lon="3.68380984008918"><ele>21.666666666666664</ele><time>2026-04-03T09:31:59Z</time></trkpt><trkpt lat="43.47975924167809" lon="3.683955044661352"><ele>21.333333333333332</ele><time>2026-04-03T09:32:00Z</time></trkpt><trkpt lat="43.47961495422096" lon="3.6840753007767137"><ele>21.0</ele><time>2026-04-03T09:32:01Z</time></trkpt><trkpt lat="43.479462794682654" lon="3.6841788042736745"><ele>20.0</ele><time>2026-04-03T09:32:02Z</time></trkpt><trkpt lat="43.479307074060834" lon="3.684258358533998"><ele>19.0</ele><time>2026-04-03T09:32:03Z</time></trkpt><trkpt lat="43.47915516187889" lon="3.684327294908261"><ele>18.0</ele><time>2026-04-03T09:32:04Z</time></trkpt><trkpt lat="43.47900181773666" lon="3.6843862056428915"><ele>19.0</ele><time>2026-04-03T09:32:05Z</time></trkpt><trkpt lat="43.478850035704816" lon="3.6844471404930363"><ele>20.0</ele><time>2026-04-03T09:32:06Z</time></trkpt><trkpt lat="43.478704696781904" lon="3.6845044331967163"><ele>21.0</ele><time>2026-04-03T09:32:07Z</time></trkpt><trkpt lat="43.47856336458985" lon="3.6845633674216325"><ele>21.0</ele><time>2026-04-03T09:32:08Z</time></trkpt><trkpt lat="43.478426476917605" lon="3.68462355904639"><ele>21.0</ele><time>2026-04-03T09:32:09Z</time></trkpt><trkpt lat="43.47829229483985" lon="3.684679236262081"><ele>21.0</ele><time>2026-04-03T09:32:10Z</time></trkpt><trkpt lat="43.47816093436033" lon="3.6847381481308252"><ele>21.0</ele><time>2026-04-03T09:32:11Z</time></trkpt><trkpt lat="43.478043637067124" lon="3.684791728964799"><ele>21.0</ele><time>2026-04-03T09:32:12Z</time></trkpt><trkpt lat="43.47793672310798" lon="3.6848382914066438"><ele>21.0</ele><time>2026-04-03T09:32:13Z</time></trkpt><trkpt lat="43.477840795952346" lon="3.6848808724767883"><ele>21.0</ele><time>2026-04-03T09:32:14Z</time></trkpt><trkpt lat="43.47775851753838" lon="3.6849170804831863"><ele>21.0</ele><time>2026-04-03T09:32:15Z</time></trkpt><trkpt lat="43.47769389160199" lon="3.684947067399042"><ele>21.0</ele><time>2026-04-03T09:32:16Z</time></trkpt><trkpt lat="43.47759354259077" lon="3.6849888104625688"><ele>20.5</ele><time>2026-04-03T09:32:18Z</time></trkpt><trkpt lat="43.47752637399183" lon="3.6850184062473277"><ele>20.0</ele><time>2026-04-03T09:32:20Z</time></trkpt><trkpt lat="43.47746414272257" lon="3.6850532866118026"><ele>19.5</ele><time>2026-04-03T09:32:24Z</time></trkpt><trkpt lat="43.477404405770415" lon="3.6850838195023723"><ele>19.0</ele><time>2026-04-03T09:32:26Z</time></trkpt><trkpt lat="43.47729061614649" lon="3.6851263815030686"><ele>18.5</ele><time>2026-04-03T09:32:28Z</time></trkpt><trkpt lat="43.47721958687409" lon="3.685159709494935"><ele>18.0</ele><time>2026-04-03T09:32:29Z</time></trkpt><trkpt lat="43.477139824670466" lon="3.6852024329774884"><ele>17.8</ele><time>2026-04-03T09:32:30Z</time></trkpt><trkpt lat="43.47705773881657" lon="3.6852423315306004"><ele>17.6</ele><time>2026-04-03T09:32:31Z</time></trkpt><trkpt lat="43.47697066505091" lon="3.6852840416532153"><ele>17.4</ele><time>2026-04-03T09:32:32Z</time></trkpt><trkpt lat="43.476876294664216" lon="3.685329661594709"><ele>17.2</ele><time>2026-04-03T09:32:33Z</time></trkpt><trkpt lat="43.476782234605146" lon="3.6853694791218223"><ele>17.0</ele><time>2026-04-03T09:32:34Z</time></trkpt><trkpt lat="43.476708086053016" lon="3.685400480204069"><ele>17.6</ele><time>2026-04-03T09:32:35Z</time></trkpt><trkpt lat="43.47662941643927" lon="3.685436441184617"><ele>18.2</ele><time>2026-04-03T09:32:36Z</time></trkpt><trkpt lat="43.476544588148855" lon="3.685482755243512"><ele>18.8</ele><time>2026-04-03T09:32:37Z</time></trkpt><trkpt lat="43.476444180615516" lon="3.6855293132570077"><ele>19.4</ele><time>2026-04-03T09:32:38Z</time></trkpt><trkpt lat="43.47633590957148" lon="3.685577949256729"><ele>20.0</ele><time>2026-04-03T09:32:39Z</time></trkpt><trkpt lat="43.47622356677755" lon="3.685629279947748"><ele>20.0</ele><time>2026-04-03T09:32:40Z</time></trkpt><trkpt lat="43.47610543751498" lon="3.6856798737649634"><ele>20.0</ele><time>2026-04-03T09:32:41Z</time></trkpt><trkpt lat="43.47599124479966" lon="3.6857324542120997"><ele>20.0</ele><time>2026-04-03T09:32:42Z</time></trkpt><trkpt lat="43.47586940589294" lon="3.68578554956026"><ele>20.0</ele><time>2026-04-03T09:32:43Z</time></trkpt><trkpt lat="43.47573650347671" lon="3.6858447594248736"><ele>20.0</ele><time>2026-04-03T09:32:44Z</time></trkpt><trkpt lat="43.47560271760988" lon="3.68589904656684"><ele>20.0</ele><time>2026-04-03T09:32:45Z</time></trkpt><trkpt lat="43.47546472259783" lon="3.685955427116062"><ele>20.0</ele><time>2026-04-03T09:32:46Z</time></trkpt><trkpt lat="43.47532358696254" lon="3.68601895774896"><ele>20.0</ele><time>2026-04-03T09:32:47Z</time></trkpt><trkpt lat="43.47518292843455" lon="3.6860778981546543"><ele>20.333333333333336</ele><time>2026-04-03T09:32:48Z</time></trkpt><trkpt lat="43.475041886955715" lon="3.6861393099721567"><ele>20.666666666666668</ele><time>2026-04-03T09:32:49Z</time></trkpt><trkpt lat="43.47489945083588" lon="3.6862009992996314"><ele>21.0</ele><time>2026-04-03T09:32:50Z</time></trkpt><trkpt lat="43.474752912302584" lon="3.686263685853491"><ele>21.0</ele><time>2026-04-03T09:32:51Z</time></trkpt><trkpt lat="43.47460854988632" lon="3.6863307063859936"><ele>21.0</ele><time>2026-04-03T09:32:52Z</time></trkpt><trkpt lat="43.47446593394125" lon="3.6863966993636796"><ele>21.0</ele><time>2026-04-03T09:32:53Z</time></trkpt><trkpt lat="43.47432457162568" lon="3.6864655464809983"><ele>19.666666666666668</ele><time>2026-04-03T09:32:54Z</time></trkpt><trkpt lat="43.47418111220411" lon="3.686533680295955"><ele>18.333333333333336</ele><time>2026-04-03T09:32:55Z</time></trkpt><trkpt lat="43.47403338671489" lon="3.6866049357057844"><ele>17.0</ele><time>2026-04-03T09:32:56Z</time></trkpt><trkpt lat="43.47388717905592" lon="3.686673029265388"><ele>16.666666666666668</ele><time>2026-04-03T09:32:57Z</time></trkpt><trkpt lat="43.47373967021819" lon="3.686743092007836"><ele>16.333333333333332</ele><time>2026-04-03T09:32:58Z</time></trkpt><trkpt lat="43.47358759020886" lon="3.6868162697580944"><ele>16.0</ele><time>2026-04-03T09:32:59Z</time></trkpt><trkpt lat="43.47343168184187" lon="3.6868878969978125"><ele>15.666666666666666</ele><time>2026-04-03T09:33:00Z</time></trkpt><trkpt lat="43.47327092451899" lon="3.6869617122636242"><ele>15.333333333333332</ele><time>2026-04-03T09:33:01Z</time></trkpt><trkpt lat="43.47310932322307" lon="3.6870327585998535"><ele>15.0</ele><time>2026-04-03T09:33:02Z</time></trkpt><trkpt lat="43.47294109273687" lon="3.687105678398531"><ele>15.0</ele><time>2026-04-03T09:33:03Z</time></trkpt><trkpt lat="43.472772909148766" lon="3.687183854535219"><ele>15.0</ele><time>2026-04-03T09:33:04Z</time></trkpt><trkpt lat="43.472605936683415" lon="3.68726278523067"><ele>15.0</ele><time>2026-04-03T09:33:05Z</time></trkpt><trkpt lat="43.47243492999183" lon="3.6873385647754615"><ele>15.0</ele><time>2026-04-03T09:33:06Z</time></trkpt><trkpt lat="43.47226623435464" lon="3.687411583132216"><ele>15.0</ele><time>2026-04-03T09:33:07Z</time></trkpt><trkpt lat="43.472098231658805" lon="3.6874890954037105"><ele>15.0</ele><time>2026-04-03T09:33:08Z</time></trkpt><trkpt lat="43.47193012043251" lon="3.687565791429048"><ele>14.666666666666668</ele><time>2026-04-03T09:33:09Z</time></trkpt><trkpt lat="43.47176350996522" lon="3.6876425125369856"><ele>14.333333333333334</ele><time>2026-04-03T09:33:10Z</time></trkpt><trkpt lat="43.47159918682169" lon="3.687721350552331"><ele>14.0</ele><time>2026-04-03T09:33:11Z</time></trkpt><trkpt lat="43.47143250011981" lon="3.68780036589297"><ele>12.333333333333334</ele><time>2026-04-03T09:33:12Z</time></trkpt><trkpt lat="43.47126425785033" lon="3.687881268654809"><ele>10.666666666666668</ele><time>2026-04-03T09:33:13Z</time></trkpt><trkpt lat="43.47109238212545" lon="3.6879651824618724"><ele>9.0</ele><time>2026-04-03T09:33:14Z</time></trkpt><trkpt lat="43.470926194964484" lon="3.688057752350512"><ele>9.0</ele><time>2026-04-03T09:33:15Z</time></trkpt><trkpt lat="43.47075673701624" lon="3.6881562856905776"><ele>9.0</ele><time>2026-04-03T09:33:16Z</time></trkpt><trkpt lat="43.470594582468514" lon="3.6882629994173732"><ele>9.0</ele><time>2026-04-03T09:33:17Z</time></trkpt><trkpt lat="43.47044254052388" lon="3.6883664485367897"><ele>9.0</ele><time>2026-04-03T09:33:18Z</time></trkpt><trkpt lat="43.47028899523501" lon="3.6884738008429556"><ele>9.0</ele><time>2026-04-03T09:33:19Z</time></trkpt><trkpt lat="43.470141513766436" lon="3.6885844898210074"><ele>9.0</ele><time>2026-04-03T09:33:20Z</time></trkpt><trkpt lat="43.469998428523326" lon="3.688702124019213"><ele>8.666666666666666</ele><time>2026-04-03T09:33:21Z</time></trkpt><trkpt lat="43.46985918400713" lon="3.688818189509272"><ele>8.333333333333332</ele><time>2026-04-03T09:33:22Z</time></trkpt><trkpt lat="43.46972304427417" lon="3.6889327074559977"><ele>8.0</ele><time>2026-04-03T09:33:23Z</time></trkpt><trkpt lat="43.469593992498716" lon="3.689054330875772"><ele>7.666666666666666</ele><time>2026-04-03T09:33:24Z</time></trkpt><trkpt lat="43.46946661274719" lon="3.689177072897633"><ele>7.333333333333334</ele><time>2026-04-03T09:33:25Z</time></trkpt><trkpt lat="43.469336736796095" lon="3.689307164603925"><ele>7.0</ele><time>2026-04-03T09:33:26Z</time></trkpt><trkpt lat="43.46921246672457" lon="3.6894390073439576"><ele>7.0</ele><time>2026-04-03T09:33:27Z</time></trkpt><trkpt lat="43.46908490955791" lon="3.689572676639908"><ele>7.0</ele><time>2026-04-03T09:33:28Z</time></trkpt><trkpt lat="43.468959739430474" lon="3.6897089054733385"><ele>7.0</ele><time>2026-04-03T09:33:29Z</time></trkpt><trkpt lat="43.4688329910481" lon="3.6898490732654015"><ele>7.0</ele><time>2026-04-03T09:33:30Z</time></trkpt><trkpt lat="43.46870218116758" lon="3.689992354513621"><ele>7.0</ele><time>2026-04-03T09:33:31Z</time></trkpt><trkpt lat="43.46856943607023" lon="3.690136808639717"><ele>7.0</ele><time>2026-04-03T09:33:32Z</time></trkpt><trkpt lat="43.468437788414576" lon="3.690280820330705"><ele>8.666666666666668</ele><time>2026-04-03T09:33:33Z</time></trkpt><trkpt lat="43.46830405528303" lon="3.6904225791287093"><ele>10.333333333333334</ele><time>2026-04-03T09:33:34Z</time></trkpt><trkpt lat="43.46817197561246" lon="3.690570180083689"><ele>12.0</ele><time>2026-04-03T09:33:35Z</time></trkpt><trkpt lat="43.46803604022179" lon="3.6907144383986212"><ele>12.0</ele><time>2026-04-03T09:33:36Z</time></trkpt><trkpt lat="43.46789932103562" lon="3.690855481798832"><ele>12.0</ele><time>2026-04-03T09:33:37Z</time></trkpt><trkpt lat="43.46775812963856" lon="3.6909967986157786"><ele>12.0</ele><time>2026-04-03T09:33:38Z</time></trkpt><trkpt lat="43.46761168067709" lon="3.691135498728578"><ele>13.0</ele><time>2026-04-03T09:33:39Z</time></trkpt><trkpt lat="43.467461224770354" lon="3.691270525143584"><ele>14.0</ele><time>2026-04-03T09:33:40Z</time></trkpt><trkpt lat="43.46730496135718" lon="3.6914000979761945"><ele>15.0</ele><time>2026-04-03T09:33:41Z</time></trkpt><trkpt lat="43.467147700096575" lon="3.6915214894326795"><ele>14.0</ele><time>2026-04-03T09:33:42Z</time></trkpt><trkpt lat="43.46698611004265" lon="3.6916317278665267"><ele>13.0</ele><time>2026-04-03T09:33:43Z</time></trkpt><trkpt lat="43.46682539567808" lon="3.691736063774171"><ele>12.0</ele><time>2026-04-03T09:33:44Z</time></trkpt><trkpt lat="43.466662785558356" lon="3.691834617447331"><ele>13.666666666666668</ele><time>2026-04-03T09:33:45Z</time></trkpt><trkpt lat="43.46649805008615" lon="3.691927170055284"><ele>15.333333333333334</ele><time>2026-04-03T09:33:46Z</time></trkpt><trkpt lat="43.46633091929772" lon="3.6920148754558033"><ele>17.0</ele><time>2026-04-03T09:33:47Z</time></trkpt><trkpt lat="43.46615754014733" lon="3.6921002928236653"><ele>17.0</ele><time>2026-04-03T09:33:48Z</time></trkpt><trkpt lat="43.46598266095458" lon="3.692177576350699"><ele>17.0</ele><time>2026-04-03T09:33:49Z</time></trkpt><trkpt lat="43.46580788801829" lon="3.6922467996647454"><ele>17.0</ele><time>2026-04-03T09:33:50Z</time></trkpt><trkpt lat="43.465630265755706" lon="3.6923046140579054"><ele>17.0</ele><time>2026-04-03T09:33:51Z</time></trkpt><trkpt lat="43.46545392376609" lon="3.6923592375216074"><ele>17.0</ele><time>2026-04-03T09:33:52Z</time></trkpt><trkpt lat="43.465280928539556" lon="3.692411023064261"><ele>17.0</ele><time>2026-04-03T09:33:53Z</time></trkpt><trkpt lat="43.46510347417457" lon="3.6924554464236286"><ele>17.0</ele><time>2026-04-03T09:33:54Z</time></trkpt><trkpt lat="43.46492610603495" lon="3.692494723966612"><ele>17.0</ele><time>2026-04-03T09:33:55Z</time></trkpt><trkpt lat="43.46474901279828" lon="3.692530963480671"><ele>17.0</ele><time>2026-04-03T09:33:56Z</time></trkpt><trkpt lat="43.464572316880535" lon="3.6925683158141673"><ele>17.0</ele><time>2026-04-03T09:33:57Z</time></trkpt><trkpt lat="43.464395018827425" lon="3.6926021714765374"><ele>17.0</ele><time>2026-04-03T09:33:58Z</time></trkpt><trkpt lat="43.46421757552502" lon="3.6926354137448185"><ele>17.0</ele><time>2026-04-03T09:33:59Z</time></trkpt><trkpt lat="43.46403944358642" lon="3.692666494750141"><ele>17.0</ele><time>2026-04-03T09:34:00Z</time></trkpt><trkpt lat="43.46386123215932" lon="3.692700655584061"><ele>17.0</ele><time>2026-04-03T09:34:01Z</time></trkpt><trkpt lat="43.46367867617764" lon="3.692735271177188"><ele>17.0</ele><time>2026-04-03T09:34:02Z</time></trkpt><trkpt lat="43.46349561025027" lon="3.692775278355733"><ele>16.666666666666668</ele><time>2026-04-03T09:34:03Z</time></trkpt><trkpt lat="43.46331063479035" lon="3.6928150252905523"><ele>16.333333333333332</ele><time>2026-04-03T09:34:04Z</time></trkpt><trkpt lat="43.46312746948871" lon="3.69285876546471"><ele>16.0</ele><time>2026-04-03T09:34:05Z</time></trkpt><trkpt lat="43.46294567869073" lon="3.692907058328261"><ele>16.0</ele><time>2026-04-03T09:34:06Z</time></trkpt><trkpt lat="43.462766583687625" lon="3.6929614286999466"><ele>16.0</ele><time>2026-04-03T09:34:07Z</time></trkpt><trkpt lat="43.4625876177493" lon="3.693023529725521"><ele>16.0</ele><time>2026-04-03T09:34:08Z</time></trkpt><trkpt lat="43.46241074153095" lon="3.693093282818218"><ele>16.0</ele><time>2026-04-03T09:34:09Z</time></trkpt><trkpt lat="43.46223369273312" lon="3.6931697650879136"><ele>16.0</ele><time>2026-04-03T09:34:10Z</time></trkpt><trkpt lat="43.462058029695825" lon="3.6932546066069887"><ele>16.0</ele><time>2026-04-03T09:34:11Z</time></trkpt><trkpt lat="43.4618787460582" lon="3.6933448256688397"><ele>16.333333333333332</ele><time>2026-04-03T09:34:12Z</time></trkpt><trkpt lat="43.461704356909884" lon="3.693436535105498"><ele>16.666666666666668</ele><time>2026-04-03T09:34:13Z</time></trkpt><trkpt lat="43.46153081971486" lon="3.6935321919508866"><ele>17.0</ele><time>2026-04-03T09:34:14Z</time></trkpt><trkpt lat="43.461362393787965" lon="3.6936331922433623"><ele>16.666666666666668</ele><time>2026-04-03T09:34:15Z</time></trkpt><trkpt lat="43.46119243130356" lon="3.693742619379652"><ele>16.333333333333332</ele><time>2026-04-03T09:34:16Z</time></trkpt><trkpt lat="43.46102568826071" lon="3.693859480109434"><ele>16.0</ele><time>2026-04-03T09:34:17Z</time></trkpt><trkpt lat="43.460861724299214" lon="3.6939835161148036"><ele>16.0</ele><time>2026-04-03T09:34:18Z</time></trkpt><trkpt lat="43.460693490425086" lon="3.694113285489978"><ele>16.0</ele><time>2026-04-03T09:34:19Z</time></trkpt><trkpt lat="43.460531571173306" lon="3.6942529825765393"><ele>16.0</ele><time>2026-04-03T09:34:20Z</time></trkpt><trkpt lat="43.46037098094329" lon="3.694395071867581"><ele>17.666666666666664</ele><time>2026-04-03T09:34:21Z</time></trkpt><trkpt lat="43.46021413097557" lon="3.694546042572797"><ele>19.333333333333332</ele><time>2026-04-03T09:34:22Z</time></trkpt><trkpt lat="43.460058441835315" lon="3.6947011439136674"><ele>21.0</ele><time>2026-04-03T09:34:23Z</time></trkpt><trkpt lat="43.45990502246597" lon="3.6948570051143563"><ele>21.0</ele><time>2026-04-03T09:34:24Z</time></trkpt><trkpt lat="43.459754232491726" lon="3.6950162993645557"><ele>21.0</ele><time>2026-04-03T09:34:25Z</time></trkpt><trkpt lat="43.45961128330471" lon="3.6951865795834102"><ele>21.0</ele><time>2026-04-03T09:34:26Z</time></trkpt><trkpt lat="43.45947019250874" lon="3.6953568933692003"><ele>21.333333333333332</ele><time>2026-04-03T09:34:27Z</time></trkpt><trkpt lat="43.45933456009186" lon="3.6955345826802324"><ele>21.666666666666664</ele><time>2026-04-03T09:34:28Z</time></trkpt><trkpt lat="43.45920537136196" lon="3.6957151103543704"><ele>22.0</ele><time>2026-04-03T09:34:29Z</time></trkpt><trkpt lat="43.459081888251575" lon="3.6958979041594984"><ele>22.666666666666664</ele><time>2026-04-03T09:34:30Z</time></trkpt><trkpt lat="43.458958276470014" lon="3.6960868956798647"><ele>23.333333333333332</ele><time>2026-04-03T09:34:31Z</time></trkpt><trkpt lat="43.45884041269307" lon="3.6962760354673305"><ele>24.0</ele><time>2026-04-03T09:34:32Z</time></trkpt><trkpt lat="43.45872441365826" lon="3.6964698288915603"><ele>24.333333333333336</ele><time>2026-04-03T09:34:33Z</time></trkpt><trkpt lat="43.45861441041852" lon="3.6966712893398888"><ele>24.666666666666668</ele><time>2026-04-03T09:34:34Z</time></trkpt><trkpt lat="43.458503458928206" lon="3.6968758492775855"><ele>25.0</ele><time>2026-04-03T09:34:35Z</time></trkpt><trkpt lat="43.45839697401292" lon="3.697085512180554"><ele>26.0</ele><time>2026-04-03T09:34:36Z</time></trkpt><trkpt lat="43.45829162253391" lon="3.6972983456703727"><ele>27.0</ele><time>2026-04-03T09:34:37Z</time></trkpt><trkpt lat="43.458191867185086" lon="3.6975167706136816"><ele>28.0</ele><time>2026-04-03T09:34:38Z</time></trkpt><trkpt lat="43.45809332879778" lon="3.6977238188142167"><ele>28.333333333333336</ele><time>2026-04-03T09:34:39Z</time></trkpt><trkpt lat="43.45799192427048" lon="3.6979477160469445"><ele>28.666666666666664</ele><time>2026-04-03T09:34:40Z</time></trkpt><trkpt lat="43.45789195834699" lon="3.6981697412064927"><ele>29.0</ele><time>2026-04-03T09:34:41Z</time></trkpt><trkpt lat="43.45779513467623" lon="3.6983966648824893"><ele>30.333333333333332</ele><time>2026-04-03T09:34:42Z</time></trkpt><trkpt lat="43.45769928592144" lon="3.6986228690481124"><ele>31.666666666666664</ele><time>2026-04-03T09:34:43Z</time></trkpt><trkpt lat="43.457603255044674" lon="3.698854956321176"><ele>33.0</ele><time>2026-04-03T09:34:44Z</time></trkpt><trkpt lat="43.45750740076289" lon="3.6990811766023888"><ele>33.0</ele><time>2026-04-03T09:34:45Z</time></trkpt><trkpt lat="43.457413591277025" lon="3.6993013179811496"><ele>33.0</ele><time>2026-04-03T09:34:46Z</time></trkpt><trkpt lat="43.45731533419179" lon="3.699520987473068"><ele>33.0</ele><time>2026-04-03T09:34:47Z</time></trkpt><trkpt lat="43.45721774586208" lon="3.699748057713611"><ele>33.666666666666664</ele><time>2026-04-03T09:34:48Z</time></trkpt><trkpt lat="43.45712897223804" lon="3.6999627081540467"><ele>34.33333333333333</ele><time>2026-04-03T09:34:49Z</time></trkpt><trkpt lat="43.45704005722964" lon="3.7001749192865483"><ele>35.0</ele><time>2026-04-03T09:34:50Z</time></trkpt><trkpt lat="43.4569502498199" lon="3.7003849268193107"><ele>36.33333333333333</ele><time>2026-04-03T09:34:51Z</time></trkpt><trkpt lat="43.456861571274864" lon="3.700594012208601"><ele>37.666666666666664</ele><time>2026-04-03T09:34:52Z</time></trkpt><trkpt lat="43.45677173190618" lon="3.700802956578211"><ele>39.0</ele><time>2026-04-03T09:34:53Z</time></trkpt><trkpt lat="43.45668150793448" lon="3.701014274605893"><ele>40.666666666666664</ele><time>2026-04-03T09:34:54Z</time></trkpt><trkpt lat="43.45659467811483" lon="3.7012174405463374"><ele>42.33333333333333</ele><time>2026-04-03T09:34:55Z</time></trkpt><trkpt lat="43.456502864326104" lon="3.7014248231322275"><ele>44.0</ele><time>2026-04-03T09:34:56Z</time></trkpt><trkpt lat="43.45641602409639" lon="3.701624008468519"><ele>44.0</ele><time>2026-04-03T09:34:57Z</time></trkpt><trkpt lat="43.45632565616524" lon="3.701823950196848"><ele>44.0</ele><time>2026-04-03T09:34:58Z</time></trkpt><trkpt lat="43.45623842122839" lon="3.70202106272282"><ele>44.0</ele><time>2026-04-03T09:34:59Z</time></trkpt><trkpt lat="43.45614020384475" lon="3.7022107569073226"><ele>45.33333333333333</ele><time>2026-04-03T09:35:00Z</time></trkpt><trkpt lat="43.456046915015015" lon="3.702392293273044"><ele>46.666666666666664</ele><time>2026-04-03T09:35:01Z</time></trkpt><trkpt lat="43.45595073626554" lon="3.70257260462555"><ele>48.0</ele><time>2026-04-03T09:35:02Z</time></trkpt><trkpt lat="43.455848806988655" lon="3.702748910038472"><ele>49.66666666666667</ele><time>2026-04-03T09:35:03Z</time></trkpt><trkpt lat="43.455746055819546" lon="3.7029191713229035"><ele>51.333333333333336</ele><time>2026-04-03T09:35:04Z</time></trkpt><trkpt lat="43.4556357572129" lon="3.7030895578146263"><ele>53.0</ele><time>2026-04-03T09:35:05Z</time></trkpt><trkpt lat="43.45552497353094" lon="3.7032508140731437"><ele>53.333333333333336</ele><time>2026-04-03T09:35:06Z</time></trkpt><trkpt lat="43.455413246643275" lon="3.703418986922946"><ele>53.66666666666667</ele><time>2026-04-03T09:35:07Z</time></trkpt><trkpt lat="43.455294909266435" lon="3.7035891319007552"><ele>54.0</ele><time>2026-04-03T09:35:08Z</time></trkpt><trkpt lat="43.455171777937196" lon="3.7037446527290294"><ele>54.66666666666667</ele><time>2026-04-03T09:35:09Z</time></trkpt><trkpt lat="43.45505096089676" lon="3.703891512471812"><ele>55.333333333333336</ele><time>2026-04-03T09:35:10Z</time></trkpt><trkpt lat="43.45492873532586" lon="3.704030011644256"><ele>56.0</ele><time>2026-04-03T09:35:11Z</time></trkpt><trkpt lat="43.45480701939744" lon="3.704162197149259"><ele>56.0</ele><time>2026-04-03T09:35:12Z</time></trkpt><trkpt lat="43.45468030632991" lon="3.7042898684698997"><ele>56.0</ele><time>2026-04-03T09:35:13Z</time></trkpt><trkpt lat="43.4545465042853" lon="3.7044168193427196"><ele>56.0</ele><time>2026-04-03T09:35:14Z</time></trkpt><trkpt lat="43.454410857212466" lon="3.7045454292650746"><ele>58.0</ele><time>2026-04-03T09:35:15Z</time></trkpt><trkpt lat="43.45427520021917" lon="3.7046638025986076"><ele>60.0</ele><time>2026-04-03T09:35:16Z</time></trkpt><trkpt lat="43.45413442198584" lon="3.7047820388737724"><ele>62.0</ele><time>2026-04-03T09:35:17Z</time></trkpt><trkpt lat="43.45399270494405" lon="3.7048942581952966"><ele>62.0</ele><time>2026-04-03T09:35:18Z</time></trkpt><trkpt lat="43.453844862633424" lon="3.704998106942889"><ele>62.0</ele><time>2026-04-03T09:35:19Z</time></trkpt><trkpt lat="43.45369775410008" lon="3.7050968887863163"><ele>62.0</ele><time>2026-04-03T09:35:20Z</time></trkpt><trkpt lat="43.45354608902355" lon="3.705191759544549"><ele>65.0</ele><time>2026-04-03T09:35:21Z</time></trkpt><trkpt lat="43.45338626869374" lon="3.7052790425315276"><ele>68.0</ele><time>2026-04-03T09:35:22Z</time></trkpt><trkpt lat="43.45322642116469" lon="3.7053594815807225"><ele>71.0</ele><time>2026-04-03T09:35:23Z</time></trkpt><trkpt lat="43.45306201462961" lon="3.70543928508192"><ele>71.33333333333334</ele><time>2026-04-03T09:35:24Z</time></trkpt><trkpt lat="43.45289972032457" lon="3.705511289654178"><ele>71.66666666666667</ele><time>2026-04-03T09:35:25Z</time></trkpt><trkpt lat="43.45273268637536" lon="3.7055839365680505"><ele>72.0</ele><time>2026-04-03T09:35:26Z</time></trkpt><trkpt lat="43.452563366249464" lon="3.7056528628403687"><ele>72.0</ele><time>2026-04-03T09:35:27Z</time></trkpt><trkpt lat="43.45239248906313" lon="3.7057127454915704"><ele>72.0</ele><time>2026-04-03T09:35:28Z</time></trkpt><trkpt lat="43.45222314577136" lon="3.705767523901415"><ele>72.0</ele><time>2026-04-03T09:35:29Z</time></trkpt><trkpt lat="43.45205352135485" lon="3.7058202184850413"><ele>71.33333333333333</ele><time>2026-04-03T09:35:30Z</time></trkpt><trkpt lat="43.45188469793139" lon="3.7058697353410026"><ele>70.66666666666666</ele><time>2026-04-03T09:35:31Z</time></trkpt><trkpt lat="43.451720456056975" lon="3.705915915491445"><ele>70.0</ele><time>2026-04-03T09:35:32Z</time></trkpt><trkpt lat="43.451559592424246" lon="3.7059640544494874"><ele>70.0</ele><time>2026-04-03T09:35:33Z</time></trkpt><trkpt lat="43.45139939482877" lon="3.706012754685902"><ele>70.0</ele><time>2026-04-03T09:35:34Z</time></trkpt><trkpt lat="43.4512406837805" lon="3.7060578828981043"><ele>70.0</ele><time>2026-04-03T09:35:35Z</time></trkpt><trkpt lat="43.45108614809659" lon="3.7061040549394737"><ele>72.33333333333333</ele><time>2026-04-03T09:35:36Z</time></trkpt><trkpt lat="43.45092648713195" lon="3.7061508238894763"><ele>74.66666666666667</ele><time>2026-04-03T09:35:37Z</time></trkpt><trkpt lat="43.45076583014922" lon="3.706203331429144"><ele>77.0</ele><time>2026-04-03T09:35:38Z</time></trkpt><trkpt lat="43.450599368403445" lon="3.7062590965657183"><ele>75.0</ele><time>2026-04-03T09:35:39Z</time></trkpt><trkpt lat="43.45044010164755" lon="3.7063231113616153"><ele>73.0</ele><time>2026-04-03T09:35:40Z</time></trkpt><trkpt lat="43.45028227466315" lon="3.706385620751253"><ele>71.0</ele><time>2026-04-03T09:35:41Z</time></trkpt><trkpt lat="43.45013076627352" lon="3.7064544793224465"><ele>71.0</ele><time>2026-04-03T09:35:42Z</time></trkpt><trkpt lat="43.449979929094766" lon="3.7065253715302013"><ele>71.0</ele><time>2026-04-03T09:35:43Z</time></trkpt><trkpt lat="43.44982878768906" lon="3.7066028063075973"><ele>71.0</ele><time>2026-04-03T09:35:44Z</time></trkpt><trkpt lat="43.449673975902435" lon="3.706691488291359"><ele>70.33333333333334</ele><time>2026-04-03T09:35:45Z</time></trkpt><trkpt lat="43.44951910162583" lon="3.7067893483513354"><ele>69.66666666666667</ele><time>2026-04-03T09:35:46Z</time></trkpt><trkpt lat="43.44936779566441" lon="3.7068879191539192"><ele>69.0</ele><time>2026-04-03T09:35:47Z</time></trkpt><trkpt lat="43.44921519758467" lon="3.7069908533630804"><ele>69.0</ele><time>2026-04-03T09:35:48Z</time></trkpt><trkpt lat="43.449064907584734" lon="3.7070933183137"><ele>69.0</ele><time>2026-04-03T09:35:49Z</time></trkpt><trkpt lat="43.44891261246087" lon="3.707199195094729"><ele>69.0</ele><time>2026-04-03T09:35:50Z</time></trkpt><trkpt lat="43.44876909803708" lon="3.707310022937954"><ele>65.33333333333333</ele><time>2026-04-03T09:35:51Z</time></trkpt><trkpt lat="43.448626015634105" lon="3.707427390905302"><ele>61.666666666666664</ele><time>2026-04-03T09:35:52Z</time></trkpt><trkpt lat="43.448464815466494" lon="3.707568114359284"><ele>58.0</ele><time>2026-04-03T09:35:53Z</time></trkpt><trkpt lat="43.44832389830635" lon="3.707700949418732"><ele>59.0</ele><time>2026-04-03T09:35:54Z</time></trkpt><trkpt lat="43.44819014684324" lon="3.7078351052818115"><ele>60.0</ele><time>2026-04-03T09:35:55Z</time></trkpt><trkpt lat="43.44804947567319" lon="3.7079780062465275"><ele>61.0</ele><time>2026-04-03T09:35:56Z</time></trkpt><trkpt lat="43.447909566176314" lon="3.7081271376310303"><ele>58.0</ele><time>2026-04-03T09:35:57Z</time></trkpt><trkpt lat="43.44776711860753" lon="3.7082822685022894"><ele>55.0</ele><time>2026-04-03T09:35:58Z</time></trkpt><trkpt lat="43.447629540616525" lon="3.7084385724427427"><ele>52.0</ele><time>2026-04-03T09:35:59Z</time></trkpt><trkpt lat="43.447493270715526" lon="3.708594952785671"><ele>52.0</ele><time>2026-04-03T09:36:00Z</time></trkpt><trkpt lat="43.44736439411263" lon="3.7087559499126828"><ele>52.0</ele><time>2026-04-03T09:36:01Z</time></trkpt><trkpt lat="43.447244718908806" lon="3.7089115906205716"><ele>52.0</ele><time>2026-04-03T09:36:02Z</time></trkpt><trkpt lat="43.44712729700854" lon="3.7090713105406525"><ele>50.666666666666664</ele><time>2026-04-03T09:36:03Z</time></trkpt><trkpt lat="43.447016403885286" lon="3.709230416819999"><ele>49.33333333333333</ele><time>2026-04-03T09:36:04Z</time></trkpt><trkpt lat="43.446909388455346" lon="3.7093929155411636"><ele>48.0</ele><time>2026-04-03T09:36:05Z</time></trkpt><trkpt lat="43.4468058686322" lon="3.7095634518412703"><ele>47.333333333333336</ele><time>2026-04-03T09:36:06Z</time></trkpt><trkpt lat="43.446699042932515" lon="3.70974326088328"><ele>46.66666666666667</ele><time>2026-04-03T09:36:07Z</time></trkpt><trkpt lat="43.44659288366824" lon="3.709923600298523"><ele>46.0</ele><time>2026-04-03T09:36:08Z</time></trkpt><trkpt lat="43.44648822183552" lon="3.7101124431438306"><ele>46.0</ele><time>2026-04-03T09:36:09Z</time></trkpt><trkpt lat="43.446378271801244" lon="3.71031335902537"><ele>46.0</ele><time>2026-04-03T09:36:10Z</time></trkpt><trkpt lat="43.44627428299109" lon="3.7105236112226345"><ele>46.0</ele><time>2026-04-03T09:36:11Z</time></trkpt><trkpt lat="43.446171183778496" lon="3.7107328049851116"><ele>45.0</ele><time>2026-04-03T09:36:12Z</time></trkpt><trkpt lat="43.44607261280399" lon="3.7109365398549126"><ele>44.0</ele><time>2026-04-03T09:36:13Z</time></trkpt><trkpt lat="43.445973250760254" lon="3.7111422195860007"><ele>43.0</ele><time>2026-04-03T09:36:14Z</time></trkpt><trkpt lat="43.445873797697935" lon="3.711353168005992"><ele>42.66666666666667</ele><time>2026-04-03T09:36:15Z</time></trkpt><trkpt lat="43.44577602345717" lon="3.7115520975122416"><ele>42.333333333333336</ele><time>2026-04-03T09:36:16Z</time></trkpt><trkpt lat="43.44567845457288" lon="3.711753236909376"><ele>42.0</ele><time>2026-04-03T09:36:17Z</time></trkpt><trkpt lat="43.445584672621166" lon="3.7119477263272924"><ele>41.333333333333336</ele><time>2026-04-03T09:36:18Z</time></trkpt><trkpt lat="43.445487868750824" lon="3.7121429643422403"><ele>40.66666666666667</ele><time>2026-04-03T09:36:19Z</time></trkpt><trkpt lat="43.44539202306942" lon="3.7123386318318436"><ele>40.0</ele><time>2026-04-03T09:36:20Z</time></trkpt><trkpt lat="43.445291444449424" lon="3.7125371230025297"><ele>38.66666666666667</ele><time>2026-04-03T09:36:21Z</time></trkpt><trkpt lat="43.44518783077157" lon="3.712733731014661"><ele>37.333333333333336</ele><time>2026-04-03T09:36:22Z</time></trkpt><trkpt lat="43.44508537845498" lon="3.71292839858524"><ele>36.0</ele><time>2026-04-03T09:36:23Z</time></trkpt><trkpt lat="43.444975642496715" lon="3.7131201643929455"><ele>36.0</ele><time>2026-04-03T09:36:24Z</time></trkpt><trkpt lat="43.4448715087082" lon="3.713304486991487"><ele>36.0</ele><time>2026-04-03T09:36:25Z</time></trkpt><trkpt lat="43.444762009693974" lon="3.713489892079417"><ele>36.0</ele><time>2026-04-03T09:36:26Z</time></trkpt><trkpt lat="43.444650182132776" lon="3.7136745994431424"><ele>36.0</ele><time>2026-04-03T09:36:27Z</time></trkpt><trkpt lat="43.44453054942536" lon="3.713851703957294"><ele>36.0</ele><time>2026-04-03T09:36:28Z</time></trkpt><trkpt lat="43.444405645573575" lon="3.7140292534707755"><ele>36.0</ele><time>2026-04-03T09:36:29Z</time></trkpt><trkpt lat="43.444278433884755" lon="3.714196266248439"><ele>36.0</ele><time>2026-04-03T09:36:30Z</time></trkpt><trkpt lat="43.444149038166074" lon="3.714360339002261"><ele>36.0</ele><time>2026-04-03T09:36:31Z</time></trkpt><trkpt lat="43.44401916151925" lon="3.7145213411553746"><ele>36.0</ele><time>2026-04-03T09:36:32Z</time></trkpt><trkpt lat="43.443893465744694" lon="3.714682189127644"><ele>34.666666666666664</ele><time>2026-04-03T09:36:33Z</time></trkpt><trkpt lat="43.44376711072117" lon="3.71484162421449"><ele>33.33333333333333</ele><time>2026-04-03T09:36:34Z</time></trkpt><trkpt lat="43.44364353956796" lon="3.714994288408078"><ele>32.0</ele><time>2026-04-03T09:36:35Z</time></trkpt><trkpt lat="43.4435132036085" lon="3.7151430601889928"><ele>32.33333333333333</ele><time>2026-04-03T09:36:36Z</time></trkpt><trkpt lat="43.44338080577894" lon="3.7152867147796993"><ele>32.666666666666664</ele><time>2026-04-03T09:36:37Z</time></trkpt><trkpt lat="43.44324230100675" lon="3.715428048141118"><ele>33.0</ele><time>2026-04-03T09:36:38Z</time></trkpt><trkpt lat="43.44310169494163" lon="3.715565523256834"><ele>32.0</ele><time>2026-04-03T09:36:39Z</time></trkpt><trkpt lat="43.4429567523007" lon="3.7157024490320243"><ele>31.0</ele><time>2026-04-03T09:36:40Z</time></trkpt><trkpt lat="43.44280840053026" lon="3.7158335644249547"><ele>30.0</ele><time>2026-04-03T09:36:41Z</time></trkpt><trkpt lat="43.44265397786654" lon="3.715957368810679"><ele>29.666666666666664</ele><time>2026-04-03T09:36:42Z</time></trkpt><trkpt lat="43.44249838299568" lon="3.716080643500935"><ele>29.333333333333332</ele><time>2026-04-03T09:36:43Z</time></trkpt><trkpt lat="43.44233823428638" lon="3.7161981340088976"><ele>29.0</ele><time>2026-04-03T09:36:44Z</time></trkpt><trkpt lat="43.44217888319477" lon="3.716314341788658"><ele>28.666666666666664</ele><time>2026-04-03T09:36:45Z</time></trkpt><trkpt lat="43.442015577174" lon="3.716424262013482"><ele>28.333333333333336</ele><time>2026-04-03T09:36:46Z</time></trkpt><trkpt lat="43.441849982254496" lon="3.7165243959845475"><ele>28.0</ele><time>2026-04-03T09:36:47Z</time></trkpt><trkpt lat="43.441687570391906" lon="3.7166187531392505"><ele>28.0</ele><time>2026-04-03T09:36:48Z</time></trkpt><trkpt lat="43.441525307125644" lon="3.716707513090255"><ele>28.0</ele><time>2026-04-03T09:36:49Z</time></trkpt><trkpt lat="43.44136281740337" lon="3.7167881356362735"><ele>28.0</ele><time>2026-04-03T09:36:50Z</time></trkpt><trkpt lat="43.44119778649857" lon="3.716866094805459"><ele>28.333333333333336</ele><time>2026-04-03T09:36:51Z</time></trkpt><trkpt lat="43.441034460515084" lon="3.7169308602809026"><ele>28.666666666666664</ele><time>2026-04-03T09:36:52Z</time></trkpt><trkpt lat="43.440864509241855" lon="3.7169911294322238"><ele>29.0</ele><time>2026-04-03T09:36:53Z</time></trkpt><trkpt lat="43.44068982866663" lon="3.7170508023764395"><ele>29.0</ele><time>2026-04-03T09:36:54Z</time></trkpt><trkpt lat="43.4405173736206" lon="3.717099625820957"><ele>29.0</ele><time>2026-04-03T09:36:55Z</time></trkpt><trkpt lat="43.44034439900853" lon="3.7171405298546274"><ele>29.0</ele><time>2026-04-03T09:36:56Z</time></trkpt><trkpt lat="43.44017295395062" lon="3.7171818577844205"><ele>30.0</ele><time>2026-04-03T09:36:57Z</time></trkpt><trkpt lat="43.44000047513143" lon="3.7172199082011823"><ele>31.0</ele><time>2026-04-03T09:36:58Z</time></trkpt><trkpt lat="43.43982468701096" lon="3.7172598783254904"><ele>32.0</ele><time>2026-04-03T09:36:59Z</time></trkpt><trkpt lat="43.439645815895496" lon="3.717295425076129"><ele>30.333333333333332</ele><time>2026-04-03T09:37:00Z</time></trkpt><trkpt lat="43.439465331409316" lon="3.717330502104497"><ele>28.666666666666664</ele><time>2026-04-03T09:37:01Z</time></trkpt><trkpt lat="43.439287930247815" lon="3.717360598850705"><ele>27.0</ele><time>2026-04-03T09:37:02Z</time></trkpt><trkpt lat="43.43911131660125" lon="3.717389847372508"><ele>27.0</ele><time>2026-04-03T09:37:03Z</time></trkpt><trkpt lat="43.43893155193971" lon="3.7174206103862932"><ele>27.0</ele><time>2026-04-03T09:37:04Z</time></trkpt><trkpt lat="43.4387540599831" lon="3.7174536328456766"><ele>27.0</ele><time>2026-04-03T09:37:05Z</time></trkpt><trkpt lat="43.43857441539745" lon="3.7174871525488244"><ele>26.0</ele><time>2026-04-03T09:37:06Z</time></trkpt><trkpt lat="43.43839594148164" lon="3.717520394353348"><ele>25.0</ele><time>2026-04-03T09:37:07Z</time></trkpt><trkpt lat="43.438216577671355" lon="3.7175545841737416"><ele>24.0</ele><time>2026-04-03T09:37:08Z</time></trkpt><trkpt lat="43.438036435504294" lon="3.7175894767619746"><ele>24.0</ele><time>2026-04-03T09:37:09Z</time></trkpt><trkpt lat="43.437856320731086" lon="3.717628317668575"><ele>24.0</ele><time>2026-04-03T09:37:10Z</time></trkpt><trkpt lat="43.43767849969143" lon="3.717671739350879"><ele>24.0</ele><time>2026-04-03T09:37:11Z</time></trkpt><trkpt lat="43.43750152791596" lon="3.71771830296951"><ele>23.666666666666668</ele><time>2026-04-03T09:37:12Z</time></trkpt><trkpt lat="43.43732500420395" lon="3.717771048863209"><ele>23.333333333333336</ele><time>2026-04-03T09:37:13Z</time></trkpt><trkpt lat="43.43715298498644" lon="3.7178250093638794"><ele>23.0</ele><time>2026-04-03T09:37:14Z</time></trkpt><trkpt lat="43.43697964730135" lon="3.7178863770075483"><ele>22.666666666666668</ele><time>2026-04-03T09:37:15Z</time></trkpt><trkpt lat="43.43680791564084" lon="3.717948221528893"><ele>22.333333333333332</ele><time>2026-04-03T09:37:16Z</time></trkpt><trkpt lat="43.43663529967058" lon="3.718014146866407"><ele>22.0</ele><time>2026-04-03T09:37:17Z</time></trkpt><trkpt lat="43.43645891478879" lon="3.7180859753691693"><ele>21.666666666666664</ele><time>2026-04-03T09:37:18Z</time></trkpt><trkpt lat="43.43628674371998" lon="3.7181568328410406"><ele>21.333333333333332</ele><time>2026-04-03T09:37:19Z</time></trkpt><trkpt lat="43.43611569170938" lon="3.7182337903354905"><ele>21.0</ele><time>2026-04-03T09:37:20Z</time></trkpt><trkpt lat="43.43595009542969" lon="3.718311908219671"><ele>21.0</ele><time>2026-04-03T09:37:21Z</time></trkpt><trkpt lat="43.43578740784146" lon="3.718390776224984"><ele>21.0</ele><time>2026-04-03T09:37:22Z</time></trkpt><trkpt lat="43.43562978736261" lon="3.7184686498832744"><ele>21.0</ele><time>2026-04-03T09:37:23Z</time></trkpt><trkpt lat="43.435476618169595" lon="3.718551504864952"><ele>21.333333333333332</ele><time>2026-04-03T09:37:24Z</time></trkpt><trkpt lat="43.43532778133137" lon="3.718635351769772"><ele>21.666666666666664</ele><time>2026-04-03T09:37:25Z</time></trkpt><trkpt lat="43.43517877763379" lon="3.7187202098702365"><ele>22.0</ele><time>2026-04-03T09:37:26Z</time></trkpt><trkpt lat="43.43503159402438" lon="3.7188074703822114"><ele>22.0</ele><time>2026-04-03T09:37:27Z</time></trkpt><trkpt lat="43.43488446518152" lon="3.718898785286745"><ele>22.0</ele><time>2026-04-03T09:37:28Z</time></trkpt><trkpt lat="43.43473797589662" lon="3.718994007236333"><ele>22.0</ele><time>2026-04-03T09:37:29Z</time></trkpt><trkpt lat="43.434588140299034" lon="3.7190952922581384"><ele>22.0</ele><time>2026-04-03T09:37:30Z</time></trkpt><trkpt lat="43.4344360188206" lon="3.7192008127049947"><ele>22.0</ele><time>2026-04-03T09:37:31Z</time></trkpt><trkpt lat="43.43428896444754" lon="3.7193087783336587"><ele>22.0</ele><time>2026-04-03T09:37:32Z</time></trkpt><trkpt lat="43.434141758011286" lon="3.7194180497053133"><ele>22.0</ele><time>2026-04-03T09:37:33Z</time></trkpt><trkpt lat="43.43399923175375" lon="3.7195238962189565"><ele>22.0</ele><time>2026-04-03T09:37:34Z</time></trkpt><trkpt lat="43.43385613249065" lon="3.719632851035531"><ele>22.0</ele><time>2026-04-03T09:37:35Z</time></trkpt><trkpt lat="43.43370994735672" lon="3.7197445671158706"><ele>21.333333333333332</ele><time>2026-04-03T09:37:36Z</time></trkpt><trkpt lat="43.433558781984736" lon="3.719852276985227"><ele>20.666666666666668</ele><time>2026-04-03T09:37:37Z</time></trkpt><trkpt lat="43.43341000880361" lon="3.719953905269987"><ele>20.0</ele><time>2026-04-03T09:37:38Z</time></trkpt><trkpt lat="43.43326441426396" lon="3.720047458769721"><ele>20.0</ele><time>2026-04-03T09:37:39Z</time></trkpt><trkpt lat="43.43311771189165" lon="3.7201400910174707"><ele>20.0</ele><time>2026-04-03T09:37:40Z</time></trkpt><trkpt lat="43.43296628611408" lon="3.720232906979629"><ele>20.0</ele><time>2026-04-03T09:37:41Z</time></trkpt><trkpt lat="43.43281321137225" lon="3.7203207672664003"><ele>19.0</ele><time>2026-04-03T09:37:42Z</time></trkpt><trkpt lat="43.432660666211454" lon="3.7204095181085513"><ele>18.0</ele><time>2026-04-03T09:37:43Z</time></trkpt><trkpt lat="43.43250436213548" lon="3.720496037981455"><ele>17.0</ele><time>2026-04-03T09:37:44Z</time></trkpt><trkpt lat="43.432345779881" lon="3.720587272053663"><ele>17.0</ele><time>2026-04-03T09:37:45Z</time></trkpt><trkpt lat="43.4321898725294" lon="3.720675416235996"><ele>17.0</ele><time>2026-04-03T09:37:46Z</time></trkpt><trkpt lat="43.43203255587062" lon="3.720763100422957"><ele>17.0</ele><time>2026-04-03T09:37:47Z</time></trkpt><trkpt lat="43.431882185664634" lon="3.7208438651496007"><ele>17.333333333333336</ele><time>2026-04-03T09:37:48Z</time></trkpt><trkpt lat="43.43173311966164" lon="3.7209213955023226"><ele>17.666666666666668</ele><time>2026-04-03T09:37:49Z</time></trkpt><trkpt lat="43.43157738664882" lon="3.721001788939829"><ele>18.0</ele><time>2026-04-03T09:37:50Z</time></trkpt><trkpt lat="43.431420149399614" lon="3.7210717512943607"><ele>17.666666666666668</ele><time>2026-04-03T09:37:51Z</time></trkpt><trkpt lat="43.43126688371197" lon="3.721133566641732"><ele>17.333333333333336</ele><time>2026-04-03T09:37:52Z</time></trkpt><trkpt lat="43.43110127874344" lon="3.721171821057933"><ele>17.0</ele><time>2026-04-03T09:37:53Z</time></trkpt><trkpt lat="43.43094428365745" lon="3.721247497455292"><ele>17.0</ele><time>2026-04-03T09:37:54Z</time></trkpt><trkpt lat="43.43077214379036" lon="3.721275133516171"><ele>17.0</ele><time>2026-04-03T09:37:55Z</time></trkpt><trkpt lat="43.430605626261986" lon="3.721339671598141"><ele>17.0</ele><time>2026-04-03T09:37:56Z</time></trkpt><trkpt lat="43.43043530198786" lon="3.7213802819373814"><ele>16.666666666666668</ele><time>2026-04-03T09:37:57Z</time></trkpt><trkpt lat="43.43026761731589" lon="3.7214162411765366"><ele>16.333333333333332</ele><time>2026-04-03T09:37:58Z</time></trkpt><trkpt lat="43.430100467542815" lon="3.7214556493003634"><ele>16.0</ele><time>2026-04-03T09:37:59Z</time></trkpt><trkpt lat="43.429932031246864" lon="3.7214962932575344"><ele>16.0</ele><time>2026-04-03T09:38:00Z</time></trkpt><trkpt lat="43.4297626487486" lon="3.721537537628045"><ele>16.0</ele><time>2026-04-03T09:38:01Z</time></trkpt><trkpt lat="43.42959755440841" lon="3.7215736912098656"><ele>16.0</ele><time>2026-04-03T09:38:02Z</time></trkpt><trkpt lat="43.429434380986415" lon="3.721607121314568"><ele>15.333333333333332</ele><time>2026-04-03T09:38:03Z</time></trkpt><trkpt lat="43.429274315244676" lon="3.7216411927934807"><ele>14.666666666666668</ele><time>2026-04-03T09:38:04Z</time></trkpt><trkpt lat="43.42911578141823" lon="3.7216766999190933"><ele>14.0</ele><time>2026-04-03T09:38:05Z</time></trkpt><trkpt lat="43.428956908732786" lon="3.721710745230157"><ele>13.666666666666668</ele><time>2026-04-03T09:38:06Z</time></trkpt><trkpt lat="43.42879760315219" lon="3.721742713552622"><ele>13.333333333333332</ele><time>2026-04-03T09:38:07Z</time></trkpt><trkpt lat="43.42863235664245" lon="3.721778828352421"><ele>13.0</ele><time>2026-04-03T09:38:08Z</time></trkpt><trkpt lat="43.4284700453252" lon="3.7218132175294594"><ele>13.0</ele><time>2026-04-03T09:38:09Z</time></trkpt><trkpt lat="43.42831010739532" lon="3.7218482973812246"><ele>13.0</ele><time>2026-04-03T09:38:10Z</time></trkpt><trkpt lat="43.42815338699392" lon="3.7218806957472683"><ele>13.0</ele><time>2026-04-03T09:38:11Z</time></trkpt><trkpt lat="43.428000064298004" lon="3.7219127711038538"><ele>12.0</ele><time>2026-04-03T09:38:12Z</time></trkpt><trkpt lat="43.42784692869191" lon="3.721946576468974"><ele>11.0</ele><time>2026-04-03T09:38:13Z</time></trkpt><trkpt lat="43.427693177913966" lon="3.721986639824489"><ele>10.0</ele><time>2026-04-03T09:38:14Z</time></trkpt><trkpt lat="43.42754248646126" lon="3.722023812185661"><ele>10.0</ele><time>2026-04-03T09:38:15Z</time></trkpt><trkpt lat="43.42739128829231" lon="3.722060188637499"><ele>10.0</ele><time>2026-04-03T09:38:16Z</time></trkpt><trkpt lat="43.42724292518944" lon="3.7220948333644666"><ele>10.0</ele><time>2026-04-03T09:38:17Z</time></trkpt><trkpt lat="43.42710075833108" lon="3.722130805067105"><ele>10.0</ele><time>2026-04-03T09:38:18Z</time></trkpt><trkpt lat="43.42696676040798" lon="3.7221667047743296"><ele>9.5</ele><time>2026-04-03T09:38:19Z</time></trkpt><trkpt lat="43.42683392666267" lon="3.7222017050470346"><ele>9.0</ele><time>2026-04-03T09:38:20Z</time></trkpt><trkpt lat="43.42670130279161" lon="3.722239186559741"><ele>8.5</ele><time>2026-04-03T09:38:21Z</time></trkpt><trkpt lat="43.4265689758528" lon="3.7222779262980756"><ele>8.0</ele><time>2026-04-03T09:38:22Z</time></trkpt><trkpt lat="43.426433534735914" lon="3.7222678600981283"><ele>8.25</ele><time>2026-04-03T09:38:23Z</time></trkpt><trkpt lat="43.42630554328644" lon="3.7223080777864053"><ele>8.5</ele><time>2026-04-03T09:38:24Z</time></trkpt><trkpt lat="43.4261863838793" lon="3.7223428361879356"><ele>8.75</ele><time>2026-04-03T09:38:25Z</time></trkpt><trkpt lat="43.42607199440576" lon="3.722376499561663"><ele>9.0</ele><time>2026-04-03T09:38:26Z</time></trkpt><trkpt lat="43.42596055157982" lon="3.722409890378593"><ele>9.0</ele><time>2026-04-03T09:38:27Z</time></trkpt><trkpt lat="43.42584933030565" lon="3.7224428273426176"><ele>9.0</ele><time>2026-04-03T09:38:28Z</time></trkpt><trkpt lat="43.425738175359115" lon="3.7224761382041605"><ele>9.0</ele><time>2026-04-03T09:38:29Z</time></trkpt><trkpt lat="43.42562913857035" lon="3.722506278366207"><ele>9.0</ele><time>2026-04-03T09:38:30Z</time></trkpt><trkpt lat="43.425520966366385" lon="3.722535909741179"><ele>9.0</ele><time>2026-04-03T09:38:31Z</time></trkpt><trkpt lat="43.42541499089138" lon="3.722563350900018"><ele>8.2</ele><time>2026-04-03T09:38:32Z</time></trkpt><trkpt lat="43.425319070051074" lon="3.7225865568569354"><ele>7.4</ele><time>2026-04-03T09:38:33Z</time></trkpt><trkpt lat="43.42523996222225" lon="3.7226056590621766"><ele>6.6</ele><time>2026-04-03T09:38:34Z</time></trkpt><trkpt lat="43.42513517113853" lon="3.7226287507685547"><ele>5.8</ele><time>2026-04-03T09:38:36Z</time></trkpt><trkpt lat="43.42505328342432" lon="3.7226450183042057"><ele>5.0</ele><time>2026-04-03T09:38:38Z</time></trkpt><trkpt lat="43.4249656116678" lon="3.7226685250249196"><ele>5.0</ele><time>2026-04-03T09:38:40Z</time></trkpt><trkpt lat="43.42487763251687" lon="3.722688507093743"><ele>5.0</ele><time>2026-04-03T09:38:42Z</time></trkpt><trkpt lat="43.42477764292136" lon="3.7227088403732824"><ele>5.0</ele><time>2026-04-03T09:38:44Z</time></trkpt><trkpt lat="43.4246689255463" lon="3.7227240540397872"><ele>5.0</ele><time>2026-04-03T09:38:46Z</time></trkpt><trkpt lat="43.424599222912406" lon="3.722725922423691"><ele>5.0</ele><time>2026-04-03T09:38:48Z</time></trkpt><trkpt lat="43.42451651069807" lon="3.7227418958196465"><ele>5.333333333333334</ele><time>2026-04-03T09:38:52Z</time></trkpt><trkpt lat="43.42444622905003" lon="3.7227575837696643"><ele>5.666666666666667</ele><time>2026-04-03T09:38:54Z</time></trkpt><trkpt lat="43.424369455177995" lon="3.7227640670197273"><ele>6.0</ele><time>2026-04-03T09:38:56Z</time></trkpt><trkpt lat="43.424293628624895" lon="3.7227135756527168"><ele>6.333333333333334</ele><time>2026-04-03T09:38:58Z</time></trkpt><trkpt lat="43.42419585179026" lon="3.722604418144989"><ele>6.666666666666667</ele><time>2026-04-03T09:39:00Z</time></trkpt><trkpt lat="43.42412421232626" lon="3.7225605945807354"><ele>7.0</ele><time>2026-04-03T09:39:01Z</time></trkpt><trkpt lat="43.424044373385605" lon="3.722537585774499"><ele>6.8</ele><time>2026-04-03T09:39:02Z</time></trkpt><trkpt lat="43.42395494660799" lon="3.722522346339194"><ele>6.6</ele><time>2026-04-03T09:39:03Z</time></trkpt><trkpt lat="43.42386099205137" lon="3.722510061739809"><ele>6.3999999999999995</ele><time>2026-04-03T09:39:04Z</time></trkpt><trkpt lat="43.42376757285489" lon="3.722499601042517"><ele>6.199999999999999</ele><time>2026-04-03T09:39:05Z</time></trkpt><trkpt lat="43.423672325141915" lon="3.722489678212234"><ele>6.0</ele><time>2026-04-03T09:39:06Z</time></trkpt><trkpt lat="43.423583458829434" lon="3.722484073252462"><ele>6.0</ele><time>2026-04-03T09:39:07Z</time></trkpt><trkpt lat="43.42349331539786" lon="3.7224678531973145"><ele>6.0</ele><time>2026-04-03T09:39:08Z</time></trkpt><trkpt lat="43.423414438981254" lon="3.7224683713385036"><ele>6.0</ele><time>2026-04-03T09:39:09Z</time></trkpt><trkpt lat="43.42333836665708" lon="3.722484656373704"><ele>6.0</ele><time>2026-04-03T09:39:10Z</time></trkpt><trkpt lat="43.42326197009004" lon="3.7225162581895876"><ele>6.0</ele><time>2026-04-03T09:39:11Z</time></trkpt><trkpt lat="43.423192577554154" lon="3.722572300729269"><ele>6.0</ele><time>2026-04-03T09:39:12Z</time></trkpt><trkpt lat="43.4231337735681" lon="3.722653001087756"><ele>6.166666666666667</ele><time>2026-04-03T09:39:13Z</time></trkpt><trkpt lat="43.42309202926814" lon="3.722751340130848"><ele>6.333333333333334</ele><time>2026-04-03T09:39:14Z</time></trkpt><trkpt lat="43.423069840545345" lon="3.7228574965200267"><ele>6.5</ele><time>2026-04-03T09:39:15Z</time></trkpt><trkpt lat="43.42305791593629" lon="3.722962753601423"><ele>6.666666666666667</ele><time>2026-04-03T09:39:16Z</time></trkpt><trkpt lat="43.42303551957476" lon="3.72305450247041"><ele>6.833333333333334</ele><time>2026-04-03T09:39:17Z</time></trkpt><trkpt lat="43.42304944550091" lon="3.7231453950105586"><ele>7.0</ele><time>2026-04-03T09:39:18Z</time></trkpt><trkpt lat="43.42293775377433" lon="3.723203580955736"><ele>6.199999999999999</ele><time>2026-04-03T09:39:19Z</time></trkpt><trkpt lat="43.422857651066096" lon="3.7232613703864543"><ele>5.3999999999999995</ele><time>2026-04-03T09:39:20Z</time></trkpt><trkpt lat="43.42276801845971" lon="3.7233132365365225"><ele>4.6</ele><time>2026-04-03T09:39:21Z</time></trkpt><trkpt lat="43.42266518035348" lon="3.723352789746282"><ele>3.8</ele><time>2026-04-03T09:39:22Z</time></trkpt><trkpt lat="43.42255885660651" lon="3.723383651019604"><ele>3.0</ele><time>2026-04-03T09:39:23Z</time></trkpt><trkpt lat="43.42244556160444" lon="3.7234238563198834"><ele>3.0</ele><time>2026-04-03T09:39:24Z</time></trkpt><trkpt lat="43.42233029399507" lon="3.72346838440132"><ele>3.0</ele><time>2026-04-03T09:39:25Z</time></trkpt><trkpt lat="43.422212910849005" lon="3.7235142039473805"><ele>3.0</ele><time>2026-04-03T09:39:26Z</time></trkpt><trkpt lat="43.422091163486044" lon="3.723560455081406"><ele>3.0</ele><time>2026-04-03T09:39:27Z</time></trkpt><trkpt lat="43.421964169395" lon="3.7236050875216224"><ele>3.5</ele><time>2026-04-03T09:39:28Z</time></trkpt><trkpt lat="43.42182829530938" lon="3.723657347823893"><ele>4.0</ele><time>2026-04-03T09:39:29Z</time></trkpt><trkpt lat="43.421688376906665" lon="3.7237092895660995"><ele>4.5</ele><time>2026-04-03T09:39:30Z</time></trkpt><trkpt lat="43.42154393632428" lon="3.7237637309477716"><ele>5.0</ele><time>2026-04-03T09:39:31Z</time></trkpt><trkpt lat="43.421396191989416" lon="3.7238186406998897"><ele>4.666666666666667</ele><time>2026-04-03T09:39:32Z</time></trkpt><trkpt lat="43.42124511306758" lon="3.723873817292293"><ele>4.333333333333333</ele><time>2026-04-03T09:39:33Z</time></trkpt><trkpt lat="43.42109017399305" lon="3.7239297966163036"><ele>4.0</ele><time>2026-04-03T09:39:34Z</time></trkpt><trkpt lat="43.420929987595386" lon="3.7239888015785247"><ele>4.0</ele><time>2026-04-03T09:39:35Z</time></trkpt><trkpt lat="43.42077135449833" lon="3.724046600100731"><ele>4.0</ele><time>2026-04-03T09:39:36Z</time></trkpt><trkpt lat="43.420612766076914" lon="3.724105401455438"><ele>4.0</ele><time>2026-04-03T09:39:37Z</time></trkpt><trkpt lat="43.42045580909921" lon="3.7241647556525592"><ele>3.333333333333333</ele><time>2026-04-03T09:39:38Z</time></trkpt><trkpt lat="43.420299636747856" lon="3.7242233665761315"><ele>2.6666666666666665</ele><time>2026-04-03T09:39:39Z</time></trkpt><trkpt lat="43.420145141865035" lon="3.724279703644833"><ele>2.0</ele><time>2026-04-03T09:39:40Z</time></trkpt><trkpt lat="43.41999317372649" lon="3.724335205687741"><ele>2.0</ele><time>2026-04-03T09:39:41Z</time></trkpt><trkpt lat="43.41984373377902" lon="3.7243914594427108"><ele>2.0</ele><time>2026-04-03T09:39:42Z</time></trkpt><trkpt lat="43.41969558370072" lon="3.724445851599818"><ele>2.0</ele><time>2026-04-03T09:39:43Z</time></trkpt><trkpt lat="43.41954640254052" lon="3.7244934358686064"><ele>2.333333333333333</ele><time>2026-04-03T09:39:44Z</time></trkpt><trkpt lat="43.419391165206186" lon="3.7245339736275374"><ele>2.6666666666666665</ele><time>2026-04-03T09:39:45Z</time></trkpt><trkpt lat="43.419234529374855" lon="3.724562457743679"><ele>3.0</ele><time>2026-04-03T09:39:46Z</time></trkpt><trkpt lat="43.41907893771497" lon="3.7245826378212645"><ele>3.0</ele><time>2026-04-03T09:39:47Z</time></trkpt><trkpt lat="43.4189248083641" lon="3.724592147259229"><ele>3.0</ele><time>2026-04-03T09:39:48Z</time></trkpt><trkpt lat="43.41877294970672" lon="3.724592529728833"><ele>3.0</ele><time>2026-04-03T09:39:49Z</time></trkpt><trkpt lat="43.41862637645572" lon="3.724584409492668"><ele>3.75</ele><time>2026-04-03T09:39:50Z</time></trkpt><trkpt lat="43.41848293648874" lon="3.724574306930126"><ele>4.5</ele><time>2026-04-03T09:39:51Z</time></trkpt><trkpt lat="43.418351580625654" lon="3.7245664313332094"><ele>5.25</ele><time>2026-04-03T09:39:52Z</time></trkpt><trkpt lat="43.41824137471869" lon="3.7245592278707935"><ele>6.0</ele><time>2026-04-03T09:39:53Z</time></trkpt><trkpt lat="43.41813809559571" lon="3.7245447885592764"><ele>6.0</ele><time>2026-04-03T09:39:54Z</time></trkpt><trkpt lat="43.41804734702488" lon="3.7245252809525193"><ele>6.0</ele><time>2026-04-03T09:39:55Z</time></trkpt><trkpt lat="43.417959788646364" lon="3.724520148755471"><ele>6.0</ele><time>2026-04-03T09:39:56Z</time></trkpt><trkpt lat="43.4178742375523" lon="3.7245003745270715"><ele>6.0</ele><time>2026-04-03T09:39:57Z</time></trkpt><trkpt lat="43.41779025603497" lon="3.7244391242447903"><ele>6.0</ele><time>2026-04-03T09:39:58Z</time></trkpt><trkpt lat="43.41773810646284" lon="3.7243349037117093"><ele>6.0</ele><time>2026-04-03T09:39:59Z</time></trkpt><trkpt lat="43.41769844655059" lon="3.7242102388539275"><ele>6.0</ele><time>2026-04-03T09:40:00Z</time></trkpt><trkpt lat="43.4176732988746" lon="3.7240764373585242"><ele>6.0</ele><time>2026-04-03T09:40:01Z</time></trkpt><trkpt lat="43.41765303186216" lon="3.7239327591087386"><ele>6.0</ele><time>2026-04-03T09:40:02Z</time></trkpt><trkpt lat="43.417636692228996" lon="3.7237802476424817"><ele>6.0</ele><time>2026-04-03T09:40:03Z</time></trkpt><trkpt lat="43.4176169770106" lon="3.7236231775466395"><ele>5.6</ele><time>2026-04-03T09:40:04Z</time></trkpt><trkpt lat="43.417594134649256" lon="3.7234721227464305"><ele>5.199999999999999</ele><time>2026-04-03T09:40:05Z</time></trkpt><trkpt lat="43.41756844989901" lon="3.7233329368102757"><ele>4.800000000000001</ele><time>2026-04-03T09:40:06Z</time></trkpt><trkpt lat="43.417534581453836" lon="3.7231947212914767"><ele>4.4</ele><time>2026-04-03T09:40:07Z</time></trkpt><trkpt lat="43.41749060278877" lon="3.723065378586113"><ele>4.0</ele><time>2026-04-03T09:40:08Z</time></trkpt><trkpt lat="43.41743853991444" lon="3.7229492226930168"><ele>4.0</ele><time>2026-04-03T09:40:09Z</time></trkpt><trkpt lat="43.417386189079814" lon="3.722832768727422"><ele>4.0</ele><time>2026-04-03T09:40:10Z</time></trkpt><trkpt lat="43.41733206295954" lon="3.7227091317253533"><ele>4.0</ele><time>2026-04-03T09:40:11Z</time></trkpt><trkpt lat="43.41727463902628" lon="3.7225863697906063"><ele>4.0</ele><time>2026-04-03T09:40:12Z</time></trkpt><trkpt lat="43.41722077523938" lon="3.7224769356362004"><ele>4.0</ele><time>2026-04-03T09:40:13Z</time></trkpt><trkpt lat="43.417173336606666" lon="3.7223783646904627"><ele>3.6666666666666665</ele><time>2026-04-03T09:40:14Z</time></trkpt><trkpt lat="43.4171343444" lon="3.7222973761348896"><ele>3.333333333333333</ele><time>2026-04-03T09:40:15Z</time></trkpt><trkpt lat="43.417106123874355" lon="3.722219899532813"><ele>3.0</ele><time>2026-04-03T09:40:16Z</time></trkpt><trkpt lat="43.41704452652154" lon="3.7220878755019373"><ele>2.6666666666666665</ele><time>2026-04-03T09:40:18Z</time></trkpt><trkpt lat="43.41699599791164" lon="3.72196637942558"><ele>2.333333333333333</ele><time>2026-04-03T09:40:20Z</time></trkpt><trkpt lat="43.41695279427786" lon="3.72187058385981"><ele>2.0</ele><time>2026-04-03T09:40:22Z</time></trkpt><trkpt lat="43.416902423884146" lon="3.7217737321456363"><ele>2.0</ele><time>2026-04-03T09:40:24Z</time></trkpt><trkpt lat="43.41685494238154" lon="3.721673959586931"><ele>1.9999999999999998</ele><time>2026-04-03T09:40:26Z</time></trkpt><trkpt lat="43.416815552424325" lon="3.721590511896891"><ele>2.0</ele><time>2026-04-03T09:40:28Z</time></trkpt><trkpt lat="43.41677661238276" lon="3.721506416413181"><ele>2.0</ele><time>2026-04-03T09:40:30Z</time></trkpt><trkpt lat="43.416736958168514" lon="3.721432925835577"><ele>1.9999999999999998</ele><time>2026-04-03T09:40:32Z</time></trkpt><trkpt lat="43.41669922823668" lon="3.721360097234496"><ele>2.0</ele><time>2026-04-03T09:40:34Z</time></trkpt><trkpt lat="43.416667279015826" lon="3.7212708260688796"><ele>2.0</ele><time>2026-04-03T09:40:46Z</time></trkpt><trkpt lat="43.41660885610284" lon="3.7211621178018244"><ele>1.9999999999999998</ele><time>2026-04-03T09:40:50Z</time></trkpt><trkpt lat="43.416563116944424" lon="3.7210633562789734"><ele>2.0</ele><time>2026-04-03T09:40:53Z</time></trkpt><trkpt lat="43.41651626772969" lon="3.7209594019312684"><ele>2.0</ele><time>2026-04-03T09:41:09Z</time></trkpt><trkpt lat="43.416475812793244" lon="3.7208698808143845"><ele>2.0</ele><time>2026-04-03T09:41:12Z</time></trkpt><trkpt lat="43.416440259422586" lon="3.7207941547335976"><ele>1.9999999999999998</ele><time>2026-04-03T09:41:15Z</time></trkpt><trkpt lat="43.41640465775695" lon="3.720715414961262"><ele>2.0</ele><time>2026-04-03T09:41:19Z</time></trkpt><trkpt lat="43.4163527346634" lon="3.7206280542475976"><ele>2.0</ele><time>2026-04-03T09:41:31Z</time></trkpt><trkpt lat="43.41630611639828" lon="3.7205415394151915"><ele>1.9999999999999998</ele><time>2026-04-03T09:41:34Z</time></trkpt><trkpt lat="43.41627109873711" lon="3.7204655949887204"><ele>2.0</ele><time>2026-04-03T09:41:37Z</time></trkpt><trkpt lat="43.41622990772093" lon="3.7203777938862728"><ele>2.0</ele><time>2026-04-03T09:41:41Z</time></trkpt><trkpt lat="43.41619825258455" lon="3.720278006264183"><ele>1.9999999999999998</ele><time>2026-04-03T09:41:47Z</time></trkpt><trkpt lat="43.41616258998506" lon="3.720197178984256"><ele>2.0</ele><time>2026-04-03T09:41:51Z</time></trkpt><trkpt lat="43.41612037490548" lon="3.7201121359993436"><ele>2.0</ele><time>2026-04-03T09:41:56Z</time></trkpt><trkpt lat="43.4160728425951" lon="3.720013196698912"><ele>1.9999999999999998</ele><time>2026-04-03T09:42:01Z</time></trkpt><trkpt lat="43.41603894071156" lon="3.7199380021914297"><ele>2.0</ele><time>2026-04-03T09:42:04Z</time></trkpt><trkpt lat="43.415996094261764" lon="3.7198479811007825"><ele>2.0</ele><time>2026-04-03T09:42:08Z</time></trkpt><trkpt lat="43.41595904089168" lon="3.719768062454873"><ele>2.0</ele><time>2026-04-03T09:42:12Z</time></trkpt><trkpt lat="43.415912588967366" lon="3.7196838725083956"><ele>1.9999999999999998</ele><time>2026-04-03T09:42:34Z</time></trkpt><trkpt lat="43.41586538766502" lon="3.7195759716900842"><ele>2.0</ele><time>2026-04-03T09:42:37Z</time></trkpt><trkpt lat="43.41581841186738" lon="3.7194735507891905"><ele>2.0</ele><time>2026-04-03T09:42:40Z</time></trkpt><trkpt lat="43.41578732419105" lon="3.7193871974416797"><ele>1.9999999999999998</ele><time>2026-04-03T09:42:44Z</time></trkpt><trkpt lat="43.415754460254874" lon="3.719311072942701"><ele>2.0</ele><time>2026-04-03T09:42:49Z</time></trkpt><trkpt lat="43.415733559606714" lon="3.719225818128709"><ele>2.0</ele><time>2026-04-03T09:42:56Z</time></trkpt><trkpt lat="43.415692878122265" lon="3.71913604272573"><ele>1.9999999999999998</ele><time>2026-04-03T09:42:59Z</time></trkpt><trkpt lat="43.415652326363364" lon="3.719054313808307"><ele>2.0</ele><time>2026-04-03T09:43:03Z</time></trkpt><trkpt lat="43.415610377532595" lon="3.7189628597783475"><ele>2.0</ele><time>2026-04-03T09:43:18Z</time></trkpt><trkpt lat="43.41557422880026" lon="3.718885772808331"><ele>1.9999999999999998</ele><time>2026-04-03T09:43:22Z</time></trkpt><trkpt lat="43.41553459239699" lon="3.718796303196298"><ele>2.0</ele><time>2026-04-03T09:43:27Z</time></trkpt><trkpt lat="43.41548461649602" lon="3.718695059670303"><ele>2.0</ele><time>2026-04-03T09:43:31Z</time></trkpt><trkpt lat="43.415433285447776" lon="3.7185914957172"><ele>2.0</ele><time>2026-04-03T09:43:34Z</time></trkpt><trkpt lat="43.41539736514309" lon="3.718513129759751"><ele>1.9999999999999998</ele><time>2026-04-03T09:43:36Z</time></trkpt><trkpt lat="43.415359299048525" lon="3.7184362843152208"><ele>2.0</ele><time>2026-04-03T09:43:38Z</time></trkpt><trkpt lat="43.41532447674509" lon="3.7183622964667884"><ele>1.9999999999999998</ele><time>2026-04-03T09:43:40Z</time></trkpt><trkpt lat="43.41527617673907" lon="3.7182661611702703"><ele>2.0</ele><time>2026-04-03T09:43:43Z</time></trkpt><trkpt lat="43.41523388717095" lon="3.718170494956567"><ele>2.0</ele><time>2026-04-03T09:43:46Z</time></trkpt><trkpt lat="43.415183148938084" lon="3.7180687282956026"><ele>2.0</ele><time>2026-04-03T09:43:49Z</time></trkpt><trkpt lat="43.41514184647101" lon="3.71797447631062"><ele>1.9999999999999998</ele><time>2026-04-03T09:43:54Z</time></trkpt><trkpt lat="43.4151023357956" lon="3.7178886532680835"><ele>2.0</ele><time>2026-04-03T09:43:57Z</time></trkpt><trkpt lat="43.41506640183811" lon="3.7178073420470716"><ele>2.333333333333333</ele><time>2026-04-03T09:43:59Z</time></trkpt><trkpt lat="43.41503120285274" lon="3.717728729560461"><ele>2.6666666666666665</ele><time>2026-04-03T09:44:01Z</time></trkpt><trkpt lat="43.41498546892879" lon="3.717626370933004"><ele>3.0</ele><time>2026-04-03T09:44:04Z</time></trkpt><trkpt lat="43.41493153295276" lon="3.7175071960774946"><ele>3.333333333333333</ele><time>2026-04-03T09:44:08Z</time></trkpt><trkpt lat="43.41488965191255" lon="3.717415991410991"><ele>3.6666666666666665</ele><time>2026-04-03T09:44:10Z</time></trkpt><trkpt lat="43.41483869652542" lon="3.7173084845529516"><ele>4.0</ele><time>2026-04-03T09:44:12Z</time></trkpt><trkpt lat="43.414798471136706" lon="3.717227904096868"><ele>3.9999999999999996</ele><time>2026-04-03T09:44:14Z</time></trkpt><trkpt lat="43.4147587245135" lon="3.7171537406202115"><ele>4.0</ele><time>2026-04-03T09:44:16Z</time></trkpt><trkpt lat="43.41470276917314" lon="3.7170649281596657"><ele>4.0</ele><time>2026-04-03T09:44:18Z</time></trkpt><trkpt lat="43.4146454799253" lon="3.7169851827169165"><ele>4.0</ele><time>2026-04-03T09:44:20Z</time></trkpt><trkpt lat="43.41459840381892" lon="3.7168827397915223"><ele>3.9999999999999996</ele><time>2026-04-03T09:44:22Z</time></trkpt><trkpt lat="43.4145675974254" lon="3.7167552872352774"><ele>4.0</ele><time>2026-04-03T09:44:24Z</time></trkpt><trkpt lat="43.41447667038103" lon="3.7166901767100766"><ele>3.4000000000000004</ele><time>2026-04-03T09:44:26Z</time></trkpt><trkpt lat="43.41440062632612" lon="3.7166987574329142"><ele>2.8000000000000003</ele><time>2026-04-03T09:44:28Z</time></trkpt><trkpt lat="43.41436870725301" lon="3.7167825587036627"><ele>2.2</ele><time>2026-04-03T09:44:29Z</time></trkpt><trkpt lat="43.41436980394317" lon="3.7169170218415037"><ele>1.6</ele><time>2026-04-03T09:44:31Z</time></trkpt><trkpt lat="43.41444657633243" lon="3.717004647286499"><ele>1.0</ele><time>2026-04-03T09:44:33Z</time></trkpt><trkpt lat="43.41455516066092" lon="3.717070898490616"><ele>1.0</ele><time>2026-04-03T09:44:35Z</time></trkpt><trkpt lat="43.41461743052728" lon="3.7171486442432653"><ele>1.0</ele><time>2026-04-03T09:44:36Z</time></trkpt><trkpt lat="43.4146843229118" lon="3.7172419388310534"><ele>1.0</ele><time>2026-04-03T09:44:37Z</time></trkpt><trkpt lat="43.41474672642267" lon="3.7173376920184"><ele>1.0</ele><time>2026-04-03T09:44:38Z</time></trkpt><trkpt lat="43.414813529276486" lon="3.7174567038880526"><ele>1.0</ele><time>2026-04-03T09:44:39Z</time></trkpt><trkpt lat="43.41487788580442" lon="3.7175928441128003"><ele>1.25</ele><time>2026-04-03T09:44:40Z</time></trkpt><trkpt lat="43.41494463069453" lon="3.717737780712315"><ele>1.5</ele><time>2026-04-03T09:44:41Z</time></trkpt><trkpt lat="43.41501231439709" lon="3.717888304257796"><ele>1.75</ele><time>2026-04-03T09:44:42Z</time></trkpt><trkpt lat="43.415082207697324" lon="3.718041297917625"><ele>2.0</ele><time>2026-04-03T09:44:43Z</time></trkpt><trkpt lat="43.41515145388272" lon="3.7181920434069875"><ele>2.0</ele><time>2026-04-03T09:44:44Z</time></trkpt><trkpt lat="43.41522256589349" lon="3.7183506136662277"><ele>2.0</ele><time>2026-04-03T09:44:45Z</time></trkpt><trkpt lat="43.41529511994983" lon="3.7185099985865446"><ele>2.0</ele><time>2026-04-03T09:44:46Z</time></trkpt><trkpt lat="43.41536779549916" lon="3.718669659611735"><ele>2.0</ele><time>2026-04-03T09:44:47Z</time></trkpt><trkpt lat="43.41544278340967" lon="3.7188309911170805"><ele>2.0</ele><time>2026-04-03T09:44:48Z</time></trkpt><trkpt lat="43.415516492555874" lon="3.7189923894790278"><ele>2.0</ele><time>2026-04-03T09:44:49Z</time></trkpt><trkpt lat="43.41559127062867" lon="3.71915532607911"><ele>2.0</ele><time>2026-04-03T09:44:50Z</time></trkpt><trkpt lat="43.41566477234842" lon="3.719320302023194"><ele>2.0</ele><time>2026-04-03T09:44:51Z</time></trkpt><trkpt lat="43.415742133810795" lon="3.719489927901157"><ele>2.0</ele><time>2026-04-03T09:44:52Z</time></trkpt><trkpt lat="43.41582068614867" lon="3.7196616481630027"><ele>2.0</ele><time>2026-04-03T09:44:53Z</time></trkpt><trkpt lat="43.41589673656729" lon="3.7198346620489446"><ele>2.0</ele><time>2026-04-03T09:44:54Z</time></trkpt><trkpt lat="43.4159759277802" lon="3.7200064165560365"><ele>2.0</ele><time>2026-04-03T09:44:55Z</time></trkpt><trkpt lat="43.41605661659251" lon="3.720175117080075"><ele>2.0</ele><time>2026-04-03T09:44:56Z</time></trkpt><trkpt lat="43.416137098120664" lon="3.720347446376521"><ele>2.0</ele><time>2026-04-03T09:44:57Z</time></trkpt><trkpt lat="43.41621805065621" lon="3.7205204390503623"><ele>2.0</ele><time>2026-04-03T09:44:58Z</time></trkpt><trkpt lat="43.41629777626987" lon="3.720695880952888"><ele>2.0</ele><time>2026-04-03T09:44:59Z</time></trkpt><trkpt lat="43.41637555045965" lon="3.720870415981072"><ele>2.0</ele><time>2026-04-03T09:45:00Z</time></trkpt><trkpt lat="43.41645569184458" lon="3.721045710741361"><ele>2.0</ele><time>2026-04-03T09:45:01Z</time></trkpt><trkpt lat="43.416535336148755" lon="3.7212218475906447"><ele>2.0</ele><time>2026-04-03T09:45:02Z</time></trkpt><trkpt lat="43.41661428719353" lon="3.721399377962307"><ele>2.0</ele><time>2026-04-03T09:45:03Z</time></trkpt><trkpt lat="43.41669362354116" lon="3.7215737791453556"><ele>2.0</ele><time>2026-04-03T09:45:04Z</time></trkpt><trkpt lat="43.41677429742479" lon="3.721751337142579"><ele>2.0</ele><time>2026-04-03T09:45:05Z</time></trkpt><trkpt lat="43.416852631000054" lon="3.72192628747612"><ele>1.5</ele><time>2026-04-03T09:45:06Z</time></trkpt><trkpt lat="43.41693144589541" lon="3.7220995205111858"><ele>1.0</ele><time>2026-04-03T09:45:07Z</time></trkpt><trkpt lat="43.41700683551633" lon="3.722273059978978"><ele>0.5</ele><time>2026-04-03T09:45:08Z</time></trkpt><trkpt lat="43.41708394366575" lon="3.7224443536369125"><ele>0.0</ele><time>2026-04-03T09:45:09Z</time></trkpt><trkpt lat="43.417155706324515" lon="3.7226108962152793"><ele>1.0</ele><time>2026-04-03T09:45:10Z</time></trkpt><trkpt lat="43.41722056723032" lon="3.722763574599312"><ele>2.0</ele><time>2026-04-03T09:45:11Z</time></trkpt><trkpt lat="43.41728007967762" lon="3.7229069253270306"><ele>3.0</ele><time>2026-04-03T09:45:12Z</time></trkpt><trkpt lat="43.41732497807914" lon="3.723049580623293"><ele>4.0</ele><time>2026-04-03T09:45:13Z</time></trkpt><trkpt lat="43.41735842915901" lon="3.723196476327856"><ele>4.0</ele><time>2026-04-03T09:45:14Z</time></trkpt><trkpt lat="43.417376699629024" lon="3.723345999330098"><ele>4.0</ele><time>2026-04-03T09:45:15Z</time></trkpt><trkpt lat="43.417374518685655" lon="3.723497129194444"><ele>4.0</ele><time>2026-04-03T09:45:16Z</time></trkpt><trkpt lat="43.417358539962294" lon="3.7236467996390314"><ele>4.0</ele><time>2026-04-03T09:45:17Z</time></trkpt><trkpt lat="43.417333218074624" lon="3.723786103141426"><ele>4.0</ele><time>2026-04-03T09:45:18Z</time></trkpt><trkpt lat="43.4172996268957" lon="3.7239044963347294"><ele>4.0</ele><time>2026-04-03T09:45:19Z</time></trkpt><trkpt lat="43.41725371711529" lon="3.724010380453728"><ele>4.0</ele><time>2026-04-03T09:45:20Z</time></trkpt><trkpt lat="43.41719054241035" lon="3.7241054082876297"><ele>4.0</ele><time>2026-04-03T09:45:21Z</time></trkpt><trkpt lat="43.41711330847492" lon="3.7241775178020746"><ele>4.0</ele><time>2026-04-03T09:45:22Z</time></trkpt><trkpt lat="43.41702413894897" lon="3.7242238950268507"><ele>4.0</ele><time>2026-04-03T09:45:23Z</time></trkpt><trkpt lat="43.416926917574955" lon="3.7242549537567027"><ele>3.9999999999999996</ele><time>2026-04-03T09:45:24Z</time></trkpt><trkpt lat="43.416828575232394" lon="3.7242901699515607"><ele>4.0</ele><time>2026-04-03T09:45:25Z</time></trkpt><trkpt lat="43.41673449929636" lon="3.7243259468022063"><ele>4.0</ele><time>2026-04-03T09:45:26Z</time></trkpt><trkpt lat="43.41664876491212" lon="3.724354146601614"><ele>4.0</ele><time>2026-04-03T09:45:27Z</time></trkpt><trkpt lat="43.416569228181004" lon="3.724370261031804"><ele>3.9999999999999996</ele><time>2026-04-03T09:45:28Z</time></trkpt><trkpt lat="43.41648914167941" lon="3.7243633589513534"><ele>4.0</ele><time>2026-04-03T09:45:29Z</time></trkpt><trkpt lat="43.416411155735474" lon="3.724332139679879"><ele>3.9999999999999996</ele><time>2026-04-03T09:45:30Z</time></trkpt><trkpt lat="43.41633748985473" lon="3.7242795035608056"><ele>4.0</ele><time>2026-04-03T09:45:31Z</time></trkpt><trkpt lat="43.416273366072005" lon="3.7242084572518435"><ele>4.0</ele><time>2026-04-03T09:45:32Z</time></trkpt><trkpt lat="43.41624854292968" lon="3.724092618094777"><ele>4.0</ele><time>2026-04-03T09:45:33Z</time></trkpt><trkpt lat="43.41622341615343" lon="3.7239831459893837"><ele>3.9999999999999996</ele><time>2026-04-03T09:45:34Z</time></trkpt><trkpt lat="43.41620902088142" lon="3.7238710948204603"><ele>4.0</ele><time>2026-04-03T09:45:35Z</time></trkpt><trkpt lat="43.41619373826032" lon="3.723772611762379"><ele>3.6666666666666665</ele><time>2026-04-03T09:45:36Z</time></trkpt><trkpt lat="43.41615814092583" lon="3.7236895129699463"><ele>3.333333333333333</ele><time>2026-04-03T09:45:37Z</time></trkpt><trkpt lat="43.41611911129793" lon="3.7235537142163415"><ele>3.0</ele><time>2026-04-03T09:45:39Z</time></trkpt><trkpt lat="43.416039953927914" lon="3.723527804260155"><ele>2.6666666666666665</ele><time>2026-04-03T09:45:41Z</time></trkpt><trkpt lat="43.415952560538464" lon="3.7236048232549366"><ele>2.333333333333333</ele><time>2026-04-03T09:45:43Z</time></trkpt><trkpt lat="43.41590124089858" lon="3.723666318908349"><ele>2.0</ele><time>2026-04-03T09:45:44Z</time></trkpt><trkpt lat="43.415852944609334" lon="3.7237491948035233"><ele>1.8333333333333333</ele><time>2026-04-03T09:45:45Z</time></trkpt><trkpt lat="43.41582170693027" lon="3.723848768360061"><ele>1.6666666666666665</ele><time>2026-04-03T09:45:46Z</time></trkpt><trkpt lat="43.415822923848914" lon="3.723953507653565"><ele>1.5</ele><time>2026-04-03T09:45:47Z</time></trkpt><trkpt lat="43.41584037441946" lon="3.724057789988651"><ele>1.3333333333333333</ele><time>2026-04-03T09:45:48Z</time></trkpt><trkpt lat="43.415868122536324" lon="3.724158388972945"><ele>1.1666666666666665</ele><time>2026-04-03T09:45:49Z</time></trkpt><trkpt lat="43.41589233283944" lon="3.7242455200273388"><ele>1.0</ele><time>2026-04-03T09:45:50Z</time></trkpt><trkpt lat="43.415917679363126" lon="3.724391750927937"><ele>1.25</ele><time>2026-04-03T09:45:52Z</time></trkpt><trkpt lat="43.41590311643015" lon="3.724535533423599"><ele>1.5</ele><time>2026-04-03T09:45:54Z</time></trkpt><trkpt lat="43.415860951005726" lon="3.724673085221569"><ele>1.75</ele><time>2026-04-03T09:45:56Z</time></trkpt><trkpt lat="43.41580605516813" lon="3.724791718816165"><ele>2.0</ele><time>2026-04-03T09:45:58Z</time></trkpt><trkpt lat="43.41588291639808" lon="3.7250086843481385"><ele>1.9999999999999998</ele><time>2026-04-03T09:46:00Z</time></trkpt><trkpt lat="43.41591125358638" lon="3.7250990469795564"><ele>2.0</ele><time>2026-04-03T09:46:01Z</time></trkpt><trkpt lat="43.41595344893426" lon="3.7251878529108926"><ele>2.0</ele><time>2026-04-03T09:46:02Z</time></trkpt><trkpt lat="43.41600905529413" lon="3.7252744471175347"><ele>2.0</ele><time>2026-04-03T09:46:03Z</time></trkpt><trkpt lat="43.416075093612655" lon="3.7253650711483695"><ele>1.9999999999999998</ele><time>2026-04-03T09:46:04Z</time></trkpt><trkpt lat="43.41614079278886" lon="3.725458461958007"><ele>2.0</ele><time>2026-04-03T09:46:05Z</time></trkpt><trkpt lat="43.41620527483729" lon="3.7255525286099833"><ele>1.8</ele><time>2026-04-03T09:46:06Z</time></trkpt><trkpt lat="43.41627112088503" lon="3.725642220886282"><ele>1.6</ele><time>2026-04-03T09:46:07Z</time></trkpt><trkpt lat="43.4163403209178" lon="3.725722939745969"><ele>1.4000000000000001</ele><time>2026-04-03T09:46:08Z</time></trkpt><trkpt lat="43.41641666264569" lon="3.725798518105075"><ele>1.2000000000000002</ele><time>2026-04-03T09:46:09Z</time></trkpt><trkpt lat="43.416492381420035" lon="3.7258744827894685"><ele>1.0</ele><time>2026-04-03T09:46:10Z</time></trkpt><trkpt lat="43.41656403164359" lon="3.725965784834207"><ele>1.0</ele><time>2026-04-03T09:46:11Z</time></trkpt><trkpt lat="43.416629995708924" lon="3.7260612867622402"><ele>1.0</ele><time>2026-04-03T09:46:12Z</time></trkpt><trkpt lat="43.41669245381151" lon="3.7261608875949195"><ele>1.0</ele><time>2026-04-03T09:46:13Z</time></trkpt><trkpt lat="43.41674556977423" lon="3.72626763875227"><ele>1.0</ele><time>2026-04-03T09:46:14Z</time></trkpt><trkpt lat="43.41679742926285" lon="3.7263703163931483"><ele>1.0</ele><time>2026-04-03T09:46:15Z</time></trkpt><trkpt lat="43.416845840211494" lon="3.7264669570679017"><ele>0.9999999999999999</ele><time>2026-04-03T09:46:16Z</time></trkpt><trkpt lat="43.41689154726376" lon="3.726554400909523"><ele>1.0</ele><time>2026-04-03T09:46:17Z</time></trkpt><trkpt lat="43.41693430535079" lon="3.7266340592971576"><ele>1.0</ele><time>2026-04-03T09:46:18Z</time></trkpt><trkpt lat="43.41697429233979" lon="3.7267051880849373"><ele>1.0</ele><time>2026-04-03T09:46:19Z</time></trkpt><trkpt lat="43.41701231694484" lon="3.7267757110312605"><ele>0.9999999999999999</ele><time>2026-04-03T09:46:20Z</time></trkpt><trkpt lat="43.41703259761014" lon="3.7269039991964745"><ele>1.0</ele><time>2026-04-03T09:46:22Z</time></trkpt><trkpt lat="43.41697434020891" lon="3.726998400470649"><ele>0.8333333333333333</ele><time>2026-04-03T09:46:24Z</time></trkpt><trkpt lat="43.41690480771043" lon="3.7270598438886506"><ele>0.6666666666666666</ele><time>2026-04-03T09:46:26Z</time></trkpt><trkpt lat="43.41687289719558" lon="3.7271408775903603"><ele>0.5</ele><time>2026-04-03T09:46:28Z</time></trkpt><trkpt lat="43.41690912837691" lon="3.7272351179559142"><ele>0.3333333333333333</ele><time>2026-04-03T09:46:30Z</time></trkpt><trkpt lat="43.4169729599929" lon="3.7273363816963223"><ele>0.16666666666666666</ele><time>2026-04-03T09:46:32Z</time></trkpt><trkpt lat="43.41705742718325" lon="3.7274305230591565"><ele>0.0</ele><time>2026-04-03T09:46:34Z</time></trkpt><trkpt lat="43.41714387033075" lon="3.7275372869808385"><ele>0.0</ele><time>2026-04-03T09:46:36Z</time></trkpt><trkpt lat="43.417236553976494" lon="3.727648711751495"><ele>0.0</ele><time>2026-04-03T09:46:38Z</time></trkpt><trkpt lat="43.417327554476294" lon="3.727755879768115"><ele>0.0</ele><time>2026-04-03T09:46:40Z</time></trkpt><trkpt lat="43.417403177958946" lon="3.7278609181580533"><ele>0.0</ele><time>2026-04-03T09:46:42Z</time></trkpt><trkpt lat="43.41746509421614" lon="3.727957136331458"><ele>0.0</ele><time>2026-04-03T09:46:44Z</time></trkpt><trkpt lat="43.41750905215433" lon="3.7280499801647413"><ele>0.0</ele><time>2026-04-03T09:46:46Z</time></trkpt><trkpt lat="43.41754306196969" lon="3.728136322711479"><ele>0.0</ele><time>2026-04-03T09:46:48Z</time></trkpt><trkpt lat="43.41751503448365" lon="3.728233882142206"><ele>0.0</ele><time>2026-04-03T09:46:50Z</time></trkpt><trkpt lat="43.41741891890872" lon="3.72828823461441"><ele>0.0</ele><time>2026-04-03T09:46:52Z</time></trkpt><trkpt lat="43.4173102889595" lon="3.7283490577176037"><ele>0.0</ele><time>2026-04-03T09:46:54Z</time></trkpt><trkpt lat="43.4172511580327" lon="3.728384050621641"><ele>0.0</ele><time>2026-04-03T09:46:55Z</time></trkpt><trkpt lat="43.4171367654584" lon="3.728457811983763"><ele>0.0</ele><time>2026-04-03T09:46:57Z</time></trkpt><trkpt lat="43.4170261567031" lon="3.7285282382357092"><ele>0.0</ele><time>2026-04-03T09:46:59Z</time></trkpt><trkpt lat="43.41691406983849" lon="3.7285970839740123"><ele>0.0</ele><time>2026-04-03T09:47:01Z</time></trkpt><trkpt lat="43.41681535092534" lon="3.7286581399616945"><ele>0.0</ele><time>2026-04-03T09:47:03Z</time></trkpt><trkpt lat="43.41674849564087" lon="3.7287356853109244"><ele>0.0</ele><time>2026-04-03T09:47:05Z</time></trkpt><trkpt lat="43.416736538448475" lon="3.7288421408159214"><ele>0.0</ele><time>2026-04-03T09:47:07Z</time></trkpt><trkpt lat="43.41677300026836" lon="3.728955046669935"><ele>0.0</ele><time>2026-04-03T09:47:09Z</time></trkpt><trkpt lat="43.416807241600836" lon="3.7290519978768453"><ele>0.0</ele><time>2026-04-03T09:47:11Z</time></trkpt><trkpt lat="43.41683731464502" lon="3.7291330216354956"><ele>0.0</ele><time>2026-04-03T09:47:19Z</time></trkpt><trkpt lat="43.416878584312464" lon="3.729214551565017"><ele>0.0</ele><time>2026-04-03T09:47:22Z</time></trkpt><trkpt lat="43.41695904298457" lon="3.7291656313023456"><ele>0.0</ele><time>2026-04-03T09:47:44Z</time></trkpt><trkpt lat="43.41689478884831" lon="3.7291378266946653"><ele>0.0</ele><time>2026-04-03T09:48:58Z</time></trkpt><trkpt lat="43.416849171753945" lon="3.72906902456879"><ele>0.0</ele><time>2026-04-03T09:49:08Z</time></trkpt><trkpt lat="43.41682496429239" lon="3.7289864224051965"><ele>0.0</ele><time>2026-04-03T09:49:15Z</time></trkpt><trkpt lat="43.416803496837886" lon="3.7289006991711102"><ele>0.0</ele><time>2026-04-03T09:49:22Z</time></trkpt><trkpt lat="43.41677474815569" lon="3.7288134393246404"><ele>0.0</ele><time>2026-04-03T09:49:28Z</time></trkpt><trkpt lat="43.41671456316917" lon="3.7287846050199436"><ele>0.0</ele><time>2026-04-03T09:49:35Z</time></trkpt><trkpt lat="43.416642858023835" lon="3.7287802972253146"><ele>0.0</ele><time>2026-04-03T09:49:40Z</time></trkpt><trkpt lat="43.416571178379" lon="3.728800610919907"><ele>0.0</ele><time>2026-04-03T09:49:46Z</time></trkpt><trkpt lat="43.41650297326669" lon="3.7288300410333015"><ele>0.0</ele><time>2026-04-03T09:49:53Z</time></trkpt><trkpt lat="43.416438298069345" lon="3.72883208546928"><ele>0.0</ele><time>2026-04-03T09:49:58Z</time></trkpt><trkpt lat="43.41641123000394" lon="3.7287363903363624"><ele>0.0</ele><time>2026-04-03T09:50:03Z</time></trkpt></trkseg></trk></gpx>